<?xml version='1.0' encoding='UTF-8'?><gpx version="1.1" creator="JPX - https://github.com/jenetics/jpx" xmlns="http://www.topografix.com/GPX/1/1"><trk><trkseg><trkpt lat="33.9133111" lon="8.1278032"><ele>48.0</ele><time>2026-04-12T07:17:19.951Z</time></trkpt><trkpt lat="33.9132814" lon="8.1278728"><ele>48.0</ele><time>2026-04-12T07:17:23.951Z</time></trkpt><trkpt lat="33.9132478" lon="8.1279444"><ele>48.0</ele><time>2026-04-12T07:17:51.951Z</time></trkpt><trkpt lat="33.9132108" lon="8.1280107"><ele>48.0</ele><time>2026-04-12T07:17:53.952Z</time></trkpt><trkpt lat="33.9132017" lon="8.128116"><ele>48.0</ele><time>2026-04-12T07:17:56.958Z</time></trkpt><trkpt lat="33.9132371" lon="8.1282277"><ele>48.0</ele><time>2026-04-12T07:17:59.959Z</time></trkpt><trkpt lat="33.9132616" lon="8.1283119"><ele>48.0</ele><time>2026-04-12T07:18:01.954Z</time></trkpt><trkpt lat="33.9132897" lon="8.128406"><ele>48.0</ele><time>2026-04-12T07:18:03.945Z</time></trkpt><trkpt lat="33.9133523" lon="8.1285157"><ele>48.0</ele><time>2026-04-12T07:18:05.959Z</time></trkpt><trkpt lat="33.9134173" lon="8.1286307"><ele>48.0</ele><time>2026-04-12T07:18:07.945Z</time></trkpt><trkpt lat="33.9134716" lon="8.1287456"><ele>48.0</ele><time>2026-04-12T07:18:09.938Z</time></trkpt><trkpt lat="33.9134916" lon="8.1288403"><ele>48.166666666666664</ele><time>2026-04-12T07:18:11.94Z</time></trkpt><trkpt lat="33.9135193" lon="8.1289591"><ele>48.33333333333333</ele><time>2026-04-12T07:18:14.941Z</time></trkpt><trkpt lat="33.9135574" lon="8.1290485"><ele>48.5</ele><time>2026-04-12T07:18:17.964Z</time></trkpt><trkpt lat="33.9135979" lon="8.1291067"><ele>48.666666666666664</ele><time>2026-04-12T07:18:19.952Z</time></trkpt><trkpt lat="33.913645" lon="8.1291825"><ele>48.83333333333333</ele><time>2026-04-12T07:18:22.966Z</time></trkpt><trkpt lat="33.9136631" lon="8.1292586"><ele>49.0</ele><time>2026-04-12T07:18:25.958Z</time></trkpt><trkpt lat="33.9136908" lon="8.1293312"><ele>48.99999999999999</ele><time>2026-04-12T07:21:44.961Z</time></trkpt><trkpt lat="33.9137573" lon="8.1293292"><ele>49.0</ele><time>2026-04-12T07:21:47.961Z</time></trkpt><trkpt lat="33.9138533" lon="8.129274"><ele>49.0</ele><time>2026-04-12T07:21:49.951Z</time></trkpt><trkpt lat="33.9139152" lon="8.1292335"><ele>49.0</ele><time>2026-04-12T07:21:50.959Z</time></trkpt><trkpt lat="33.9139964" lon="8.1291748"><ele>48.99999999999999</ele><time>2026-04-12T07:21:51.964Z</time></trkpt><trkpt lat="33.9140797" lon="8.1291202"><ele>49.0</ele><time>2026-04-12T07:21:52.96Z</time></trkpt><trkpt lat="33.9141463" lon="8.1290604"><ele>48.99999999999999</ele><time>2026-04-12T07:21:53.958Z</time></trkpt><trkpt lat="33.9142187" lon="8.128996"><ele>49.0</ele><time>2026-04-12T07:21:54.963Z</time></trkpt><trkpt lat="33.9142837" lon="8.1289251"><ele>49.0</ele><time>2026-04-12T07:21:55.964Z</time></trkpt><trkpt lat="33.9143329" lon="8.1288568"><ele>49.0</ele><time>2026-04-12T07:21:56.963Z</time></trkpt><trkpt lat="33.9143946" lon="8.1287308"><ele>48.99999999999999</ele><time>2026-04-12T07:21:58.955Z</time></trkpt><trkpt lat="33.9144081" lon="8.1286565"><ele>49.0</ele><time>2026-04-12T07:21:59.96Z</time></trkpt><trkpt lat="33.9144233" lon="8.1285364"><ele>49.0</ele><time>2026-04-12T07:22:01.952Z</time></trkpt><trkpt lat="33.9144759" lon="8.1284669"><ele>49.0</ele><time>2026-04-12T07:22:03.95Z</time></trkpt><trkpt lat="33.9145855" lon="8.1284105"><ele>49.0</ele><time>2026-04-12T07:22:05.957Z</time></trkpt><trkpt lat="33.9146901" lon="8.1283776"><ele>49.0</ele><time>2026-04-12T07:22:07.961Z</time></trkpt><trkpt lat="33.9147691" lon="8.1283444"><ele>49.0</ele><time>2026-04-12T07:22:09.975Z</time></trkpt><trkpt lat="33.9147651" lon="8.1282661"><ele>48.83333333333333</ele><time>2026-04-12T07:22:14.976Z</time></trkpt><trkpt lat="33.914743" lon="8.1281736"><ele>48.666666666666664</ele><time>2026-04-12T07:22:16.962Z</time></trkpt><trkpt lat="33.9147166" lon="8.1280935"><ele>48.5</ele><time>2026-04-12T07:22:17.954Z</time></trkpt><trkpt lat="33.9146814" lon="8.1279942"><ele>48.33333333333333</ele><time>2026-04-12T07:22:18.958Z</time></trkpt><trkpt lat="33.9146427" lon="8.1278911"><ele>48.166666666666664</ele><time>2026-04-12T07:22:19.955Z</time></trkpt><trkpt lat="33.9146062" lon="8.127788"><ele>48.0</ele><time>2026-04-12T07:22:20.961Z</time></trkpt><trkpt lat="33.9145677" lon="8.1276832"><ele>48.0</ele><time>2026-04-12T07:22:21.962Z</time></trkpt><trkpt lat="33.9145363" lon="8.1275839"><ele>48.0</ele><time>2026-04-12T07:22:22.96Z</time></trkpt><trkpt lat="33.9145109" lon="8.1274859"><ele>48.0</ele><time>2026-04-12T07:22:23.955Z</time></trkpt><trkpt lat="33.9144901" lon="8.1273998"><ele>48.0</ele><time>2026-04-12T07:22:24.958Z</time></trkpt><trkpt lat="33.9144628" lon="8.1272607"><ele>48.0</ele><time>2026-04-12T07:22:26.961Z</time></trkpt><trkpt lat="33.9144514" lon="8.1271064"><ele>48.0</ele><time>2026-04-12T07:22:28.97Z</time></trkpt><trkpt lat="33.9144455" lon="8.1270238"><ele>48.0</ele><time>2026-04-12T07:22:29.966Z</time></trkpt><trkpt lat="33.9144415" lon="8.12693"><ele>48.0</ele><time>2026-04-12T07:22:30.973Z</time></trkpt><trkpt lat="33.9144342" lon="8.126842"><ele>48.0</ele><time>2026-04-12T07:22:31.97Z</time></trkpt><trkpt lat="33.9144208" lon="8.1267398"><ele>48.0</ele><time>2026-04-12T07:22:32.97Z</time></trkpt><trkpt lat="33.9144067" lon="8.1266429"><ele>48.0</ele><time>2026-04-12T07:22:33.974Z</time></trkpt><trkpt lat="33.914403" lon="8.126538"><ele>48.0</ele><time>2026-04-12T07:22:34.976Z</time></trkpt><trkpt lat="33.9143986" lon="8.1264214"><ele>48.0</ele><time>2026-04-12T07:22:35.983Z</time></trkpt><trkpt lat="33.9143915" lon="8.1263124"><ele>48.0</ele><time>2026-04-12T07:22:36.977Z</time></trkpt><trkpt lat="33.9143811" lon="8.1262041"><ele>48.0</ele><time>2026-04-12T07:22:37.973Z</time></trkpt><trkpt lat="33.9143744" lon="8.1260956"><ele>48.0</ele><time>2026-04-12T07:22:38.967Z</time></trkpt><trkpt lat="33.9143705" lon="8.1259894"><ele>48.0</ele><time>2026-04-12T07:22:39.966Z</time></trkpt><trkpt lat="33.9143623" lon="8.1258708"><ele>48.0</ele><time>2026-04-12T07:22:40.962Z</time></trkpt><trkpt lat="33.9143633" lon="8.1257482"><ele>48.0</ele><time>2026-04-12T07:22:41.968Z</time></trkpt><trkpt lat="33.9143694" lon="8.1256273"><ele>48.0</ele><time>2026-04-12T07:22:42.969Z</time></trkpt><trkpt lat="33.9143816" lon="8.125507"><ele>48.0</ele><time>2026-04-12T07:22:43.984Z</time></trkpt><trkpt lat="33.9143875" lon="8.1253783"><ele>48.0</ele><time>2026-04-12T07:22:44.973Z</time></trkpt><trkpt lat="33.9143969" lon="8.1252566"><ele>48.0</ele><time>2026-04-12T07:22:45.971Z</time></trkpt><trkpt lat="33.914411" lon="8.1251514"><ele>48.0</ele><time>2026-04-12T07:22:46.972Z</time></trkpt><trkpt lat="33.9144167" lon="8.1250435"><ele>48.0</ele><time>2026-04-12T07:22:47.972Z</time></trkpt><trkpt lat="33.9144193" lon="8.1249281"><ele>48.0</ele><time>2026-04-12T07:22:48.974Z</time></trkpt><trkpt lat="33.914412" lon="8.1248029"><ele>48.4</ele><time>2026-04-12T07:22:49.97Z</time></trkpt><trkpt lat="33.91438" lon="8.1246817"><ele>48.8</ele><time>2026-04-12T07:22:50.964Z</time></trkpt><trkpt lat="33.914341" lon="8.1245664"><ele>49.2</ele><time>2026-04-12T07:22:51.964Z</time></trkpt><trkpt lat="33.9142938" lon="8.1244832"><ele>49.6</ele><time>2026-04-12T07:22:52.963Z</time></trkpt><trkpt lat="33.9142611" lon="8.1244014"><ele>50.0</ele><time>2026-04-12T07:22:53.958Z</time></trkpt><trkpt lat="33.9142195" lon="8.1243064"><ele>50.0</ele><time>2026-04-12T07:22:54.963Z</time></trkpt><trkpt lat="33.9141733" lon="8.1242067"><ele>50.0</ele><time>2026-04-12T07:22:55.961Z</time></trkpt><trkpt lat="33.9141169" lon="8.1241022"><ele>50.0</ele><time>2026-04-12T07:22:56.966Z</time></trkpt><trkpt lat="33.9140749" lon="8.124008"><ele>50.0</ele><time>2026-04-12T07:22:57.96Z</time></trkpt><trkpt lat="33.9140232" lon="8.1239038"><ele>50.0</ele><time>2026-04-12T07:22:58.96Z</time></trkpt><trkpt lat="33.913977" lon="8.1237908"><ele>50.4</ele><time>2026-04-12T07:22:59.96Z</time></trkpt><trkpt lat="33.9139281" lon="8.1236788"><ele>50.8</ele><time>2026-04-12T07:23:00.971Z</time></trkpt><trkpt lat="33.9138788" lon="8.1235659"><ele>51.2</ele><time>2026-04-12T07:23:01.967Z</time></trkpt><trkpt lat="33.913828" lon="8.1234451"><ele>51.6</ele><time>2026-04-12T07:23:03.036Z</time></trkpt><trkpt lat="33.9137784" lon="8.1233253"><ele>52.0</ele><time>2026-04-12T07:23:04.04Z</time></trkpt><trkpt lat="33.9137303" lon="8.1232041"><ele>52.6</ele><time>2026-04-12T07:23:05.038Z</time></trkpt><trkpt lat="33.9136838" lon="8.1230839"><ele>53.2</ele><time>2026-04-12T07:23:06.033Z</time></trkpt><trkpt lat="33.913641" lon="8.1229664"><ele>53.8</ele><time>2026-04-12T07:23:07.037Z</time></trkpt><trkpt lat="33.9135964" lon="8.1228444"><ele>54.4</ele><time>2026-04-12T07:23:08.032Z</time></trkpt><trkpt lat="33.9135516" lon="8.1227269"><ele>55.0</ele><time>2026-04-12T07:23:09.029Z</time></trkpt><trkpt lat="33.9135059" lon="8.122607"><ele>55.0</ele><time>2026-04-12T07:23:10.033Z</time></trkpt><trkpt lat="33.9134605" lon="8.1224892"><ele>55.0</ele><time>2026-04-12T07:23:11.03Z</time></trkpt><trkpt lat="33.9134149" lon="8.1223727"><ele>55.0</ele><time>2026-04-12T07:23:12.033Z</time></trkpt><trkpt lat="33.9133678" lon="8.1222566"><ele>55.0</ele><time>2026-04-12T07:23:13.034Z</time></trkpt><trkpt lat="33.9133204" lon="8.1221306"><ele>55.0</ele><time>2026-04-12T07:23:14.037Z</time></trkpt><trkpt lat="33.9132735" lon="8.1220144"><ele>54.8</ele><time>2026-04-12T07:23:15.058Z</time></trkpt><trkpt lat="33.913225" lon="8.121903"><ele>54.6</ele><time>2026-04-12T07:23:16.048Z</time></trkpt><trkpt lat="33.9131785" lon="8.1217886"><ele>54.400000000000006</ele><time>2026-04-12T07:23:17.046Z</time></trkpt><trkpt lat="33.9131327" lon="8.1216739"><ele>54.2</ele><time>2026-04-12T07:23:18.046Z</time></trkpt><trkpt lat="33.9130889" lon="8.1215535"><ele>54.0</ele><time>2026-04-12T07:23:19.046Z</time></trkpt><trkpt lat="33.913046" lon="8.1214273"><ele>54.5</ele><time>2026-04-12T07:23:20.042Z</time></trkpt><trkpt lat="33.9130143" lon="8.1213091"><ele>55.0</ele><time>2026-04-12T07:23:21.043Z</time></trkpt><trkpt lat="33.913003" lon="8.121201"><ele>55.5</ele><time>2026-04-12T07:23:22.041Z</time></trkpt><trkpt lat="33.9130081" lon="8.1211092"><ele>56.0</ele><time>2026-04-12T07:23:23.039Z</time></trkpt><trkpt lat="33.9130408" lon="8.1210424"><ele>56.5</ele><time>2026-04-12T07:23:24.013Z</time></trkpt><trkpt lat="33.913084" lon="8.1209665"><ele>57.0</ele><time>2026-04-12T07:23:25.012Z</time></trkpt><trkpt lat="33.9131386" lon="8.1209033"><ele>57.0</ele><time>2026-04-12T07:23:26.015Z</time></trkpt><trkpt lat="33.9132016" lon="8.1208515"><ele>57.0</ele><time>2026-04-12T07:23:27.019Z</time></trkpt><trkpt lat="33.9132759" lon="8.1207944"><ele>57.0</ele><time>2026-04-12T07:23:28.021Z</time></trkpt><trkpt lat="33.9133616" lon="8.1207418"><ele>57.0</ele><time>2026-04-12T07:23:29.023Z</time></trkpt><trkpt lat="33.9134459" lon="8.1206914"><ele>57.0</ele><time>2026-04-12T07:23:30.015Z</time></trkpt><trkpt lat="33.9135429" lon="8.1206305"><ele>57.0</ele><time>2026-04-12T07:23:31.015Z</time></trkpt><trkpt lat="33.9136321" lon="8.1205688"><ele>57.0</ele><time>2026-04-12T07:23:32.031Z</time></trkpt><trkpt lat="33.9137528" lon="8.1204982"><ele>57.0</ele><time>2026-04-12T07:23:33.038Z</time></trkpt><trkpt lat="33.9138707" lon="8.1204315"><ele>57.0</ele><time>2026-04-12T07:23:34.053Z</time></trkpt><trkpt lat="33.9139748" lon="8.1203719"><ele>57.0</ele><time>2026-04-12T07:23:35.05Z</time></trkpt><trkpt lat="33.9140767" lon="8.120319"><ele>57.0</ele><time>2026-04-12T07:23:36.063Z</time></trkpt><trkpt lat="33.9141841" lon="8.1202631"><ele>57.0</ele><time>2026-04-12T07:23:37.057Z</time></trkpt><trkpt lat="33.9142856" lon="8.1202074"><ele>57.0</ele><time>2026-04-12T07:23:38.064Z</time></trkpt><trkpt lat="33.9143856" lon="8.1201514"><ele>58.0</ele><time>2026-04-12T07:23:39.067Z</time></trkpt><trkpt lat="33.9144847" lon="8.1200943"><ele>59.0</ele><time>2026-04-12T07:23:40.061Z</time></trkpt><trkpt lat="33.9145829" lon="8.1200409"><ele>60.0</ele><time>2026-04-12T07:23:41.064Z</time></trkpt><trkpt lat="33.9146763" lon="8.1199876"><ele>61.0</ele><time>2026-04-12T07:23:42.053Z</time></trkpt><trkpt lat="33.9147686" lon="8.1199218"><ele>62.0</ele><time>2026-04-12T07:23:43.057Z</time></trkpt><trkpt lat="33.9148504" lon="8.1198349"><ele>62.2</ele><time>2026-04-12T07:23:44.046Z</time></trkpt><trkpt lat="33.914918" lon="8.1197282"><ele>62.400000000000006</ele><time>2026-04-12T07:23:45.032Z</time></trkpt><trkpt lat="33.9149743" lon="8.1196198"><ele>62.599999999999994</ele><time>2026-04-12T07:23:46.044Z</time></trkpt><trkpt lat="33.9150179" lon="8.1194964"><ele>62.8</ele><time>2026-04-12T07:23:47.025Z</time></trkpt><trkpt lat="33.9150409" lon="8.1193592"><ele>63.0</ele><time>2026-04-12T07:23:48.026Z</time></trkpt><trkpt lat="33.9150507" lon="8.1192156"><ele>63.0</ele><time>2026-04-12T07:23:49.05Z</time></trkpt><trkpt lat="33.9150534" lon="8.1190742"><ele>63.0</ele><time>2026-04-12T07:23:50.048Z</time></trkpt><trkpt lat="33.9150435" lon="8.1189279"><ele>63.0</ele><time>2026-04-12T07:23:51.033Z</time></trkpt><trkpt lat="33.9150244" lon="8.1187791"><ele>63.0</ele><time>2026-04-12T07:23:52.038Z</time></trkpt><trkpt lat="33.9150019" lon="8.1186289"><ele>63.5</ele><time>2026-04-12T07:23:53.034Z</time></trkpt><trkpt lat="33.9149828" lon="8.1184703"><ele>64.0</ele><time>2026-04-12T07:23:54.038Z</time></trkpt><trkpt lat="33.9149626" lon="8.1183139"><ele>64.5</ele><time>2026-04-12T07:23:55.053Z</time></trkpt><trkpt lat="33.9149422" lon="8.1181521"><ele>65.0</ele><time>2026-04-12T07:23:56.053Z</time></trkpt><trkpt lat="33.9149231" lon="8.117984"><ele>65.5</ele><time>2026-04-12T07:23:57.067Z</time></trkpt><trkpt lat="33.9149049" lon="8.1178155"><ele>66.0</ele><time>2026-04-12T07:23:58.058Z</time></trkpt><trkpt lat="33.9148851" lon="8.1176463"><ele>66.5</ele><time>2026-04-12T07:23:59.061Z</time></trkpt><trkpt lat="33.9148658" lon="8.1174802"><ele>67.0</ele><time>2026-04-12T07:24:00.062Z</time></trkpt><trkpt lat="33.9148506" lon="8.1173194"><ele>68.0</ele><time>2026-04-12T07:24:01.055Z</time></trkpt><trkpt lat="33.9148349" lon="8.1171613"><ele>69.0</ele><time>2026-04-12T07:24:02.054Z</time></trkpt><trkpt lat="33.9148215" lon="8.1170065"><ele>70.0</ele><time>2026-04-12T07:24:03.047Z</time></trkpt><trkpt lat="33.9148089" lon="8.1168534"><ele>71.0</ele><time>2026-04-12T07:24:04.046Z</time></trkpt><trkpt lat="33.9147982" lon="8.1166981"><ele>71.75</ele><time>2026-04-12T07:24:05.046Z</time></trkpt><trkpt lat="33.9147833" lon="8.1165408"><ele>72.5</ele><time>2026-04-12T07:24:06.051Z</time></trkpt><trkpt lat="33.9147701" lon="8.1163814"><ele>73.25</ele><time>2026-04-12T07:24:07.047Z</time></trkpt><trkpt lat="33.9147585" lon="8.1162215"><ele>74.0</ele><time>2026-04-12T07:24:08.048Z</time></trkpt><trkpt lat="33.9147448" lon="8.1160658"><ele>74.0</ele><time>2026-04-12T07:24:09.046Z</time></trkpt><trkpt lat="33.9147295" lon="8.1159136"><ele>74.0</ele><time>2026-04-12T07:24:10.048Z</time></trkpt><trkpt lat="33.9147132" lon="8.1157643"><ele>74.0</ele><time>2026-04-12T07:24:11.047Z</time></trkpt><trkpt lat="33.9146962" lon="8.1156194"><ele>74.0</ele><time>2026-04-12T07:24:12.045Z</time></trkpt><trkpt lat="33.9146784" lon="8.1154817"><ele>75.0</ele><time>2026-04-12T07:24:13.055Z</time></trkpt><trkpt lat="33.91465" lon="8.1153491"><ele>76.0</ele><time>2026-04-12T07:24:14.042Z</time></trkpt><trkpt lat="33.9146024" lon="8.1152291"><ele>77.0</ele><time>2026-04-12T07:24:15.042Z</time></trkpt><trkpt lat="33.9145363" lon="8.1151292"><ele>78.0</ele><time>2026-04-12T07:24:16.029Z</time></trkpt><trkpt lat="33.9144534" lon="8.1150425"><ele>79.0</ele><time>2026-04-12T07:24:17.045Z</time></trkpt><trkpt lat="33.9143544" lon="8.1149621"><ele>79.25</ele><time>2026-04-12T07:24:18.029Z</time></trkpt><trkpt lat="33.914245" lon="8.1148814"><ele>79.5</ele><time>2026-04-12T07:24:19.035Z</time></trkpt><trkpt lat="33.9141238" lon="8.1148035"><ele>79.75</ele><time>2026-04-12T07:24:20.052Z</time></trkpt><trkpt lat="33.9139945" lon="8.1147242"><ele>80.0</ele><time>2026-04-12T07:24:21.049Z</time></trkpt><trkpt lat="33.9138633" lon="8.1146487"><ele>80.0</ele><time>2026-04-12T07:24:22.052Z</time></trkpt><trkpt lat="33.9137353" lon="8.1145724"><ele>80.0</ele><time>2026-04-12T07:24:23.05Z</time></trkpt><trkpt lat="33.9136057" lon="8.1144887"><ele>80.0</ele><time>2026-04-12T07:24:24.043Z</time></trkpt><trkpt lat="33.913488" lon="8.1144129"><ele>80.0</ele><time>2026-04-12T07:24:25.037Z</time></trkpt><trkpt lat="33.9133753" lon="8.1143401"><ele>80.0</ele><time>2026-04-12T07:24:26.048Z</time></trkpt><trkpt lat="33.9132704" lon="8.1142683"><ele>80.0</ele><time>2026-04-12T07:24:27.035Z</time></trkpt><trkpt lat="33.9131779" lon="8.1141924"><ele>80.0</ele><time>2026-04-12T07:24:28.033Z</time></trkpt><trkpt lat="33.9131" lon="8.1141009"><ele>80.0</ele><time>2026-04-12T07:24:29.031Z</time></trkpt><trkpt lat="33.9130437" lon="8.1139888"><ele>80.0</ele><time>2026-04-12T07:24:30.023Z</time></trkpt><trkpt lat="33.9130069" lon="8.1138681"><ele>80.0</ele><time>2026-04-12T07:24:31.023Z</time></trkpt><trkpt lat="33.9129792" lon="8.1137337"><ele>80.0</ele><time>2026-04-12T07:24:32.035Z</time></trkpt><trkpt lat="33.9129695" lon="8.1135942"><ele>80.0</ele><time>2026-04-12T07:24:33.026Z</time></trkpt><trkpt lat="33.9129887" lon="8.1134477"><ele>80.0</ele><time>2026-04-12T07:24:34.036Z</time></trkpt><trkpt lat="33.913033" lon="8.1133075"><ele>80.0</ele><time>2026-04-12T07:24:35.032Z</time></trkpt><trkpt lat="33.9130956" lon="8.1131821"><ele>80.0</ele><time>2026-04-12T07:24:36.024Z</time></trkpt><trkpt lat="33.9131825" lon="8.1130784"><ele>80.0</ele><time>2026-04-12T07:24:37.03Z</time></trkpt><trkpt lat="33.9132923" lon="8.1129829"><ele>79.75</ele><time>2026-04-12T07:24:38.022Z</time></trkpt><trkpt lat="33.9134187" lon="8.1128918"><ele>79.5</ele><time>2026-04-12T07:24:39.02Z</time></trkpt><trkpt lat="33.9135532" lon="8.1128136"><ele>79.25</ele><time>2026-04-12T07:24:40.046Z</time></trkpt><trkpt lat="33.913688" lon="8.1127471"><ele>79.0</ele><time>2026-04-12T07:24:41.039Z</time></trkpt><trkpt lat="33.9138201" lon="8.1126828"><ele>79.0</ele><time>2026-04-12T07:24:42.037Z</time></trkpt><trkpt lat="33.913942" lon="8.1126095"><ele>79.0</ele><time>2026-04-12T07:24:43.033Z</time></trkpt><trkpt lat="33.9140617" lon="8.1125296"><ele>79.0</ele><time>2026-04-12T07:24:44.045Z</time></trkpt><trkpt lat="33.9141778" lon="8.1124441"><ele>79.0</ele><time>2026-04-12T07:24:45.042Z</time></trkpt><trkpt lat="33.9142956" lon="8.1123561"><ele>78.75</ele><time>2026-04-12T07:24:46.044Z</time></trkpt><trkpt lat="33.914409" lon="8.1122729"><ele>78.5</ele><time>2026-04-12T07:24:47.048Z</time></trkpt><trkpt lat="33.9145276" lon="8.1121943"><ele>78.25</ele><time>2026-04-12T07:24:48.06Z</time></trkpt><trkpt lat="33.914651" lon="8.1121219"><ele>78.0</ele><time>2026-04-12T07:24:49.044Z</time></trkpt><trkpt lat="33.9147726" lon="8.1120602"><ele>78.0</ele><time>2026-04-12T07:24:50.045Z</time></trkpt><trkpt lat="33.9148955" lon="8.1120042"><ele>78.0</ele><time>2026-04-12T07:24:51.055Z</time></trkpt><trkpt lat="33.9150197" lon="8.1119562"><ele>78.0</ele><time>2026-04-12T07:24:52.062Z</time></trkpt><trkpt lat="33.9151538" lon="8.111916"><ele>78.0</ele><time>2026-04-12T07:24:53.06Z</time></trkpt><trkpt lat="33.915281" lon="8.1118812"><ele>78.5</ele><time>2026-04-12T07:24:54.058Z</time></trkpt><trkpt lat="33.9154128" lon="8.1118499"><ele>79.0</ele><time>2026-04-12T07:24:55.057Z</time></trkpt><trkpt lat="33.9155454" lon="8.1118232"><ele>79.5</ele><time>2026-04-12T07:24:56.052Z</time></trkpt><trkpt lat="33.9156791" lon="8.1118045"><ele>80.0</ele><time>2026-04-12T07:24:57.055Z</time></trkpt><trkpt lat="33.9158131" lon="8.1117906"><ele>81.25</ele><time>2026-04-12T07:24:58.056Z</time></trkpt><trkpt lat="33.9159487" lon="8.1117797"><ele>82.5</ele><time>2026-04-12T07:24:59.052Z</time></trkpt><trkpt lat="33.9160835" lon="8.1117678"><ele>83.75</ele><time>2026-04-12T07:25:00.045Z</time></trkpt><trkpt lat="33.9162141" lon="8.1117556"><ele>85.0</ele><time>2026-04-12T07:25:01.044Z</time></trkpt><trkpt lat="33.9163453" lon="8.1117437"><ele>85.0</ele><time>2026-04-12T07:25:02.043Z</time></trkpt><trkpt lat="33.9164789" lon="8.1117317"><ele>85.0</ele><time>2026-04-12T07:25:03.047Z</time></trkpt><trkpt lat="33.9166178" lon="8.1117281"><ele>85.0</ele><time>2026-04-12T07:25:04.047Z</time></trkpt><trkpt lat="33.9167551" lon="8.1117236"><ele>85.0</ele><time>2026-04-12T07:25:05.048Z</time></trkpt><trkpt lat="33.9168933" lon="8.1117167"><ele>85.25</ele><time>2026-04-12T07:25:06.045Z</time></trkpt><trkpt lat="33.9170279" lon="8.1117094"><ele>85.5</ele><time>2026-04-12T07:25:07.055Z</time></trkpt><trkpt lat="33.9171638" lon="8.1117024"><ele>85.75</ele><time>2026-04-12T07:25:08.049Z</time></trkpt><trkpt lat="33.9172971" lon="8.1116957"><ele>86.0</ele><time>2026-04-12T07:25:09.049Z</time></trkpt><trkpt lat="33.917432" lon="8.1116845"><ele>86.0</ele><time>2026-04-12T07:25:10.044Z</time></trkpt><trkpt lat="33.9175651" lon="8.111668"><ele>86.0</ele><time>2026-04-12T07:25:11.046Z</time></trkpt><trkpt lat="33.9176989" lon="8.1116514"><ele>86.0</ele><time>2026-04-12T07:25:12.049Z</time></trkpt><trkpt lat="33.9178324" lon="8.1116346"><ele>86.0</ele><time>2026-04-12T07:25:13.059Z</time></trkpt><trkpt lat="33.9179678" lon="8.1116225"><ele>86.0</ele><time>2026-04-12T07:25:14.061Z</time></trkpt><trkpt lat="33.9181008" lon="8.1116124"><ele>86.0</ele><time>2026-04-12T07:25:15.062Z</time></trkpt><trkpt lat="33.9182307" lon="8.1116001"><ele>86.0</ele><time>2026-04-12T07:25:16.055Z</time></trkpt><trkpt lat="33.9183581" lon="8.1115814"><ele>86.0</ele><time>2026-04-12T07:25:17.057Z</time></trkpt><trkpt lat="33.9184826" lon="8.1115548"><ele>86.5</ele><time>2026-04-12T07:25:18.057Z</time></trkpt><trkpt lat="33.9186084" lon="8.1115206"><ele>87.0</ele><time>2026-04-12T07:25:19.067Z</time></trkpt><trkpt lat="33.9187292" lon="8.1114844"><ele>87.5</ele><time>2026-04-12T07:25:20.059Z</time></trkpt><trkpt lat="33.9188439" lon="8.1114491"><ele>88.0</ele><time>2026-04-12T07:25:21.06Z</time></trkpt><trkpt lat="33.9189529" lon="8.1114156"><ele>88.0</ele><time>2026-04-12T07:25:22.056Z</time></trkpt><trkpt lat="33.9190598" lon="8.1113822"><ele>88.0</ele><time>2026-04-12T07:25:23.06Z</time></trkpt><trkpt lat="33.9191672" lon="8.1113456"><ele>88.0</ele><time>2026-04-12T07:25:24.052Z</time></trkpt><trkpt lat="33.9192676" lon="8.1113128"><ele>88.0</ele><time>2026-04-12T07:25:25.052Z</time></trkpt><trkpt lat="33.9193611" lon="8.1112904"><ele>88.0</ele><time>2026-04-12T07:25:26.054Z</time></trkpt><trkpt lat="33.9194429" lon="8.1112796"><ele>87.80000000000001</ele><time>2026-04-12T07:25:27.056Z</time></trkpt><trkpt lat="33.9195151" lon="8.111275"><ele>87.6</ele><time>2026-04-12T07:25:28.058Z</time></trkpt><trkpt lat="33.9196306" lon="8.1112693"><ele>87.4</ele><time>2026-04-12T07:25:30.032Z</time></trkpt><trkpt lat="33.9197098" lon="8.1112637"><ele>87.19999999999999</ele><time>2026-04-12T07:25:32.029Z</time></trkpt><trkpt lat="33.9197678" lon="8.1111947"><ele>87.0</ele><time>2026-04-12T07:25:34.039Z</time></trkpt><trkpt lat="33.9197791" lon="8.1110721"><ele>87.0</ele><time>2026-04-12T07:25:36.051Z</time></trkpt><trkpt lat="33.9197785" lon="8.1109837"><ele>87.0</ele><time>2026-04-12T07:25:37.033Z</time></trkpt><trkpt lat="33.9197553" lon="8.1108649"><ele>87.0</ele><time>2026-04-12T07:25:38.034Z</time></trkpt><trkpt lat="33.9197246" lon="8.1107272"><ele>87.0</ele><time>2026-04-12T07:25:39.04Z</time></trkpt><trkpt lat="33.9196912" lon="8.1105867"><ele>87.0</ele><time>2026-04-12T07:25:40.043Z</time></trkpt><trkpt lat="33.9196598" lon="8.1104348"><ele>87.25</ele><time>2026-04-12T07:25:41.06Z</time></trkpt><trkpt lat="33.9196312" lon="8.1102928"><ele>87.5</ele><time>2026-04-12T07:25:42.067Z</time></trkpt><trkpt lat="33.9196031" lon="8.1101589"><ele>87.75</ele><time>2026-04-12T07:25:43.073Z</time></trkpt><trkpt lat="33.9195671" lon="8.1100249"><ele>88.0</ele><time>2026-04-12T07:25:44.07Z</time></trkpt><trkpt lat="33.9195345" lon="8.1098963"><ele>88.0</ele><time>2026-04-12T07:25:45.06Z</time></trkpt><trkpt lat="33.9195078" lon="8.1097696"><ele>88.0</ele><time>2026-04-12T07:25:46.068Z</time></trkpt><trkpt lat="33.9194752" lon="8.1096423"><ele>88.0</ele><time>2026-04-12T07:25:47.064Z</time></trkpt><trkpt lat="33.919444" lon="8.1095112"><ele>88.0</ele><time>2026-04-12T07:25:48.066Z</time></trkpt><trkpt lat="33.9194176" lon="8.1093825"><ele>88.0</ele><time>2026-04-12T07:25:49.068Z</time></trkpt><trkpt lat="33.9193879" lon="8.1092535"><ele>88.0</ele><time>2026-04-12T07:25:50.083Z</time></trkpt><trkpt lat="33.91936" lon="8.1091323"><ele>88.0</ele><time>2026-04-12T07:25:51.068Z</time></trkpt><trkpt lat="33.9193347" lon="8.1090144"><ele>88.0</ele><time>2026-04-12T07:25:52.062Z</time></trkpt><trkpt lat="33.9193127" lon="8.1089108"><ele>88.0</ele><time>2026-04-12T07:25:53.058Z</time></trkpt><trkpt lat="33.9192939" lon="8.1088234"><ele>88.0</ele><time>2026-04-12T07:25:54.061Z</time></trkpt><trkpt lat="33.9192719" lon="8.1087407"><ele>88.0</ele><time>2026-04-12T07:25:55.061Z</time></trkpt><trkpt lat="33.9192498" lon="8.1086544"><ele>88.2</ele><time>2026-04-12T07:25:56.068Z</time></trkpt><trkpt lat="33.9192313" lon="8.1085718"><ele>88.4</ele><time>2026-04-12T07:25:57.068Z</time></trkpt><trkpt lat="33.9192033" lon="8.1084326"><ele>88.60000000000001</ele><time>2026-04-12T07:25:59.079Z</time></trkpt><trkpt lat="33.9191776" lon="8.1083047"><ele>88.80000000000001</ele><time>2026-04-12T07:26:01.067Z</time></trkpt><trkpt lat="33.9191568" lon="8.1082019"><ele>89.0</ele><time>2026-04-12T07:26:03.074Z</time></trkpt><trkpt lat="33.9191419" lon="8.1080945"><ele>89.16666666666667</ele><time>2026-04-12T07:26:05.072Z</time></trkpt><trkpt lat="33.9191285" lon="8.1080158"><ele>89.33333333333334</ele><time>2026-04-12T07:26:07.079Z</time></trkpt><trkpt lat="33.9191071" lon="8.1079326"><ele>89.5</ele><time>2026-04-12T07:26:10.081Z</time></trkpt><trkpt lat="33.9190944" lon="8.107855"><ele>89.66666666666667</ele><time>2026-04-12T07:26:14.074Z</time></trkpt><trkpt lat="33.9190779" lon="8.1077714"><ele>89.83333333333333</ele><time>2026-04-12T07:26:16.068Z</time></trkpt><trkpt lat="33.919063" lon="8.1076824"><ele>90.0</ele><time>2026-04-12T07:26:17.057Z</time></trkpt><trkpt lat="33.9190338" lon="8.1075673"><ele>90.0</ele><time>2026-04-12T07:26:18.056Z</time></trkpt><trkpt lat="33.9190069" lon="8.1074596"><ele>90.0</ele><time>2026-04-12T07:26:19.065Z</time></trkpt><trkpt lat="33.9189778" lon="8.1073259"><ele>90.0</ele><time>2026-04-12T07:26:20.042Z</time></trkpt><trkpt lat="33.9189532" lon="8.1071892"><ele>90.0</ele><time>2026-04-12T07:26:21.076Z</time></trkpt><trkpt lat="33.9189292" lon="8.107055"><ele>90.0</ele><time>2026-04-12T07:26:22.061Z</time></trkpt><trkpt lat="33.9189041" lon="8.1069235"><ele>90.4</ele><time>2026-04-12T07:26:23.066Z</time></trkpt><trkpt lat="33.918877" lon="8.1067925"><ele>90.8</ele><time>2026-04-12T07:26:24.062Z</time></trkpt><trkpt lat="33.9188499" lon="8.1066634"><ele>91.19999999999999</ele><time>2026-04-12T07:26:25.061Z</time></trkpt><trkpt lat="33.9188207" lon="8.1065319"><ele>91.6</ele><time>2026-04-12T07:26:26.069Z</time></trkpt><trkpt lat="33.9187937" lon="8.1064175"><ele>92.0</ele><time>2026-04-12T07:26:27.071Z</time></trkpt><trkpt lat="33.9187693" lon="8.1063102"><ele>92.25</ele><time>2026-04-12T07:26:28.075Z</time></trkpt><trkpt lat="33.9187488" lon="8.106216"><ele>92.5</ele><time>2026-04-12T07:26:29.076Z</time></trkpt><trkpt lat="33.9187297" lon="8.1061188"><ele>92.75</ele><time>2026-04-12T07:26:30.066Z</time></trkpt><trkpt lat="33.9187124" lon="8.1060409"><ele>93.0</ele><time>2026-04-12T07:26:34.071Z</time></trkpt><trkpt lat="33.9186516" lon="8.1057469"><ele>93.0</ele><time>2026-04-12T07:26:35.063Z</time></trkpt><trkpt lat="33.9186354" lon="8.1056534"><ele>93.0</ele><time>2026-04-12T07:26:36.068Z</time></trkpt><trkpt lat="33.9186255" lon="8.1055661"><ele>93.0</ele><time>2026-04-12T07:26:37.053Z</time></trkpt><trkpt lat="33.9185585" lon="8.1051963"><ele>93.0</ele><time>2026-04-12T07:26:40.057Z</time></trkpt><trkpt lat="33.9185223" lon="8.1049909"><ele>93.0</ele><time>2026-04-12T07:26:41.083Z</time></trkpt><trkpt lat="33.9184952" lon="8.1048448"><ele>93.0</ele><time>2026-04-12T07:26:42.069Z</time></trkpt><trkpt lat="33.9184713" lon="8.1047276"><ele>93.0</ele><time>2026-04-12T07:26:43.072Z</time></trkpt><trkpt lat="33.9184468" lon="8.1046012"><ele>93.0</ele><time>2026-04-12T07:26:44.069Z</time></trkpt><trkpt lat="33.9184205" lon="8.1044689"><ele>93.0</ele><time>2026-04-12T07:26:45.072Z</time></trkpt><trkpt lat="33.9183922" lon="8.1043373"><ele>93.0</ele><time>2026-04-12T07:26:46.073Z</time></trkpt><trkpt lat="33.9183538" lon="8.1041782"><ele>93.0</ele><time>2026-04-12T07:26:47.08Z</time></trkpt><trkpt lat="33.9183183" lon="8.1040427"><ele>93.0</ele><time>2026-04-12T07:26:48.073Z</time></trkpt><trkpt lat="33.9182778" lon="8.1038839"><ele>93.0</ele><time>2026-04-12T07:26:49.08Z</time></trkpt><trkpt lat="33.9182411" lon="8.1037219"><ele>93.0</ele><time>2026-04-12T07:26:50.073Z</time></trkpt><trkpt lat="33.9182064" lon="8.1035535"><ele>93.0</ele><time>2026-04-12T07:26:51.069Z</time></trkpt><trkpt lat="33.9181699" lon="8.1033745"><ele>94.0</ele><time>2026-04-12T07:26:52.102Z</time></trkpt><trkpt lat="33.9181319" lon="8.103188"><ele>95.0</ele><time>2026-04-12T07:26:53.063Z</time></trkpt><trkpt lat="33.9180927" lon="8.1029931"><ele>96.0</ele><time>2026-04-12T07:26:54.065Z</time></trkpt><trkpt lat="33.9180527" lon="8.1027945"><ele>96.0</ele><time>2026-04-12T07:26:55.063Z</time></trkpt><trkpt lat="33.918011" lon="8.1025964"><ele>96.0</ele><time>2026-04-12T07:26:56.066Z</time></trkpt><trkpt lat="33.917969" lon="8.1023976"><ele>96.0</ele><time>2026-04-12T07:26:57.063Z</time></trkpt><trkpt lat="33.9179256" lon="8.1021983"><ele>96.0</ele><time>2026-04-12T07:26:58.072Z</time></trkpt><trkpt lat="33.9178793" lon="8.1019974"><ele>96.0</ele><time>2026-04-12T07:26:59.073Z</time></trkpt><trkpt lat="33.9178326" lon="8.1018006"><ele>96.0</ele><time>2026-04-12T07:27:00.069Z</time></trkpt><trkpt lat="33.917789" lon="8.1016099"><ele>96.66666666666666</ele><time>2026-04-12T07:27:01.068Z</time></trkpt><trkpt lat="33.9177461" lon="8.1014221"><ele>97.33333333333333</ele><time>2026-04-12T07:27:02.07Z</time></trkpt><trkpt lat="33.9177048" lon="8.1012349"><ele>98.0</ele><time>2026-04-12T07:27:03.064Z</time></trkpt><trkpt lat="33.9176674" lon="8.1010546"><ele>98.0</ele><time>2026-04-12T07:27:04.064Z</time></trkpt><trkpt lat="33.9176281" lon="8.1008837"><ele>98.0</ele><time>2026-04-12T07:27:05.065Z</time></trkpt><trkpt lat="33.9175907" lon="8.1007124"><ele>98.0</ele><time>2026-04-12T07:27:06.065Z</time></trkpt><trkpt lat="33.9175542" lon="8.1005459"><ele>98.0</ele><time>2026-04-12T07:27:07.067Z</time></trkpt><trkpt lat="33.9175199" lon="8.1003798"><ele>98.0</ele><time>2026-04-12T07:27:08.072Z</time></trkpt><trkpt lat="33.9174842" lon="8.1002102"><ele>98.0</ele><time>2026-04-12T07:27:09.077Z</time></trkpt><trkpt lat="33.9174485" lon="8.1000351"><ele>98.0</ele><time>2026-04-12T07:27:10.069Z</time></trkpt><trkpt lat="33.91741" lon="8.0998567"><ele>98.0</ele><time>2026-04-12T07:27:11.067Z</time></trkpt><trkpt lat="33.9173727" lon="8.0996739"><ele>99.0</ele><time>2026-04-12T07:27:12.069Z</time></trkpt><trkpt lat="33.9173357" lon="8.099492"><ele>100.0</ele><time>2026-04-12T07:27:13.071Z</time></trkpt><trkpt lat="33.9172996" lon="8.0993124"><ele>101.0</ele><time>2026-04-12T07:27:14.066Z</time></trkpt><trkpt lat="33.917264" lon="8.0991381"><ele>101.25</ele><time>2026-04-12T07:27:15.067Z</time></trkpt><trkpt lat="33.9172298" lon="8.0989673"><ele>101.5</ele><time>2026-04-12T07:27:16.074Z</time></trkpt><trkpt lat="33.9171938" lon="8.0987968"><ele>101.75</ele><time>2026-04-12T07:27:17.073Z</time></trkpt><trkpt lat="33.9171551" lon="8.0986277"><ele>102.0</ele><time>2026-04-12T07:27:18.072Z</time></trkpt><trkpt lat="33.9171171" lon="8.0984648"><ele>102.0</ele><time>2026-04-12T07:27:19.07Z</time></trkpt><trkpt lat="33.9170794" lon="8.0983034"><ele>102.0</ele><time>2026-04-12T07:27:20.074Z</time></trkpt><trkpt lat="33.9170449" lon="8.098151"><ele>102.0</ele><time>2026-04-12T07:27:21.069Z</time></trkpt><trkpt lat="33.9170099" lon="8.0980003"><ele>102.0</ele><time>2026-04-12T07:27:22.092Z</time></trkpt><trkpt lat="33.9169745" lon="8.0978558"><ele>102.75</ele><time>2026-04-12T07:27:23.07Z</time></trkpt><trkpt lat="33.9169401" lon="8.0977091"><ele>103.5</ele><time>2026-04-12T07:27:24.069Z</time></trkpt><trkpt lat="33.916908" lon="8.0975546"><ele>104.25</ele><time>2026-04-12T07:27:25.069Z</time></trkpt><trkpt lat="33.9168796" lon="8.0973848"><ele>105.0</ele><time>2026-04-12T07:27:26.073Z</time></trkpt><trkpt lat="33.9168496" lon="8.0972095"><ele>105.33333333333334</ele><time>2026-04-12T07:27:27.071Z</time></trkpt><trkpt lat="33.9168174" lon="8.097032"><ele>105.66666666666667</ele><time>2026-04-12T07:27:28.073Z</time></trkpt><trkpt lat="33.916782" lon="8.0968482"><ele>106.0</ele><time>2026-04-12T07:27:29.076Z</time></trkpt><trkpt lat="33.9167408" lon="8.0966586"><ele>106.33333333333334</ele><time>2026-04-12T07:27:30.071Z</time></trkpt><trkpt lat="33.9166996" lon="8.0964683"><ele>106.66666666666666</ele><time>2026-04-12T07:27:31.079Z</time></trkpt><trkpt lat="33.9166577" lon="8.0962753"><ele>107.0</ele><time>2026-04-12T07:27:32.077Z</time></trkpt><trkpt lat="33.9166181" lon="8.0960867"><ele>107.0</ele><time>2026-04-12T07:27:33.076Z</time></trkpt><trkpt lat="33.9165793" lon="8.0959014"><ele>107.0</ele><time>2026-04-12T07:27:34.074Z</time></trkpt><trkpt lat="33.916543" lon="8.0957206"><ele>107.0</ele><time>2026-04-12T07:27:35.067Z</time></trkpt><trkpt lat="33.9165066" lon="8.0955501"><ele>107.25</ele><time>2026-04-12T07:27:36.063Z</time></trkpt><trkpt lat="33.9164706" lon="8.0953809"><ele>107.5</ele><time>2026-04-12T07:27:37.064Z</time></trkpt><trkpt lat="33.9164343" lon="8.0952147"><ele>107.75</ele><time>2026-04-12T07:27:38.062Z</time></trkpt><trkpt lat="33.9163996" lon="8.0950495"><ele>108.0</ele><time>2026-04-12T07:27:39.069Z</time></trkpt><trkpt lat="33.9163653" lon="8.0948876"><ele>108.75</ele><time>2026-04-12T07:27:40.068Z</time></trkpt><trkpt lat="33.9163322" lon="8.0947268"><ele>109.5</ele><time>2026-04-12T07:27:41.067Z</time></trkpt><trkpt lat="33.9162982" lon="8.0945664"><ele>110.25</ele><time>2026-04-12T07:27:42.065Z</time></trkpt><trkpt lat="33.9162643" lon="8.0944016"><ele>111.0</ele><time>2026-04-12T07:27:43.076Z</time></trkpt><trkpt lat="33.9162285" lon="8.0942327"><ele>112.0</ele><time>2026-04-12T07:27:44.06Z</time></trkpt><trkpt lat="33.9161884" lon="8.0940565"><ele>113.0</ele><time>2026-04-12T07:27:45.068Z</time></trkpt><trkpt lat="33.9161492" lon="8.0938772"><ele>114.0</ele><time>2026-04-12T07:27:46.072Z</time></trkpt><trkpt lat="33.9161119" lon="8.0936983"><ele>114.0</ele><time>2026-04-12T07:27:47.082Z</time></trkpt><trkpt lat="33.9160757" lon="8.0935219"><ele>114.0</ele><time>2026-04-12T07:27:48.073Z</time></trkpt><trkpt lat="33.9160384" lon="8.0933454"><ele>114.0</ele><time>2026-04-12T07:27:49.08Z</time></trkpt><trkpt lat="33.9160021" lon="8.093171"><ele>114.33333333333334</ele><time>2026-04-12T07:27:50.077Z</time></trkpt><trkpt lat="33.9159668" lon="8.0929937"><ele>114.66666666666667</ele><time>2026-04-12T07:27:51.073Z</time></trkpt><trkpt lat="33.9159317" lon="8.0928185"><ele>115.0</ele><time>2026-04-12T07:27:52.084Z</time></trkpt><trkpt lat="33.9158919" lon="8.0926414"><ele>115.0</ele><time>2026-04-12T07:27:53.093Z</time></trkpt><trkpt lat="33.9158536" lon="8.0924642"><ele>115.0</ele><time>2026-04-12T07:27:54.071Z</time></trkpt><trkpt lat="33.9158164" lon="8.0922891"><ele>115.0</ele><time>2026-04-12T07:27:55.078Z</time></trkpt><trkpt lat="33.9157768" lon="8.0921151"><ele>116.0</ele><time>2026-04-12T07:27:56.08Z</time></trkpt><trkpt lat="33.9157387" lon="8.0919408"><ele>117.0</ele><time>2026-04-12T07:27:57.076Z</time></trkpt><trkpt lat="33.9157" lon="8.0917609"><ele>118.0</ele><time>2026-04-12T07:27:58.084Z</time></trkpt><trkpt lat="33.9156606" lon="8.0915799"><ele>119.33333333333334</ele><time>2026-04-12T07:27:59.078Z</time></trkpt><trkpt lat="33.9156205" lon="8.0914"><ele>120.66666666666666</ele><time>2026-04-12T07:28:00.078Z</time></trkpt><trkpt lat="33.9155818" lon="8.0912243"><ele>122.0</ele><time>2026-04-12T07:28:01.075Z</time></trkpt><trkpt lat="33.9155426" lon="8.0910479"><ele>122.0</ele><time>2026-04-12T07:28:02.072Z</time></trkpt><trkpt lat="33.9155039" lon="8.0908744"><ele>122.0</ele><time>2026-04-12T07:28:03.074Z</time></trkpt><trkpt lat="33.9154653" lon="8.090699"><ele>122.0</ele><time>2026-04-12T07:28:04.071Z</time></trkpt><trkpt lat="33.9154279" lon="8.0905246"><ele>122.0</ele><time>2026-04-12T07:28:05.077Z</time></trkpt><trkpt lat="33.9153919" lon="8.0903482"><ele>121.66666666666666</ele><time>2026-04-12T07:28:06.08Z</time></trkpt><trkpt lat="33.9153517" lon="8.0901683"><ele>121.33333333333334</ele><time>2026-04-12T07:28:07.07Z</time></trkpt><trkpt lat="33.9153135" lon="8.0899825"><ele>121.0</ele><time>2026-04-12T07:28:08.071Z</time></trkpt><trkpt lat="33.9152726" lon="8.0897912"><ele>121.0</ele><time>2026-04-12T07:28:09.072Z</time></trkpt><trkpt lat="33.9152268" lon="8.0895946"><ele>121.0</ele><time>2026-04-12T07:28:10.071Z</time></trkpt><trkpt lat="33.9151835" lon="8.0893918"><ele>121.0</ele><time>2026-04-12T07:28:11.073Z</time></trkpt><trkpt lat="33.9151445" lon="8.089192"><ele>121.66666666666667</ele><time>2026-04-12T07:28:12.076Z</time></trkpt><trkpt lat="33.9151072" lon="8.0889999"><ele>122.33333333333334</ele><time>2026-04-12T07:28:13.072Z</time></trkpt><trkpt lat="33.915071" lon="8.0888242"><ele>123.0</ele><time>2026-04-12T07:28:14.074Z</time></trkpt><trkpt lat="33.9150387" lon="8.0886585"><ele>123.0</ele><time>2026-04-12T07:28:15.073Z</time></trkpt><trkpt lat="33.9150203" lon="8.0885076"><ele>123.00000000000001</ele><time>2026-04-12T07:28:16.066Z</time></trkpt><trkpt lat="33.9150166" lon="8.0883767"><ele>123.00000000000001</ele><time>2026-04-12T07:28:17.064Z</time></trkpt><trkpt lat="33.9150239" lon="8.0882497"><ele>123.0</ele><time>2026-04-12T07:28:18.07Z</time></trkpt><trkpt lat="33.9150227" lon="8.0881243"><ele>123.0</ele><time>2026-04-12T07:28:19.047Z</time></trkpt><trkpt lat="33.9149967" lon="8.0880136"><ele>123.0</ele><time>2026-04-12T07:28:20.044Z</time></trkpt><trkpt lat="33.9149491" lon="8.0879034"><ele>123.0</ele><time>2026-04-12T07:28:21.035Z</time></trkpt><trkpt lat="33.9148889" lon="8.0877846"><ele>123.0</ele><time>2026-04-12T07:28:22.039Z</time></trkpt><trkpt lat="33.9148342" lon="8.087624"><ele>123.0</ele><time>2026-04-12T07:28:22.968Z</time></trkpt><trkpt lat="33.9147716" lon="8.0874744"><ele>123.0</ele><time>2026-04-12T07:28:23.969Z</time></trkpt><trkpt lat="33.9147367" lon="8.0873125"><ele>123.0</ele><time>2026-04-12T07:28:24.968Z</time></trkpt><trkpt lat="33.9147117" lon="8.0871099"><ele>123.0</ele><time>2026-04-12T07:28:25.975Z</time></trkpt><trkpt lat="33.9146823" lon="8.0869487"><ele>123.0</ele><time>2026-04-12T07:28:26.98Z</time></trkpt><trkpt lat="33.9146348" lon="8.0867692"><ele>123.33333333333334</ele><time>2026-04-12T07:28:27.98Z</time></trkpt><trkpt lat="33.9145942" lon="8.086584"><ele>123.66666666666667</ele><time>2026-04-12T07:28:28.978Z</time></trkpt><trkpt lat="33.9145517" lon="8.0863704"><ele>124.0</ele><time>2026-04-12T07:28:29.98Z</time></trkpt><trkpt lat="33.9145113" lon="8.0861711"><ele>124.0</ele><time>2026-04-12T07:28:30.977Z</time></trkpt><trkpt lat="33.9144635" lon="8.085971"><ele>124.0</ele><time>2026-04-12T07:28:31.984Z</time></trkpt><trkpt lat="33.9144219" lon="8.085763"><ele>124.0</ele><time>2026-04-12T07:28:32.981Z</time></trkpt><trkpt lat="33.9143761" lon="8.0855571"><ele>123.66666666666667</ele><time>2026-04-12T07:28:33.978Z</time></trkpt><trkpt lat="33.9143116" lon="8.0853282"><ele>123.33333333333334</ele><time>2026-04-12T07:28:34.976Z</time></trkpt><trkpt lat="33.9142725" lon="8.0851305"><ele>123.0</ele><time>2026-04-12T07:28:35.981Z</time></trkpt><trkpt lat="33.9142172" lon="8.0849155"><ele>122.33333333333334</ele><time>2026-04-12T07:28:36.985Z</time></trkpt><trkpt lat="33.9141784" lon="8.0846918"><ele>121.66666666666667</ele><time>2026-04-12T07:28:37.978Z</time></trkpt><trkpt lat="33.9141384" lon="8.0844689"><ele>121.0</ele><time>2026-04-12T07:28:38.98Z</time></trkpt><trkpt lat="33.9140986" lon="8.084271"><ele>122.33333333333334</ele><time>2026-04-12T07:28:39.983Z</time></trkpt><trkpt lat="33.914052" lon="8.0840785"><ele>123.66666666666666</ele><time>2026-04-12T07:28:40.975Z</time></trkpt><trkpt lat="33.9140079" lon="8.0838955"><ele>125.0</ele><time>2026-04-12T07:28:41.973Z</time></trkpt><trkpt lat="33.9139753" lon="8.0837265"><ele>125.0</ele><time>2026-04-12T07:28:42.976Z</time></trkpt><trkpt lat="33.9139469" lon="8.0835584"><ele>125.0</ele><time>2026-04-12T07:28:43.979Z</time></trkpt><trkpt lat="33.913904" lon="8.0833826"><ele>125.0</ele><time>2026-04-12T07:28:44.984Z</time></trkpt><trkpt lat="33.9138724" lon="8.0832312"><ele>125.0</ele><time>2026-04-12T07:28:45.984Z</time></trkpt><trkpt lat="33.9138358" lon="8.0830582"><ele>125.25</ele><time>2026-04-12T07:28:46.983Z</time></trkpt><trkpt lat="33.9137979" lon="8.082887"><ele>125.5</ele><time>2026-04-12T07:28:47.985Z</time></trkpt><trkpt lat="33.913758" lon="8.0827006"><ele>125.75</ele><time>2026-04-12T07:28:48.985Z</time></trkpt><trkpt lat="33.9137193" lon="8.08254"><ele>126.0</ele><time>2026-04-12T07:28:49.977Z</time></trkpt><trkpt lat="33.9136698" lon="8.0823649"><ele>127.0</ele><time>2026-04-12T07:28:50.983Z</time></trkpt><trkpt lat="33.9136346" lon="8.0821985"><ele>128.0</ele><time>2026-04-12T07:28:51.98Z</time></trkpt><trkpt lat="33.9136025" lon="8.0820237"><ele>129.0</ele><time>2026-04-12T07:28:52.98Z</time></trkpt><trkpt lat="33.9135794" lon="8.0818409"><ele>130.0</ele><time>2026-04-12T07:28:53.972Z</time></trkpt><trkpt lat="33.9135372" lon="8.081645"><ele>130.66666666666669</ele><time>2026-04-12T07:28:54.997Z</time></trkpt><trkpt lat="33.913496" lon="8.0814733"><ele>131.33333333333334</ele><time>2026-04-12T07:28:55.974Z</time></trkpt><trkpt lat="33.9134584" lon="8.0812852"><ele>132.0</ele><time>2026-04-12T07:28:56.975Z</time></trkpt><trkpt lat="33.9134159" lon="8.0810962"><ele>132.0</ele><time>2026-04-12T07:28:57.976Z</time></trkpt><trkpt lat="33.9133858" lon="8.0809016"><ele>132.0</ele><time>2026-04-12T07:28:58.977Z</time></trkpt><trkpt lat="33.9133359" lon="8.0807098"><ele>132.0</ele><time>2026-04-12T07:28:59.985Z</time></trkpt><trkpt lat="33.9133048" lon="8.0805231"><ele>132.0</ele><time>2026-04-12T07:29:00.979Z</time></trkpt><trkpt lat="33.9132651" lon="8.0803309"><ele>132.0</ele><time>2026-04-12T07:29:01.98Z</time></trkpt><trkpt lat="33.9132195" lon="8.08014"><ele>132.0</ele><time>2026-04-12T07:29:02.981Z</time></trkpt><trkpt lat="33.9131815" lon="8.0799775"><ele>132.66666666666666</ele><time>2026-04-12T07:29:03.981Z</time></trkpt><trkpt lat="33.9131408" lon="8.0797832"><ele>133.33333333333331</ele><time>2026-04-12T07:29:04.98Z</time></trkpt><trkpt lat="33.9131061" lon="8.0796151"><ele>134.0</ele><time>2026-04-12T07:29:05.984Z</time></trkpt><trkpt lat="33.9130612" lon="8.0794357"><ele>134.0</ele><time>2026-04-12T07:29:06.983Z</time></trkpt><trkpt lat="33.9130177" lon="8.0792371"><ele>134.0</ele><time>2026-04-12T07:29:07.981Z</time></trkpt><trkpt lat="33.9129857" lon="8.0790488"><ele>134.0</ele><time>2026-04-12T07:29:08.978Z</time></trkpt><trkpt lat="33.9129499" lon="8.0788548"><ele>134.33333333333331</ele><time>2026-04-12T07:29:09.983Z</time></trkpt><trkpt lat="33.912909" lon="8.0786604"><ele>134.66666666666666</ele><time>2026-04-12T07:29:10.976Z</time></trkpt><trkpt lat="33.9128621" lon="8.0784579"><ele>135.0</ele><time>2026-04-12T07:29:11.983Z</time></trkpt><trkpt lat="33.9128239" lon="8.0782718"><ele>136.33333333333334</ele><time>2026-04-12T07:29:12.979Z</time></trkpt><trkpt lat="33.9127827" lon="8.0780862"><ele>137.66666666666669</ele><time>2026-04-12T07:29:13.985Z</time></trkpt><trkpt lat="33.9127503" lon="8.0779006"><ele>139.0</ele><time>2026-04-12T07:29:14.987Z</time></trkpt><trkpt lat="33.9127099" lon="8.07771"><ele>139.0</ele><time>2026-04-12T07:29:15.984Z</time></trkpt><trkpt lat="33.9126694" lon="8.077513"><ele>139.0</ele><time>2026-04-12T07:29:16.985Z</time></trkpt><trkpt lat="33.9126409" lon="8.0773242"><ele>139.0</ele><time>2026-04-12T07:29:17.985Z</time></trkpt><trkpt lat="33.9125985" lon="8.0771543"><ele>139.0</ele><time>2026-04-12T07:29:18.985Z</time></trkpt><trkpt lat="33.9125545" lon="8.0769776"><ele>139.0</ele><time>2026-04-12T07:29:19.988Z</time></trkpt><trkpt lat="33.9125104" lon="8.076798"><ele>139.0</ele><time>2026-04-12T07:29:20.99Z</time></trkpt><trkpt lat="33.9124669" lon="8.0766117"><ele>139.66666666666669</ele><time>2026-04-12T07:29:21.989Z</time></trkpt><trkpt lat="33.9124344" lon="8.0764331"><ele>140.33333333333334</ele><time>2026-04-12T07:29:22.995Z</time></trkpt><trkpt lat="33.9123972" lon="8.0762339"><ele>141.0</ele><time>2026-04-12T07:29:23.987Z</time></trkpt><trkpt lat="33.9123665" lon="8.07604"><ele>141.0</ele><time>2026-04-12T07:29:24.986Z</time></trkpt><trkpt lat="33.9123272" lon="8.0758524"><ele>141.0</ele><time>2026-04-12T07:29:26.005Z</time></trkpt><trkpt lat="33.9122804" lon="8.0756648"><ele>141.0</ele><time>2026-04-12T07:29:26.99Z</time></trkpt><trkpt lat="33.9122369" lon="8.0754605"><ele>141.0</ele><time>2026-04-12T07:29:27.99Z</time></trkpt><trkpt lat="33.9121823" lon="8.0752524"><ele>141.0</ele><time>2026-04-12T07:29:28.991Z</time></trkpt><trkpt lat="33.9121461" lon="8.0750702"><ele>141.0</ele><time>2026-04-12T07:29:29.986Z</time></trkpt><trkpt lat="33.912099" lon="8.0748673"><ele>141.33333333333334</ele><time>2026-04-12T07:29:30.989Z</time></trkpt><trkpt lat="33.9120506" lon="8.0746642"><ele>141.66666666666669</ele><time>2026-04-12T07:29:31.987Z</time></trkpt><trkpt lat="33.9120131" lon="8.0744627"><ele>142.0</ele><time>2026-04-12T07:29:32.983Z</time></trkpt><trkpt lat="33.9119707" lon="8.0742598"><ele>142.0</ele><time>2026-04-12T07:29:33.985Z</time></trkpt><trkpt lat="33.9119496" lon="8.0741034"><ele>142.0</ele><time>2026-04-12T07:29:34.988Z</time></trkpt><trkpt lat="33.911903" lon="8.0739126"><ele>142.0</ele><time>2026-04-12T07:29:35.986Z</time></trkpt><trkpt lat="33.9118667" lon="8.0737424"><ele>142.0</ele><time>2026-04-12T07:29:36.982Z</time></trkpt><trkpt lat="33.911823" lon="8.0735551"><ele>142.0</ele><time>2026-04-12T07:29:37.985Z</time></trkpt><trkpt lat="33.9117897" lon="8.0733717"><ele>142.0</ele><time>2026-04-12T07:29:38.986Z</time></trkpt><trkpt lat="33.9117416" lon="8.0731802"><ele>142.0</ele><time>2026-04-12T07:29:39.991Z</time></trkpt><trkpt lat="33.9116941" lon="8.0730028"><ele>141.66666666666669</ele><time>2026-04-12T07:29:40.987Z</time></trkpt><trkpt lat="33.9116695" lon="8.0728225"><ele>141.33333333333334</ele><time>2026-04-12T07:29:41.983Z</time></trkpt><trkpt lat="33.9116223" lon="8.0726111"><ele>141.0</ele><time>2026-04-12T07:29:42.988Z</time></trkpt><trkpt lat="33.9115849" lon="8.0724146"><ele>141.0</ele><time>2026-04-12T07:29:43.987Z</time></trkpt><trkpt lat="33.9115495" lon="8.0722369"><ele>141.0</ele><time>2026-04-12T07:29:44.99Z</time></trkpt><trkpt lat="33.9114965" lon="8.0720419"><ele>141.0</ele><time>2026-04-12T07:29:45.986Z</time></trkpt><trkpt lat="33.9114492" lon="8.0718434"><ele>141.0</ele><time>2026-04-12T07:29:46.987Z</time></trkpt><trkpt lat="33.9114203" lon="8.0716429"><ele>141.0</ele><time>2026-04-12T07:29:47.985Z</time></trkpt><trkpt lat="33.9113805" lon="8.0714415"><ele>141.0</ele><time>2026-04-12T07:29:48.985Z</time></trkpt><trkpt lat="33.9113346" lon="8.0712215"><ele>141.33333333333334</ele><time>2026-04-12T07:29:49.991Z</time></trkpt><trkpt lat="33.9112806" lon="8.0710092"><ele>141.66666666666669</ele><time>2026-04-12T07:29:50.986Z</time></trkpt><trkpt lat="33.911231" lon="8.0707991"><ele>142.0</ele><time>2026-04-12T07:29:51.992Z</time></trkpt><trkpt lat="33.9111985" lon="8.070601"><ele>142.0</ele><time>2026-04-12T07:29:52.989Z</time></trkpt><trkpt lat="33.9111569" lon="8.0704115"><ele>142.0</ele><time>2026-04-12T07:29:53.986Z</time></trkpt><trkpt lat="33.9111135" lon="8.0702033"><ele>142.0</ele><time>2026-04-12T07:29:54.986Z</time></trkpt><trkpt lat="33.9110619" lon="8.0700059"><ele>142.33333333333334</ele><time>2026-04-12T07:29:55.989Z</time></trkpt><trkpt lat="33.9110155" lon="8.0698115"><ele>142.66666666666666</ele><time>2026-04-12T07:29:57.009Z</time></trkpt><trkpt lat="33.9109879" lon="8.0696114"><ele>143.0</ele><time>2026-04-12T07:29:57.99Z</time></trkpt><trkpt lat="33.9109382" lon="8.0694061"><ele>143.0</ele><time>2026-04-12T07:29:58.994Z</time></trkpt><trkpt lat="33.9109046" lon="8.0692019"><ele>143.0</ele><time>2026-04-12T07:29:59.987Z</time></trkpt><trkpt lat="33.9108611" lon="8.0690074"><ele>143.0</ele><time>2026-04-12T07:30:00.988Z</time></trkpt><trkpt lat="33.9108223" lon="8.0687976"><ele>143.0</ele><time>2026-04-12T07:30:01.986Z</time></trkpt><trkpt lat="33.9107743" lon="8.0686013"><ele>143.0</ele><time>2026-04-12T07:30:02.984Z</time></trkpt><trkpt lat="33.9107412" lon="8.0684006"><ele>143.0</ele><time>2026-04-12T07:30:03.985Z</time></trkpt><trkpt lat="33.910695" lon="8.0681884"><ele>144.0</ele><time>2026-04-12T07:30:04.982Z</time></trkpt><trkpt lat="33.91065" lon="8.0679913"><ele>145.0</ele><time>2026-04-12T07:30:05.985Z</time></trkpt><trkpt lat="33.9106043" lon="8.0678178"><ele>146.0</ele><time>2026-04-12T07:30:06.988Z</time></trkpt><trkpt lat="33.9105641" lon="8.0676174"><ele>146.0</ele><time>2026-04-12T07:30:07.983Z</time></trkpt><trkpt lat="33.9105134" lon="8.0674017"><ele>146.0</ele><time>2026-04-12T07:30:09.006Z</time></trkpt><trkpt lat="33.9104716" lon="8.0672005"><ele>146.0</ele><time>2026-04-12T07:30:09.988Z</time></trkpt><trkpt lat="33.9104334" lon="8.0670043"><ele>146.0</ele><time>2026-04-12T07:30:10.987Z</time></trkpt><trkpt lat="33.9103907" lon="8.0668257"><ele>146.0</ele><time>2026-04-12T07:30:11.986Z</time></trkpt><trkpt lat="33.9103401" lon="8.0666507"><ele>146.0</ele><time>2026-04-12T07:30:12.99Z</time></trkpt><trkpt lat="33.9103001" lon="8.0664571"><ele>146.33333333333331</ele><time>2026-04-12T07:30:13.989Z</time></trkpt><trkpt lat="33.9102534" lon="8.0662567"><ele>146.66666666666666</ele><time>2026-04-12T07:30:14.986Z</time></trkpt><trkpt lat="33.9102219" lon="8.0660645"><ele>147.0</ele><time>2026-04-12T07:30:15.991Z</time></trkpt><trkpt lat="33.9101839" lon="8.0658761"><ele>147.0</ele><time>2026-04-12T07:30:16.986Z</time></trkpt><trkpt lat="33.9101486" lon="8.0656863"><ele>147.0</ele><time>2026-04-12T07:30:17.989Z</time></trkpt><trkpt lat="33.9101143" lon="8.0654899"><ele>147.0</ele><time>2026-04-12T07:30:18.985Z</time></trkpt><trkpt lat="33.9100673" lon="8.0653062"><ele>147.0</ele><time>2026-04-12T07:30:19.985Z</time></trkpt><trkpt lat="33.9100222" lon="8.0651243"><ele>147.0</ele><time>2026-04-12T07:30:20.993Z</time></trkpt><trkpt lat="33.9099884" lon="8.0649527"><ele>147.0</ele><time>2026-04-12T07:30:21.984Z</time></trkpt><trkpt lat="33.9099539" lon="8.0647708"><ele>147.33333333333334</ele><time>2026-04-12T07:30:22.992Z</time></trkpt><trkpt lat="33.9099105" lon="8.0645758"><ele>147.66666666666669</ele><time>2026-04-12T07:30:23.986Z</time></trkpt><trkpt lat="33.909885" lon="8.0643888"><ele>148.0</ele><time>2026-04-12T07:30:24.994Z</time></trkpt><trkpt lat="33.9098418" lon="8.064208"><ele>147.66666666666669</ele><time>2026-04-12T07:30:25.992Z</time></trkpt><trkpt lat="33.9097961" lon="8.0640262"><ele>147.33333333333334</ele><time>2026-04-12T07:30:26.99Z</time></trkpt><trkpt lat="33.9097512" lon="8.0638361"><ele>147.0</ele><time>2026-04-12T07:30:28.008Z</time></trkpt><trkpt lat="33.9097183" lon="8.0636485"><ele>147.0</ele><time>2026-04-12T07:30:28.99Z</time></trkpt><trkpt lat="33.9096914" lon="8.0634505"><ele>147.0</ele><time>2026-04-12T07:30:29.993Z</time></trkpt><trkpt lat="33.9096511" lon="8.0632736"><ele>147.0</ele><time>2026-04-12T07:30:30.991Z</time></trkpt><trkpt lat="33.909612" lon="8.063089"><ele>147.33333333333334</ele><time>2026-04-12T07:30:31.985Z</time></trkpt><trkpt lat="33.9095595" lon="8.0629129"><ele>147.66666666666669</ele><time>2026-04-12T07:30:32.987Z</time></trkpt><trkpt lat="33.909532" lon="8.0627202"><ele>148.0</ele><time>2026-04-12T07:30:33.985Z</time></trkpt><trkpt lat="33.9094875" lon="8.0625416"><ele>148.0</ele><time>2026-04-12T07:30:34.985Z</time></trkpt><trkpt lat="33.9094463" lon="8.062358"><ele>148.0</ele><time>2026-04-12T07:30:35.988Z</time></trkpt><trkpt lat="33.909402" lon="8.0621684"><ele>148.0</ele><time>2026-04-12T07:30:36.99Z</time></trkpt><trkpt lat="33.909378" lon="8.0619723"><ele>148.0</ele><time>2026-04-12T07:30:37.992Z</time></trkpt><trkpt lat="33.9093256" lon="8.0618009"><ele>148.0</ele><time>2026-04-12T07:30:38.992Z</time></trkpt><trkpt lat="33.9092767" lon="8.06159"><ele>148.0</ele><time>2026-04-12T07:30:39.99Z</time></trkpt><trkpt lat="33.9092335" lon="8.0613931"><ele>149.66666666666669</ele><time>2026-04-12T07:30:40.986Z</time></trkpt><trkpt lat="33.9091888" lon="8.0611979"><ele>151.33333333333334</ele><time>2026-04-12T07:30:41.984Z</time></trkpt><trkpt lat="33.9091516" lon="8.0609992"><ele>153.0</ele><time>2026-04-12T07:30:42.99Z</time></trkpt><trkpt lat="33.9091071" lon="8.0607857"><ele>153.33333333333334</ele><time>2026-04-12T07:30:43.988Z</time></trkpt><trkpt lat="33.9090616" lon="8.0605826"><ele>153.66666666666669</ele><time>2026-04-12T07:30:44.994Z</time></trkpt><trkpt lat="33.9090346" lon="8.0603833"><ele>154.0</ele><time>2026-04-12T07:30:45.989Z</time></trkpt><trkpt lat="33.9089925" lon="8.060186"><ele>154.0</ele><time>2026-04-12T07:30:46.991Z</time></trkpt><trkpt lat="33.9089402" lon="8.0599944"><ele>154.0</ele><time>2026-04-12T07:30:47.99Z</time></trkpt><trkpt lat="33.9088915" lon="8.0597845"><ele>154.0</ele><time>2026-04-12T07:30:48.994Z</time></trkpt><trkpt lat="33.9088471" lon="8.0595926"><ele>154.66666666666669</ele><time>2026-04-12T07:30:49.991Z</time></trkpt><trkpt lat="33.9087958" lon="8.0593914"><ele>155.33333333333334</ele><time>2026-04-12T07:30:50.989Z</time></trkpt><trkpt lat="33.9087637" lon="8.0591847"><ele>156.0</ele><time>2026-04-12T07:30:51.987Z</time></trkpt><trkpt lat="33.9087382" lon="8.0589791"><ele>156.33333333333334</ele><time>2026-04-12T07:30:52.994Z</time></trkpt><trkpt lat="33.9086975" lon="8.0587642"><ele>156.66666666666669</ele><time>2026-04-12T07:30:53.992Z</time></trkpt><trkpt lat="33.9086489" lon="8.0585688"><ele>157.0</ele><time>2026-04-12T07:30:54.994Z</time></trkpt><trkpt lat="33.9086066" lon="8.0583878"><ele>156.33333333333334</ele><time>2026-04-12T07:30:55.989Z</time></trkpt><trkpt lat="33.908572" lon="8.0582175"><ele>155.66666666666666</ele><time>2026-04-12T07:30:56.993Z</time></trkpt><trkpt lat="33.9085261" lon="8.0580409"><ele>155.0</ele><time>2026-04-12T07:30:57.996Z</time></trkpt><trkpt lat="33.9084873" lon="8.0578461"><ele>155.0</ele><time>2026-04-12T07:30:59.011Z</time></trkpt><trkpt lat="33.9084477" lon="8.0576488"><ele>155.0</ele><time>2026-04-12T07:30:59.988Z</time></trkpt><trkpt lat="33.9084055" lon="8.0574488"><ele>155.0</ele><time>2026-04-12T07:31:00.99Z</time></trkpt><trkpt lat="33.9083709" lon="8.0572557"><ele>155.66666666666666</ele><time>2026-04-12T07:31:01.985Z</time></trkpt><trkpt lat="33.9083254" lon="8.0570572"><ele>156.33333333333334</ele><time>2026-04-12T07:31:02.987Z</time></trkpt><trkpt lat="33.9083052" lon="8.0568861"><ele>157.0</ele><time>2026-04-12T07:31:03.988Z</time></trkpt><trkpt lat="33.9082575" lon="8.0566794"><ele>156.33333333333334</ele><time>2026-04-12T07:31:04.988Z</time></trkpt><trkpt lat="33.9082147" lon="8.0564741"><ele>155.66666666666666</ele><time>2026-04-12T07:31:05.989Z</time></trkpt><trkpt lat="33.9081649" lon="8.0562716"><ele>155.0</ele><time>2026-04-12T07:31:06.99Z</time></trkpt><trkpt lat="33.9081179" lon="8.0560682"><ele>155.0</ele><time>2026-04-12T07:31:07.989Z</time></trkpt><trkpt lat="33.9080698" lon="8.0558458"><ele>155.0</ele><time>2026-04-12T07:31:08.992Z</time></trkpt><trkpt lat="33.9080207" lon="8.0556393"><ele>155.0</ele><time>2026-04-12T07:31:09.985Z</time></trkpt><trkpt lat="33.9079777" lon="8.0554276"><ele>154.33333333333331</ele><time>2026-04-12T07:31:10.991Z</time></trkpt><trkpt lat="33.907951" lon="8.05523"><ele>153.66666666666666</ele><time>2026-04-12T07:31:11.983Z</time></trkpt><trkpt lat="33.907902" lon="8.0550186"><ele>153.0</ele><time>2026-04-12T07:31:12.985Z</time></trkpt><trkpt lat="33.9078466" lon="8.0548078"><ele>152.66666666666666</ele><time>2026-04-12T07:31:13.991Z</time></trkpt><trkpt lat="33.9077986" lon="8.0546069"><ele>152.33333333333331</ele><time>2026-04-12T07:31:14.985Z</time></trkpt><trkpt lat="33.9077617" lon="8.054421"><ele>152.0</ele><time>2026-04-12T07:31:15.986Z</time></trkpt><trkpt lat="33.9077157" lon="8.0542173"><ele>151.33333333333331</ele><time>2026-04-12T07:31:16.989Z</time></trkpt><trkpt lat="33.9076717" lon="8.0540309"><ele>150.66666666666666</ele><time>2026-04-12T07:31:17.993Z</time></trkpt><trkpt lat="33.907624" lon="8.0538408"><ele>150.0</ele><time>2026-04-12T07:31:18.988Z</time></trkpt><trkpt lat="33.9075977" lon="8.0536324"><ele>151.0</ele><time>2026-04-12T07:31:19.997Z</time></trkpt><trkpt lat="33.9075586" lon="8.0534493"><ele>152.0</ele><time>2026-04-12T07:31:20.993Z</time></trkpt><trkpt lat="33.9075227" lon="8.0532602"><ele>153.0</ele><time>2026-04-12T07:31:21.99Z</time></trkpt><trkpt lat="33.9074696" lon="8.0530772"><ele>153.0</ele><time>2026-04-12T07:31:22.985Z</time></trkpt><trkpt lat="33.907437" lon="8.0528865"><ele>153.0</ele><time>2026-04-12T07:31:23.984Z</time></trkpt><trkpt lat="33.9074027" lon="8.0526983"><ele>153.0</ele><time>2026-04-12T07:31:24.995Z</time></trkpt><trkpt lat="33.9073658" lon="8.0525124"><ele>153.25</ele><time>2026-04-12T07:31:25.987Z</time></trkpt><trkpt lat="33.9073247" lon="8.0523392"><ele>153.5</ele><time>2026-04-12T07:31:26.992Z</time></trkpt><trkpt lat="33.9072822" lon="8.0521594"><ele>153.75</ele><time>2026-04-12T07:31:27.989Z</time></trkpt><trkpt lat="33.9072465" lon="8.0519912"><ele>154.0</ele><time>2026-04-12T07:31:28.99Z</time></trkpt><trkpt lat="33.9071962" lon="8.0518073"><ele>154.0</ele><time>2026-04-12T07:31:30.01Z</time></trkpt><trkpt lat="33.9071549" lon="8.0516334"><ele>154.0</ele><time>2026-04-12T07:31:30.989Z</time></trkpt><trkpt lat="33.9071282" lon="8.0514406"><ele>154.0</ele><time>2026-04-12T07:31:31.987Z</time></trkpt><trkpt lat="33.9070915" lon="8.0512561"><ele>154.33333333333334</ele><time>2026-04-12T07:31:32.988Z</time></trkpt><trkpt lat="33.9070299" lon="8.0510755"><ele>154.66666666666666</ele><time>2026-04-12T07:31:33.99Z</time></trkpt><trkpt lat="33.9069809" lon="8.0508841"><ele>155.0</ele><time>2026-04-12T07:31:34.985Z</time></trkpt><trkpt lat="33.9069392" lon="8.050684"><ele>155.33333333333331</ele><time>2026-04-12T07:31:35.99Z</time></trkpt><trkpt lat="33.906895" lon="8.0504954"><ele>155.66666666666666</ele><time>2026-04-12T07:31:36.991Z</time></trkpt><trkpt lat="33.9068627" lon="8.0503071"><ele>156.0</ele><time>2026-04-12T07:31:37.991Z</time></trkpt><trkpt lat="33.906826" lon="8.0501215"><ele>155.66666666666666</ele><time>2026-04-12T07:31:38.986Z</time></trkpt><trkpt lat="33.906779" lon="8.0499173"><ele>155.33333333333331</ele><time>2026-04-12T07:31:39.987Z</time></trkpt><trkpt lat="33.9067459" lon="8.0497199"><ele>155.0</ele><time>2026-04-12T07:31:40.992Z</time></trkpt><trkpt lat="33.9067034" lon="8.0495062"><ele>156.0</ele><time>2026-04-12T07:31:41.991Z</time></trkpt><trkpt lat="33.9066675" lon="8.0492899"><ele>157.0</ele><time>2026-04-12T07:31:42.989Z</time></trkpt><trkpt lat="33.9066133" lon="8.0490721"><ele>158.0</ele><time>2026-04-12T07:31:43.993Z</time></trkpt><trkpt lat="33.9065569" lon="8.0488475"><ele>158.0</ele><time>2026-04-12T07:31:44.988Z</time></trkpt><trkpt lat="33.9065162" lon="8.0486384"><ele>158.0</ele><time>2026-04-12T07:31:45.988Z</time></trkpt><trkpt lat="33.9064763" lon="8.048428"><ele>158.0</ele><time>2026-04-12T07:31:46.988Z</time></trkpt><trkpt lat="33.9064421" lon="8.0482181"><ele>158.0</ele><time>2026-04-12T07:31:47.987Z</time></trkpt><trkpt lat="33.906397" lon="8.048007"><ele>158.0</ele><time>2026-04-12T07:31:49.001Z</time></trkpt><trkpt lat="33.9063521" lon="8.0477996"><ele>158.0</ele><time>2026-04-12T07:31:50.001Z</time></trkpt><trkpt lat="33.906311" lon="8.0475876"><ele>157.0</ele><time>2026-04-12T07:31:51Z</time></trkpt><trkpt lat="33.9062578" lon="8.0473694"><ele>156.0</ele><time>2026-04-12T07:31:52.001Z</time></trkpt><trkpt lat="33.9062157" lon="8.0471704"><ele>155.0</ele><time>2026-04-12T07:31:52.997Z</time></trkpt><trkpt lat="33.9061679" lon="8.0469667"><ele>155.0</ele><time>2026-04-12T07:31:53.995Z</time></trkpt><trkpt lat="33.9061145" lon="8.0467513"><ele>155.0</ele><time>2026-04-12T07:31:55.005Z</time></trkpt><trkpt lat="33.9060813" lon="8.0465611"><ele>155.0</ele><time>2026-04-12T07:31:55.999Z</time></trkpt><trkpt lat="33.9060245" lon="8.0463703"><ele>154.66666666666666</ele><time>2026-04-12T07:31:57.005Z</time></trkpt><trkpt lat="33.9059766" lon="8.0461645"><ele>154.33333333333334</ele><time>2026-04-12T07:31:57.999Z</time></trkpt><trkpt lat="33.9059309" lon="8.0459636"><ele>154.0</ele><time>2026-04-12T07:31:58.999Z</time></trkpt><trkpt lat="33.9058885" lon="8.0457678"><ele>155.33333333333334</ele><time>2026-04-12T07:32:00.001Z</time></trkpt><trkpt lat="33.9058403" lon="8.0455772"><ele>156.66666666666666</ele><time>2026-04-12T07:32:01.012Z</time></trkpt><trkpt lat="33.9058025" lon="8.0453758"><ele>158.0</ele><time>2026-04-12T07:32:01.996Z</time></trkpt><trkpt lat="33.9057583" lon="8.0451641"><ele>158.0</ele><time>2026-04-12T07:32:02.997Z</time></trkpt><trkpt lat="33.9057065" lon="8.0449698"><ele>158.0</ele><time>2026-04-12T07:32:03.995Z</time></trkpt><trkpt lat="33.905688" lon="8.0447699"><ele>158.0</ele><time>2026-04-12T07:32:04.995Z</time></trkpt><trkpt lat="33.9056426" lon="8.0445577"><ele>158.33333333333331</ele><time>2026-04-12T07:32:05.999Z</time></trkpt><trkpt lat="33.9055819" lon="8.0443414"><ele>158.66666666666666</ele><time>2026-04-12T07:32:07Z</time></trkpt><trkpt lat="33.9055317" lon="8.0441332"><ele>159.0</ele><time>2026-04-12T07:32:07.997Z</time></trkpt><trkpt lat="33.905491" lon="8.0439295"><ele>159.0</ele><time>2026-04-12T07:32:08.999Z</time></trkpt><trkpt lat="33.9054531" lon="8.043722"><ele>159.0</ele><time>2026-04-12T07:32:09.999Z</time></trkpt><trkpt lat="33.9054061" lon="8.0435042"><ele>159.0</ele><time>2026-04-12T07:32:10.993Z</time></trkpt><trkpt lat="33.9053689" lon="8.0432838"><ele>158.66666666666666</ele><time>2026-04-12T07:32:11.999Z</time></trkpt><trkpt lat="33.9053268" lon="8.0430946"><ele>158.33333333333331</ele><time>2026-04-12T07:32:12.997Z</time></trkpt><trkpt lat="33.9052681" lon="8.0429065"><ele>158.0</ele><time>2026-04-12T07:32:13.996Z</time></trkpt><trkpt lat="33.9052251" lon="8.04271"><ele>158.0</ele><time>2026-04-12T07:32:15.001Z</time></trkpt><trkpt lat="33.905179" lon="8.0425188"><ele>158.0</ele><time>2026-04-12T07:32:15.994Z</time></trkpt><trkpt lat="33.9051325" lon="8.0423261"><ele>158.0</ele><time>2026-04-12T07:32:16.998Z</time></trkpt><trkpt lat="33.9050898" lon="8.0421141"><ele>158.0</ele><time>2026-04-12T07:32:17.997Z</time></trkpt><trkpt lat="33.905051" lon="8.0419146"><ele>158.0</ele><time>2026-04-12T07:32:18.996Z</time></trkpt><trkpt lat="33.9050066" lon="8.0417047"><ele>158.0</ele><time>2026-04-12T07:32:19.996Z</time></trkpt><trkpt lat="33.9049492" lon="8.0414817"><ele>158.0</ele><time>2026-04-12T07:32:20.999Z</time></trkpt><trkpt lat="33.9049295" lon="8.0412798"><ele>158.0</ele><time>2026-04-12T07:32:21.994Z</time></trkpt><trkpt lat="33.9048979" lon="8.0410695"><ele>158.0</ele><time>2026-04-12T07:32:23.001Z</time></trkpt><trkpt lat="33.904847" lon="8.0408669"><ele>158.33333333333331</ele><time>2026-04-12T07:32:24.012Z</time></trkpt><trkpt lat="33.9047986" lon="8.0406625"><ele>158.66666666666666</ele><time>2026-04-12T07:32:25.086Z</time></trkpt><trkpt lat="33.9047552" lon="8.0404593"><ele>159.0</ele><time>2026-04-12T07:32:26.086Z</time></trkpt><trkpt lat="33.9047081" lon="8.0402556"><ele>159.0</ele><time>2026-04-12T07:32:27.082Z</time></trkpt><trkpt lat="33.904663" lon="8.0400484"><ele>159.0</ele><time>2026-04-12T07:32:28.086Z</time></trkpt><trkpt lat="33.9046197" lon="8.0398396"><ele>159.0</ele><time>2026-04-12T07:32:29.083Z</time></trkpt><trkpt lat="33.9045743" lon="8.0396256"><ele>159.0</ele><time>2026-04-12T07:32:30.085Z</time></trkpt><trkpt lat="33.904527" lon="8.0394044"><ele>159.0</ele><time>2026-04-12T07:32:31.086Z</time></trkpt><trkpt lat="33.9044802" lon="8.0391894"><ele>159.0</ele><time>2026-04-12T07:32:32.101Z</time></trkpt><trkpt lat="33.9044322" lon="8.0389715"><ele>158.66666666666666</ele><time>2026-04-12T07:32:33.086Z</time></trkpt><trkpt lat="33.9043851" lon="8.0387547"><ele>158.33333333333331</ele><time>2026-04-12T07:32:34.087Z</time></trkpt><trkpt lat="33.9043397" lon="8.0385378"><ele>158.0</ele><time>2026-04-12T07:32:35.078Z</time></trkpt><trkpt lat="33.9043099" lon="8.0383133"><ele>158.0</ele><time>2026-04-12T07:32:36.081Z</time></trkpt><trkpt lat="33.9042631" lon="8.0381033"><ele>158.0</ele><time>2026-04-12T07:32:37.087Z</time></trkpt><trkpt lat="33.9042159" lon="8.0378934"><ele>158.0</ele><time>2026-04-12T07:32:38.085Z</time></trkpt><trkpt lat="33.9041659" lon="8.0376828"><ele>157.0</ele><time>2026-04-12T07:32:39.081Z</time></trkpt><trkpt lat="33.9041144" lon="8.0374693"><ele>156.0</ele><time>2026-04-12T07:32:40.082Z</time></trkpt><trkpt lat="33.9040645" lon="8.0372527"><ele>155.0</ele><time>2026-04-12T07:32:41.084Z</time></trkpt><trkpt lat="33.9040172" lon="8.0370373"><ele>154.66666666666666</ele><time>2026-04-12T07:32:42.083Z</time></trkpt><trkpt lat="33.9039694" lon="8.0368245"><ele>154.33333333333334</ele><time>2026-04-12T07:32:43.084Z</time></trkpt><trkpt lat="33.9039248" lon="8.0366163"><ele>154.0</ele><time>2026-04-12T07:32:44.083Z</time></trkpt><trkpt lat="33.9038777" lon="8.0364092"><ele>153.66666666666669</ele><time>2026-04-12T07:32:45.088Z</time></trkpt><trkpt lat="33.9038324" lon="8.0362055"><ele>153.33333333333334</ele><time>2026-04-12T07:32:46.084Z</time></trkpt><trkpt lat="33.903786" lon="8.0360028"><ele>153.0</ele><time>2026-04-12T07:32:47.09Z</time></trkpt><trkpt lat="33.9037412" lon="8.0357991"><ele>152.33333333333334</ele><time>2026-04-12T07:32:48.081Z</time></trkpt><trkpt lat="33.903698" lon="8.0355934"><ele>151.66666666666669</ele><time>2026-04-12T07:32:49.089Z</time></trkpt><trkpt lat="33.9036573" lon="8.035387"><ele>151.0</ele><time>2026-04-12T07:32:50.083Z</time></trkpt><trkpt lat="33.9036136" lon="8.0351795"><ele>151.0</ele><time>2026-04-12T07:32:51.082Z</time></trkpt><trkpt lat="33.903569" lon="8.0349711"><ele>151.0</ele><time>2026-04-12T07:32:52.081Z</time></trkpt><trkpt lat="33.9035257" lon="8.0347665"><ele>151.0</ele><time>2026-04-12T07:32:53.085Z</time></trkpt><trkpt lat="33.9034815" lon="8.0345616"><ele>151.66666666666669</ele><time>2026-04-12T07:32:54.083Z</time></trkpt><trkpt lat="33.9034377" lon="8.0343557"><ele>152.33333333333334</ele><time>2026-04-12T07:32:55.086Z</time></trkpt><trkpt lat="33.9033977" lon="8.034152"><ele>153.0</ele><time>2026-04-12T07:32:56.086Z</time></trkpt><trkpt lat="33.9033578" lon="8.0339478"><ele>153.0</ele><time>2026-04-12T07:32:57.088Z</time></trkpt><trkpt lat="33.9033157" lon="8.0337439"><ele>153.0</ele><time>2026-04-12T07:32:58.085Z</time></trkpt><trkpt lat="33.9032721" lon="8.0335427"><ele>153.0</ele><time>2026-04-12T07:32:59.089Z</time></trkpt><trkpt lat="33.9032303" lon="8.0333396"><ele>152.66666666666666</ele><time>2026-04-12T07:33:00.085Z</time></trkpt><trkpt lat="33.9031871" lon="8.0331325"><ele>152.33333333333331</ele><time>2026-04-12T07:33:01.088Z</time></trkpt><trkpt lat="33.9031434" lon="8.0329241"><ele>152.0</ele><time>2026-04-12T07:33:02.082Z</time></trkpt><trkpt lat="33.9030991" lon="8.0327164"><ele>152.0</ele><time>2026-04-12T07:33:03.106Z</time></trkpt><trkpt lat="33.9030518" lon="8.0325066"><ele>152.0</ele><time>2026-04-12T07:33:04.087Z</time></trkpt><trkpt lat="33.9030059" lon="8.0322968"><ele>152.0</ele><time>2026-04-12T07:33:05.087Z</time></trkpt><trkpt lat="33.902962" lon="8.032085"><ele>152.66666666666666</ele><time>2026-04-12T07:33:06.085Z</time></trkpt><trkpt lat="33.9029157" lon="8.0318674"><ele>153.33333333333334</ele><time>2026-04-12T07:33:07.086Z</time></trkpt><trkpt lat="33.9028689" lon="8.0316501"><ele>154.0</ele><time>2026-04-12T07:33:08.084Z</time></trkpt><trkpt lat="33.9028203" lon="8.0314377"><ele>154.33333333333334</ele><time>2026-04-12T07:33:09.089Z</time></trkpt><trkpt lat="33.9027741" lon="8.031229"><ele>154.66666666666666</ele><time>2026-04-12T07:33:10.083Z</time></trkpt><trkpt lat="33.9027285" lon="8.0310206"><ele>155.0</ele><time>2026-04-12T07:33:11.089Z</time></trkpt><trkpt lat="33.9026826" lon="8.0308117"><ele>155.33333333333331</ele><time>2026-04-12T07:33:12.077Z</time></trkpt><trkpt lat="33.9026409" lon="8.0306094"><ele>155.66666666666666</ele><time>2026-04-12T07:33:13.075Z</time></trkpt><trkpt lat="33.902598" lon="8.0304067"><ele>156.0</ele><time>2026-04-12T07:33:14.077Z</time></trkpt><trkpt lat="33.9025534" lon="8.030209"><ele>156.0</ele><time>2026-04-12T07:33:15.077Z</time></trkpt><trkpt lat="33.9025098" lon="8.030014"><ele>156.0</ele><time>2026-04-12T07:33:16.088Z</time></trkpt><trkpt lat="33.9024665" lon="8.0298183"><ele>156.0</ele><time>2026-04-12T07:33:17.081Z</time></trkpt><trkpt lat="33.902427" lon="8.0296258"><ele>156.0</ele><time>2026-04-12T07:33:18.081Z</time></trkpt><trkpt lat="33.9023874" lon="8.0294311"><ele>156.0</ele><time>2026-04-12T07:33:19.08Z</time></trkpt><trkpt lat="33.9023474" lon="8.0292414"><ele>156.0</ele><time>2026-04-12T07:33:20.076Z</time></trkpt><trkpt lat="33.9023056" lon="8.0290517"><ele>156.0</ele><time>2026-04-12T07:33:21.082Z</time></trkpt><trkpt lat="33.9022611" lon="8.0288616"><ele>156.0</ele><time>2026-04-12T07:33:22.079Z</time></trkpt><trkpt lat="33.902219" lon="8.0286681"><ele>156.0</ele><time>2026-04-12T07:33:23.077Z</time></trkpt><trkpt lat="33.9021768" lon="8.0284718"><ele>156.33333333333334</ele><time>2026-04-12T07:33:24.079Z</time></trkpt><trkpt lat="33.9021353" lon="8.0282704"><ele>156.66666666666669</ele><time>2026-04-12T07:33:25.077Z</time></trkpt><trkpt lat="33.9020938" lon="8.0280658"><ele>157.0</ele><time>2026-04-12T07:33:26.08Z</time></trkpt><trkpt lat="33.9020537" lon="8.0278578"><ele>157.0</ele><time>2026-04-12T07:33:27.082Z</time></trkpt><trkpt lat="33.9020092" lon="8.0276462"><ele>157.0</ele><time>2026-04-12T07:33:28.08Z</time></trkpt><trkpt lat="33.9019599" lon="8.0274313"><ele>157.0</ele><time>2026-04-12T07:33:29.083Z</time></trkpt><trkpt lat="33.9019111" lon="8.0272146"><ele>158.0</ele><time>2026-04-12T07:33:30.075Z</time></trkpt><trkpt lat="33.9018625" lon="8.0269997"><ele>159.0</ele><time>2026-04-12T07:33:31.079Z</time></trkpt><trkpt lat="33.9018128" lon="8.0267897"><ele>160.0</ele><time>2026-04-12T07:33:32.082Z</time></trkpt><trkpt lat="33.9017641" lon="8.0265825"><ele>160.33333333333334</ele><time>2026-04-12T07:33:33.074Z</time></trkpt><trkpt lat="33.9017171" lon="8.0263807"><ele>160.66666666666666</ele><time>2026-04-12T07:33:34.097Z</time></trkpt><trkpt lat="33.9016741" lon="8.0261859"><ele>161.0</ele><time>2026-04-12T07:33:35.079Z</time></trkpt><trkpt lat="33.9016345" lon="8.0259864"><ele>161.33333333333331</ele><time>2026-04-12T07:33:36.08Z</time></trkpt><trkpt lat="33.9015957" lon="8.0257897"><ele>161.66666666666666</ele><time>2026-04-12T07:33:37.083Z</time></trkpt><trkpt lat="33.9015556" lon="8.0255967"><ele>162.0</ele><time>2026-04-12T07:33:38.081Z</time></trkpt><trkpt lat="33.901516" lon="8.0254081"><ele>162.0</ele><time>2026-04-12T07:33:39.078Z</time></trkpt><trkpt lat="33.901477" lon="8.0252189"><ele>162.0</ele><time>2026-04-12T07:33:40.075Z</time></trkpt><trkpt lat="33.9014378" lon="8.0250331"><ele>162.0</ele><time>2026-04-12T07:33:41.078Z</time></trkpt><trkpt lat="33.9013968" lon="8.0248439"><ele>161.66666666666666</ele><time>2026-04-12T07:33:42.084Z</time></trkpt><trkpt lat="33.9013547" lon="8.0246549"><ele>161.33333333333331</ele><time>2026-04-12T07:33:43.08Z</time></trkpt><trkpt lat="33.9013127" lon="8.0244616"><ele>161.0</ele><time>2026-04-12T07:33:44.076Z</time></trkpt><trkpt lat="33.9012735" lon="8.0242644"><ele>162.33333333333331</ele><time>2026-04-12T07:33:45.089Z</time></trkpt><trkpt lat="33.9012307" lon="8.0240629"><ele>163.66666666666666</ele><time>2026-04-12T07:33:46.092Z</time></trkpt><trkpt lat="33.9011847" lon="8.023857"><ele>165.0</ele><time>2026-04-12T07:33:47.088Z</time></trkpt><trkpt lat="33.9011394" lon="8.0236511"><ele>165.0</ele><time>2026-04-12T07:33:48.083Z</time></trkpt><trkpt lat="33.9010911" lon="8.0234426"><ele>165.0</ele><time>2026-04-12T07:33:49.092Z</time></trkpt><trkpt lat="33.9010434" lon="8.0232365"><ele>165.0</ele><time>2026-04-12T07:33:50.092Z</time></trkpt><trkpt lat="33.9009978" lon="8.0230293"><ele>165.0</ele><time>2026-04-12T07:33:51.088Z</time></trkpt><trkpt lat="33.9009527" lon="8.0228255"><ele>165.0</ele><time>2026-04-12T07:33:52.087Z</time></trkpt><trkpt lat="33.9009074" lon="8.0226199"><ele>165.0</ele><time>2026-04-12T07:33:53.083Z</time></trkpt><trkpt lat="33.9008623" lon="8.0224183"><ele>164.0</ele><time>2026-04-12T07:33:54.082Z</time></trkpt><trkpt lat="33.9008193" lon="8.0222195"><ele>163.0</ele><time>2026-04-12T07:33:55.089Z</time></trkpt><trkpt lat="33.9007783" lon="8.0220171"><ele>162.0</ele><time>2026-04-12T07:33:56.079Z</time></trkpt><trkpt lat="33.9007379" lon="8.0218179"><ele>163.0</ele><time>2026-04-12T07:33:57.083Z</time></trkpt><trkpt lat="33.9006969" lon="8.0216181"><ele>164.0</ele><time>2026-04-12T07:33:58.091Z</time></trkpt><trkpt lat="33.9006534" lon="8.0214137"><ele>165.0</ele><time>2026-04-12T07:33:59.086Z</time></trkpt><trkpt lat="33.9006063" lon="8.0212088"><ele>165.0</ele><time>2026-04-12T07:34:00.075Z</time></trkpt><trkpt lat="33.9005598" lon="8.0210059"><ele>165.0</ele><time>2026-04-12T07:34:01.084Z</time></trkpt><trkpt lat="33.9005145" lon="8.0208029"><ele>165.0</ele><time>2026-04-12T07:34:02.078Z</time></trkpt><trkpt lat="33.9004733" lon="8.0206019"><ele>165.33333333333334</ele><time>2026-04-12T07:34:03.084Z</time></trkpt><trkpt lat="33.9004296" lon="8.0203977"><ele>165.66666666666669</ele><time>2026-04-12T07:34:04.078Z</time></trkpt><trkpt lat="33.9003848" lon="8.0201911"><ele>166.0</ele><time>2026-04-12T07:34:05.096Z</time></trkpt><trkpt lat="33.9003387" lon="8.0199811"><ele>165.0</ele><time>2026-04-12T07:34:06.083Z</time></trkpt><trkpt lat="33.9002918" lon="8.0197701"><ele>164.0</ele><time>2026-04-12T07:34:07.077Z</time></trkpt><trkpt lat="33.9002431" lon="8.0195559"><ele>163.0</ele><time>2026-04-12T07:34:08.078Z</time></trkpt><trkpt lat="33.9001932" lon="8.0193414"><ele>163.33333333333334</ele><time>2026-04-12T07:34:09.075Z</time></trkpt><trkpt lat="33.9001467" lon="8.0191287"><ele>163.66666666666666</ele><time>2026-04-12T07:34:10.08Z</time></trkpt><trkpt lat="33.9001016" lon="8.0189127"><ele>164.0</ele><time>2026-04-12T07:34:11.082Z</time></trkpt><trkpt lat="33.9000562" lon="8.0186927"><ele>163.66666666666666</ele><time>2026-04-12T07:34:12.078Z</time></trkpt><trkpt lat="33.9000116" lon="8.0184769"><ele>163.33333333333334</ele><time>2026-04-12T07:34:13.082Z</time></trkpt><trkpt lat="33.899967" lon="8.0182665"><ele>163.0</ele><time>2026-04-12T07:34:14.082Z</time></trkpt><trkpt lat="33.899922" lon="8.0180556"><ele>163.0</ele><time>2026-04-12T07:34:15.081Z</time></trkpt><trkpt lat="33.8998808" lon="8.017847"><ele>163.0</ele><time>2026-04-12T07:34:16.08Z</time></trkpt><trkpt lat="33.8998372" lon="8.0176375"><ele>163.0</ele><time>2026-04-12T07:34:17.083Z</time></trkpt><trkpt lat="33.8997934" lon="8.0174281"><ele>163.0</ele><time>2026-04-12T07:34:18.079Z</time></trkpt><trkpt lat="33.8997476" lon="8.0172186"><ele>163.0</ele><time>2026-04-12T07:34:19.085Z</time></trkpt><trkpt lat="33.8997044" lon="8.0170108"><ele>163.0</ele><time>2026-04-12T07:34:20.082Z</time></trkpt><trkpt lat="33.8996622" lon="8.0168065"><ele>163.66666666666669</ele><time>2026-04-12T07:34:21.085Z</time></trkpt><trkpt lat="33.8996171" lon="8.0166031"><ele>164.33333333333334</ele><time>2026-04-12T07:34:22.08Z</time></trkpt><trkpt lat="33.8995699" lon="8.0163939"><ele>165.0</ele><time>2026-04-12T07:34:23.075Z</time></trkpt><trkpt lat="33.8995225" lon="8.0161862"><ele>165.0</ele><time>2026-04-12T07:34:24.085Z</time></trkpt><trkpt lat="33.8994748" lon="8.0159736"><ele>165.0</ele><time>2026-04-12T07:34:25.079Z</time></trkpt><trkpt lat="33.8994278" lon="8.0157573"><ele>165.0</ele><time>2026-04-12T07:34:26.084Z</time></trkpt><trkpt lat="33.8993818" lon="8.0155383"><ele>165.0</ele><time>2026-04-12T07:34:27.087Z</time></trkpt><trkpt lat="33.899337" lon="8.0153209"><ele>165.0</ele><time>2026-04-12T07:34:28.076Z</time></trkpt><trkpt lat="33.8992976" lon="8.0151087"><ele>165.0</ele><time>2026-04-12T07:34:29.085Z</time></trkpt><trkpt lat="33.8992557" lon="8.0149022"><ele>164.75</ele><time>2026-04-12T07:34:30.071Z</time></trkpt><trkpt lat="33.8992144" lon="8.0147108"><ele>164.5</ele><time>2026-04-12T07:34:31.077Z</time></trkpt><trkpt lat="33.8991774" lon="8.0145347"><ele>164.25</ele><time>2026-04-12T07:34:32.074Z</time></trkpt><trkpt lat="33.8991477" lon="8.0143797"><ele>164.0</ele><time>2026-04-12T07:34:33.067Z</time></trkpt><trkpt lat="33.8991205" lon="8.0142412"><ele>163.66666666666666</ele><time>2026-04-12T07:34:34.063Z</time></trkpt><trkpt lat="33.8990967" lon="8.0141251"><ele>163.33333333333331</ele><time>2026-04-12T07:34:35.061Z</time></trkpt><trkpt lat="33.8990811" lon="8.0140457"><ele>163.0</ele><time>2026-04-12T07:34:36.075Z</time></trkpt><trkpt lat="33.8990558" lon="8.0139197"><ele>162.66666666666666</ele><time>2026-04-12T07:34:38.078Z</time></trkpt><trkpt lat="33.8990351" lon="8.0138234"><ele>162.33333333333334</ele><time>2026-04-12T07:34:40.08Z</time></trkpt><trkpt lat="33.8990156" lon="8.0137462"><ele>162.0</ele><time>2026-04-12T07:34:47.084Z</time></trkpt><trkpt lat="33.8990102" lon="8.0136578"><ele>162.0</ele><time>2026-04-12T07:35:37.086Z</time></trkpt><trkpt lat="33.8989957" lon="8.0135704"><ele>162.0</ele><time>2026-04-12T07:35:41.085Z</time></trkpt><trkpt lat="33.8989606" lon="8.0134397"><ele>162.0</ele><time>2026-04-12T07:35:44.082Z</time></trkpt><trkpt lat="33.8989199" lon="8.0133"><ele>162.0</ele><time>2026-04-12T07:35:46.087Z</time></trkpt><trkpt lat="33.8988935" lon="8.0132088"><ele>162.0</ele><time>2026-04-12T07:35:47.065Z</time></trkpt><trkpt lat="33.898871" lon="8.0131071"><ele>162.6</ele><time>2026-04-12T07:35:48.071Z</time></trkpt><trkpt lat="33.8988548" lon="8.0130021"><ele>163.2</ele><time>2026-04-12T07:35:49.069Z</time></trkpt><trkpt lat="33.8988325" lon="8.0128796"><ele>163.8</ele><time>2026-04-12T07:35:50.071Z</time></trkpt><trkpt lat="33.8988069" lon="8.0127473"><ele>164.4</ele><time>2026-04-12T07:35:51.07Z</time></trkpt><trkpt lat="33.8987802" lon="8.0126047"><ele>165.0</ele><time>2026-04-12T07:35:52.071Z</time></trkpt><trkpt lat="33.8987493" lon="8.0124518"><ele>165.0</ele><time>2026-04-12T07:35:53.069Z</time></trkpt><trkpt lat="33.8987144" lon="8.0122889"><ele>165.0</ele><time>2026-04-12T07:35:54.064Z</time></trkpt><trkpt lat="33.8986777" lon="8.0121232"><ele>165.0</ele><time>2026-04-12T07:35:55.072Z</time></trkpt><trkpt lat="33.8986409" lon="8.0119528"><ele>165.0</ele><time>2026-04-12T07:35:56.073Z</time></trkpt><trkpt lat="33.8986043" lon="8.0117779"><ele>164.66666666666666</ele><time>2026-04-12T07:35:57.073Z</time></trkpt><trkpt lat="33.8985617" lon="8.0115985"><ele>164.33333333333331</ele><time>2026-04-12T07:35:58.075Z</time></trkpt><trkpt lat="33.8985172" lon="8.0114101"><ele>164.0</ele><time>2026-04-12T07:35:59.072Z</time></trkpt><trkpt lat="33.898474" lon="8.0112169"><ele>164.0</ele><time>2026-04-12T07:36:00.067Z</time></trkpt><trkpt lat="33.8984289" lon="8.0110176"><ele>164.0</ele><time>2026-04-12T07:36:01.066Z</time></trkpt><trkpt lat="33.8983817" lon="8.0108127"><ele>164.0</ele><time>2026-04-12T07:36:02.069Z</time></trkpt><trkpt lat="33.8983329" lon="8.0106027"><ele>163.33333333333331</ele><time>2026-04-12T07:36:03.068Z</time></trkpt><trkpt lat="33.8982847" lon="8.0103913"><ele>162.66666666666666</ele><time>2026-04-12T07:36:04.068Z</time></trkpt><trkpt lat="33.8982372" lon="8.0101753"><ele>162.0</ele><time>2026-04-12T07:36:05.065Z</time></trkpt><trkpt lat="33.8981938" lon="8.009959"><ele>162.0</ele><time>2026-04-12T07:36:06.07Z</time></trkpt><trkpt lat="33.8981486" lon="8.0097392"><ele>162.0</ele><time>2026-04-12T07:36:07.077Z</time></trkpt><trkpt lat="33.8981044" lon="8.0095217"><ele>162.0</ele><time>2026-04-12T07:36:08.071Z</time></trkpt><trkpt lat="33.8980607" lon="8.0093034"><ele>162.0</ele><time>2026-04-12T07:36:09.113Z</time></trkpt><trkpt lat="33.8980145" lon="8.009083"><ele>162.0</ele><time>2026-04-12T07:36:10.075Z</time></trkpt><trkpt lat="33.8979659" lon="8.0088658"><ele>162.0</ele><time>2026-04-12T07:36:11.064Z</time></trkpt><trkpt lat="33.8979169" lon="8.0086515"><ele>162.0</ele><time>2026-04-12T07:36:12.072Z</time></trkpt><trkpt lat="33.8978677" lon="8.0084342"><ele>162.0</ele><time>2026-04-12T07:36:13.066Z</time></trkpt><trkpt lat="33.8978194" lon="8.0082169"><ele>162.0</ele><time>2026-04-12T07:36:14.073Z</time></trkpt><trkpt lat="33.8977707" lon="8.0079982"><ele>162.0</ele><time>2026-04-12T07:36:15.065Z</time></trkpt><trkpt lat="33.8977227" lon="8.0077774"><ele>162.0</ele><time>2026-04-12T07:36:16.076Z</time></trkpt><trkpt lat="33.8976744" lon="8.0075537"><ele>162.0</ele><time>2026-04-12T07:36:17.067Z</time></trkpt><trkpt lat="33.8976252" lon="8.0073275"><ele>162.0</ele><time>2026-04-12T07:36:18.068Z</time></trkpt><trkpt lat="33.8975768" lon="8.0070976"><ele>162.0</ele><time>2026-04-12T07:36:19.071Z</time></trkpt><trkpt lat="33.8975303" lon="8.0068676"><ele>162.0</ele><time>2026-04-12T07:36:20.073Z</time></trkpt><trkpt lat="33.897483" lon="8.0066359"><ele>162.0</ele><time>2026-04-12T07:36:21.069Z</time></trkpt><trkpt lat="33.8974341" lon="8.0064077"><ele>162.0</ele><time>2026-04-12T07:36:22.065Z</time></trkpt><trkpt lat="33.8973833" lon="8.0061801"><ele>162.0</ele><time>2026-04-12T07:36:23.068Z</time></trkpt><trkpt lat="33.8973318" lon="8.0059562"><ele>161.0</ele><time>2026-04-12T07:36:24.066Z</time></trkpt><trkpt lat="33.8972832" lon="8.0057322"><ele>160.0</ele><time>2026-04-12T07:36:25.064Z</time></trkpt><trkpt lat="33.8972353" lon="8.0055041"><ele>159.0</ele><time>2026-04-12T07:36:26.077Z</time></trkpt><trkpt lat="33.8971843" lon="8.0052703"><ele>159.0</ele><time>2026-04-12T07:36:27.063Z</time></trkpt><trkpt lat="33.8971349" lon="8.0050358"><ele>159.0</ele><time>2026-04-12T07:36:28.068Z</time></trkpt><trkpt lat="33.8970874" lon="8.0047989"><ele>159.0</ele><time>2026-04-12T07:36:29.071Z</time></trkpt><trkpt lat="33.8970383" lon="8.0045619"><ele>158.0</ele><time>2026-04-12T07:36:30.063Z</time></trkpt><trkpt lat="33.8969893" lon="8.0043254"><ele>157.0</ele><time>2026-04-12T07:36:31.072Z</time></trkpt><trkpt lat="33.8969379" lon="8.0040861"><ele>156.0</ele><time>2026-04-12T07:36:32.067Z</time></trkpt><trkpt lat="33.8968848" lon="8.0038449"><ele>156.0</ele><time>2026-04-12T07:36:33.069Z</time></trkpt><trkpt lat="33.8968335" lon="8.0036097"><ele>156.0</ele><time>2026-04-12T07:36:34.069Z</time></trkpt><trkpt lat="33.8967786" lon="8.0033723"><ele>156.0</ele><time>2026-04-12T07:36:35.062Z</time></trkpt><trkpt lat="33.8967261" lon="8.0031342"><ele>155.66666666666666</ele><time>2026-04-12T07:36:36.066Z</time></trkpt><trkpt lat="33.8966745" lon="8.002897"><ele>155.33333333333331</ele><time>2026-04-12T07:36:37.062Z</time></trkpt><trkpt lat="33.8966205" lon="8.0026509"><ele>155.0</ele><time>2026-04-12T07:36:38.066Z</time></trkpt><trkpt lat="33.8965673" lon="8.0024055"><ele>154.66666666666666</ele><time>2026-04-12T07:36:39.075Z</time></trkpt><trkpt lat="33.8965157" lon="8.0021666"><ele>154.33333333333334</ele><time>2026-04-12T07:36:40.065Z</time></trkpt><trkpt lat="33.8964639" lon="8.0019301"><ele>154.0</ele><time>2026-04-12T07:36:41.063Z</time></trkpt><trkpt lat="33.8964108" lon="8.0016945"><ele>154.33333333333334</ele><time>2026-04-12T07:36:42.061Z</time></trkpt><trkpt lat="33.896359" lon="8.00146"><ele>154.66666666666666</ele><time>2026-04-12T07:36:43.063Z</time></trkpt><trkpt lat="33.8963101" lon="8.0012309"><ele>155.0</ele><time>2026-04-12T07:36:44.065Z</time></trkpt><trkpt lat="33.8962641" lon="8.001003"><ele>155.33333333333331</ele><time>2026-04-12T07:36:45.072Z</time></trkpt><trkpt lat="33.8962173" lon="8.0007749"><ele>155.66666666666666</ele><time>2026-04-12T07:36:46.069Z</time></trkpt><trkpt lat="33.8961719" lon="8.0005518"><ele>156.0</ele><time>2026-04-12T07:36:47.066Z</time></trkpt><trkpt lat="33.8961274" lon="8.0003332"><ele>156.0</ele><time>2026-04-12T07:36:48.068Z</time></trkpt><trkpt lat="33.8960824" lon="8.000122"><ele>156.0</ele><time>2026-04-12T07:36:49.064Z</time></trkpt><trkpt lat="33.8960362" lon="7.9999104"><ele>156.0</ele><time>2026-04-12T07:36:50.07Z</time></trkpt><trkpt lat="33.8959937" lon="7.9996972"><ele>156.0</ele><time>2026-04-12T07:36:51.069Z</time></trkpt><trkpt lat="33.8959481" lon="7.9994801"><ele>156.0</ele><time>2026-04-12T07:36:52.079Z</time></trkpt><trkpt lat="33.895903" lon="7.9992618"><ele>156.0</ele><time>2026-04-12T07:36:53.075Z</time></trkpt><trkpt lat="33.8958598" lon="7.9990443"><ele>155.66666666666666</ele><time>2026-04-12T07:36:54.067Z</time></trkpt><trkpt lat="33.8958165" lon="7.9988286"><ele>155.33333333333331</ele><time>2026-04-12T07:36:55.08Z</time></trkpt><trkpt lat="33.8957742" lon="7.9986128"><ele>155.0</ele><time>2026-04-12T07:36:56.076Z</time></trkpt><trkpt lat="33.8957278" lon="7.9983951"><ele>154.33333333333331</ele><time>2026-04-12T07:36:57.075Z</time></trkpt><trkpt lat="33.8956839" lon="7.9981815"><ele>153.66666666666666</ele><time>2026-04-12T07:36:58.081Z</time></trkpt><trkpt lat="33.895637" lon="7.9979669"><ele>153.0</ele><time>2026-04-12T07:36:59.077Z</time></trkpt><trkpt lat="33.8955886" lon="7.9977547"><ele>153.0</ele><time>2026-04-12T07:37:00.081Z</time></trkpt><trkpt lat="33.8955429" lon="7.997544"><ele>153.0</ele><time>2026-04-12T07:37:01.08Z</time></trkpt><trkpt lat="33.8954986" lon="7.9973337"><ele>153.0</ele><time>2026-04-12T07:37:02.078Z</time></trkpt><trkpt lat="33.8954544" lon="7.9971163"><ele>153.0</ele><time>2026-04-12T07:37:03.076Z</time></trkpt><trkpt lat="33.8954105" lon="7.9968962"><ele>153.0</ele><time>2026-04-12T07:37:04.075Z</time></trkpt><trkpt lat="33.8953614" lon="7.9966755"><ele>153.0</ele><time>2026-04-12T07:37:05.075Z</time></trkpt><trkpt lat="33.8953119" lon="7.9964527"><ele>153.33333333333334</ele><time>2026-04-12T07:37:06.071Z</time></trkpt><trkpt lat="33.8952633" lon="7.9962347"><ele>153.66666666666669</ele><time>2026-04-12T07:37:07.077Z</time></trkpt><trkpt lat="33.8952139" lon="7.9960172"><ele>154.0</ele><time>2026-04-12T07:37:08.075Z</time></trkpt><trkpt lat="33.8951656" lon="7.9957936"><ele>154.66666666666669</ele><time>2026-04-12T07:37:09.078Z</time></trkpt><trkpt lat="33.8951183" lon="7.9955691"><ele>155.33333333333334</ele><time>2026-04-12T07:37:10.087Z</time></trkpt><trkpt lat="33.8950678" lon="7.9953412"><ele>156.0</ele><time>2026-04-12T07:37:11.074Z</time></trkpt><trkpt lat="33.8950184" lon="7.9951148"><ele>155.33333333333334</ele><time>2026-04-12T07:37:12.076Z</time></trkpt><trkpt lat="33.8949706" lon="7.9948923"><ele>154.66666666666669</ele><time>2026-04-12T07:37:13.073Z</time></trkpt><trkpt lat="33.8949212" lon="7.9946709"><ele>154.0</ele><time>2026-04-12T07:37:14.077Z</time></trkpt><trkpt lat="33.8948723" lon="7.9944529"><ele>154.0</ele><time>2026-04-12T07:37:15.076Z</time></trkpt><trkpt lat="33.8948235" lon="7.9942356"><ele>154.0</ele><time>2026-04-12T07:37:16.074Z</time></trkpt><trkpt lat="33.8947749" lon="7.9940188"><ele>154.0</ele><time>2026-04-12T07:37:17.075Z</time></trkpt><trkpt lat="33.8947279" lon="7.9937996"><ele>153.66666666666669</ele><time>2026-04-12T07:37:18.074Z</time></trkpt><trkpt lat="33.8946832" lon="7.9935817"><ele>153.33333333333334</ele><time>2026-04-12T07:37:19.083Z</time></trkpt><trkpt lat="33.8946391" lon="7.9933654"><ele>153.0</ele><time>2026-04-12T07:37:20.071Z</time></trkpt><trkpt lat="33.8945944" lon="7.9931465"><ele>153.0</ele><time>2026-04-12T07:37:21.074Z</time></trkpt><trkpt lat="33.8945507" lon="7.9929262"><ele>153.0</ele><time>2026-04-12T07:37:22.074Z</time></trkpt><trkpt lat="33.8945047" lon="7.9927053"><ele>153.0</ele><time>2026-04-12T07:37:23.076Z</time></trkpt><trkpt lat="33.8944584" lon="7.9924828"><ele>152.66666666666666</ele><time>2026-04-12T07:37:24.072Z</time></trkpt><trkpt lat="33.8944131" lon="7.9922575"><ele>152.33333333333331</ele><time>2026-04-12T07:37:25.078Z</time></trkpt><trkpt lat="33.8943669" lon="7.9920269"><ele>152.0</ele><time>2026-04-12T07:37:26.078Z</time></trkpt><trkpt lat="33.8943185" lon="7.9917934"><ele>152.0</ele><time>2026-04-12T07:37:27.071Z</time></trkpt><trkpt lat="33.8942666" lon="7.9915589"><ele>152.0</ele><time>2026-04-12T07:37:28.073Z</time></trkpt><trkpt lat="33.8942144" lon="7.9913216"><ele>152.0</ele><time>2026-04-12T07:37:29.074Z</time></trkpt><trkpt lat="33.8941624" lon="7.9910819"><ele>150.66666666666666</ele><time>2026-04-12T07:37:30.088Z</time></trkpt><trkpt lat="33.8941098" lon="7.9908423"><ele>149.33333333333334</ele><time>2026-04-12T07:37:31.073Z</time></trkpt><trkpt lat="33.8940569" lon="7.9905994"><ele>148.0</ele><time>2026-04-12T07:37:32.086Z</time></trkpt><trkpt lat="33.8940048" lon="7.9903541"><ele>148.0</ele><time>2026-04-12T07:37:33.077Z</time></trkpt><trkpt lat="33.8939493" lon="7.990106"><ele>148.0</ele><time>2026-04-12T07:37:34.078Z</time></trkpt><trkpt lat="33.8938936" lon="7.9898605"><ele>148.0</ele><time>2026-04-12T07:37:35.079Z</time></trkpt><trkpt lat="33.8938412" lon="7.9896181"><ele>147.66666666666669</ele><time>2026-04-12T07:37:36.078Z</time></trkpt><trkpt lat="33.8937902" lon="7.9893778"><ele>147.33333333333334</ele><time>2026-04-12T07:37:37.079Z</time></trkpt><trkpt lat="33.8937406" lon="7.9891396"><ele>147.0</ele><time>2026-04-12T07:37:38.083Z</time></trkpt><trkpt lat="33.8936912" lon="7.9888996"><ele>147.0</ele><time>2026-04-12T07:37:39.074Z</time></trkpt><trkpt lat="33.8936392" lon="7.9886605"><ele>147.0</ele><time>2026-04-12T07:37:40.081Z</time></trkpt><trkpt lat="33.8935897" lon="7.9884191"><ele>147.0</ele><time>2026-04-12T07:37:41.095Z</time></trkpt><trkpt lat="33.8935372" lon="7.9881752"><ele>146.66666666666666</ele><time>2026-04-12T07:37:42.089Z</time></trkpt><trkpt lat="33.893485" lon="7.9879314"><ele>146.33333333333331</ele><time>2026-04-12T07:37:43.082Z</time></trkpt><trkpt lat="33.8934335" lon="7.9876877"><ele>146.0</ele><time>2026-04-12T07:37:44.08Z</time></trkpt><trkpt lat="33.893381" lon="7.9874468"><ele>145.33333333333331</ele><time>2026-04-12T07:37:45.08Z</time></trkpt><trkpt lat="33.8933285" lon="7.9872079"><ele>144.66666666666666</ele><time>2026-04-12T07:37:46.087Z</time></trkpt><trkpt lat="33.8932749" lon="7.9869681"><ele>144.0</ele><time>2026-04-12T07:37:47.079Z</time></trkpt><trkpt lat="33.8932208" lon="7.986725"><ele>143.33333333333334</ele><time>2026-04-12T07:37:48.081Z</time></trkpt><trkpt lat="33.8931695" lon="7.9864923"><ele>142.66666666666669</ele><time>2026-04-12T07:37:49.085Z</time></trkpt><trkpt lat="33.8931206" lon="7.9862599"><ele>142.0</ele><time>2026-04-12T07:37:50.075Z</time></trkpt><trkpt lat="33.8930702" lon="7.9860265"><ele>142.33333333333334</ele><time>2026-04-12T07:37:51.085Z</time></trkpt><trkpt lat="33.8930189" lon="7.9857887"><ele>142.66666666666666</ele><time>2026-04-12T07:37:52.094Z</time></trkpt><trkpt lat="33.8929672" lon="7.9855475"><ele>143.0</ele><time>2026-04-12T07:37:53.083Z</time></trkpt><trkpt lat="33.892918" lon="7.9853085"><ele>143.0</ele><time>2026-04-12T07:37:54.082Z</time></trkpt><trkpt lat="33.8928671" lon="7.9850678"><ele>143.0</ele><time>2026-04-12T07:37:55.084Z</time></trkpt><trkpt lat="33.8928136" lon="7.984823"><ele>143.0</ele><time>2026-04-12T07:37:56.082Z</time></trkpt><trkpt lat="33.8927608" lon="7.9845785"><ele>143.0</ele><time>2026-04-12T07:37:57.077Z</time></trkpt><trkpt lat="33.8927077" lon="7.9843353"><ele>143.0</ele><time>2026-04-12T07:37:58.083Z</time></trkpt><trkpt lat="33.892655" lon="7.9840972"><ele>143.0</ele><time>2026-04-12T07:37:59.089Z</time></trkpt><trkpt lat="33.8926049" lon="7.9838599"><ele>142.66666666666666</ele><time>2026-04-12T07:38:00.083Z</time></trkpt><trkpt lat="33.892555" lon="7.9836196"><ele>142.33333333333334</ele><time>2026-04-12T07:38:01.088Z</time></trkpt><trkpt lat="33.8925047" lon="7.983377"><ele>142.0</ele><time>2026-04-12T07:38:02.093Z</time></trkpt><trkpt lat="33.8924556" lon="7.9831336"><ele>142.0</ele><time>2026-04-12T07:38:03.084Z</time></trkpt><trkpt lat="33.8924059" lon="7.9828927"><ele>142.0</ele><time>2026-04-12T07:38:04.082Z</time></trkpt><trkpt lat="33.8923566" lon="7.9826541"><ele>142.0</ele><time>2026-04-12T07:38:05.087Z</time></trkpt><trkpt lat="33.8923074" lon="7.9824187"><ele>142.66666666666669</ele><time>2026-04-12T07:38:06.077Z</time></trkpt><trkpt lat="33.8922576" lon="7.9821905"><ele>143.33333333333334</ele><time>2026-04-12T07:38:07.08Z</time></trkpt><trkpt lat="33.8922073" lon="7.9819633"><ele>144.0</ele><time>2026-04-12T07:38:08.08Z</time></trkpt><trkpt lat="33.8921578" lon="7.9817354"><ele>144.66666666666666</ele><time>2026-04-12T07:38:09.072Z</time></trkpt><trkpt lat="33.8921104" lon="7.9815093"><ele>145.33333333333331</ele><time>2026-04-12T07:38:10.075Z</time></trkpt><trkpt lat="33.8920633" lon="7.981282"><ele>146.0</ele><time>2026-04-12T07:38:11.073Z</time></trkpt><trkpt lat="33.8920148" lon="7.9810567"><ele>146.33333333333331</ele><time>2026-04-12T07:38:12.104Z</time></trkpt><trkpt lat="33.8919659" lon="7.9808317"><ele>146.66666666666666</ele><time>2026-04-12T07:38:13.075Z</time></trkpt><trkpt lat="33.8919166" lon="7.9806109"><ele>147.0</ele><time>2026-04-12T07:38:14.077Z</time></trkpt><trkpt lat="33.8918664" lon="7.9803912"><ele>147.0</ele><time>2026-04-12T07:38:15.079Z</time></trkpt><trkpt lat="33.8918171" lon="7.9801721"><ele>147.0</ele><time>2026-04-12T07:38:16.074Z</time></trkpt><trkpt lat="33.8917689" lon="7.9799555"><ele>147.0</ele><time>2026-04-12T07:38:17.073Z</time></trkpt><trkpt lat="33.8917206" lon="7.9797384"><ele>145.66666666666666</ele><time>2026-04-12T07:38:18.075Z</time></trkpt><trkpt lat="33.8916736" lon="7.9795192"><ele>144.33333333333331</ele><time>2026-04-12T07:38:19.075Z</time></trkpt><trkpt lat="33.8916262" lon="7.9793035"><ele>143.0</ele><time>2026-04-12T07:38:20.075Z</time></trkpt><trkpt lat="33.8915796" lon="7.9790901"><ele>143.0</ele><time>2026-04-12T07:38:21.074Z</time></trkpt><trkpt lat="33.8915342" lon="7.9788758"><ele>143.0</ele><time>2026-04-12T07:38:22.09Z</time></trkpt><trkpt lat="33.8914897" lon="7.9786593"><ele>143.0</ele><time>2026-04-12T07:38:23.085Z</time></trkpt><trkpt lat="33.8914432" lon="7.9784405"><ele>142.66666666666666</ele><time>2026-04-12T07:38:24.076Z</time></trkpt><trkpt lat="33.8913987" lon="7.9782198"><ele>142.33333333333334</ele><time>2026-04-12T07:38:25.085Z</time></trkpt><trkpt lat="33.8913528" lon="7.9779996"><ele>142.0</ele><time>2026-04-12T07:38:26.078Z</time></trkpt><trkpt lat="33.8913065" lon="7.9777794"><ele>142.0</ele><time>2026-04-12T07:38:27.075Z</time></trkpt><trkpt lat="33.8912602" lon="7.9775642"><ele>142.0</ele><time>2026-04-12T07:38:28.076Z</time></trkpt><trkpt lat="33.8912123" lon="7.9773507"><ele>142.0</ele><time>2026-04-12T07:38:29.079Z</time></trkpt><trkpt lat="33.8911662" lon="7.9771359"><ele>142.0</ele><time>2026-04-12T07:38:30.082Z</time></trkpt><trkpt lat="33.8911214" lon="7.9769185"><ele>142.0</ele><time>2026-04-12T07:38:31.074Z</time></trkpt><trkpt lat="33.8910744" lon="7.9767031"><ele>142.0</ele><time>2026-04-12T07:38:32.087Z</time></trkpt><trkpt lat="33.8910269" lon="7.976492"><ele>142.66666666666669</ele><time>2026-04-12T07:38:33.079Z</time></trkpt><trkpt lat="33.8909819" lon="7.9762796"><ele>143.33333333333334</ele><time>2026-04-12T07:38:34.082Z</time></trkpt><trkpt lat="33.8909356" lon="7.9760651"><ele>144.0</ele><time>2026-04-12T07:38:35.074Z</time></trkpt><trkpt lat="33.8908905" lon="7.9758527"><ele>142.66666666666666</ele><time>2026-04-12T07:38:36.076Z</time></trkpt><trkpt lat="33.8908455" lon="7.9756467"><ele>141.33333333333331</ele><time>2026-04-12T07:38:37.086Z</time></trkpt><trkpt lat="33.8908001" lon="7.9754453"><ele>140.0</ele><time>2026-04-12T07:38:38.078Z</time></trkpt><trkpt lat="33.8907556" lon="7.975247"><ele>140.0</ele><time>2026-04-12T07:38:39.077Z</time></trkpt><trkpt lat="33.890714" lon="7.9750495"><ele>140.0</ele><time>2026-04-12T07:38:40.076Z</time></trkpt><trkpt lat="33.8906705" lon="7.9748549"><ele>140.0</ele><time>2026-04-12T07:38:41.073Z</time></trkpt><trkpt lat="33.8906289" lon="7.9746626"><ele>140.66666666666666</ele><time>2026-04-12T07:38:42.087Z</time></trkpt><trkpt lat="33.890586" lon="7.9744751"><ele>141.33333333333334</ele><time>2026-04-12T07:38:43.096Z</time></trkpt><trkpt lat="33.8905433" lon="7.9742816"><ele>142.0</ele><time>2026-04-12T07:38:44.075Z</time></trkpt><trkpt lat="33.8905009" lon="7.9740845"><ele>142.0</ele><time>2026-04-12T07:38:45.084Z</time></trkpt><trkpt lat="33.8904592" lon="7.973884"><ele>142.0</ele><time>2026-04-12T07:38:46.079Z</time></trkpt><trkpt lat="33.890414" lon="7.9736789"><ele>142.0</ele><time>2026-04-12T07:38:47.078Z</time></trkpt><trkpt lat="33.8903704" lon="7.9734692"><ele>142.33333333333334</ele><time>2026-04-12T07:38:48.077Z</time></trkpt><trkpt lat="33.8903261" lon="7.9732546"><ele>142.66666666666666</ele><time>2026-04-12T07:38:49.073Z</time></trkpt><trkpt lat="33.890281" lon="7.9730376"><ele>143.0</ele><time>2026-04-12T07:38:50.087Z</time></trkpt><trkpt lat="33.8902325" lon="7.9728153"><ele>143.0</ele><time>2026-04-12T07:38:51.077Z</time></trkpt><trkpt lat="33.8901826" lon="7.9725898"><ele>143.0</ele><time>2026-04-12T07:38:52.087Z</time></trkpt><trkpt lat="33.8901343" lon="7.9723595"><ele>143.0</ele><time>2026-04-12T07:38:53.078Z</time></trkpt><trkpt lat="33.8900856" lon="7.97213"><ele>141.66666666666666</ele><time>2026-04-12T07:38:54.075Z</time></trkpt><trkpt lat="33.8900373" lon="7.9719026"><ele>140.33333333333334</ele><time>2026-04-12T07:38:55.076Z</time></trkpt><trkpt lat="33.889991" lon="7.9716778"><ele>139.0</ele><time>2026-04-12T07:38:56.074Z</time></trkpt><trkpt lat="33.8899438" lon="7.9714575"><ele>139.0</ele><time>2026-04-12T07:38:57.077Z</time></trkpt><trkpt lat="33.8898965" lon="7.9712406"><ele>139.0</ele><time>2026-04-12T07:38:58.082Z</time></trkpt><trkpt lat="33.8898487" lon="7.9710264"><ele>139.0</ele><time>2026-04-12T07:38:59.077Z</time></trkpt><trkpt lat="33.8898023" lon="7.9708169"><ele>139.33333333333334</ele><time>2026-04-12T07:39:00.086Z</time></trkpt><trkpt lat="33.8897564" lon="7.9706055"><ele>139.66666666666666</ele><time>2026-04-12T07:39:01.085Z</time></trkpt><trkpt lat="33.8897105" lon="7.9703906"><ele>140.0</ele><time>2026-04-12T07:39:02.081Z</time></trkpt><trkpt lat="33.8896645" lon="7.9701753"><ele>140.33333333333331</ele><time>2026-04-12T07:39:03.083Z</time></trkpt><trkpt lat="33.8896196" lon="7.9699601"><ele>140.66666666666666</ele><time>2026-04-12T07:39:04.072Z</time></trkpt><trkpt lat="33.8895728" lon="7.969747"><ele>141.0</ele><time>2026-04-12T07:39:05.075Z</time></trkpt><trkpt lat="33.8895258" lon="7.9695369"><ele>141.0</ele><time>2026-04-12T07:39:06.076Z</time></trkpt><trkpt lat="33.8894805" lon="7.9693277"><ele>141.0</ele><time>2026-04-12T07:39:07.085Z</time></trkpt><trkpt lat="33.889436" lon="7.9691194"><ele>141.0</ele><time>2026-04-12T07:39:08.077Z</time></trkpt><trkpt lat="33.8893927" lon="7.9689112"><ele>141.0</ele><time>2026-04-12T07:39:09.074Z</time></trkpt><trkpt lat="33.8893504" lon="7.9687017"><ele>141.0</ele><time>2026-04-12T07:39:10.08Z</time></trkpt><trkpt lat="33.8893082" lon="7.9684914"><ele>141.0</ele><time>2026-04-12T07:39:11.07Z</time></trkpt><trkpt lat="33.889266" lon="7.9682786"><ele>140.33333333333334</ele><time>2026-04-12T07:39:12.094Z</time></trkpt><trkpt lat="33.8892233" lon="7.9680636"><ele>139.66666666666669</ele><time>2026-04-12T07:39:13.077Z</time></trkpt><trkpt lat="33.8891778" lon="7.9678485"><ele>139.0</ele><time>2026-04-12T07:39:14.097Z</time></trkpt><trkpt lat="33.8891331" lon="7.9676347"><ele>139.66666666666669</ele><time>2026-04-12T07:39:15.078Z</time></trkpt><trkpt lat="33.8890891" lon="7.9674213"><ele>140.33333333333334</ele><time>2026-04-12T07:39:16.083Z</time></trkpt><trkpt lat="33.8890417" lon="7.9672078"><ele>141.0</ele><time>2026-04-12T07:39:17.08Z</time></trkpt><trkpt lat="33.8889957" lon="7.9669925"><ele>141.0</ele><time>2026-04-12T07:39:18.075Z</time></trkpt><trkpt lat="33.888948" lon="7.9667742"><ele>141.0</ele><time>2026-04-12T07:39:19.082Z</time></trkpt><trkpt lat="33.8889015" lon="7.9665573"><ele>141.0</ele><time>2026-04-12T07:39:20.086Z</time></trkpt><trkpt lat="33.8888559" lon="7.9663412"><ele>140.66666666666666</ele><time>2026-04-12T07:39:21.083Z</time></trkpt><trkpt lat="33.888813" lon="7.9661282"><ele>140.33333333333331</ele><time>2026-04-12T07:39:22.089Z</time></trkpt><trkpt lat="33.8887675" lon="7.9659195"><ele>140.0</ele><time>2026-04-12T07:39:23.073Z</time></trkpt><trkpt lat="33.8887219" lon="7.9657116"><ele>140.0</ele><time>2026-04-12T07:39:24.071Z</time></trkpt><trkpt lat="33.8886778" lon="7.9655058"><ele>140.0</ele><time>2026-04-12T07:39:25.079Z</time></trkpt><trkpt lat="33.8886336" lon="7.9653015"><ele>140.0</ele><time>2026-04-12T07:39:26.077Z</time></trkpt><trkpt lat="33.8885923" lon="7.965099"><ele>140.33333333333331</ele><time>2026-04-12T07:39:27.07Z</time></trkpt><trkpt lat="33.8885508" lon="7.9648955"><ele>140.66666666666666</ele><time>2026-04-12T07:39:28.077Z</time></trkpt><trkpt lat="33.8885114" lon="7.9646965"><ele>141.0</ele><time>2026-04-12T07:39:29.084Z</time></trkpt><trkpt lat="33.8884697" lon="7.9645008"><ele>139.66666666666666</ele><time>2026-04-12T07:39:30.077Z</time></trkpt><trkpt lat="33.8884259" lon="7.9643038"><ele>138.33333333333331</ele><time>2026-04-12T07:39:31.079Z</time></trkpt><trkpt lat="33.8883844" lon="7.9641076"><ele>137.0</ele><time>2026-04-12T07:39:32.082Z</time></trkpt><trkpt lat="33.8883424" lon="7.9639153"><ele>137.0</ele><time>2026-04-12T07:39:33.073Z</time></trkpt><trkpt lat="33.8882998" lon="7.9637223"><ele>137.0</ele><time>2026-04-12T07:39:34.073Z</time></trkpt><trkpt lat="33.8882576" lon="7.9635273"><ele>137.0</ele><time>2026-04-12T07:39:35.08Z</time></trkpt><trkpt lat="33.8882192" lon="7.9633331"><ele>137.0</ele><time>2026-04-12T07:39:36.073Z</time></trkpt><trkpt lat="33.8881812" lon="7.9631403"><ele>137.0</ele><time>2026-04-12T07:39:37.082Z</time></trkpt><trkpt lat="33.888141" lon="7.9629432"><ele>137.0</ele><time>2026-04-12T07:39:38.077Z</time></trkpt><trkpt lat="33.8880991" lon="7.9627409"><ele>137.0</ele><time>2026-04-12T07:39:39.075Z</time></trkpt><trkpt lat="33.8880569" lon="7.962536"><ele>137.0</ele><time>2026-04-12T07:39:40.077Z</time></trkpt><trkpt lat="33.8880102" lon="7.9623283"><ele>137.0</ele><time>2026-04-12T07:39:41.076Z</time></trkpt><trkpt lat="33.8879606" lon="7.9621121"><ele>137.0</ele><time>2026-04-12T07:39:42.087Z</time></trkpt><trkpt lat="33.8879105" lon="7.9618947"><ele>137.0</ele><time>2026-04-12T07:39:43.076Z</time></trkpt><trkpt lat="33.8878609" lon="7.9616741"><ele>137.0</ele><time>2026-04-12T07:39:44.079Z</time></trkpt><trkpt lat="33.8878104" lon="7.9614501"><ele>136.66666666666666</ele><time>2026-04-12T07:39:45.093Z</time></trkpt><trkpt lat="33.8877605" lon="7.9612217"><ele>136.33333333333334</ele><time>2026-04-12T07:39:46.065Z</time></trkpt><trkpt lat="33.8877078" lon="7.9609925"><ele>136.0</ele><time>2026-04-12T07:39:47.076Z</time></trkpt><trkpt lat="33.8876552" lon="7.9607637"><ele>135.66666666666669</ele><time>2026-04-12T07:39:48.077Z</time></trkpt><trkpt lat="33.8876047" lon="7.9605344"><ele>135.33333333333334</ele><time>2026-04-12T07:39:49.078Z</time></trkpt><trkpt lat="33.8875549" lon="7.9602975"><ele>135.0</ele><time>2026-04-12T07:39:50.071Z</time></trkpt><trkpt lat="33.8875057" lon="7.9600566"><ele>133.66666666666666</ele><time>2026-04-12T07:39:51.078Z</time></trkpt><trkpt lat="33.8874584" lon="7.9598215"><ele>132.33333333333331</ele><time>2026-04-12T07:39:52.093Z</time></trkpt><trkpt lat="33.8874122" lon="7.9596012"><ele>131.0</ele><time>2026-04-12T07:39:53.079Z</time></trkpt><trkpt lat="33.8873651" lon="7.959389"><ele>131.33333333333331</ele><time>2026-04-12T07:39:54.089Z</time></trkpt><trkpt lat="33.8873193" lon="7.9591812"><ele>131.66666666666666</ele><time>2026-04-12T07:39:55.088Z</time></trkpt><trkpt lat="33.8872762" lon="7.9589686"><ele>132.0</ele><time>2026-04-12T07:39:56.083Z</time></trkpt><trkpt lat="33.8872332" lon="7.958752"><ele>132.0</ele><time>2026-04-12T07:39:57.087Z</time></trkpt><trkpt lat="33.8871892" lon="7.958533"><ele>132.0</ele><time>2026-04-12T07:39:58.088Z</time></trkpt><trkpt lat="33.8871435" lon="7.9583105"><ele>132.0</ele><time>2026-04-12T07:39:59.088Z</time></trkpt><trkpt lat="33.8870939" lon="7.9580862"><ele>132.0</ele><time>2026-04-12T07:40:00.083Z</time></trkpt><trkpt lat="33.8870431" lon="7.9578616"><ele>132.0</ele><time>2026-04-12T07:40:01.091Z</time></trkpt><trkpt lat="33.886994" lon="7.9576391"><ele>132.0</ele><time>2026-04-12T07:40:02.095Z</time></trkpt><trkpt lat="33.8869425" lon="7.9574129"><ele>132.0</ele><time>2026-04-12T07:40:03.089Z</time></trkpt><trkpt lat="33.8868916" lon="7.9571912"><ele>132.0</ele><time>2026-04-12T07:40:04.077Z</time></trkpt><trkpt lat="33.8868404" lon="7.9569715"><ele>132.0</ele><time>2026-04-12T07:40:05.08Z</time></trkpt><trkpt lat="33.8867918" lon="7.9567534"><ele>131.33333333333334</ele><time>2026-04-12T07:40:06.088Z</time></trkpt><trkpt lat="33.886745" lon="7.956538"><ele>130.66666666666669</ele><time>2026-04-12T07:40:07.086Z</time></trkpt><trkpt lat="33.8866996" lon="7.9563236"><ele>130.0</ele><time>2026-04-12T07:40:08.087Z</time></trkpt><trkpt lat="33.8866557" lon="7.9561099"><ele>130.0</ele><time>2026-04-12T07:40:09.086Z</time></trkpt><trkpt lat="33.8866103" lon="7.9559008"><ele>130.0</ele><time>2026-04-12T07:40:10.085Z</time></trkpt><trkpt lat="33.8865647" lon="7.9556979"><ele>130.0</ele><time>2026-04-12T07:40:11.08Z</time></trkpt><trkpt lat="33.8865216" lon="7.9555038"><ele>130.33333333333334</ele><time>2026-04-12T07:40:12.079Z</time></trkpt><trkpt lat="33.8864822" lon="7.9553155"><ele>130.66666666666666</ele><time>2026-04-12T07:40:13.078Z</time></trkpt><trkpt lat="33.8864429" lon="7.9551275"><ele>131.0</ele><time>2026-04-12T07:40:14.079Z</time></trkpt><trkpt lat="33.8864038" lon="7.9549381"><ele>131.0</ele><time>2026-04-12T07:40:15.071Z</time></trkpt><trkpt lat="33.8863632" lon="7.9547426"><ele>131.0</ele><time>2026-04-12T07:40:16.099Z</time></trkpt><trkpt lat="33.8863201" lon="7.9545407"><ele>131.0</ele><time>2026-04-12T07:40:17.083Z</time></trkpt><trkpt lat="33.8862776" lon="7.9543358"><ele>131.33333333333331</ele><time>2026-04-12T07:40:18.079Z</time></trkpt><trkpt lat="33.8862334" lon="7.9541246"><ele>131.66666666666666</ele><time>2026-04-12T07:40:19.087Z</time></trkpt><trkpt lat="33.886187" lon="7.9539057"><ele>132.0</ele><time>2026-04-12T07:40:20.083Z</time></trkpt><trkpt lat="33.8861384" lon="7.9536785"><ele>132.0</ele><time>2026-04-12T07:40:21.088Z</time></trkpt><trkpt lat="33.8860894" lon="7.9534489"><ele>132.0</ele><time>2026-04-12T07:40:22.082Z</time></trkpt><trkpt lat="33.8860394" lon="7.9532139"><ele>132.0</ele><time>2026-04-12T07:40:23.078Z</time></trkpt><trkpt lat="33.8859882" lon="7.9529771"><ele>131.33333333333334</ele><time>2026-04-12T07:40:24.086Z</time></trkpt><trkpt lat="33.8859379" lon="7.9527386"><ele>130.66666666666669</ele><time>2026-04-12T07:40:25.083Z</time></trkpt><trkpt lat="33.8858887" lon="7.9525009"><ele>130.0</ele><time>2026-04-12T07:40:26.087Z</time></trkpt><trkpt lat="33.8858372" lon="7.9522628"><ele>128.33333333333334</ele><time>2026-04-12T07:40:27.079Z</time></trkpt><trkpt lat="33.8857862" lon="7.9520317"><ele>126.66666666666666</ele><time>2026-04-12T07:40:28.08Z</time></trkpt><trkpt lat="33.8857382" lon="7.9518085"><ele>125.0</ele><time>2026-04-12T07:40:29.087Z</time></trkpt><trkpt lat="33.8856927" lon="7.9516023"><ele>125.0</ele><time>2026-04-12T07:40:30.078Z</time></trkpt><trkpt lat="33.88565" lon="7.9514057"><ele>125.0</ele><time>2026-04-12T07:40:31.077Z</time></trkpt><trkpt lat="33.8856085" lon="7.9512148"><ele>125.0</ele><time>2026-04-12T07:40:32.096Z</time></trkpt><trkpt lat="33.8855673" lon="7.9510257"><ele>125.33333333333333</ele><time>2026-04-12T07:40:33.074Z</time></trkpt><trkpt lat="33.8855249" lon="7.9508345"><ele>125.66666666666666</ele><time>2026-04-12T07:40:34.083Z</time></trkpt><trkpt lat="33.8854829" lon="7.9506452"><ele>126.0</ele><time>2026-04-12T07:40:35.072Z</time></trkpt><trkpt lat="33.8854406" lon="7.9504535"><ele>126.0</ele><time>2026-04-12T07:40:36.076Z</time></trkpt><trkpt lat="33.885397" lon="7.9502632"><ele>126.0</ele><time>2026-04-12T07:40:37.085Z</time></trkpt><trkpt lat="33.8853535" lon="7.9500738"><ele>126.0</ele><time>2026-04-12T07:40:38.077Z</time></trkpt><trkpt lat="33.8853116" lon="7.9498874"><ele>126.0</ele><time>2026-04-12T07:40:39.074Z</time></trkpt><trkpt lat="33.8852702" lon="7.9496986"><ele>126.0</ele><time>2026-04-12T07:40:40.08Z</time></trkpt><trkpt lat="33.8852291" lon="7.9495128"><ele>126.0</ele><time>2026-04-12T07:40:41.073Z</time></trkpt><trkpt lat="33.8851888" lon="7.9493263"><ele>126.0</ele><time>2026-04-12T07:40:42.079Z</time></trkpt><trkpt lat="33.8851496" lon="7.9491416"><ele>126.0</ele><time>2026-04-12T07:40:43.08Z</time></trkpt><trkpt lat="33.8851128" lon="7.9489569"><ele>126.0</ele><time>2026-04-12T07:40:44.078Z</time></trkpt><trkpt lat="33.885077" lon="7.9487728"><ele>126.0</ele><time>2026-04-12T07:40:45.079Z</time></trkpt><trkpt lat="33.88504" lon="7.9485868"><ele>126.0</ele><time>2026-04-12T07:40:46.076Z</time></trkpt><trkpt lat="33.8849999" lon="7.9484017"><ele>126.0</ele><time>2026-04-12T07:40:47.108Z</time></trkpt><trkpt lat="33.8849581" lon="7.9482135"><ele>126.66666666666666</ele><time>2026-04-12T07:40:48.075Z</time></trkpt><trkpt lat="33.8849176" lon="7.9480241"><ele>127.33333333333333</ele><time>2026-04-12T07:40:49.073Z</time></trkpt><trkpt lat="33.8848778" lon="7.9478324"><ele>128.0</ele><time>2026-04-12T07:40:50.088Z</time></trkpt><trkpt lat="33.8848387" lon="7.9476395"><ele>128.0</ele><time>2026-04-12T07:40:51.07Z</time></trkpt><trkpt lat="33.8847973" lon="7.9474441"><ele>128.0</ele><time>2026-04-12T07:40:52.078Z</time></trkpt><trkpt lat="33.8847574" lon="7.9472479"><ele>128.0</ele><time>2026-04-12T07:40:53.081Z</time></trkpt><trkpt lat="33.8847144" lon="7.9470475"><ele>128.0</ele><time>2026-04-12T07:40:54.07Z</time></trkpt><trkpt lat="33.8846698" lon="7.9468423"><ele>128.0</ele><time>2026-04-12T07:40:55.076Z</time></trkpt><trkpt lat="33.8846246" lon="7.9466283"><ele>128.0</ele><time>2026-04-12T07:40:56.082Z</time></trkpt><trkpt lat="33.8845776" lon="7.9464141"><ele>128.0</ele><time>2026-04-12T07:40:57.082Z</time></trkpt><trkpt lat="33.8845318" lon="7.9462003"><ele>128.0</ele><time>2026-04-12T07:40:58.078Z</time></trkpt><trkpt lat="33.884483" lon="7.9459829"><ele>128.0</ele><time>2026-04-12T07:40:59.076Z</time></trkpt><trkpt lat="33.884432" lon="7.945767"><ele>127.66666666666666</ele><time>2026-04-12T07:41:00.086Z</time></trkpt><trkpt lat="33.8843835" lon="7.9455543"><ele>127.33333333333334</ele><time>2026-04-12T07:41:01.084Z</time></trkpt><trkpt lat="33.8843355" lon="7.9453431"><ele>127.0</ele><time>2026-04-12T07:41:02.077Z</time></trkpt><trkpt lat="33.8842907" lon="7.9451313"><ele>125.66666666666667</ele><time>2026-04-12T07:41:03.075Z</time></trkpt><trkpt lat="33.8842478" lon="7.9449197"><ele>124.33333333333334</ele><time>2026-04-12T07:41:04.069Z</time></trkpt><trkpt lat="33.8842031" lon="7.944704"><ele>123.0</ele><time>2026-04-12T07:41:05.075Z</time></trkpt><trkpt lat="33.884155" lon="7.9444894"><ele>123.0</ele><time>2026-04-12T07:41:06.067Z</time></trkpt><trkpt lat="33.8841052" lon="7.9442799"><ele>123.0</ele><time>2026-04-12T07:41:07.074Z</time></trkpt><trkpt lat="33.8840573" lon="7.9440727"><ele>123.0</ele><time>2026-04-12T07:41:08.076Z</time></trkpt><trkpt lat="33.8840101" lon="7.943867"><ele>123.33333333333334</ele><time>2026-04-12T07:41:09.084Z</time></trkpt><trkpt lat="33.8839626" lon="7.9436618"><ele>123.66666666666667</ele><time>2026-04-12T07:41:10.087Z</time></trkpt><trkpt lat="33.8839155" lon="7.9434568"><ele>124.0</ele><time>2026-04-12T07:41:11.078Z</time></trkpt><trkpt lat="33.8838672" lon="7.9432469"><ele>124.33333333333334</ele><time>2026-04-12T07:41:12.079Z</time></trkpt><trkpt lat="33.8838233" lon="7.943039"><ele>124.66666666666666</ele><time>2026-04-12T07:41:13.076Z</time></trkpt><trkpt lat="33.8837794" lon="7.9428286"><ele>125.0</ele><time>2026-04-12T07:41:14.072Z</time></trkpt><trkpt lat="33.8837348" lon="7.942616"><ele>125.0</ele><time>2026-04-12T07:41:15.077Z</time></trkpt><trkpt lat="33.8836898" lon="7.9424041"><ele>125.0</ele><time>2026-04-12T07:41:16.069Z</time></trkpt><trkpt lat="33.8836473" lon="7.9421947"><ele>125.0</ele><time>2026-04-12T07:41:17.087Z</time></trkpt><trkpt lat="33.8836062" lon="7.9419892"><ele>125.0</ele><time>2026-04-12T07:41:18.072Z</time></trkpt><trkpt lat="33.8835658" lon="7.9417833"><ele>125.0</ele><time>2026-04-12T07:41:19.075Z</time></trkpt><trkpt lat="33.8835251" lon="7.9415776"><ele>125.0</ele><time>2026-04-12T07:41:20.085Z</time></trkpt><trkpt lat="33.8834841" lon="7.9413759"><ele>124.0</ele><time>2026-04-12T07:41:21.071Z</time></trkpt><trkpt lat="33.8834422" lon="7.9411774"><ele>123.0</ele><time>2026-04-12T07:41:22.075Z</time></trkpt><trkpt lat="33.8834007" lon="7.9409767"><ele>122.0</ele><time>2026-04-12T07:41:23.071Z</time></trkpt><trkpt lat="33.8833567" lon="7.9407748"><ele>121.33333333333333</ele><time>2026-04-12T07:41:24.08Z</time></trkpt><trkpt lat="33.8833159" lon="7.940573"><ele>120.66666666666666</ele><time>2026-04-12T07:41:25.08Z</time></trkpt><trkpt lat="33.883274" lon="7.9403725"><ele>120.0</ele><time>2026-04-12T07:41:26.083Z</time></trkpt><trkpt lat="33.8832273" lon="7.9401673"><ele>120.0</ele><time>2026-04-12T07:41:27.076Z</time></trkpt><trkpt lat="33.8831779" lon="7.9399571"><ele>120.0</ele><time>2026-04-12T07:41:28.078Z</time></trkpt><trkpt lat="33.8831329" lon="7.9397439"><ele>120.0</ele><time>2026-04-12T07:41:29.084Z</time></trkpt><trkpt lat="33.8830909" lon="7.9395259"><ele>120.0</ele><time>2026-04-12T07:41:30.093Z</time></trkpt><trkpt lat="33.8830466" lon="7.9393022"><ele>120.0</ele><time>2026-04-12T07:41:31.085Z</time></trkpt><trkpt lat="33.883002" lon="7.9390747"><ele>120.0</ele><time>2026-04-12T07:41:32.081Z</time></trkpt><trkpt lat="33.8829565" lon="7.9388442"><ele>119.66666666666666</ele><time>2026-04-12T07:41:33.076Z</time></trkpt><trkpt lat="33.8829051" lon="7.9386108"><ele>119.33333333333333</ele><time>2026-04-12T07:41:34.074Z</time></trkpt><trkpt lat="33.8828531" lon="7.9383761"><ele>119.0</ele><time>2026-04-12T07:41:35.075Z</time></trkpt><trkpt lat="33.8827983" lon="7.9381404"><ele>119.0</ele><time>2026-04-12T07:41:36.073Z</time></trkpt><trkpt lat="33.8827423" lon="7.9379022"><ele>119.0</ele><time>2026-04-12T07:41:37.079Z</time></trkpt><trkpt lat="33.8826888" lon="7.9376611"><ele>119.0</ele><time>2026-04-12T07:41:38.079Z</time></trkpt><trkpt lat="33.8826372" lon="7.9374189"><ele>117.66666666666666</ele><time>2026-04-12T07:41:39.079Z</time></trkpt><trkpt lat="33.8825863" lon="7.9371735"><ele>116.33333333333334</ele><time>2026-04-12T07:41:40.089Z</time></trkpt><trkpt lat="33.8825319" lon="7.9369243"><ele>115.0</ele><time>2026-04-12T07:41:41.077Z</time></trkpt><trkpt lat="33.8824799" lon="7.9366785"><ele>114.66666666666667</ele><time>2026-04-12T07:41:42.081Z</time></trkpt><trkpt lat="33.8824273" lon="7.9364354"><ele>114.33333333333334</ele><time>2026-04-12T07:41:43.072Z</time></trkpt><trkpt lat="33.8823737" lon="7.9361922"><ele>114.0</ele><time>2026-04-12T07:41:44.073Z</time></trkpt><trkpt lat="33.882322" lon="7.9359513"><ele>113.0</ele><time>2026-04-12T07:41:45.086Z</time></trkpt><trkpt lat="33.8822725" lon="7.9357187"><ele>112.0</ele><time>2026-04-12T07:41:46.085Z</time></trkpt><trkpt lat="33.8822222" lon="7.9354871"><ele>111.0</ele><time>2026-04-12T07:41:47.083Z</time></trkpt><trkpt lat="33.8821729" lon="7.935259"><ele>111.0</ele><time>2026-04-12T07:41:48.1Z</time></trkpt><trkpt lat="33.8821207" lon="7.9350296"><ele>111.0</ele><time>2026-04-12T07:41:49.086Z</time></trkpt><trkpt lat="33.8820697" lon="7.9348002"><ele>111.0</ele><time>2026-04-12T07:41:50.092Z</time></trkpt><trkpt lat="33.8820188" lon="7.9345717"><ele>111.0</ele><time>2026-04-12T07:41:51.083Z</time></trkpt><trkpt lat="33.8819702" lon="7.934341"><ele>111.0</ele><time>2026-04-12T07:41:52.08Z</time></trkpt><trkpt lat="33.8819237" lon="7.9341098"><ele>111.0</ele><time>2026-04-12T07:41:53.085Z</time></trkpt><trkpt lat="33.8818788" lon="7.9338772"><ele>110.66666666666666</ele><time>2026-04-12T07:41:54.076Z</time></trkpt><trkpt lat="33.8818334" lon="7.9336454"><ele>110.33333333333333</ele><time>2026-04-12T07:41:55.082Z</time></trkpt><trkpt lat="33.8817863" lon="7.9334157"><ele>110.0</ele><time>2026-04-12T07:41:56.076Z</time></trkpt><trkpt lat="33.8817371" lon="7.9331888"><ele>110.0</ele><time>2026-04-12T07:41:57.07Z</time></trkpt><trkpt lat="33.881685" lon="7.9329591"><ele>110.0</ele><time>2026-04-12T07:41:58.077Z</time></trkpt><trkpt lat="33.8816338" lon="7.9327338"><ele>110.0</ele><time>2026-04-12T07:41:59.072Z</time></trkpt><trkpt lat="33.8815834" lon="7.9325118"><ele>110.0</ele><time>2026-04-12T07:42:00.09Z</time></trkpt><trkpt lat="33.8815319" lon="7.9322897"><ele>110.0</ele><time>2026-04-12T07:42:01.078Z</time></trkpt><trkpt lat="33.8814817" lon="7.9320679"><ele>110.0</ele><time>2026-04-12T07:42:02.073Z</time></trkpt><trkpt lat="33.881431" lon="7.931842"><ele>110.0</ele><time>2026-04-12T07:42:03.077Z</time></trkpt><trkpt lat="33.8813835" lon="7.9316159"><ele>110.0</ele><time>2026-04-12T07:42:04.077Z</time></trkpt><trkpt lat="33.8813367" lon="7.9313874"><ele>110.0</ele><time>2026-04-12T07:42:05.074Z</time></trkpt><trkpt lat="33.8812887" lon="7.9311615"><ele>110.0</ele><time>2026-04-12T07:42:06.075Z</time></trkpt><trkpt lat="33.8812375" lon="7.9309353"><ele>110.0</ele><time>2026-04-12T07:42:07.074Z</time></trkpt><trkpt lat="33.8811887" lon="7.9307077"><ele>110.0</ele><time>2026-04-12T07:42:08.077Z</time></trkpt><trkpt lat="33.8811423" lon="7.9304832"><ele>110.33333333333333</ele><time>2026-04-12T07:42:09.075Z</time></trkpt><trkpt lat="33.8810967" lon="7.9302631"><ele>110.66666666666666</ele><time>2026-04-12T07:42:10.091Z</time></trkpt><trkpt lat="33.8810483" lon="7.9300415"><ele>111.0</ele><time>2026-04-12T07:42:11.078Z</time></trkpt><trkpt lat="33.881003" lon="7.9298182"><ele>111.0</ele><time>2026-04-12T07:42:12.078Z</time></trkpt><trkpt lat="33.880956" lon="7.9295964"><ele>111.0</ele><time>2026-04-12T07:42:13.075Z</time></trkpt><trkpt lat="33.8809065" lon="7.9293718"><ele>111.0</ele><time>2026-04-12T07:42:14.073Z</time></trkpt><trkpt lat="33.8808603" lon="7.929149"><ele>110.66666666666666</ele><time>2026-04-12T07:42:15.077Z</time></trkpt><trkpt lat="33.8808146" lon="7.928925"><ele>110.33333333333333</ele><time>2026-04-12T07:42:16.077Z</time></trkpt><trkpt lat="33.8807658" lon="7.9287031"><ele>110.0</ele><time>2026-04-12T07:42:17.08Z</time></trkpt><trkpt lat="33.8807163" lon="7.9284809"><ele>110.0</ele><time>2026-04-12T07:42:18.074Z</time></trkpt><trkpt lat="33.880668" lon="7.9282577"><ele>110.0</ele><time>2026-04-12T07:42:19.101Z</time></trkpt><trkpt lat="33.8806205" lon="7.9280365"><ele>110.0</ele><time>2026-04-12T07:42:20.088Z</time></trkpt><trkpt lat="33.880573" lon="7.9278154"><ele>110.0</ele><time>2026-04-12T07:42:21.079Z</time></trkpt><trkpt lat="33.8805258" lon="7.9275952"><ele>110.0</ele><time>2026-04-12T07:42:22.077Z</time></trkpt><trkpt lat="33.8804782" lon="7.9273758"><ele>110.0</ele><time>2026-04-12T07:42:23.079Z</time></trkpt><trkpt lat="33.880431" lon="7.9271563"><ele>110.0</ele><time>2026-04-12T07:42:24.083Z</time></trkpt><trkpt lat="33.880384" lon="7.926939"><ele>110.0</ele><time>2026-04-12T07:42:25.076Z</time></trkpt><trkpt lat="33.8803338" lon="7.9267163"><ele>110.0</ele><time>2026-04-12T07:42:26.084Z</time></trkpt><trkpt lat="33.8802863" lon="7.9264907"><ele>109.0</ele><time>2026-04-12T07:42:27.078Z</time></trkpt><trkpt lat="33.8802423" lon="7.9262646"><ele>108.0</ele><time>2026-04-12T07:42:28.079Z</time></trkpt><trkpt lat="33.8801959" lon="7.9260356"><ele>107.0</ele><time>2026-04-12T07:42:29.084Z</time></trkpt><trkpt lat="33.8801486" lon="7.9258083"><ele>106.66666666666666</ele><time>2026-04-12T07:42:30.08Z</time></trkpt><trkpt lat="33.880101" lon="7.9255829"><ele>106.33333333333334</ele><time>2026-04-12T07:42:31.092Z</time></trkpt><trkpt lat="33.8800514" lon="7.9253573"><ele>106.0</ele><time>2026-04-12T07:42:32.079Z</time></trkpt><trkpt lat="33.880002" lon="7.9251319"><ele>105.0</ele><time>2026-04-12T07:42:33.078Z</time></trkpt><trkpt lat="33.8799533" lon="7.9249056"><ele>104.0</ele><time>2026-04-12T07:42:34.074Z</time></trkpt><trkpt lat="33.8799053" lon="7.9246804"><ele>103.0</ele><time>2026-04-12T07:42:35.077Z</time></trkpt><trkpt lat="33.8798567" lon="7.9244608"><ele>103.0</ele><time>2026-04-12T07:42:36.081Z</time></trkpt><trkpt lat="33.8798084" lon="7.9242393"><ele>103.0</ele><time>2026-04-12T07:42:37.078Z</time></trkpt><trkpt lat="33.8797613" lon="7.9240182"><ele>103.0</ele><time>2026-04-12T07:42:38.076Z</time></trkpt><trkpt lat="33.8797124" lon="7.9238002"><ele>103.0</ele><time>2026-04-12T07:42:39.077Z</time></trkpt><trkpt lat="33.8796605" lon="7.923583"><ele>103.0</ele><time>2026-04-12T07:42:40.08Z</time></trkpt><trkpt lat="33.8796105" lon="7.9233661"><ele>103.0</ele><time>2026-04-12T07:42:41.082Z</time></trkpt><trkpt lat="33.8795616" lon="7.9231508"><ele>103.33333333333334</ele><time>2026-04-12T07:42:42.087Z</time></trkpt><trkpt lat="33.8795145" lon="7.9229403"><ele>103.66666666666666</ele><time>2026-04-12T07:42:43.077Z</time></trkpt><trkpt lat="33.8794697" lon="7.9227346"><ele>104.0</ele><time>2026-04-12T07:42:44.074Z</time></trkpt><trkpt lat="33.8794268" lon="7.9225348"><ele>104.0</ele><time>2026-04-12T07:42:45.079Z</time></trkpt><trkpt lat="33.8793826" lon="7.9223345"><ele>104.0</ele><time>2026-04-12T07:42:46.078Z</time></trkpt><trkpt lat="33.8793393" lon="7.9221359"><ele>104.0</ele><time>2026-04-12T07:42:47.08Z</time></trkpt><trkpt lat="33.8792952" lon="7.9219372"><ele>104.0</ele><time>2026-04-12T07:42:48.078Z</time></trkpt><trkpt lat="33.879249" lon="7.9217344"><ele>104.0</ele><time>2026-04-12T07:42:49.081Z</time></trkpt><trkpt lat="33.8792047" lon="7.9215265"><ele>104.0</ele><time>2026-04-12T07:42:50.091Z</time></trkpt><trkpt lat="33.8791579" lon="7.9213152"><ele>104.33333333333333</ele><time>2026-04-12T07:42:51.079Z</time></trkpt><trkpt lat="33.8791131" lon="7.9211017"><ele>104.66666666666666</ele><time>2026-04-12T07:42:52.087Z</time></trkpt><trkpt lat="33.8790686" lon="7.9208834"><ele>105.0</ele><time>2026-04-12T07:42:53.075Z</time></trkpt><trkpt lat="33.8790244" lon="7.9206595"><ele>104.33333333333334</ele><time>2026-04-12T07:42:54.076Z</time></trkpt><trkpt lat="33.8789767" lon="7.9204332"><ele>103.66666666666667</ele><time>2026-04-12T07:42:55.076Z</time></trkpt><trkpt lat="33.8789291" lon="7.9202074"><ele>103.0</ele><time>2026-04-12T07:42:56.077Z</time></trkpt><trkpt lat="33.8788828" lon="7.9199781"><ele>102.66666666666667</ele><time>2026-04-12T07:42:57.07Z</time></trkpt><trkpt lat="33.8788353" lon="7.9197524"><ele>102.33333333333334</ele><time>2026-04-12T07:42:58.076Z</time></trkpt><trkpt lat="33.8787848" lon="7.9195278"><ele>102.0</ele><time>2026-04-12T07:42:59.082Z</time></trkpt><trkpt lat="33.8787345" lon="7.9193023"><ele>101.66666666666666</ele><time>2026-04-12T07:43:00.077Z</time></trkpt><trkpt lat="33.8786832" lon="7.9190741"><ele>101.33333333333333</ele><time>2026-04-12T07:43:01.074Z</time></trkpt><trkpt lat="33.878635" lon="7.9188469"><ele>101.0</ele><time>2026-04-12T07:43:02.085Z</time></trkpt><trkpt lat="33.8785872" lon="7.9186215"><ele>101.0</ele><time>2026-04-12T07:43:03.077Z</time></trkpt><trkpt lat="33.8785407" lon="7.9183978"><ele>101.0</ele><time>2026-04-12T07:43:04.073Z</time></trkpt><trkpt lat="33.8784914" lon="7.9181785"><ele>101.0</ele><time>2026-04-12T07:43:05.078Z</time></trkpt><trkpt lat="33.8784412" lon="7.9179605"><ele>100.33333333333333</ele><time>2026-04-12T07:43:06.074Z</time></trkpt><trkpt lat="33.8783911" lon="7.9177434"><ele>99.66666666666666</ele><time>2026-04-12T07:43:07.078Z</time></trkpt><trkpt lat="33.8783388" lon="7.9175212"><ele>99.0</ele><time>2026-04-12T07:43:08.082Z</time></trkpt><trkpt lat="33.8782873" lon="7.917296"><ele>98.66666666666666</ele><time>2026-04-12T07:43:09.079Z</time></trkpt><trkpt lat="33.878235" lon="7.9170711"><ele>98.33333333333333</ele><time>2026-04-12T07:43:10.076Z</time></trkpt><trkpt lat="33.8781829" lon="7.9168437"><ele>98.0</ele><time>2026-04-12T07:43:11.073Z</time></trkpt><trkpt lat="33.878132" lon="7.9166134"><ele>97.66666666666666</ele><time>2026-04-12T07:43:12.087Z</time></trkpt><trkpt lat="33.8780824" lon="7.9163837"><ele>97.33333333333334</ele><time>2026-04-12T07:43:13.084Z</time></trkpt><trkpt lat="33.8780312" lon="7.916151"><ele>97.0</ele><time>2026-04-12T07:43:14.078Z</time></trkpt><trkpt lat="33.8779805" lon="7.9159209"><ele>97.0</ele><time>2026-04-12T07:43:15.085Z</time></trkpt><trkpt lat="33.8779272" lon="7.9156913"><ele>97.0</ele><time>2026-04-12T07:43:16.082Z</time></trkpt><trkpt lat="33.8778724" lon="7.9154605"><ele>97.0</ele><time>2026-04-12T07:43:17.084Z</time></trkpt><trkpt lat="33.8778192" lon="7.9152302"><ele>96.66666666666667</ele><time>2026-04-12T07:43:18.088Z</time></trkpt><trkpt lat="33.8777686" lon="7.9149983"><ele>96.33333333333334</ele><time>2026-04-12T07:43:19.084Z</time></trkpt><trkpt lat="33.8777198" lon="7.9147661"><ele>96.0</ele><time>2026-04-12T07:43:20.078Z</time></trkpt><trkpt lat="33.8776734" lon="7.9145322"><ele>96.0</ele><time>2026-04-12T07:43:21.094Z</time></trkpt><trkpt lat="33.8776282" lon="7.9142988"><ele>96.0</ele><time>2026-04-12T07:43:22.094Z</time></trkpt><trkpt lat="33.8775805" lon="7.9140629"><ele>96.0</ele><time>2026-04-12T07:43:23.078Z</time></trkpt><trkpt lat="33.8775284" lon="7.9138259"><ele>96.0</ele><time>2026-04-12T07:43:24.08Z</time></trkpt><trkpt lat="33.8774761" lon="7.9135911"><ele>96.0</ele><time>2026-04-12T07:43:25.075Z</time></trkpt><trkpt lat="33.8774271" lon="7.9133568"><ele>96.0</ele><time>2026-04-12T07:43:26.086Z</time></trkpt><trkpt lat="33.8773785" lon="7.9131271"><ele>96.33333333333334</ele><time>2026-04-12T07:43:27.077Z</time></trkpt><trkpt lat="33.8773313" lon="7.9129"><ele>96.66666666666667</ele><time>2026-04-12T07:43:28.075Z</time></trkpt><trkpt lat="33.8772856" lon="7.9126755"><ele>97.0</ele><time>2026-04-12T07:43:29.079Z</time></trkpt><trkpt lat="33.877241" lon="7.9124528"><ele>96.33333333333334</ele><time>2026-04-12T07:43:30.075Z</time></trkpt><trkpt lat="33.8771939" lon="7.9122297"><ele>95.66666666666667</ele><time>2026-04-12T07:43:31.081Z</time></trkpt><trkpt lat="33.8771476" lon="7.9120098"><ele>95.0</ele><time>2026-04-12T07:43:32.093Z</time></trkpt><trkpt lat="33.8771002" lon="7.9117912"><ele>95.66666666666667</ele><time>2026-04-12T07:43:33.078Z</time></trkpt><trkpt lat="33.8770557" lon="7.91158"><ele>96.33333333333334</ele><time>2026-04-12T07:43:34.089Z</time></trkpt><trkpt lat="33.8770121" lon="7.9113741"><ele>97.0</ele><time>2026-04-12T07:43:35.079Z</time></trkpt><trkpt lat="33.8769686" lon="7.9111676"><ele>97.0</ele><time>2026-04-12T07:43:36.071Z</time></trkpt><trkpt lat="33.8769235" lon="7.9109642"><ele>97.0</ele><time>2026-04-12T07:43:37.073Z</time></trkpt><trkpt lat="33.8768795" lon="7.9107624"><ele>97.0</ele><time>2026-04-12T07:43:38.076Z</time></trkpt><trkpt lat="33.8768341" lon="7.9105639"><ele>96.33333333333334</ele><time>2026-04-12T07:43:39.08Z</time></trkpt><trkpt lat="33.8767908" lon="7.9103686"><ele>95.66666666666667</ele><time>2026-04-12T07:43:40.074Z</time></trkpt><trkpt lat="33.8767474" lon="7.9101705"><ele>95.0</ele><time>2026-04-12T07:43:41.084Z</time></trkpt><trkpt lat="33.876704" lon="7.9099706"><ele>94.66666666666667</ele><time>2026-04-12T07:43:42.089Z</time></trkpt><trkpt lat="33.8766613" lon="7.909767"><ele>94.33333333333333</ele><time>2026-04-12T07:43:43.078Z</time></trkpt><trkpt lat="33.8766152" lon="7.9095587"><ele>94.0</ele><time>2026-04-12T07:43:44.094Z</time></trkpt><trkpt lat="33.8765679" lon="7.9093463"><ele>94.66666666666666</ele><time>2026-04-12T07:43:45.077Z</time></trkpt><trkpt lat="33.876522" lon="7.9091343"><ele>95.33333333333333</ele><time>2026-04-12T07:43:46.078Z</time></trkpt><trkpt lat="33.876474" lon="7.9089171"><ele>96.0</ele><time>2026-04-12T07:43:47.084Z</time></trkpt><trkpt lat="33.8764248" lon="7.9086971"><ele>96.0</ele><time>2026-04-12T07:43:48.078Z</time></trkpt><trkpt lat="33.8763769" lon="7.9084747"><ele>96.0</ele><time>2026-04-12T07:43:49.09Z</time></trkpt><trkpt lat="33.8763291" lon="7.9082551"><ele>96.0</ele><time>2026-04-12T07:43:50.077Z</time></trkpt><trkpt lat="33.8762789" lon="7.9080336"><ele>95.33333333333333</ele><time>2026-04-12T07:43:51.083Z</time></trkpt><trkpt lat="33.8762285" lon="7.9078125"><ele>94.66666666666666</ele><time>2026-04-12T07:43:52.098Z</time></trkpt><trkpt lat="33.8761803" lon="7.9075922"><ele>94.0</ele><time>2026-04-12T07:43:53.092Z</time></trkpt><trkpt lat="33.8761333" lon="7.9073731"><ele>93.33333333333333</ele><time>2026-04-12T07:43:54.08Z</time></trkpt><trkpt lat="33.8760861" lon="7.9071497"><ele>92.66666666666667</ele><time>2026-04-12T07:43:55.082Z</time></trkpt><trkpt lat="33.8760408" lon="7.9069241"><ele>92.0</ele><time>2026-04-12T07:43:56.086Z</time></trkpt><trkpt lat="33.8759936" lon="7.9066944"><ele>92.0</ele><time>2026-04-12T07:43:57.086Z</time></trkpt><trkpt lat="33.8759476" lon="7.9064666"><ele>92.0</ele><time>2026-04-12T07:43:58.091Z</time></trkpt><trkpt lat="33.8759005" lon="7.9062401"><ele>92.0</ele><time>2026-04-12T07:43:59.088Z</time></trkpt><trkpt lat="33.8758529" lon="7.9060148"><ele>90.66666666666667</ele><time>2026-04-12T07:44:00.093Z</time></trkpt><trkpt lat="33.8758019" lon="7.9057877"><ele>89.33333333333333</ele><time>2026-04-12T07:44:01.087Z</time></trkpt><trkpt lat="33.8757513" lon="7.9055611"><ele>88.0</ele><time>2026-04-12T07:44:02.086Z</time></trkpt><trkpt lat="33.8757012" lon="7.905334"><ele>88.0</ele><time>2026-04-12T07:44:03.096Z</time></trkpt><trkpt lat="33.8756561" lon="7.9051137"><ele>88.0</ele><time>2026-04-12T07:44:04.083Z</time></trkpt><trkpt lat="33.8756093" lon="7.9048909"><ele>88.0</ele><time>2026-04-12T07:44:05.088Z</time></trkpt><trkpt lat="33.875564" lon="7.9046721"><ele>88.66666666666666</ele><time>2026-04-12T07:44:06.082Z</time></trkpt><trkpt lat="33.8755166" lon="7.9044498"><ele>89.33333333333333</ele><time>2026-04-12T07:44:07.081Z</time></trkpt><trkpt lat="33.8754682" lon="7.9042285"><ele>90.0</ele><time>2026-04-12T07:44:08.077Z</time></trkpt><trkpt lat="33.8754194" lon="7.9040081"><ele>90.0</ele><time>2026-04-12T07:44:09.079Z</time></trkpt><trkpt lat="33.8753731" lon="7.9037904"><ele>90.0</ele><time>2026-04-12T07:44:10.077Z</time></trkpt><trkpt lat="33.8753296" lon="7.9035761"><ele>90.0</ele><time>2026-04-12T07:44:11.081Z</time></trkpt><trkpt lat="33.8752864" lon="7.9033619"><ele>90.0</ele><time>2026-04-12T07:44:12.082Z</time></trkpt><trkpt lat="33.8752405" lon="7.9031447"><ele>90.0</ele><time>2026-04-12T07:44:13.093Z</time></trkpt><trkpt lat="33.8751952" lon="7.9029291"><ele>90.0</ele><time>2026-04-12T07:44:14.078Z</time></trkpt><trkpt lat="33.8751506" lon="7.9027138"><ele>90.0</ele><time>2026-04-12T07:44:15.081Z</time></trkpt><trkpt lat="33.8751048" lon="7.9024992"><ele>90.0</ele><time>2026-04-12T07:44:16.075Z</time></trkpt><trkpt lat="33.8750583" lon="7.9022808"><ele>90.0</ele><time>2026-04-12T07:44:17.074Z</time></trkpt><trkpt lat="33.8750107" lon="7.9020636"><ele>88.33333333333333</ele><time>2026-04-12T07:44:18.073Z</time></trkpt><trkpt lat="33.8749637" lon="7.9018558"><ele>86.66666666666666</ele><time>2026-04-12T07:44:19.08Z</time></trkpt><trkpt lat="33.874916" lon="7.9016523"><ele>85.0</ele><time>2026-04-12T07:44:20.081Z</time></trkpt><trkpt lat="33.8748703" lon="7.9014536"><ele>85.0</ele><time>2026-04-12T07:44:21.088Z</time></trkpt><trkpt lat="33.8748251" lon="7.9012579"><ele>85.0</ele><time>2026-04-12T07:44:22.08Z</time></trkpt><trkpt lat="33.8747816" lon="7.9010607"><ele>85.0</ele><time>2026-04-12T07:44:23.113Z</time></trkpt><trkpt lat="33.874742" lon="7.9008727"><ele>85.0</ele><time>2026-04-12T07:44:24.083Z</time></trkpt><trkpt lat="33.8747041" lon="7.9006888"><ele>85.0</ele><time>2026-04-12T07:44:25.079Z</time></trkpt><trkpt lat="33.874665" lon="7.9005059"><ele>85.0</ele><time>2026-04-12T07:44:26.086Z</time></trkpt><trkpt lat="33.8746189" lon="7.9003179"><ele>85.0</ele><time>2026-04-12T07:44:27.079Z</time></trkpt><trkpt lat="33.8745732" lon="7.9001274"><ele>85.0</ele><time>2026-04-12T07:44:28.078Z</time></trkpt><trkpt lat="33.8745284" lon="7.899933"><ele>85.0</ele><time>2026-04-12T07:44:29.083Z</time></trkpt><trkpt lat="33.8744863" lon="7.8997344"><ele>85.0</ele><time>2026-04-12T07:44:30.078Z</time></trkpt><trkpt lat="33.8744435" lon="7.8995345"><ele>85.0</ele><time>2026-04-12T07:44:31.083Z</time></trkpt><trkpt lat="33.8743997" lon="7.8993335"><ele>85.0</ele><time>2026-04-12T07:44:32.08Z</time></trkpt><trkpt lat="33.8743571" lon="7.8991313"><ele>85.0</ele><time>2026-04-12T07:44:33.093Z</time></trkpt><trkpt lat="33.8743108" lon="7.8989256"><ele>85.0</ele><time>2026-04-12T07:44:34.077Z</time></trkpt><trkpt lat="33.8742624" lon="7.8987177"><ele>85.0</ele><time>2026-04-12T07:44:35.081Z</time></trkpt><trkpt lat="33.8742156" lon="7.8985095"><ele>84.0</ele><time>2026-04-12T07:44:36.071Z</time></trkpt><trkpt lat="33.8741715" lon="7.8983117"><ele>83.0</ele><time>2026-04-12T07:44:37.076Z</time></trkpt><trkpt lat="33.8741282" lon="7.8981234"><ele>82.0</ele><time>2026-04-12T07:44:38.071Z</time></trkpt><trkpt lat="33.8740869" lon="7.8979383"><ele>82.0</ele><time>2026-04-12T07:44:39.078Z</time></trkpt><trkpt lat="33.8740461" lon="7.8977527"><ele>82.0</ele><time>2026-04-12T07:44:40.074Z</time></trkpt><trkpt lat="33.8740045" lon="7.897562"><ele>82.0</ele><time>2026-04-12T07:44:41.055Z</time></trkpt><trkpt lat="33.873963" lon="7.8973679"><ele>81.66666666666666</ele><time>2026-04-12T07:44:42.054Z</time></trkpt><trkpt lat="33.8739184" lon="7.8971723"><ele>81.33333333333333</ele><time>2026-04-12T07:44:43.06Z</time></trkpt><trkpt lat="33.8738744" lon="7.8969773"><ele>81.0</ele><time>2026-04-12T07:44:44.056Z</time></trkpt><trkpt lat="33.8738306" lon="7.8967891"><ele>81.25</ele><time>2026-04-12T07:44:45.064Z</time></trkpt><trkpt lat="33.8737898" lon="7.8966137"><ele>81.5</ele><time>2026-04-12T07:44:46.06Z</time></trkpt><trkpt lat="33.8737528" lon="7.8964488"><ele>81.75</ele><time>2026-04-12T07:44:47.06Z</time></trkpt><trkpt lat="33.8737215" lon="7.8962943"><ele>82.0</ele><time>2026-04-12T07:44:48.064Z</time></trkpt><trkpt lat="33.8736932" lon="7.8961532"><ele>82.0</ele><time>2026-04-12T07:44:49.069Z</time></trkpt><trkpt lat="33.8736657" lon="7.8960204"><ele>82.0</ele><time>2026-04-12T07:44:50.064Z</time></trkpt><trkpt lat="33.8736427" lon="7.8958933"><ele>82.0</ele><time>2026-04-12T07:44:51.069Z</time></trkpt><trkpt lat="33.8736195" lon="7.8957794"><ele>82.0</ele><time>2026-04-12T07:44:52.064Z</time></trkpt><trkpt lat="33.8736011" lon="7.8956823"><ele>82.0</ele><time>2026-04-12T07:44:53.062Z</time></trkpt><trkpt lat="33.8735876" lon="7.8956023"><ele>81.99999999999999</ele><time>2026-04-12T07:44:54.079Z</time></trkpt><trkpt lat="33.8735773" lon="7.8955266"><ele>82.0</ele><time>2026-04-12T07:44:55.061Z</time></trkpt><trkpt lat="33.8735578" lon="7.8954072"><ele>82.0</ele><time>2026-04-12T07:44:57.057Z</time></trkpt><trkpt lat="33.8735708" lon="7.895313"><ele>82.0</ele><time>2026-04-12T07:44:59.062Z</time></trkpt><trkpt lat="33.8736232" lon="7.8952602"><ele>82.0</ele><time>2026-04-12T07:45:01.065Z</time></trkpt><trkpt lat="33.873687" lon="7.8952429"><ele>81.99999999999999</ele><time>2026-04-12T07:45:03.071Z</time></trkpt><trkpt lat="33.8737382" lon="7.8951923"><ele>82.0</ele><time>2026-04-12T07:45:07.056Z</time></trkpt><trkpt lat="33.8737017" lon="7.8951288"><ele>81.42857142857142</ele><time>2026-04-12T07:53:00.066Z</time></trkpt><trkpt lat="33.8737265" lon="7.895033"><ele>80.85714285714286</ele><time>2026-04-12T07:53:06.067Z</time></trkpt><trkpt lat="33.8737845" lon="7.8950028"><ele>80.28571428571428</ele><time>2026-04-12T07:53:17.093Z</time></trkpt><trkpt lat="33.8737508" lon="7.8949351"><ele>79.71428571428571</ele><time>2026-04-12T08:05:44.989Z</time></trkpt><trkpt lat="33.8736742" lon="7.8949189"><ele>79.14285714285714</ele><time>2026-04-12T08:05:46.997Z</time></trkpt><trkpt lat="33.8735909" lon="7.8949112"><ele>78.57142857142857</ele><time>2026-04-12T08:05:48.992Z</time></trkpt><trkpt lat="33.8735267" lon="7.8948875"><ele>78.0</ele><time>2026-04-12T08:05:56.997Z</time></trkpt><trkpt lat="33.8734491" lon="7.8948419"><ele>77.66666666666667</ele><time>2026-04-12T08:05:59.99Z</time></trkpt><trkpt lat="33.8733903" lon="7.8947409"><ele>77.33333333333333</ele><time>2026-04-12T08:06:01.984Z</time></trkpt><trkpt lat="33.8733886" lon="7.8946626"><ele>77.0</ele><time>2026-04-12T08:06:02.983Z</time></trkpt><trkpt lat="33.8733779" lon="7.8945742"><ele>76.66666666666666</ele><time>2026-04-12T08:06:03.977Z</time></trkpt><trkpt lat="33.8733586" lon="7.8944766"><ele>76.33333333333333</ele><time>2026-04-12T08:06:04.976Z</time></trkpt><trkpt lat="33.873346" lon="7.8943805"><ele>76.0</ele><time>2026-04-12T08:06:05.971Z</time></trkpt><trkpt lat="33.8733263" lon="7.894279"><ele>75.5</ele><time>2026-04-12T08:06:06.976Z</time></trkpt><trkpt lat="33.8733085" lon="7.8941797"><ele>75.0</ele><time>2026-04-12T08:06:07.975Z</time></trkpt><trkpt lat="33.873288" lon="7.894073"><ele>74.5</ele><time>2026-04-12T08:06:08.975Z</time></trkpt><trkpt lat="33.8732765" lon="7.8939678"><ele>74.0</ele><time>2026-04-12T08:06:09.984Z</time></trkpt><trkpt lat="33.8732567" lon="7.8938726"><ele>73.5</ele><time>2026-04-12T08:06:10.986Z</time></trkpt><trkpt lat="33.8732297" lon="7.8937791"><ele>73.0</ele><time>2026-04-12T08:06:11.981Z</time></trkpt><trkpt lat="33.8732043" lon="7.8936744"><ele>73.0</ele><time>2026-04-12T08:06:12.987Z</time></trkpt><trkpt lat="33.873177" lon="7.8935707"><ele>73.0</ele><time>2026-04-12T08:06:13.982Z</time></trkpt><trkpt lat="33.8731591" lon="7.8934537"><ele>73.0</ele><time>2026-04-12T08:06:14.982Z</time></trkpt><trkpt lat="33.8731408" lon="7.8933375"><ele>73.0</ele><time>2026-04-12T08:06:15.989Z</time></trkpt><trkpt lat="33.873106" lon="7.8932186"><ele>73.0</ele><time>2026-04-12T08:06:16.989Z</time></trkpt><trkpt lat="33.8730703" lon="7.8931004"><ele>72.75</ele><time>2026-04-12T08:06:17.988Z</time></trkpt><trkpt lat="33.873042" lon="7.8929685"><ele>72.5</ele><time>2026-04-12T08:06:18.987Z</time></trkpt><trkpt lat="33.8730114" lon="7.8928355"><ele>72.25</ele><time>2026-04-12T08:06:19.984Z</time></trkpt><trkpt lat="33.8729834" lon="7.8926975"><ele>72.0</ele><time>2026-04-12T08:06:20.986Z</time></trkpt><trkpt lat="33.8729595" lon="7.8925634"><ele>71.75</ele><time>2026-04-12T08:06:21.983Z</time></trkpt><trkpt lat="33.8729414" lon="7.8924312"><ele>71.5</ele><time>2026-04-12T08:06:22.984Z</time></trkpt><trkpt lat="33.8729122" lon="7.8922897"><ele>71.25</ele><time>2026-04-12T08:06:23.984Z</time></trkpt><trkpt lat="33.8728825" lon="7.8921452"><ele>71.0</ele><time>2026-04-12T08:06:24.987Z</time></trkpt><trkpt lat="33.8728466" lon="7.8920079"><ele>71.0</ele><time>2026-04-12T08:06:25.996Z</time></trkpt><trkpt lat="33.8728097" lon="7.8918697"><ele>71.0</ele><time>2026-04-12T08:06:26.985Z</time></trkpt><trkpt lat="33.8727729" lon="7.8917387"><ele>71.0</ele><time>2026-04-12T08:06:27.983Z</time></trkpt><trkpt lat="33.8727392" lon="7.8916146"><ele>71.0</ele><time>2026-04-12T08:06:28.991Z</time></trkpt><trkpt lat="33.8727071" lon="7.8914947"><ele>71.0</ele><time>2026-04-12T08:06:29.983Z</time></trkpt><trkpt lat="33.8726856" lon="7.8913713"><ele>71.0</ele><time>2026-04-12T08:06:30.992Z</time></trkpt><trkpt lat="33.8726635" lon="7.8912374"><ele>71.0</ele><time>2026-04-12T08:06:32.002Z</time></trkpt><trkpt lat="33.8726415" lon="7.8911068"><ele>71.0</ele><time>2026-04-12T08:06:32.978Z</time></trkpt><trkpt lat="33.8726324" lon="7.8909622"><ele>71.0</ele><time>2026-04-12T08:06:33.978Z</time></trkpt><trkpt lat="33.8726423" lon="7.8907976"><ele>71.0</ele><time>2026-04-12T08:06:34.977Z</time></trkpt><trkpt lat="33.8726551" lon="7.8906333"><ele>71.0</ele><time>2026-04-12T08:06:35.984Z</time></trkpt><trkpt lat="33.8726632" lon="7.89047"><ele>71.0</ele><time>2026-04-12T08:06:36.972Z</time></trkpt><trkpt lat="33.8726674" lon="7.8903071"><ele>71.0</ele><time>2026-04-12T08:06:37.968Z</time></trkpt><trkpt lat="33.8726776" lon="7.8901353"><ele>71.0</ele><time>2026-04-12T08:06:38.97Z</time></trkpt><trkpt lat="33.8726731" lon="7.8899801"><ele>71.0</ele><time>2026-04-12T08:06:39.968Z</time></trkpt><trkpt lat="33.8726652" lon="7.8898178"><ele>71.0</ele><time>2026-04-12T08:06:40.974Z</time></trkpt><trkpt lat="33.8726652" lon="7.8896608"><ele>71.0</ele><time>2026-04-12T08:06:41.975Z</time></trkpt><trkpt lat="33.8726771" lon="7.8895242"><ele>71.0</ele><time>2026-04-12T08:06:42.976Z</time></trkpt><trkpt lat="33.8726495" lon="7.8893592"><ele>71.0</ele><time>2026-04-12T08:06:43.974Z</time></trkpt><trkpt lat="33.8726675" lon="7.8892082"><ele>71.0</ele><time>2026-04-12T08:06:44.975Z</time></trkpt><trkpt lat="33.8726732" lon="7.8890528"><ele>71.0</ele><time>2026-04-12T08:06:45.988Z</time></trkpt><trkpt lat="33.8726727" lon="7.8888958"><ele>70.75</ele><time>2026-04-12T08:06:46.986Z</time></trkpt><trkpt lat="33.8726763" lon="7.8887538"><ele>70.5</ele><time>2026-04-12T08:06:47.98Z</time></trkpt><trkpt lat="33.872681" lon="7.8886093"><ele>70.25</ele><time>2026-04-12T08:06:48.984Z</time></trkpt><trkpt lat="33.8726842" lon="7.8884705"><ele>70.0</ele><time>2026-04-12T08:06:49.977Z</time></trkpt><trkpt lat="33.8726897" lon="7.8883328"><ele>69.5</ele><time>2026-04-12T08:06:50.981Z</time></trkpt><trkpt lat="33.8726884" lon="7.8881907"><ele>69.0</ele><time>2026-04-12T08:06:51.981Z</time></trkpt><trkpt lat="33.8726771" lon="7.8880598"><ele>68.5</ele><time>2026-04-12T08:06:52.983Z</time></trkpt><trkpt lat="33.8726634" lon="7.8879212"><ele>68.0</ele><time>2026-04-12T08:06:53.979Z</time></trkpt><trkpt lat="33.8726615" lon="7.8877833"><ele>68.0</ele><time>2026-04-12T08:06:54.987Z</time></trkpt><trkpt lat="33.8726709" lon="7.8876517"><ele>68.0</ele><time>2026-04-12T08:06:55.988Z</time></trkpt><trkpt lat="33.8726805" lon="7.887531"><ele>68.0</ele><time>2026-04-12T08:06:56.977Z</time></trkpt><trkpt lat="33.8726969" lon="7.8874022"><ele>68.0</ele><time>2026-04-12T08:06:57.976Z</time></trkpt><trkpt lat="33.8727004" lon="7.8872633"><ele>68.0</ele><time>2026-04-12T08:06:58.986Z</time></trkpt><trkpt lat="33.8727139" lon="7.8871277"><ele>68.0</ele><time>2026-04-12T08:06:59.977Z</time></trkpt><trkpt lat="33.8727232" lon="7.8870027"><ele>68.0</ele><time>2026-04-12T08:07:00.976Z</time></trkpt><trkpt lat="33.8727221" lon="7.8868629"><ele>68.0</ele><time>2026-04-12T08:07:01.978Z</time></trkpt><trkpt lat="33.8727218" lon="7.8867252"><ele>68.0</ele><time>2026-04-12T08:07:02.995Z</time></trkpt><trkpt lat="33.8727244" lon="7.886602"><ele>68.0</ele><time>2026-04-12T08:07:03.976Z</time></trkpt><trkpt lat="33.8727171" lon="7.8864843"><ele>68.33333333333334</ele><time>2026-04-12T08:07:04.981Z</time></trkpt><trkpt lat="33.87271" lon="7.8863725"><ele>68.66666666666667</ele><time>2026-04-12T08:07:05.988Z</time></trkpt><trkpt lat="33.8727064" lon="7.8862856"><ele>69.0</ele><time>2026-04-12T08:07:06.98Z</time></trkpt><trkpt lat="33.8726927" lon="7.8861965"><ele>69.33333333333333</ele><time>2026-04-12T08:07:07.976Z</time></trkpt><trkpt lat="33.8726934" lon="7.8861038"><ele>69.66666666666666</ele><time>2026-04-12T08:07:08.98Z</time></trkpt><trkpt lat="33.8726887" lon="7.8860051"><ele>70.0</ele><time>2026-04-12T08:07:09.978Z</time></trkpt><trkpt lat="33.8726865" lon="7.8858923"><ele>70.2</ele><time>2026-04-12T08:07:10.977Z</time></trkpt><trkpt lat="33.8726757" lon="7.8857675"><ele>70.4</ele><time>2026-04-12T08:07:11.969Z</time></trkpt><trkpt lat="33.872659" lon="7.8856427"><ele>70.6</ele><time>2026-04-12T08:07:12.973Z</time></trkpt><trkpt lat="33.8726417" lon="7.8855157"><ele>70.8</ele><time>2026-04-12T08:07:13.975Z</time></trkpt><trkpt lat="33.8726267" lon="7.8853864"><ele>71.0</ele><time>2026-04-12T08:07:14.976Z</time></trkpt><trkpt lat="33.8726173" lon="7.8852527"><ele>71.0</ele><time>2026-04-12T08:07:15.99Z</time></trkpt><trkpt lat="33.8726087" lon="7.8851381"><ele>71.0</ele><time>2026-04-12T08:07:16.984Z</time></trkpt><trkpt lat="33.8726043" lon="7.8850281"><ele>71.0</ele><time>2026-04-12T08:07:17.981Z</time></trkpt><trkpt lat="33.8725945" lon="7.8849139"><ele>71.0</ele><time>2026-04-12T08:07:18.984Z</time></trkpt><trkpt lat="33.8725889" lon="7.8847941"><ele>71.0</ele><time>2026-04-12T08:07:19.982Z</time></trkpt><trkpt lat="33.8725732" lon="7.8846659"><ele>70.2</ele><time>2026-04-12T08:07:20.979Z</time></trkpt><trkpt lat="33.8725611" lon="7.8845352"><ele>69.39999999999999</ele><time>2026-04-12T08:07:21.977Z</time></trkpt><trkpt lat="33.8725482" lon="7.8844087"><ele>68.6</ele><time>2026-04-12T08:07:22.979Z</time></trkpt><trkpt lat="33.8725267" lon="7.8842836"><ele>67.8</ele><time>2026-04-12T08:07:23.972Z</time></trkpt><trkpt lat="33.872513" lon="7.8841558"><ele>67.0</ele><time>2026-04-12T08:07:24.976Z</time></trkpt><trkpt lat="33.872495" lon="7.8840253"><ele>66.8</ele><time>2026-04-12T08:07:25.979Z</time></trkpt><trkpt lat="33.8724801" lon="7.8839056"><ele>66.6</ele><time>2026-04-12T08:07:26.967Z</time></trkpt><trkpt lat="33.8724671" lon="7.8837927"><ele>66.39999999999999</ele><time>2026-04-12T08:07:27.972Z</time></trkpt><trkpt lat="33.8724669" lon="7.8836808"><ele>66.2</ele><time>2026-04-12T08:07:28.973Z</time></trkpt><trkpt lat="33.8724566" lon="7.8835688"><ele>66.0</ele><time>2026-04-12T08:07:29.968Z</time></trkpt><trkpt lat="33.8724351" lon="7.8834532"><ele>65.39999999999999</ele><time>2026-04-12T08:07:30.973Z</time></trkpt><trkpt lat="33.872422" lon="7.8833429"><ele>64.8</ele><time>2026-04-12T08:07:31.978Z</time></trkpt><trkpt lat="33.8724018" lon="7.8832244"><ele>64.19999999999999</ele><time>2026-04-12T08:07:32.978Z</time></trkpt><trkpt lat="33.8723777" lon="7.8831099"><ele>63.599999999999994</ele><time>2026-04-12T08:07:33.993Z</time></trkpt><trkpt lat="33.8723522" lon="7.8830071"><ele>63.0</ele><time>2026-04-12T08:07:34.978Z</time></trkpt><trkpt lat="33.8723264" lon="7.8828979"><ele>63.0</ele><time>2026-04-12T08:07:35.988Z</time></trkpt><trkpt lat="33.8723149" lon="7.8827818"><ele>63.0</ele><time>2026-04-12T08:07:36.977Z</time></trkpt><trkpt lat="33.8723035" lon="7.8826595"><ele>63.0</ele><time>2026-04-12T08:07:37.976Z</time></trkpt><trkpt lat="33.872294" lon="7.8825366"><ele>63.0</ele><time>2026-04-12T08:07:38.977Z</time></trkpt><trkpt lat="33.8722827" lon="7.8823946"><ele>63.0</ele><time>2026-04-12T08:07:39.976Z</time></trkpt><trkpt lat="33.8722721" lon="7.8822404"><ele>62.75</ele><time>2026-04-12T08:07:40.977Z</time></trkpt><trkpt lat="33.8722462" lon="7.8820918"><ele>62.5</ele><time>2026-04-12T08:07:41.973Z</time></trkpt><trkpt lat="33.8722204" lon="7.881928"><ele>62.25</ele><time>2026-04-12T08:07:42.978Z</time></trkpt><trkpt lat="33.8722006" lon="7.8817629"><ele>62.0</ele><time>2026-04-12T08:07:43.976Z</time></trkpt><trkpt lat="33.8721947" lon="7.8815988"><ele>60.25</ele><time>2026-04-12T08:07:44.98Z</time></trkpt><trkpt lat="33.872164" lon="7.8814319"><ele>58.5</ele><time>2026-04-12T08:07:45.988Z</time></trkpt><trkpt lat="33.8721341" lon="7.8812762"><ele>56.75</ele><time>2026-04-12T08:07:46.983Z</time></trkpt><trkpt lat="33.8721058" lon="7.881132"><ele>55.0</ele><time>2026-04-12T08:07:47.985Z</time></trkpt><trkpt lat="33.8720512" lon="7.8809715"><ele>54.5</ele><time>2026-04-12T08:07:48.98Z</time></trkpt><trkpt lat="33.8720086" lon="7.8808393"><ele>54.0</ele><time>2026-04-12T08:07:49.98Z</time></trkpt><trkpt lat="33.871946" lon="7.8806935"><ele>53.5</ele><time>2026-04-12T08:07:50.982Z</time></trkpt><trkpt lat="33.8718774" lon="7.8805683"><ele>53.0</ele><time>2026-04-12T08:07:51.978Z</time></trkpt><trkpt lat="33.8718071" lon="7.8804531"><ele>53.25</ele><time>2026-04-12T08:07:52.982Z</time></trkpt><trkpt lat="33.8717333" lon="7.8803432"><ele>53.5</ele><time>2026-04-12T08:07:53.98Z</time></trkpt><trkpt lat="33.8716514" lon="7.8802359"><ele>53.75</ele><time>2026-04-12T08:07:54.976Z</time></trkpt><trkpt lat="33.8715614" lon="7.880135"><ele>54.0</ele><time>2026-04-12T08:07:55.985Z</time></trkpt><trkpt lat="33.8714726" lon="7.8800415"><ele>54.5</ele><time>2026-04-12T08:07:56.969Z</time></trkpt><trkpt lat="33.8713951" lon="7.8799313"><ele>55.0</ele><time>2026-04-12T08:07:57.975Z</time></trkpt><trkpt lat="33.8713244" lon="7.8798197"><ele>55.5</ele><time>2026-04-12T08:07:58.975Z</time></trkpt><trkpt lat="33.8712504" lon="7.8797067"><ele>56.0</ele><time>2026-04-12T08:07:59.966Z</time></trkpt><trkpt lat="33.8711745" lon="7.8795885"><ele>56.0</ele><time>2026-04-12T08:08:00.969Z</time></trkpt><trkpt lat="33.8711051" lon="7.8794778"><ele>55.99999999999999</ele><time>2026-04-12T08:08:01.984Z</time></trkpt><trkpt lat="33.8710459" lon="7.8793753"><ele>55.99999999999999</ele><time>2026-04-12T08:08:02.978Z</time></trkpt><trkpt lat="33.8709963" lon="7.8792731"><ele>56.0</ele><time>2026-04-12T08:08:03.976Z</time></trkpt><trkpt lat="33.8709642" lon="7.8792003"><ele>56.0</ele><time>2026-04-12T08:08:04.993Z</time></trkpt><trkpt lat="33.8709074" lon="7.879075"><ele>56.50000000000001</ele><time>2026-04-12T08:08:06.977Z</time></trkpt><trkpt lat="33.870859" lon="7.879013"><ele>57.0</ele><time>2026-04-12T08:08:07.981Z</time></trkpt><trkpt lat="33.8708167" lon="7.8789376"><ele>57.5</ele><time>2026-04-12T08:08:08.985Z</time></trkpt><trkpt lat="33.8707789" lon="7.8788514"><ele>58.0</ele><time>2026-04-12T08:08:09.987Z</time></trkpt><trkpt lat="33.8707338" lon="7.8787666"><ele>58.50000000000001</ele><time>2026-04-12T08:08:10.987Z</time></trkpt><trkpt lat="33.8706886" lon="7.8786754"><ele>59.0</ele><time>2026-04-12T08:08:11.984Z</time></trkpt><trkpt lat="33.87064" lon="7.878577"><ele>59.0</ele><time>2026-04-12T08:08:12.983Z</time></trkpt><trkpt lat="33.8705962" lon="7.8784719"><ele>59.00000000000001</ele><time>2026-04-12T08:08:13.988Z</time></trkpt><trkpt lat="33.8705516" lon="7.8783576"><ele>59.00000000000001</ele><time>2026-04-12T08:08:14.988Z</time></trkpt><trkpt lat="33.8705055" lon="7.8782329"><ele>59.0</ele><time>2026-04-12T08:08:15.996Z</time></trkpt><trkpt lat="33.870461" lon="7.8781034"><ele>59.0</ele><time>2026-04-12T08:08:16.99Z</time></trkpt><trkpt lat="33.8704203" lon="7.8779797"><ele>59.0</ele><time>2026-04-12T08:08:17.99Z</time></trkpt><trkpt lat="33.8703764" lon="7.8778353"><ele>59.0</ele><time>2026-04-12T08:08:18.986Z</time></trkpt><trkpt lat="33.8703448" lon="7.8777011"><ele>59.0</ele><time>2026-04-12T08:08:19.984Z</time></trkpt><trkpt lat="33.8703178" lon="7.8775555"><ele>59.0</ele><time>2026-04-12T08:08:20.986Z</time></trkpt><trkpt lat="33.8702951" lon="7.8774162"><ele>58.25</ele><time>2026-04-12T08:08:21.987Z</time></trkpt><trkpt lat="33.8702753" lon="7.8772649"><ele>57.5</ele><time>2026-04-12T08:08:22.989Z</time></trkpt><trkpt lat="33.8702699" lon="7.8771159"><ele>56.75</ele><time>2026-04-12T08:08:23.988Z</time></trkpt><trkpt lat="33.8702775" lon="7.8769571"><ele>56.0</ele><time>2026-04-12T08:08:24.995Z</time></trkpt><trkpt lat="33.8702853" lon="7.8768149"><ele>56.0</ele><time>2026-04-12T08:08:26.005Z</time></trkpt><trkpt lat="33.8702884" lon="7.8766785"><ele>56.0</ele><time>2026-04-12T08:08:26.995Z</time></trkpt><trkpt lat="33.8702835" lon="7.8765419"><ele>56.0</ele><time>2026-04-12T08:08:28.068Z</time></trkpt><trkpt lat="33.8702739" lon="7.8763948"><ele>56.0</ele><time>2026-04-12T08:08:29.069Z</time></trkpt><trkpt lat="33.8702612" lon="7.876242"><ele>56.0</ele><time>2026-04-12T08:08:30.069Z</time></trkpt><trkpt lat="33.8702513" lon="7.8760878"><ele>56.0</ele><time>2026-04-12T08:08:31.071Z</time></trkpt><trkpt lat="33.8702429" lon="7.875931"><ele>56.0</ele><time>2026-04-12T08:08:32.066Z</time></trkpt><trkpt lat="33.8702351" lon="7.875765"><ele>56.0</ele><time>2026-04-12T08:08:33.064Z</time></trkpt><trkpt lat="33.8702245" lon="7.8755962"><ele>55.75</ele><time>2026-04-12T08:08:34.065Z</time></trkpt><trkpt lat="33.8702157" lon="7.8754245"><ele>55.5</ele><time>2026-04-12T08:08:35.067Z</time></trkpt><trkpt lat="33.8702055" lon="7.8752476"><ele>55.25</ele><time>2026-04-12T08:08:36.091Z</time></trkpt><trkpt lat="33.870193" lon="7.8750669"><ele>55.0</ele><time>2026-04-12T08:08:37.065Z</time></trkpt><trkpt lat="33.8701788" lon="7.8748982"><ele>55.75</ele><time>2026-04-12T08:08:38.065Z</time></trkpt><trkpt lat="33.8701685" lon="7.874737"><ele>56.5</ele><time>2026-04-12T08:08:39.062Z</time></trkpt><trkpt lat="33.8701554" lon="7.8745902"><ele>57.25</ele><time>2026-04-12T08:08:40.065Z</time></trkpt><trkpt lat="33.8701446" lon="7.8744599"><ele>58.0</ele><time>2026-04-12T08:08:41.065Z</time></trkpt><trkpt lat="33.8701368" lon="7.8743504"><ele>57.85714285714286</ele><time>2026-04-12T08:08:42.067Z</time></trkpt><trkpt lat="33.8701355" lon="7.8742553"><ele>57.714285714285715</ele><time>2026-04-12T08:08:43.068Z</time></trkpt><trkpt lat="33.8701293" lon="7.8741765"><ele>57.57142857142857</ele><time>2026-04-12T08:08:44.071Z</time></trkpt><trkpt lat="33.8701226" lon="7.8740985"><ele>57.42857142857143</ele><time>2026-04-12T08:08:45.067Z</time></trkpt><trkpt lat="33.8701153" lon="7.8740168"><ele>57.28571428571428</ele><time>2026-04-12T08:08:46.08Z</time></trkpt><trkpt lat="33.8701099" lon="7.8739389"><ele>57.14285714285714</ele><time>2026-04-12T08:08:47.066Z</time></trkpt><trkpt lat="33.8701078" lon="7.8738593"><ele>57.0</ele><time>2026-04-12T08:08:48.066Z</time></trkpt><trkpt lat="33.8701044" lon="7.873767"><ele>57.0</ele><time>2026-04-12T08:08:49.065Z</time></trkpt><trkpt lat="33.8701006" lon="7.8736598"><ele>57.0</ele><time>2026-04-12T08:08:50.067Z</time></trkpt><trkpt lat="33.8700979" lon="7.8735382"><ele>57.0</ele><time>2026-04-12T08:08:51.07Z</time></trkpt><trkpt lat="33.8700964" lon="7.8734137"><ele>57.0</ele><time>2026-04-12T08:08:52.067Z</time></trkpt><trkpt lat="33.8700961" lon="7.8733009"><ele>57.0</ele><time>2026-04-12T08:08:53.07Z</time></trkpt><trkpt lat="33.8701082" lon="7.873183"><ele>57.2</ele><time>2026-04-12T08:08:54.068Z</time></trkpt><trkpt lat="33.8701189" lon="7.8730602"><ele>57.400000000000006</ele><time>2026-04-12T08:08:55.073Z</time></trkpt><trkpt lat="33.8701231" lon="7.8729468"><ele>57.599999999999994</ele><time>2026-04-12T08:08:56.08Z</time></trkpt><trkpt lat="33.8701266" lon="7.8728218"><ele>57.8</ele><time>2026-04-12T08:08:57.069Z</time></trkpt><trkpt lat="33.8701367" lon="7.8726818"><ele>58.0</ele><time>2026-04-12T08:08:58.068Z</time></trkpt><trkpt lat="33.8701556" lon="7.8725445"><ele>58.0</ele><time>2026-04-12T08:08:59.072Z</time></trkpt><trkpt lat="33.8701753" lon="7.8724013"><ele>58.0</ele><time>2026-04-12T08:09:00.067Z</time></trkpt><trkpt lat="33.8701929" lon="7.8722553"><ele>58.0</ele><time>2026-04-12T08:09:01.065Z</time></trkpt><trkpt lat="33.8702066" lon="7.8721114"><ele>58.0</ele><time>2026-04-12T08:09:02.067Z</time></trkpt><trkpt lat="33.8702175" lon="7.8719695"><ele>58.0</ele><time>2026-04-12T08:09:03.069Z</time></trkpt><trkpt lat="33.8702285" lon="7.8718341"><ele>58.0</ele><time>2026-04-12T08:09:04.069Z</time></trkpt><trkpt lat="33.8702376" lon="7.8717056"><ele>58.0</ele><time>2026-04-12T08:09:05.067Z</time></trkpt><trkpt lat="33.8702499" lon="7.8715771"><ele>58.0</ele><time>2026-04-12T08:09:06.069Z</time></trkpt><trkpt lat="33.8702578" lon="7.8714529"><ele>58.0</ele><time>2026-04-12T08:09:07.085Z</time></trkpt><trkpt lat="33.870269" lon="7.8713255"><ele>58.5</ele><time>2026-04-12T08:09:08.067Z</time></trkpt><trkpt lat="33.8702749" lon="7.8711955"><ele>59.0</ele><time>2026-04-12T08:09:09.07Z</time></trkpt><trkpt lat="33.8702824" lon="7.8710591"><ele>59.5</ele><time>2026-04-12T08:09:10.078Z</time></trkpt><trkpt lat="33.8702915" lon="7.8709194"><ele>60.0</ele><time>2026-04-12T08:09:11.065Z</time></trkpt><trkpt lat="33.870303" lon="7.8707797"><ele>60.5</ele><time>2026-04-12T08:09:12.067Z</time></trkpt><trkpt lat="33.8703169" lon="7.8706429"><ele>61.0</ele><time>2026-04-12T08:09:13.066Z</time></trkpt><trkpt lat="33.8703312" lon="7.870504"><ele>61.5</ele><time>2026-04-12T08:09:14.067Z</time></trkpt><trkpt lat="33.8703451" lon="7.8703622"><ele>62.0</ele><time>2026-04-12T08:09:15.064Z</time></trkpt><trkpt lat="33.8703593" lon="7.8702178"><ele>62.5</ele><time>2026-04-12T08:09:16.065Z</time></trkpt><trkpt lat="33.8703738" lon="7.8700749"><ele>63.0</ele><time>2026-04-12T08:09:17.07Z</time></trkpt><trkpt lat="33.8703881" lon="7.8699312"><ele>63.5</ele><time>2026-04-12T08:09:18.066Z</time></trkpt><trkpt lat="33.8704033" lon="7.8697916"><ele>64.0</ele><time>2026-04-12T08:09:19.073Z</time></trkpt><trkpt lat="33.8704204" lon="7.869656"><ele>63.99999999999999</ele><time>2026-04-12T08:09:20.075Z</time></trkpt><trkpt lat="33.8704341" lon="7.869532"><ele>64.0</ele><time>2026-04-12T08:09:21.068Z</time></trkpt><trkpt lat="33.8704491" lon="7.8694201"><ele>64.0</ele><time>2026-04-12T08:09:22.061Z</time></trkpt><trkpt lat="33.8704773" lon="7.8693219"><ele>64.0</ele><time>2026-04-12T08:09:23.068Z</time></trkpt><trkpt lat="33.870504" lon="7.8692339"><ele>63.99999999999999</ele><time>2026-04-12T08:09:24.064Z</time></trkpt><trkpt lat="33.8705272" lon="7.8691432"><ele>64.0</ele><time>2026-04-12T08:09:25.071Z</time></trkpt><trkpt lat="33.8705364" lon="7.8690485"><ele>63.400000000000006</ele><time>2026-04-12T08:09:26.069Z</time></trkpt><trkpt lat="33.8705292" lon="7.8689538"><ele>62.800000000000004</ele><time>2026-04-12T08:09:27.066Z</time></trkpt><trkpt lat="33.8705142" lon="7.8688391"><ele>62.199999999999996</ele><time>2026-04-12T08:09:28.045Z</time></trkpt><trkpt lat="33.8705052" lon="7.8687138"><ele>61.599999999999994</ele><time>2026-04-12T08:09:29.049Z</time></trkpt><trkpt lat="33.8705082" lon="7.8685796"><ele>61.0</ele><time>2026-04-12T08:09:30.057Z</time></trkpt><trkpt lat="33.8705191" lon="7.8684387"><ele>61.0</ele><time>2026-04-12T08:09:31.052Z</time></trkpt><trkpt lat="33.8705368" lon="7.8682944"><ele>61.0</ele><time>2026-04-12T08:09:32.072Z</time></trkpt><trkpt lat="33.8705505" lon="7.8681423"><ele>61.0</ele><time>2026-04-12T08:09:33.072Z</time></trkpt><trkpt lat="33.8705654" lon="7.8679875"><ele>61.0</ele><time>2026-04-12T08:09:34.073Z</time></trkpt><trkpt lat="33.8705786" lon="7.8678275"><ele>61.0</ele><time>2026-04-12T08:09:35.072Z</time></trkpt><trkpt lat="33.8705922" lon="7.8676618"><ele>61.0</ele><time>2026-04-12T08:09:36.072Z</time></trkpt><trkpt lat="33.870603" lon="7.8674944"><ele>61.0</ele><time>2026-04-12T08:09:37.074Z</time></trkpt><trkpt lat="33.8706105" lon="7.8673288"><ele>61.0</ele><time>2026-04-12T08:09:38.089Z</time></trkpt><trkpt lat="33.870613" lon="7.8671658"><ele>61.5</ele><time>2026-04-12T08:09:39.07Z</time></trkpt><trkpt lat="33.8706118" lon="7.8670083"><ele>62.0</ele><time>2026-04-12T08:09:40.079Z</time></trkpt><trkpt lat="33.8706058" lon="7.8668515"><ele>62.5</ele><time>2026-04-12T08:09:41.07Z</time></trkpt><trkpt lat="33.8705946" lon="7.866691"><ele>63.0</ele><time>2026-04-12T08:09:42.07Z</time></trkpt><trkpt lat="33.8705829" lon="7.8665313"><ele>63.0</ele><time>2026-04-12T08:09:43.075Z</time></trkpt><trkpt lat="33.8705702" lon="7.8663751"><ele>63.0</ele><time>2026-04-12T08:09:44.07Z</time></trkpt><trkpt lat="33.8705516" lon="7.8662199"><ele>63.0</ele><time>2026-04-12T08:09:45.071Z</time></trkpt><trkpt lat="33.8705285" lon="7.866065"><ele>63.0</ele><time>2026-04-12T08:09:46.069Z</time></trkpt><trkpt lat="33.8705017" lon="7.8659075"><ele>63.0</ele><time>2026-04-12T08:09:47.072Z</time></trkpt><trkpt lat="33.8704714" lon="7.8657434"><ele>63.0</ele><time>2026-04-12T08:09:48.07Z</time></trkpt><trkpt lat="33.8704394" lon="7.8655797"><ele>63.0</ele><time>2026-04-12T08:09:49.072Z</time></trkpt><trkpt lat="33.8704055" lon="7.8654134"><ele>63.0</ele><time>2026-04-12T08:09:50.07Z</time></trkpt><trkpt lat="33.8703687" lon="7.8652398"><ele>63.25</ele><time>2026-04-12T08:09:51.081Z</time></trkpt><trkpt lat="33.8703334" lon="7.8650677"><ele>63.5</ele><time>2026-04-12T08:09:52.067Z</time></trkpt><trkpt lat="33.870299" lon="7.8648921"><ele>63.75</ele><time>2026-04-12T08:09:53.067Z</time></trkpt><trkpt lat="33.8702641" lon="7.8647148"><ele>64.0</ele><time>2026-04-12T08:09:54.071Z</time></trkpt><trkpt lat="33.8702298" lon="7.8645375"><ele>64.0</ele><time>2026-04-12T08:09:55.071Z</time></trkpt><trkpt lat="33.8701936" lon="7.864361"><ele>64.0</ele><time>2026-04-12T08:09:56.07Z</time></trkpt><trkpt lat="33.8701562" lon="7.8641819"><ele>64.0</ele><time>2026-04-12T08:09:57.073Z</time></trkpt><trkpt lat="33.8701189" lon="7.8639997"><ele>63.33333333333333</ele><time>2026-04-12T08:09:58.071Z</time></trkpt><trkpt lat="33.8700868" lon="7.8638174"><ele>62.66666666666667</ele><time>2026-04-12T08:09:59.075Z</time></trkpt><trkpt lat="33.8700599" lon="7.8636353"><ele>62.0</ele><time>2026-04-12T08:10:00.071Z</time></trkpt><trkpt lat="33.8700389" lon="7.8634519"><ele>62.0</ele><time>2026-04-12T08:10:01.086Z</time></trkpt><trkpt lat="33.8700188" lon="7.863265"><ele>62.0</ele><time>2026-04-12T08:10:02.068Z</time></trkpt><trkpt lat="33.8700007" lon="7.8630756"><ele>62.0</ele><time>2026-04-12T08:10:03.072Z</time></trkpt><trkpt lat="33.869985" lon="7.8628838"><ele>62.0</ele><time>2026-04-12T08:10:04.067Z</time></trkpt><trkpt lat="33.8699757" lon="7.8626884"><ele>62.0</ele><time>2026-04-12T08:10:05.07Z</time></trkpt><trkpt lat="33.8699741" lon="7.862492"><ele>62.0</ele><time>2026-04-12T08:10:06.07Z</time></trkpt><trkpt lat="33.8699807" lon="7.8622924"><ele>62.333333333333336</ele><time>2026-04-12T08:10:07.07Z</time></trkpt><trkpt lat="33.8699937" lon="7.8620914"><ele>62.66666666666667</ele><time>2026-04-12T08:10:08.069Z</time></trkpt><trkpt lat="33.8700126" lon="7.8618881"><ele>63.0</ele><time>2026-04-12T08:10:09.082Z</time></trkpt><trkpt lat="33.870041" lon="7.861686"><ele>63.33333333333333</ele><time>2026-04-12T08:10:10.074Z</time></trkpt><trkpt lat="33.8700746" lon="7.861487"><ele>63.666666666666664</ele><time>2026-04-12T08:10:11.072Z</time></trkpt><trkpt lat="33.8701108" lon="7.8612887"><ele>64.0</ele><time>2026-04-12T08:10:12.082Z</time></trkpt><trkpt lat="33.8701495" lon="7.8610958"><ele>64.33333333333333</ele><time>2026-04-12T08:10:13.066Z</time></trkpt><trkpt lat="33.8701924" lon="7.8609122"><ele>64.66666666666667</ele><time>2026-04-12T08:10:14.071Z</time></trkpt><trkpt lat="33.8702393" lon="7.860736"><ele>65.0</ele><time>2026-04-12T08:10:15.072Z</time></trkpt><trkpt lat="33.8702875" lon="7.8605662"><ele>65.0</ele><time>2026-04-12T08:10:16.075Z</time></trkpt><trkpt lat="33.8703421" lon="7.8603959"><ele>65.0</ele><time>2026-04-12T08:10:17.077Z</time></trkpt><trkpt lat="33.8703905" lon="7.8602262"><ele>65.0</ele><time>2026-04-12T08:10:18.073Z</time></trkpt><trkpt lat="33.8704365" lon="7.8600552"><ele>64.66666666666667</ele><time>2026-04-12T08:10:19.071Z</time></trkpt><trkpt lat="33.8704812" lon="7.8598839"><ele>64.33333333333333</ele><time>2026-04-12T08:10:20.07Z</time></trkpt><trkpt lat="33.8705297" lon="7.8597121"><ele>64.0</ele><time>2026-04-12T08:10:21.072Z</time></trkpt><trkpt lat="33.8705797" lon="7.8595367"><ele>64.0</ele><time>2026-04-12T08:10:22.079Z</time></trkpt><trkpt lat="33.870636" lon="7.8593588"><ele>64.0</ele><time>2026-04-12T08:10:23.07Z</time></trkpt><trkpt lat="33.8706901" lon="7.8591773"><ele>64.0</ele><time>2026-04-12T08:10:24.076Z</time></trkpt><trkpt lat="33.8707489" lon="7.8589916"><ele>64.33333333333333</ele><time>2026-04-12T08:10:25.077Z</time></trkpt><trkpt lat="33.8708057" lon="7.8588007"><ele>64.66666666666667</ele><time>2026-04-12T08:10:26.075Z</time></trkpt><trkpt lat="33.8708556" lon="7.8586079"><ele>65.0</ele><time>2026-04-12T08:10:27.072Z</time></trkpt><trkpt lat="33.8709007" lon="7.8584085"><ele>66.66666666666667</ele><time>2026-04-12T08:10:28.072Z</time></trkpt><trkpt lat="33.8709422" lon="7.8582058"><ele>68.33333333333333</ele><time>2026-04-12T08:10:29.071Z</time></trkpt><trkpt lat="33.870974" lon="7.8579966"><ele>70.0</ele><time>2026-04-12T08:10:30.067Z</time></trkpt><trkpt lat="33.8709984" lon="7.8577802"><ele>70.0</ele><time>2026-04-12T08:10:31.08Z</time></trkpt><trkpt lat="33.8710148" lon="7.8575646"><ele>70.0</ele><time>2026-04-12T08:10:32.085Z</time></trkpt><trkpt lat="33.8710253" lon="7.8573463"><ele>70.0</ele><time>2026-04-12T08:10:33.08Z</time></trkpt><trkpt lat="33.8710337" lon="7.8571242"><ele>70.0</ele><time>2026-04-12T08:10:34.081Z</time></trkpt><trkpt lat="33.8710386" lon="7.8569012"><ele>70.0</ele><time>2026-04-12T08:10:35.078Z</time></trkpt><trkpt lat="33.8710422" lon="7.8566819"><ele>70.0</ele><time>2026-04-12T08:10:36.083Z</time></trkpt><trkpt lat="33.8710443" lon="7.8564723"><ele>70.0</ele><time>2026-04-12T08:10:37.083Z</time></trkpt><trkpt lat="33.871045" lon="7.8562703"><ele>70.0</ele><time>2026-04-12T08:10:38.08Z</time></trkpt><trkpt lat="33.8710398" lon="7.8560746"><ele>70.0</ele><time>2026-04-12T08:10:39.077Z</time></trkpt><trkpt lat="33.8710318" lon="7.8558795"><ele>70.0</ele><time>2026-04-12T08:10:40.088Z</time></trkpt><trkpt lat="33.8710245" lon="7.8556836"><ele>70.0</ele><time>2026-04-12T08:10:41.074Z</time></trkpt><trkpt lat="33.8710167" lon="7.8554917"><ele>70.0</ele><time>2026-04-12T08:10:42.085Z</time></trkpt><trkpt lat="33.8710034" lon="7.8552973"><ele>69.33333333333333</ele><time>2026-04-12T08:10:43.075Z</time></trkpt><trkpt lat="33.8709908" lon="7.8551034"><ele>68.66666666666667</ele><time>2026-04-12T08:10:44.075Z</time></trkpt><trkpt lat="33.8709822" lon="7.8549097"><ele>68.0</ele><time>2026-04-12T08:10:45.075Z</time></trkpt><trkpt lat="33.8709731" lon="7.8547149"><ele>68.0</ele><time>2026-04-12T08:10:46.08Z</time></trkpt><trkpt lat="33.8709638" lon="7.854517"><ele>68.0</ele><time>2026-04-12T08:10:47.084Z</time></trkpt><trkpt lat="33.8709558" lon="7.8543189"><ele>68.0</ele><time>2026-04-12T08:10:48.078Z</time></trkpt><trkpt lat="33.8709487" lon="7.8541169"><ele>68.0</ele><time>2026-04-12T08:10:49.084Z</time></trkpt><trkpt lat="33.8709423" lon="7.8539152"><ele>68.0</ele><time>2026-04-12T08:10:50.081Z</time></trkpt><trkpt lat="33.8709351" lon="7.8537112"><ele>68.0</ele><time>2026-04-12T08:10:51.079Z</time></trkpt><trkpt lat="33.8709283" lon="7.8535037"><ele>66.33333333333334</ele><time>2026-04-12T08:10:52.091Z</time></trkpt><trkpt lat="33.8709217" lon="7.853298"><ele>64.66666666666667</ele><time>2026-04-12T08:10:53.078Z</time></trkpt><trkpt lat="33.8709129" lon="7.8530898"><ele>63.0</ele><time>2026-04-12T08:10:54.079Z</time></trkpt><trkpt lat="33.8709058" lon="7.852884"><ele>63.0</ele><time>2026-04-12T08:10:55.079Z</time></trkpt><trkpt lat="33.8708998" lon="7.8526789"><ele>63.0</ele><time>2026-04-12T08:10:56.079Z</time></trkpt><trkpt lat="33.8708964" lon="7.8524759"><ele>63.0</ele><time>2026-04-12T08:10:57.078Z</time></trkpt><trkpt lat="33.8708926" lon="7.8522754"><ele>63.0</ele><time>2026-04-12T08:10:58.077Z</time></trkpt><trkpt lat="33.8708875" lon="7.8520727"><ele>63.0</ele><time>2026-04-12T08:10:59.079Z</time></trkpt><trkpt lat="33.870882" lon="7.8518654"><ele>63.0</ele><time>2026-04-12T08:11:00.075Z</time></trkpt><trkpt lat="33.8708723" lon="7.8516546"><ele>62.66666666666667</ele><time>2026-04-12T08:11:01.073Z</time></trkpt><trkpt lat="33.8708615" lon="7.8514434"><ele>62.333333333333336</ele><time>2026-04-12T08:11:02.082Z</time></trkpt><trkpt lat="33.8708513" lon="7.8512333"><ele>62.0</ele><time>2026-04-12T08:11:03.072Z</time></trkpt><trkpt lat="33.8708424" lon="7.8510254"><ele>61.66666666666667</ele><time>2026-04-12T08:11:04.075Z</time></trkpt><trkpt lat="33.8708347" lon="7.8508196"><ele>61.33333333333333</ele><time>2026-04-12T08:11:05.077Z</time></trkpt><trkpt lat="33.8708256" lon="7.8506144"><ele>61.0</ele><time>2026-04-12T08:11:06.074Z</time></trkpt><trkpt lat="33.8708178" lon="7.8504101"><ele>61.0</ele><time>2026-04-12T08:11:07.075Z</time></trkpt><trkpt lat="33.8708075" lon="7.8502032"><ele>61.0</ele><time>2026-04-12T08:11:08.075Z</time></trkpt><trkpt lat="33.8707992" lon="7.8499942"><ele>61.0</ele><time>2026-04-12T08:11:09.075Z</time></trkpt><trkpt lat="33.8707945" lon="7.8497842"><ele>61.0</ele><time>2026-04-12T08:11:10.073Z</time></trkpt><trkpt lat="33.8707943" lon="7.8495703"><ele>61.0</ele><time>2026-04-12T08:11:11.086Z</time></trkpt><trkpt lat="33.8707987" lon="7.8493545"><ele>61.0</ele><time>2026-04-12T08:11:12.088Z</time></trkpt><trkpt lat="33.8708063" lon="7.8491382"><ele>60.666666666666664</ele><time>2026-04-12T08:11:13.082Z</time></trkpt><trkpt lat="33.8708181" lon="7.8489228"><ele>60.33333333333333</ele><time>2026-04-12T08:11:14.084Z</time></trkpt><trkpt lat="33.8708339" lon="7.8487123"><ele>60.0</ele><time>2026-04-12T08:11:15.084Z</time></trkpt><trkpt lat="33.8708518" lon="7.8485019"><ele>59.33333333333333</ele><time>2026-04-12T08:11:16.077Z</time></trkpt><trkpt lat="33.8708735" lon="7.848292"><ele>58.666666666666664</ele><time>2026-04-12T08:11:17.079Z</time></trkpt><trkpt lat="33.870902" lon="7.8480819"><ele>58.0</ele><time>2026-04-12T08:11:18.08Z</time></trkpt><trkpt lat="33.8709315" lon="7.8478693"><ele>59.33333333333333</ele><time>2026-04-12T08:11:19.08Z</time></trkpt><trkpt lat="33.8709658" lon="7.847658"><ele>60.66666666666667</ele><time>2026-04-12T08:11:20.08Z</time></trkpt><trkpt lat="33.871004" lon="7.847445"><ele>62.0</ele><time>2026-04-12T08:11:21.078Z</time></trkpt><trkpt lat="33.8710514" lon="7.8472326"><ele>62.0</ele><time>2026-04-12T08:11:22.088Z</time></trkpt><trkpt lat="33.8711026" lon="7.8470195"><ele>62.0</ele><time>2026-04-12T08:11:23.079Z</time></trkpt><trkpt lat="33.8711576" lon="7.8468073"><ele>62.0</ele><time>2026-04-12T08:11:24.078Z</time></trkpt><trkpt lat="33.8712142" lon="7.8465883"><ele>61.0</ele><time>2026-04-12T08:11:25.081Z</time></trkpt><trkpt lat="33.8712732" lon="7.8463698"><ele>60.0</ele><time>2026-04-12T08:11:26.079Z</time></trkpt><trkpt lat="33.8713286" lon="7.8461536"><ele>59.0</ele><time>2026-04-12T08:11:27.088Z</time></trkpt><trkpt lat="33.8713816" lon="7.845941"><ele>58.333333333333336</ele><time>2026-04-12T08:11:28.084Z</time></trkpt><trkpt lat="33.8714336" lon="7.8457324"><ele>57.66666666666667</ele><time>2026-04-12T08:11:29.086Z</time></trkpt><trkpt lat="33.8714884" lon="7.8455297"><ele>57.0</ele><time>2026-04-12T08:11:30.084Z</time></trkpt><trkpt lat="33.8715429" lon="7.8453315"><ele>57.0</ele><time>2026-04-12T08:11:31.08Z</time></trkpt><trkpt lat="33.8715961" lon="7.8451314"><ele>57.0</ele><time>2026-04-12T08:11:32.092Z</time></trkpt><trkpt lat="33.8716472" lon="7.8449276"><ele>57.0</ele><time>2026-04-12T08:11:33.083Z</time></trkpt><trkpt lat="33.8716999" lon="7.8447236"><ele>57.0</ele><time>2026-04-12T08:11:34.084Z</time></trkpt><trkpt lat="33.871754" lon="7.8445174"><ele>57.0</ele><time>2026-04-12T08:11:35.082Z</time></trkpt><trkpt lat="33.8718092" lon="7.8443074"><ele>57.0</ele><time>2026-04-12T08:11:36.084Z</time></trkpt><trkpt lat="33.871863" lon="7.8440986"><ele>57.33333333333333</ele><time>2026-04-12T08:11:37.083Z</time></trkpt><trkpt lat="33.8719192" lon="7.843886"><ele>57.666666666666664</ele><time>2026-04-12T08:11:38.083Z</time></trkpt><trkpt lat="33.8719756" lon="7.8436736"><ele>58.0</ele><time>2026-04-12T08:11:39.084Z</time></trkpt><trkpt lat="33.8720279" lon="7.8434584"><ele>58.0</ele><time>2026-04-12T08:11:40.084Z</time></trkpt><trkpt lat="33.8720817" lon="7.8432447"><ele>58.0</ele><time>2026-04-12T08:11:41.084Z</time></trkpt><trkpt lat="33.87214" lon="7.8430286"><ele>58.0</ele><time>2026-04-12T08:11:42.11Z</time></trkpt><trkpt lat="33.8721992" lon="7.8428071"><ele>58.666666666666664</ele><time>2026-04-12T08:11:43.086Z</time></trkpt><trkpt lat="33.8722569" lon="7.8425836"><ele>59.33333333333333</ele><time>2026-04-12T08:11:44.087Z</time></trkpt><trkpt lat="33.872316" lon="7.8423612"><ele>60.0</ele><time>2026-04-12T08:11:45.084Z</time></trkpt><trkpt lat="33.8723731" lon="7.8421409"><ele>60.0</ele><time>2026-04-12T08:11:46.08Z</time></trkpt><trkpt lat="33.8724285" lon="7.8419236"><ele>60.0</ele><time>2026-04-12T08:11:47.084Z</time></trkpt><trkpt lat="33.8724863" lon="7.8417056"><ele>60.0</ele><time>2026-04-12T08:11:48.081Z</time></trkpt><trkpt lat="33.8725462" lon="7.8414874"><ele>59.0</ele><time>2026-04-12T08:11:49.083Z</time></trkpt><trkpt lat="33.8726054" lon="7.8412697"><ele>58.0</ele><time>2026-04-12T08:11:50.081Z</time></trkpt><trkpt lat="33.8726639" lon="7.8410529"><ele>57.0</ele><time>2026-04-12T08:11:51.076Z</time></trkpt><trkpt lat="33.8727207" lon="7.840838"><ele>56.33333333333333</ele><time>2026-04-12T08:11:52.088Z</time></trkpt><trkpt lat="33.8727753" lon="7.8406271"><ele>55.666666666666664</ele><time>2026-04-12T08:11:53.082Z</time></trkpt><trkpt lat="33.8728267" lon="7.8404215"><ele>55.0</ele><time>2026-04-12T08:11:54.085Z</time></trkpt><trkpt lat="33.8728796" lon="7.8402162"><ele>55.0</ele><time>2026-04-12T08:11:55.086Z</time></trkpt><trkpt lat="33.872933" lon="7.8400115"><ele>55.0</ele><time>2026-04-12T08:11:56.084Z</time></trkpt><trkpt lat="33.8729882" lon="7.8398051"><ele>55.0</ele><time>2026-04-12T08:11:57.088Z</time></trkpt><trkpt lat="33.8730457" lon="7.8395978"><ele>55.0</ele><time>2026-04-12T08:11:58.086Z</time></trkpt><trkpt lat="33.8731036" lon="7.8393851"><ele>55.0</ele><time>2026-04-12T08:11:59.087Z</time></trkpt><trkpt lat="33.8731607" lon="7.8391722"><ele>55.0</ele><time>2026-04-12T08:12:00.084Z</time></trkpt><trkpt lat="33.8732144" lon="7.8389608"><ele>55.0</ele><time>2026-04-12T08:12:01.081Z</time></trkpt><trkpt lat="33.8732726" lon="7.838749"><ele>55.0</ele><time>2026-04-12T08:12:02.091Z</time></trkpt><trkpt lat="33.8733312" lon="7.8385296"><ele>55.0</ele><time>2026-04-12T08:12:03.082Z</time></trkpt><trkpt lat="33.8733899" lon="7.8383117"><ele>55.0</ele><time>2026-04-12T08:12:04.082Z</time></trkpt><trkpt lat="33.8734489" lon="7.8380913"><ele>55.0</ele><time>2026-04-12T08:12:05.08Z</time></trkpt><trkpt lat="33.8735078" lon="7.8378695"><ele>55.0</ele><time>2026-04-12T08:12:06.082Z</time></trkpt><trkpt lat="33.8735678" lon="7.8376452"><ele>54.666666666666664</ele><time>2026-04-12T08:12:07.083Z</time></trkpt><trkpt lat="33.8736297" lon="7.8374206"><ele>54.33333333333333</ele><time>2026-04-12T08:12:08.08Z</time></trkpt><trkpt lat="33.8736879" lon="7.8371894"><ele>54.0</ele><time>2026-04-12T08:12:09.082Z</time></trkpt><trkpt lat="33.8737473" lon="7.8369572"><ele>53.0</ele><time>2026-04-12T08:12:10.082Z</time></trkpt><trkpt lat="33.8738061" lon="7.8367289"><ele>52.0</ele><time>2026-04-12T08:12:11.082Z</time></trkpt><trkpt lat="33.8738629" lon="7.8364943"><ele>51.0</ele><time>2026-04-12T08:12:12.093Z</time></trkpt><trkpt lat="33.8739188" lon="7.8362583"><ele>51.0</ele><time>2026-04-12T08:12:13.1Z</time></trkpt><trkpt lat="33.8739762" lon="7.8360206"><ele>51.0</ele><time>2026-04-12T08:12:14.081Z</time></trkpt><trkpt lat="33.8740341" lon="7.8357834"><ele>51.0</ele><time>2026-04-12T08:12:15.082Z</time></trkpt><trkpt lat="33.8740938" lon="7.8355472"><ele>51.0</ele><time>2026-04-12T08:12:16.08Z</time></trkpt><trkpt lat="33.874154" lon="7.8353117"><ele>51.0</ele><time>2026-04-12T08:12:17.083Z</time></trkpt><trkpt lat="33.8742157" lon="7.835082"><ele>51.0</ele><time>2026-04-12T08:12:18.078Z</time></trkpt><trkpt lat="33.8742792" lon="7.8348531"><ele>51.33333333333333</ele><time>2026-04-12T08:12:19.079Z</time></trkpt><trkpt lat="33.8743418" lon="7.8346276"><ele>51.666666666666664</ele><time>2026-04-12T08:12:20.08Z</time></trkpt><trkpt lat="33.8744012" lon="7.8344039"><ele>52.0</ele><time>2026-04-12T08:12:21.081Z</time></trkpt><trkpt lat="33.8744593" lon="7.8341817"><ele>52.0</ele><time>2026-04-12T08:12:22.094Z</time></trkpt><trkpt lat="33.874519" lon="7.8339589"><ele>52.0</ele><time>2026-04-12T08:12:23.086Z</time></trkpt><trkpt lat="33.8745824" lon="7.8337376"><ele>52.0</ele><time>2026-04-12T08:12:24.089Z</time></trkpt><trkpt lat="33.8746454" lon="7.8335159"><ele>51.666666666666664</ele><time>2026-04-12T08:12:25.09Z</time></trkpt><trkpt lat="33.8747061" lon="7.8332952"><ele>51.33333333333333</ele><time>2026-04-12T08:12:26.087Z</time></trkpt><trkpt lat="33.8747647" lon="7.8330727"><ele>51.0</ele><time>2026-04-12T08:12:27.089Z</time></trkpt><trkpt lat="33.8748232" lon="7.8328503"><ele>51.33333333333333</ele><time>2026-04-12T08:12:28.087Z</time></trkpt><trkpt lat="33.8748787" lon="7.8326345"><ele>51.666666666666664</ele><time>2026-04-12T08:12:29.09Z</time></trkpt><trkpt lat="33.8749328" lon="7.832431"><ele>52.0</ele><time>2026-04-12T08:12:30.079Z</time></trkpt><trkpt lat="33.874984" lon="7.8322348"><ele>52.0</ele><time>2026-04-12T08:12:31.08Z</time></trkpt><trkpt lat="33.8750371" lon="7.8320464"><ele>52.0</ele><time>2026-04-12T08:12:32.091Z</time></trkpt><trkpt lat="33.8750871" lon="7.8318609"><ele>52.0</ele><time>2026-04-12T08:12:33.079Z</time></trkpt><trkpt lat="33.8751354" lon="7.8316707"><ele>52.0</ele><time>2026-04-12T08:12:34.082Z</time></trkpt><trkpt lat="33.8751859" lon="7.8314751"><ele>52.0</ele><time>2026-04-12T08:12:35.082Z</time></trkpt><trkpt lat="33.8752358" lon="7.8312724"><ele>52.0</ele><time>2026-04-12T08:12:36.079Z</time></trkpt><trkpt lat="33.8752871" lon="7.8310727"><ele>51.33333333333333</ele><time>2026-04-12T08:12:37.083Z</time></trkpt><trkpt lat="33.8753402" lon="7.8308624"><ele>50.66666666666667</ele><time>2026-04-12T08:12:38.084Z</time></trkpt><trkpt lat="33.8753954" lon="7.8306498"><ele>50.0</ele><time>2026-04-12T08:12:39.084Z</time></trkpt><trkpt lat="33.8754529" lon="7.8304346"><ele>50.0</ele><time>2026-04-12T08:12:40.084Z</time></trkpt><trkpt lat="33.8755107" lon="7.8302164"><ele>50.0</ele><time>2026-04-12T08:12:41.083Z</time></trkpt><trkpt lat="33.8755674" lon="7.8299926"><ele>50.0</ele><time>2026-04-12T08:12:42.091Z</time></trkpt><trkpt lat="33.8756234" lon="7.8297713"><ele>49.66666666666667</ele><time>2026-04-12T08:12:43.084Z</time></trkpt><trkpt lat="33.8756821" lon="7.829545"><ele>49.33333333333333</ele><time>2026-04-12T08:12:44.102Z</time></trkpt><trkpt lat="33.8757369" lon="7.8293178"><ele>49.0</ele><time>2026-04-12T08:12:45.085Z</time></trkpt><trkpt lat="33.875785" lon="7.8290932"><ele>48.666666666666664</ele><time>2026-04-12T08:12:46.082Z</time></trkpt><trkpt lat="33.8758277" lon="7.8288635"><ele>48.33333333333333</ele><time>2026-04-12T08:12:47.083Z</time></trkpt><trkpt lat="33.875868" lon="7.8286316"><ele>48.0</ele><time>2026-04-12T08:12:48.081Z</time></trkpt><trkpt lat="33.8759107" lon="7.8283966"><ele>48.66666666666667</ele><time>2026-04-12T08:12:49.086Z</time></trkpt><trkpt lat="33.8759563" lon="7.8281644"><ele>49.333333333333336</ele><time>2026-04-12T08:12:50.083Z</time></trkpt><trkpt lat="33.8759984" lon="7.8279327"><ele>50.0</ele><time>2026-04-12T08:12:51.081Z</time></trkpt><trkpt lat="33.8760377" lon="7.8277012"><ele>50.333333333333336</ele><time>2026-04-12T08:12:52.083Z</time></trkpt><trkpt lat="33.8760742" lon="7.8274686"><ele>50.66666666666667</ele><time>2026-04-12T08:12:53.094Z</time></trkpt><trkpt lat="33.8761095" lon="7.8272384"><ele>51.0</ele><time>2026-04-12T08:12:54.083Z</time></trkpt><trkpt lat="33.8761421" lon="7.8270086"><ele>50.0</ele><time>2026-04-12T08:12:55.088Z</time></trkpt><trkpt lat="33.8761692" lon="7.8267839"><ele>49.0</ele><time>2026-04-12T08:12:56.085Z</time></trkpt><trkpt lat="33.8761904" lon="7.8265611"><ele>48.0</ele><time>2026-04-12T08:12:57.086Z</time></trkpt><trkpt lat="33.8762107" lon="7.8263427"><ele>48.0</ele><time>2026-04-12T08:12:58.086Z</time></trkpt><trkpt lat="33.8762321" lon="7.8261248"><ele>48.0</ele><time>2026-04-12T08:12:59.088Z</time></trkpt><trkpt lat="33.8762523" lon="7.825905"><ele>48.0</ele><time>2026-04-12T08:13:00.085Z</time></trkpt><trkpt lat="33.8762698" lon="7.8256848"><ele>47.0</ele><time>2026-04-12T08:13:01.085Z</time></trkpt><trkpt lat="33.8762859" lon="7.8254647"><ele>46.0</ele><time>2026-04-12T08:13:02.09Z</time></trkpt><trkpt lat="33.8762997" lon="7.8252378"><ele>45.0</ele><time>2026-04-12T08:13:03.096Z</time></trkpt><trkpt lat="33.8763161" lon="7.825014"><ele>45.0</ele><time>2026-04-12T08:13:04.084Z</time></trkpt><trkpt lat="33.8763339" lon="7.8247968"><ele>45.0</ele><time>2026-04-12T08:13:05.089Z</time></trkpt><trkpt lat="33.8763507" lon="7.8245829"><ele>45.0</ele><time>2026-04-12T08:13:06.085Z</time></trkpt><trkpt lat="33.8763686" lon="7.8243704"><ele>45.333333333333336</ele><time>2026-04-12T08:13:07.086Z</time></trkpt><trkpt lat="33.8763877" lon="7.8241548"><ele>45.66666666666667</ele><time>2026-04-12T08:13:08.085Z</time></trkpt><trkpt lat="33.8764058" lon="7.8239366"><ele>46.0</ele><time>2026-04-12T08:13:09.086Z</time></trkpt><trkpt lat="33.876426" lon="7.823713"><ele>46.0</ele><time>2026-04-12T08:13:10.085Z</time></trkpt><trkpt lat="33.8764503" lon="7.82349"><ele>46.0</ele><time>2026-04-12T08:13:11.084Z</time></trkpt><trkpt lat="33.8764685" lon="7.8232661"><ele>46.0</ele><time>2026-04-12T08:13:12.084Z</time></trkpt><trkpt lat="33.8764894" lon="7.8230453"><ele>46.0</ele><time>2026-04-12T08:13:13.095Z</time></trkpt><trkpt lat="33.8765108" lon="7.8228272"><ele>46.0</ele><time>2026-04-12T08:13:14.085Z</time></trkpt><trkpt lat="33.8765304" lon="7.8226052"><ele>46.0</ele><time>2026-04-12T08:13:15.12Z</time></trkpt><trkpt lat="33.8765491" lon="7.8223859"><ele>46.0</ele><time>2026-04-12T08:13:16.087Z</time></trkpt><trkpt lat="33.876568" lon="7.8221654"><ele>46.0</ele><time>2026-04-12T08:13:17.089Z</time></trkpt><trkpt lat="33.8765855" lon="7.821943"><ele>46.0</ele><time>2026-04-12T08:13:18.087Z</time></trkpt><trkpt lat="33.876603" lon="7.8217218"><ele>46.0</ele><time>2026-04-12T08:13:19.09Z</time></trkpt><trkpt lat="33.8766198" lon="7.8214991"><ele>46.0</ele><time>2026-04-12T08:13:20.089Z</time></trkpt><trkpt lat="33.8766354" lon="7.8212771"><ele>46.0</ele><time>2026-04-12T08:13:21.087Z</time></trkpt><trkpt lat="33.8766529" lon="7.821056"><ele>46.0</ele><time>2026-04-12T08:13:22.087Z</time></trkpt><trkpt lat="33.8766743" lon="7.8208384"><ele>46.0</ele><time>2026-04-12T08:13:23.096Z</time></trkpt><trkpt lat="33.8766968" lon="7.8206224"><ele>46.0</ele><time>2026-04-12T08:13:24.085Z</time></trkpt><trkpt lat="33.8767196" lon="7.8204056"><ele>46.0</ele><time>2026-04-12T08:13:25.09Z</time></trkpt><trkpt lat="33.8767416" lon="7.820191"><ele>46.0</ele><time>2026-04-12T08:13:26.088Z</time></trkpt><trkpt lat="33.8767659" lon="7.8199776"><ele>46.0</ele><time>2026-04-12T08:13:27.086Z</time></trkpt><trkpt lat="33.8767917" lon="7.8197652"><ele>46.0</ele><time>2026-04-12T08:13:28.086Z</time></trkpt><trkpt lat="33.8768132" lon="7.8195497"><ele>46.0</ele><time>2026-04-12T08:13:29.088Z</time></trkpt><trkpt lat="33.8768304" lon="7.8193314"><ele>46.0</ele><time>2026-04-12T08:13:30.081Z</time></trkpt><trkpt lat="33.8768466" lon="7.8191143"><ele>46.0</ele><time>2026-04-12T08:13:31.094Z</time></trkpt><trkpt lat="33.8768644" lon="7.8188962"><ele>46.0</ele><time>2026-04-12T08:13:32.083Z</time></trkpt><trkpt lat="33.8768837" lon="7.8186781"><ele>46.0</ele><time>2026-04-12T08:13:33.092Z</time></trkpt><trkpt lat="33.8769045" lon="7.8184623"><ele>46.0</ele><time>2026-04-12T08:13:34.082Z</time></trkpt><trkpt lat="33.8769247" lon="7.8182436"><ele>46.0</ele><time>2026-04-12T08:13:35.083Z</time></trkpt><trkpt lat="33.8769433" lon="7.8180201"><ele>46.0</ele><time>2026-04-12T08:13:36.083Z</time></trkpt><trkpt lat="33.8769647" lon="7.8177985"><ele>45.66666666666667</ele><time>2026-04-12T08:13:37.083Z</time></trkpt><trkpt lat="33.8769877" lon="7.8175762"><ele>45.333333333333336</ele><time>2026-04-12T08:13:38.081Z</time></trkpt><trkpt lat="33.8770087" lon="7.8173534"><ele>45.0</ele><time>2026-04-12T08:13:39.082Z</time></trkpt><trkpt lat="33.8770248" lon="7.8171303"><ele>45.0</ele><time>2026-04-12T08:13:40.083Z</time></trkpt><trkpt lat="33.8770439" lon="7.816906"><ele>45.0</ele><time>2026-04-12T08:13:41.083Z</time></trkpt><trkpt lat="33.8770636" lon="7.8166806"><ele>45.0</ele><time>2026-04-12T08:13:42.082Z</time></trkpt><trkpt lat="33.877085" lon="7.8164545"><ele>45.333333333333336</ele><time>2026-04-12T08:13:43.086Z</time></trkpt><trkpt lat="33.8771048" lon="7.8162278"><ele>45.66666666666667</ele><time>2026-04-12T08:13:44.085Z</time></trkpt><trkpt lat="33.8771234" lon="7.8160013"><ele>46.0</ele><time>2026-04-12T08:13:45.1Z</time></trkpt><trkpt lat="33.8771393" lon="7.8157764"><ele>46.333333333333336</ele><time>2026-04-12T08:13:46.078Z</time></trkpt><trkpt lat="33.8771579" lon="7.8155551"><ele>46.666666666666664</ele><time>2026-04-12T08:13:47.084Z</time></trkpt><trkpt lat="33.877179" lon="7.8153324"><ele>47.0</ele><time>2026-04-12T08:13:48.083Z</time></trkpt><trkpt lat="33.8772007" lon="7.8151093"><ele>46.33333333333333</ele><time>2026-04-12T08:13:49.084Z</time></trkpt><trkpt lat="33.8772227" lon="7.8148856"><ele>45.666666666666664</ele><time>2026-04-12T08:13:50.085Z</time></trkpt><trkpt lat="33.877238" lon="7.8146613"><ele>45.0</ele><time>2026-04-12T08:13:51.082Z</time></trkpt><trkpt lat="33.8772545" lon="7.8144358"><ele>44.666666666666664</ele><time>2026-04-12T08:13:52.083Z</time></trkpt><trkpt lat="33.8772726" lon="7.8142136"><ele>44.33333333333333</ele><time>2026-04-12T08:13:53.078Z</time></trkpt><trkpt lat="33.8772905" lon="7.8139921"><ele>44.0</ele><time>2026-04-12T08:13:54.082Z</time></trkpt><trkpt lat="33.8773101" lon="7.8137696"><ele>44.0</ele><time>2026-04-12T08:13:55.082Z</time></trkpt><trkpt lat="33.8773304" lon="7.8135471"><ele>44.0</ele><time>2026-04-12T08:13:56.077Z</time></trkpt><trkpt lat="33.8773513" lon="7.8133271"><ele>44.0</ele><time>2026-04-12T08:13:57.078Z</time></trkpt><trkpt lat="33.8773733" lon="7.8131049"><ele>44.33333333333333</ele><time>2026-04-12T08:13:58.081Z</time></trkpt><trkpt lat="33.8773972" lon="7.8128864"><ele>44.666666666666664</ele><time>2026-04-12T08:13:59.082Z</time></trkpt><trkpt lat="33.8774164" lon="7.8126665"><ele>45.0</ele><time>2026-04-12T08:14:00.08Z</time></trkpt><trkpt lat="33.8774358" lon="7.8124467"><ele>44.333333333333336</ele><time>2026-04-12T08:14:01.082Z</time></trkpt><trkpt lat="33.8774544" lon="7.812227"><ele>43.66666666666667</ele><time>2026-04-12T08:14:02.077Z</time></trkpt><trkpt lat="33.8774756" lon="7.8120087"><ele>43.0</ele><time>2026-04-12T08:14:03.082Z</time></trkpt><trkpt lat="33.8774958" lon="7.8117879"><ele>43.0</ele><time>2026-04-12T08:14:04.082Z</time></trkpt><trkpt lat="33.8775165" lon="7.8115667"><ele>43.0</ele><time>2026-04-12T08:14:05.083Z</time></trkpt><trkpt lat="33.8775347" lon="7.811344"><ele>43.0</ele><time>2026-04-12T08:14:06.083Z</time></trkpt><trkpt lat="33.8775517" lon="7.8111188"><ele>43.0</ele><time>2026-04-12T08:14:07.082Z</time></trkpt><trkpt lat="33.8775705" lon="7.8108924"><ele>43.0</ele><time>2026-04-12T08:14:08.079Z</time></trkpt><trkpt lat="33.8775876" lon="7.810665"><ele>43.0</ele><time>2026-04-12T08:14:09.08Z</time></trkpt><trkpt lat="33.8776065" lon="7.8104379"><ele>43.333333333333336</ele><time>2026-04-12T08:14:10.08Z</time></trkpt><trkpt lat="33.8776267" lon="7.8102094"><ele>43.666666666666664</ele><time>2026-04-12T08:14:11.079Z</time></trkpt><trkpt lat="33.8776438" lon="7.8099762"><ele>44.0</ele><time>2026-04-12T08:14:12.083Z</time></trkpt><trkpt lat="33.8776617" lon="7.8097466"><ele>44.33333333333333</ele><time>2026-04-12T08:14:13.081Z</time></trkpt><trkpt lat="33.8776794" lon="7.8095189"><ele>44.666666666666664</ele><time>2026-04-12T08:14:14.085Z</time></trkpt><trkpt lat="33.877699" lon="7.8092953"><ele>45.0</ele><time>2026-04-12T08:14:15.087Z</time></trkpt><trkpt lat="33.8777197" lon="7.8090724"><ele>44.333333333333336</ele><time>2026-04-12T08:14:16.1Z</time></trkpt><trkpt lat="33.87774" lon="7.8088511"><ele>43.66666666666667</ele><time>2026-04-12T08:14:17.087Z</time></trkpt><trkpt lat="33.8777598" lon="7.808631"><ele>43.0</ele><time>2026-04-12T08:14:18.084Z</time></trkpt><trkpt lat="33.8777776" lon="7.808409"><ele>42.0</ele><time>2026-04-12T08:14:19.085Z</time></trkpt><trkpt lat="33.8777951" lon="7.8081863"><ele>41.0</ele><time>2026-04-12T08:14:20.081Z</time></trkpt><trkpt lat="33.8778132" lon="7.8079635"><ele>40.0</ele><time>2026-04-12T08:14:21.083Z</time></trkpt><trkpt lat="33.8778343" lon="7.8077421"><ele>40.66666666666667</ele><time>2026-04-12T08:14:22.083Z</time></trkpt><trkpt lat="33.8778521" lon="7.8075186"><ele>41.333333333333336</ele><time>2026-04-12T08:14:23.084Z</time></trkpt><trkpt lat="33.8778718" lon="7.8072983"><ele>42.0</ele><time>2026-04-12T08:14:24.086Z</time></trkpt><trkpt lat="33.8778895" lon="7.8070778"><ele>42.0</ele><time>2026-04-12T08:14:25.086Z</time></trkpt><trkpt lat="33.8779055" lon="7.8068597"><ele>42.0</ele><time>2026-04-12T08:14:26.087Z</time></trkpt><trkpt lat="33.8779233" lon="7.8066422"><ele>42.0</ele><time>2026-04-12T08:14:27.088Z</time></trkpt><trkpt lat="33.8779398" lon="7.8064287"><ele>42.0</ele><time>2026-04-12T08:14:28.089Z</time></trkpt><trkpt lat="33.8779575" lon="7.8062167"><ele>42.0</ele><time>2026-04-12T08:14:29.089Z</time></trkpt><trkpt lat="33.8779767" lon="7.8060048"><ele>42.0</ele><time>2026-04-12T08:14:30.088Z</time></trkpt><trkpt lat="33.8779947" lon="7.8057909"><ele>41.333333333333336</ele><time>2026-04-12T08:14:31.084Z</time></trkpt><trkpt lat="33.8780113" lon="7.8055745"><ele>40.66666666666667</ele><time>2026-04-12T08:14:32.088Z</time></trkpt><trkpt lat="33.8780231" lon="7.8053556"><ele>40.0</ele><time>2026-04-12T08:14:33.096Z</time></trkpt><trkpt lat="33.8780318" lon="7.8051386"><ele>39.0</ele><time>2026-04-12T08:14:34.094Z</time></trkpt><trkpt lat="33.8780357" lon="7.8049222"><ele>38.0</ele><time>2026-04-12T08:14:35.097Z</time></trkpt><trkpt lat="33.8780392" lon="7.8047073"><ele>37.0</ele><time>2026-04-12T08:14:36.088Z</time></trkpt><trkpt lat="33.8780406" lon="7.8044922"><ele>37.66666666666667</ele><time>2026-04-12T08:14:37.09Z</time></trkpt><trkpt lat="33.8780406" lon="7.804278"><ele>38.333333333333336</ele><time>2026-04-12T08:14:38.087Z</time></trkpt><trkpt lat="33.8780378" lon="7.8040608"><ele>39.0</ele><time>2026-04-12T08:14:39.087Z</time></trkpt><trkpt lat="33.8780332" lon="7.8038444"><ele>39.0</ele><time>2026-04-12T08:14:40.089Z</time></trkpt><trkpt lat="33.878026" lon="7.8036274"><ele>39.0</ele><time>2026-04-12T08:14:41.09Z</time></trkpt><trkpt lat="33.8780139" lon="7.8034095"><ele>39.0</ele><time>2026-04-12T08:14:42.088Z</time></trkpt><trkpt lat="33.8779959" lon="7.8031889"><ele>39.666666666666664</ele><time>2026-04-12T08:14:43.064Z</time></trkpt><trkpt lat="33.8779751" lon="7.8029653"><ele>40.33333333333333</ele><time>2026-04-12T08:14:44.053Z</time></trkpt><trkpt lat="33.8779545" lon="7.8027395"><ele>41.0</ele><time>2026-04-12T08:14:45.052Z</time></trkpt><trkpt lat="33.8779296" lon="7.8025095"><ele>41.0</ele><time>2026-04-12T08:14:46.056Z</time></trkpt><trkpt lat="33.8779015" lon="7.8022757"><ele>41.0</ele><time>2026-04-12T08:14:47.078Z</time></trkpt><trkpt lat="33.8778688" lon="7.8020481"><ele>41.0</ele><time>2026-04-12T08:14:48.057Z</time></trkpt><trkpt lat="33.8778325" lon="7.8018267"><ele>41.0</ele><time>2026-04-12T08:14:49.063Z</time></trkpt><trkpt lat="33.8777957" lon="7.8016132"><ele>41.0</ele><time>2026-04-12T08:14:50.06Z</time></trkpt><trkpt lat="33.8777602" lon="7.8014048"><ele>41.0</ele><time>2026-04-12T08:14:51.056Z</time></trkpt><trkpt lat="33.8777253" lon="7.8011987"><ele>41.0</ele><time>2026-04-12T08:14:52.055Z</time></trkpt><trkpt lat="33.8776894" lon="7.8009948"><ele>41.0</ele><time>2026-04-12T08:14:53.058Z</time></trkpt><trkpt lat="33.8776521" lon="7.8007954"><ele>41.0</ele><time>2026-04-12T08:14:54.059Z</time></trkpt><trkpt lat="33.8776173" lon="7.8005981"><ele>40.33333333333333</ele><time>2026-04-12T08:14:55.064Z</time></trkpt><trkpt lat="33.8775794" lon="7.8004002"><ele>39.666666666666664</ele><time>2026-04-12T08:14:56.062Z</time></trkpt><trkpt lat="33.8775388" lon="7.8002042"><ele>39.0</ele><time>2026-04-12T08:14:57.06Z</time></trkpt><trkpt lat="33.877496" lon="7.8000096"><ele>39.0</ele><time>2026-04-12T08:14:58.062Z</time></trkpt><trkpt lat="33.8774505" lon="7.7998194"><ele>39.0</ele><time>2026-04-12T08:14:59.064Z</time></trkpt><trkpt lat="33.877402" lon="7.799628"><ele>39.0</ele><time>2026-04-12T08:15:00.06Z</time></trkpt><trkpt lat="33.8773517" lon="7.7994343"><ele>39.333333333333336</ele><time>2026-04-12T08:15:01.065Z</time></trkpt><trkpt lat="33.8772991" lon="7.799238"><ele>39.66666666666667</ele><time>2026-04-12T08:15:02.062Z</time></trkpt><trkpt lat="33.8772434" lon="7.7990378"><ele>40.0</ele><time>2026-04-12T08:15:03.065Z</time></trkpt><trkpt lat="33.8771839" lon="7.7988361"><ele>40.0</ele><time>2026-04-12T08:15:04.067Z</time></trkpt><trkpt lat="33.8771227" lon="7.7986336"><ele>40.0</ele><time>2026-04-12T08:15:05.063Z</time></trkpt><trkpt lat="33.8770591" lon="7.7984311"><ele>40.0</ele><time>2026-04-12T08:15:06.064Z</time></trkpt><trkpt lat="33.876993" lon="7.798227"><ele>39.333333333333336</ele><time>2026-04-12T08:15:07.067Z</time></trkpt><trkpt lat="33.8769243" lon="7.7980246"><ele>38.666666666666664</ele><time>2026-04-12T08:15:08.064Z</time></trkpt><trkpt lat="33.8768516" lon="7.7978262"><ele>38.0</ele><time>2026-04-12T08:15:09.063Z</time></trkpt><trkpt lat="33.8767781" lon="7.7976295"><ele>37.666666666666664</ele><time>2026-04-12T08:15:10.056Z</time></trkpt><trkpt lat="33.8767014" lon="7.7974308"><ele>37.333333333333336</ele><time>2026-04-12T08:15:11.057Z</time></trkpt><trkpt lat="33.8766234" lon="7.7972325"><ele>37.0</ele><time>2026-04-12T08:15:12.058Z</time></trkpt><trkpt lat="33.8765458" lon="7.7970383"><ele>37.0</ele><time>2026-04-12T08:15:13.057Z</time></trkpt><trkpt lat="33.8764667" lon="7.7968456"><ele>37.0</ele><time>2026-04-12T08:15:14.054Z</time></trkpt><trkpt lat="33.8763841" lon="7.7966574"><ele>37.0</ele><time>2026-04-12T08:15:15.049Z</time></trkpt><trkpt lat="33.8762968" lon="7.7964703"><ele>37.0</ele><time>2026-04-12T08:15:16.049Z</time></trkpt><trkpt lat="33.8762081" lon="7.7962855"><ele>37.0</ele><time>2026-04-12T08:15:17.051Z</time></trkpt><trkpt lat="33.8761154" lon="7.796102"><ele>37.0</ele><time>2026-04-12T08:15:18.072Z</time></trkpt><trkpt lat="33.8760203" lon="7.7959161"><ele>36.66666666666667</ele><time>2026-04-12T08:15:19.054Z</time></trkpt><trkpt lat="33.8759226" lon="7.7957327"><ele>36.333333333333336</ele><time>2026-04-12T08:15:20.056Z</time></trkpt><trkpt lat="33.8758227" lon="7.7955491"><ele>36.0</ele><time>2026-04-12T08:15:21.057Z</time></trkpt><trkpt lat="33.875721" lon="7.7953675"><ele>36.0</ele><time>2026-04-12T08:15:22.056Z</time></trkpt><trkpt lat="33.8756172" lon="7.7951849"><ele>36.0</ele><time>2026-04-12T08:15:23.059Z</time></trkpt><trkpt lat="33.8755116" lon="7.795"><ele>36.0</ele><time>2026-04-12T08:15:24.063Z</time></trkpt><trkpt lat="33.8754046" lon="7.7948167"><ele>36.0</ele><time>2026-04-12T08:15:25.057Z</time></trkpt><trkpt lat="33.875294" lon="7.794635"><ele>36.0</ele><time>2026-04-12T08:15:26.059Z</time></trkpt><trkpt lat="33.875182" lon="7.7944506"><ele>36.0</ele><time>2026-04-12T08:15:27.066Z</time></trkpt><trkpt lat="33.8750731" lon="7.7942674"><ele>36.0</ele><time>2026-04-12T08:15:28.072Z</time></trkpt><trkpt lat="33.874959" lon="7.7940854"><ele>36.0</ele><time>2026-04-12T08:15:29.066Z</time></trkpt><trkpt lat="33.8748467" lon="7.7939023"><ele>36.0</ele><time>2026-04-12T08:15:30.063Z</time></trkpt><trkpt lat="33.8747342" lon="7.7937177"><ele>36.0</ele><time>2026-04-12T08:15:31.06Z</time></trkpt><trkpt lat="33.8746199" lon="7.7935313"><ele>36.0</ele><time>2026-04-12T08:15:32.055Z</time></trkpt><trkpt lat="33.8745091" lon="7.7933471"><ele>36.0</ele><time>2026-04-12T08:15:33.056Z</time></trkpt><trkpt lat="33.874397" lon="7.7931581"><ele>35.333333333333336</ele><time>2026-04-12T08:15:34.054Z</time></trkpt><trkpt lat="33.8742843" lon="7.7929706"><ele>34.66666666666667</ele><time>2026-04-12T08:15:35.059Z</time></trkpt><trkpt lat="33.8741711" lon="7.7927844"><ele>34.0</ele><time>2026-04-12T08:15:36.05Z</time></trkpt><trkpt lat="33.8740565" lon="7.7925986"><ele>32.0</ele><time>2026-04-12T08:15:37.057Z</time></trkpt><trkpt lat="33.8739405" lon="7.7924127"><ele>30.0</ele><time>2026-04-12T08:15:38.052Z</time></trkpt><trkpt lat="33.8738267" lon="7.7922267"><ele>28.0</ele><time>2026-04-12T08:15:39.056Z</time></trkpt><trkpt lat="33.8737134" lon="7.7920401"><ele>28.0</ele><time>2026-04-12T08:15:40.056Z</time></trkpt><trkpt lat="33.8736052" lon="7.7918544"><ele>28.0</ele><time>2026-04-12T08:15:41.057Z</time></trkpt><trkpt lat="33.873498" lon="7.7916735"><ele>28.0</ele><time>2026-04-12T08:15:42.06Z</time></trkpt><trkpt lat="33.8733893" lon="7.7914961"><ele>28.333333333333336</ele><time>2026-04-12T08:15:43.062Z</time></trkpt><trkpt lat="33.87328" lon="7.7913188"><ele>28.666666666666664</ele><time>2026-04-12T08:15:44.059Z</time></trkpt><trkpt lat="33.8731717" lon="7.791142"><ele>29.0</ele><time>2026-04-12T08:15:45.057Z</time></trkpt><trkpt lat="33.8730652" lon="7.7909695"><ele>29.0</ele><time>2026-04-12T08:15:46.054Z</time></trkpt><trkpt lat="33.8729573" lon="7.7907967"><ele>29.0</ele><time>2026-04-12T08:15:47.061Z</time></trkpt><trkpt lat="33.8728482" lon="7.790624"><ele>29.0</ele><time>2026-04-12T08:15:48.054Z</time></trkpt><trkpt lat="33.8727401" lon="7.7904515"><ele>29.0</ele><time>2026-04-12T08:15:49.076Z</time></trkpt><trkpt lat="33.8726362" lon="7.7902798"><ele>29.0</ele><time>2026-04-12T08:15:50.056Z</time></trkpt><trkpt lat="33.8725322" lon="7.7901076"><ele>29.0</ele><time>2026-04-12T08:15:51.051Z</time></trkpt><trkpt lat="33.8724303" lon="7.7899374"><ele>29.0</ele><time>2026-04-12T08:15:52.058Z</time></trkpt><trkpt lat="33.8723266" lon="7.7897677"><ele>29.0</ele><time>2026-04-12T08:15:53.054Z</time></trkpt><trkpt lat="33.8722231" lon="7.789596"><ele>29.0</ele><time>2026-04-12T08:15:54.063Z</time></trkpt><trkpt lat="33.8721204" lon="7.7894265"><ele>29.0</ele><time>2026-04-12T08:15:55.055Z</time></trkpt><trkpt lat="33.872015" lon="7.7892528"><ele>29.0</ele><time>2026-04-12T08:15:56.058Z</time></trkpt><trkpt lat="33.8719086" lon="7.7890786"><ele>29.0</ele><time>2026-04-12T08:15:57.056Z</time></trkpt><trkpt lat="33.8718022" lon="7.7889045"><ele>29.0</ele><time>2026-04-12T08:15:58.065Z</time></trkpt><trkpt lat="33.8716955" lon="7.7887297"><ele>29.0</ele><time>2026-04-12T08:15:59.072Z</time></trkpt><trkpt lat="33.8715888" lon="7.7885538"><ele>29.0</ele><time>2026-04-12T08:16:00.064Z</time></trkpt><trkpt lat="33.8714787" lon="7.788376"><ele>29.333333333333332</ele><time>2026-04-12T08:16:01.058Z</time></trkpt><trkpt lat="33.8713696" lon="7.7881973"><ele>29.666666666666664</ele><time>2026-04-12T08:16:02.058Z</time></trkpt><trkpt lat="33.871259" lon="7.7880175"><ele>30.0</ele><time>2026-04-12T08:16:03.059Z</time></trkpt><trkpt lat="33.8711486" lon="7.7878381"><ele>30.333333333333336</ele><time>2026-04-12T08:16:04.059Z</time></trkpt><trkpt lat="33.8710378" lon="7.7876593"><ele>30.666666666666668</ele><time>2026-04-12T08:16:05.067Z</time></trkpt><trkpt lat="33.8709289" lon="7.787483"><ele>31.0</ele><time>2026-04-12T08:16:06.057Z</time></trkpt><trkpt lat="33.8708195" lon="7.7873041"><ele>29.666666666666668</ele><time>2026-04-12T08:16:07.062Z</time></trkpt><trkpt lat="33.87071" lon="7.7871223"><ele>28.333333333333336</ele><time>2026-04-12T08:16:08.056Z</time></trkpt><trkpt lat="33.8706002" lon="7.7869396"><ele>27.0</ele><time>2026-04-12T08:16:09.057Z</time></trkpt><trkpt lat="33.8704905" lon="7.7867572"><ele>27.0</ele><time>2026-04-12T08:16:10.056Z</time></trkpt><trkpt lat="33.870379" lon="7.7865736"><ele>27.0</ele><time>2026-04-12T08:16:11.054Z</time></trkpt><trkpt lat="33.8702697" lon="7.7863923"><ele>27.0</ele><time>2026-04-12T08:16:12.062Z</time></trkpt><trkpt lat="33.8701586" lon="7.7862112"><ele>27.0</ele><time>2026-04-12T08:16:13.057Z</time></trkpt><trkpt lat="33.8700486" lon="7.7860356"><ele>27.0</ele><time>2026-04-12T08:16:14.058Z</time></trkpt><trkpt lat="33.8699388" lon="7.7858577"><ele>27.0</ele><time>2026-04-12T08:16:15.065Z</time></trkpt><trkpt lat="33.8698306" lon="7.7856825"><ele>26.333333333333336</ele><time>2026-04-12T08:16:16.06Z</time></trkpt><trkpt lat="33.8697232" lon="7.7855054"><ele>25.666666666666668</ele><time>2026-04-12T08:16:17.064Z</time></trkpt><trkpt lat="33.8696155" lon="7.7853273"><ele>25.0</ele><time>2026-04-12T08:16:18.061Z</time></trkpt><trkpt lat="33.8695087" lon="7.7851478"><ele>25.0</ele><time>2026-04-12T08:16:19.065Z</time></trkpt><trkpt lat="33.8694004" lon="7.7849662"><ele>25.0</ele><time>2026-04-12T08:16:20.082Z</time></trkpt><trkpt lat="33.8692918" lon="7.7847871"><ele>25.0</ele><time>2026-04-12T08:16:21.06Z</time></trkpt><trkpt lat="33.8691796" lon="7.7846084"><ele>25.666666666666668</ele><time>2026-04-12T08:16:22.061Z</time></trkpt><trkpt lat="33.8690674" lon="7.7844274"><ele>26.333333333333336</ele><time>2026-04-12T08:16:23.061Z</time></trkpt><trkpt lat="33.8689578" lon="7.7842474"><ele>27.0</ele><time>2026-04-12T08:16:24.066Z</time></trkpt><trkpt lat="33.868849" lon="7.7840666"><ele>28.333333333333336</ele><time>2026-04-12T08:16:25.07Z</time></trkpt><trkpt lat="33.8687396" lon="7.7838849"><ele>29.666666666666668</ele><time>2026-04-12T08:16:26.061Z</time></trkpt><trkpt lat="33.8686288" lon="7.7837016"><ele>31.0</ele><time>2026-04-12T08:16:27.063Z</time></trkpt><trkpt lat="33.8685187" lon="7.7835188"><ele>29.0</ele><time>2026-04-12T08:16:28.068Z</time></trkpt><trkpt lat="33.8684057" lon="7.7833351"><ele>27.0</ele><time>2026-04-12T08:16:29.065Z</time></trkpt><trkpt lat="33.8682928" lon="7.7831518"><ele>25.0</ele><time>2026-04-12T08:16:30.065Z</time></trkpt><trkpt lat="33.8681816" lon="7.7829645"><ele>25.0</ele><time>2026-04-12T08:16:31.061Z</time></trkpt><trkpt lat="33.8680725" lon="7.7827802"><ele>25.0</ele><time>2026-04-12T08:16:32.062Z</time></trkpt><trkpt lat="33.8679658" lon="7.7826011"><ele>25.0</ele><time>2026-04-12T08:16:33.063Z</time></trkpt><trkpt lat="33.8678604" lon="7.7824289"><ele>25.333333333333336</ele><time>2026-04-12T08:16:34.066Z</time></trkpt><trkpt lat="33.8677589" lon="7.7822632"><ele>25.666666666666664</ele><time>2026-04-12T08:16:35.063Z</time></trkpt><trkpt lat="33.8676626" lon="7.7821011"><ele>26.0</ele><time>2026-04-12T08:16:36.067Z</time></trkpt><trkpt lat="33.8675682" lon="7.7819455"><ele>27.333333333333332</ele><time>2026-04-12T08:16:37.064Z</time></trkpt><trkpt lat="33.8674736" lon="7.7817903"><ele>28.666666666666664</ele><time>2026-04-12T08:16:38.063Z</time></trkpt><trkpt lat="33.8673781" lon="7.7816351"><ele>30.0</ele><time>2026-04-12T08:16:39.057Z</time></trkpt><trkpt lat="33.8672842" lon="7.7814832"><ele>30.0</ele><time>2026-04-12T08:16:40.06Z</time></trkpt><trkpt lat="33.8671886" lon="7.781329"><ele>30.0</ele><time>2026-04-12T08:16:41.063Z</time></trkpt><trkpt lat="33.8670923" lon="7.7811722"><ele>30.0</ele><time>2026-04-12T08:16:42.062Z</time></trkpt><trkpt lat="33.8669935" lon="7.7810121"><ele>30.0</ele><time>2026-04-12T08:16:43.061Z</time></trkpt><trkpt lat="33.8668965" lon="7.7808501"><ele>30.0</ele><time>2026-04-12T08:16:44.065Z</time></trkpt><trkpt lat="33.8668011" lon="7.7806869"><ele>30.0</ele><time>2026-04-12T08:16:45.063Z</time></trkpt><trkpt lat="33.8667068" lon="7.7805272"><ele>30.0</ele><time>2026-04-12T08:16:46.068Z</time></trkpt><trkpt lat="33.8666178" lon="7.7803805"><ele>30.0</ele><time>2026-04-12T08:16:47.064Z</time></trkpt><trkpt lat="33.8665394" lon="7.7802557"><ele>30.0</ele><time>2026-04-12T08:16:48.05Z</time></trkpt><trkpt lat="33.8664705" lon="7.7801552"><ele>30.0</ele><time>2026-04-12T08:16:49.046Z</time></trkpt><trkpt lat="33.8663994" lon="7.7800853"><ele>30.142857142857146</ele><time>2026-04-12T08:16:50.037Z</time></trkpt><trkpt lat="33.8663396" lon="7.7800346"><ele>30.285714285714285</ele><time>2026-04-12T08:16:51.059Z</time></trkpt><trkpt lat="33.8662779" lon="7.7800055"><ele>30.42857142857143</ele><time>2026-04-12T08:16:52.035Z</time></trkpt><trkpt lat="33.866211" lon="7.7799728"><ele>30.571428571428573</ele><time>2026-04-12T08:16:53.045Z</time></trkpt><trkpt lat="33.8661414" lon="7.7799308"><ele>30.714285714285715</ele><time>2026-04-12T08:16:54.042Z</time></trkpt><trkpt lat="33.8660795" lon="7.7798827"><ele>30.857142857142858</ele><time>2026-04-12T08:16:55.044Z</time></trkpt><trkpt lat="33.8660164" lon="7.7798251"><ele>31.0</ele><time>2026-04-12T08:16:56.062Z</time></trkpt><trkpt lat="33.8659571" lon="7.7797669"><ele>30.166666666666668</ele><time>2026-04-12T08:16:57.064Z</time></trkpt><trkpt lat="33.8659003" lon="7.7797072"><ele>29.333333333333336</ele><time>2026-04-12T08:16:58.065Z</time></trkpt><trkpt lat="33.8658429" lon="7.779645"><ele>28.5</ele><time>2026-04-12T08:16:59.063Z</time></trkpt><trkpt lat="33.8657856" lon="7.7795819"><ele>27.666666666666664</ele><time>2026-04-12T08:17:00.059Z</time></trkpt><trkpt lat="33.8657321" lon="7.7795232"><ele>26.833333333333332</ele><time>2026-04-12T08:17:01.065Z</time></trkpt><trkpt lat="33.8656695" lon="7.7794622"><ele>26.0</ele><time>2026-04-12T08:17:02.064Z</time></trkpt><trkpt lat="33.865613" lon="7.7794008"><ele>26.200000000000003</ele><time>2026-04-12T08:17:03.06Z</time></trkpt><trkpt lat="33.8655586" lon="7.7793436"><ele>26.400000000000002</ele><time>2026-04-12T08:17:04.062Z</time></trkpt><trkpt lat="33.8654796" lon="7.7792572"><ele>26.6</ele><time>2026-04-12T08:17:06.058Z</time></trkpt><trkpt lat="33.8654082" lon="7.7792054"><ele>26.8</ele><time>2026-04-12T08:17:08.074Z</time></trkpt><trkpt lat="33.8653205" lon="7.779191"><ele>27.0</ele><time>2026-04-12T08:17:10.074Z</time></trkpt><trkpt lat="33.8652188" lon="7.7792253"><ele>26.8</ele><time>2026-04-12T08:17:12.047Z</time></trkpt><trkpt lat="33.8651214" lon="7.7793618"><ele>26.6</ele><time>2026-04-12T08:17:14.047Z</time></trkpt><trkpt lat="33.8650777" lon="7.7794424"><ele>26.400000000000002</ele><time>2026-04-12T08:17:15.069Z</time></trkpt><trkpt lat="33.8650246" lon="7.7795831"><ele>26.200000000000003</ele><time>2026-04-12T08:17:17.031Z</time></trkpt><trkpt lat="33.8649976" lon="7.7796574"><ele>26.0</ele><time>2026-04-12T08:17:18.027Z</time></trkpt><trkpt lat="33.8649786" lon="7.7797309"><ele>25.71428571428571</ele><time>2026-04-12T08:17:19.028Z</time></trkpt><trkpt lat="33.8649593" lon="7.7798137"><ele>25.42857142857143</ele><time>2026-04-12T08:17:20.03Z</time></trkpt><trkpt lat="33.8649604" lon="7.7798901"><ele>25.142857142857142</ele><time>2026-04-12T08:17:21.05Z</time></trkpt><trkpt lat="33.8649348" lon="7.779975"><ele>24.857142857142854</ele><time>2026-04-12T08:17:22.067Z</time></trkpt><trkpt lat="33.8649063" lon="7.7800578"><ele>24.57142857142857</ele><time>2026-04-12T08:17:23.055Z</time></trkpt><trkpt lat="33.8648769" lon="7.7801319"><ele>24.285714285714285</ele><time>2026-04-12T08:17:24.056Z</time></trkpt><trkpt lat="33.8648608" lon="7.7802072"><ele>24.0</ele><time>2026-04-12T08:17:25.056Z</time></trkpt><trkpt lat="33.8648417" lon="7.7802802"><ele>23.5</ele><time>2026-04-12T08:17:26.055Z</time></trkpt><trkpt lat="33.8648157" lon="7.7803523"><ele>23.0</ele><time>2026-04-12T08:17:27.051Z</time></trkpt><trkpt lat="33.8647891" lon="7.7804221"><ele>22.5</ele><time>2026-04-12T08:17:28.052Z</time></trkpt><trkpt lat="33.8647435" lon="7.7805588"><ele>22.0</ele><time>2026-04-12T08:17:30.055Z</time></trkpt><trkpt lat="33.8647029" lon="7.7807001"><ele>21.5</ele><time>2026-04-12T08:17:32.055Z</time></trkpt><trkpt lat="33.8646797" lon="7.7807715"><ele>21.0</ele><time>2026-04-12T08:17:33.05Z</time></trkpt><trkpt lat="33.8646567" lon="7.7808451"><ele>21.0</ele><time>2026-04-12T08:17:34.051Z</time></trkpt><trkpt lat="33.8646188" lon="7.7810124"><ele>21.0</ele><time>2026-04-12T08:17:36.055Z</time></trkpt><trkpt lat="33.8645871" lon="7.7811122"><ele>21.0</ele><time>2026-04-12T08:17:37.058Z</time></trkpt><trkpt lat="33.864555" lon="7.7812129"><ele>21.0</ele><time>2026-04-12T08:17:38.063Z</time></trkpt><trkpt lat="33.8645229" lon="7.7813153"><ele>21.0</ele><time>2026-04-12T08:17:39.064Z</time></trkpt><trkpt lat="33.8644909" lon="7.7814164"><ele>20.833333333333332</ele><time>2026-04-12T08:17:40.065Z</time></trkpt><trkpt lat="33.8644612" lon="7.781516"><ele>20.666666666666668</ele><time>2026-04-12T08:17:41.057Z</time></trkpt><trkpt lat="33.8644309" lon="7.7816164"><ele>20.5</ele><time>2026-04-12T08:17:42.054Z</time></trkpt><trkpt lat="33.8643996" lon="7.7817147"><ele>20.333333333333336</ele><time>2026-04-12T08:17:43.056Z</time></trkpt><trkpt lat="33.8643678" lon="7.7818087"><ele>20.166666666666668</ele><time>2026-04-12T08:17:44.057Z</time></trkpt><trkpt lat="33.8643342" lon="7.781899"><ele>20.0</ele><time>2026-04-12T08:17:45.054Z</time></trkpt><trkpt lat="33.8642983" lon="7.7819846"><ele>20.0</ele><time>2026-04-12T08:17:46.056Z</time></trkpt><trkpt lat="33.8642599" lon="7.7820732"><ele>20.0</ele><time>2026-04-12T08:17:47.055Z</time></trkpt><trkpt lat="33.864222" lon="7.7821529"><ele>20.0</ele><time>2026-04-12T08:17:48.052Z</time></trkpt><trkpt lat="33.8641845" lon="7.7822308"><ele>20.0</ele><time>2026-04-12T08:17:49.058Z</time></trkpt><trkpt lat="33.8641449" lon="7.7823158"><ele>20.0</ele><time>2026-04-12T08:17:50.06Z</time></trkpt><trkpt lat="33.8641069" lon="7.7824006"><ele>20.0</ele><time>2026-04-12T08:17:51.06Z</time></trkpt><trkpt lat="33.8640677" lon="7.7824875"><ele>20.0</ele><time>2026-04-12T08:17:52.058Z</time></trkpt><trkpt lat="33.8640264" lon="7.7825788"><ele>20.0</ele><time>2026-04-12T08:17:53.096Z</time></trkpt><trkpt lat="33.8639913" lon="7.7826681"><ele>20.0</ele><time>2026-04-12T08:17:54.066Z</time></trkpt><trkpt lat="33.8639595" lon="7.782745"><ele>20.0</ele><time>2026-04-12T08:17:55.07Z</time></trkpt><trkpt lat="33.8639322" lon="7.7828149"><ele>20.0</ele><time>2026-04-12T08:17:56.068Z</time></trkpt><trkpt lat="33.8638828" lon="7.7829363"><ele>20.0</ele><time>2026-04-12T08:17:58.073Z</time></trkpt><trkpt lat="33.8638474" lon="7.7830156"><ele>19.833333333333336</ele><time>2026-04-12T08:18:00.066Z</time></trkpt><trkpt lat="33.8638125" lon="7.7830818"><ele>19.666666666666668</ele><time>2026-04-12T08:18:02.063Z</time></trkpt><trkpt lat="33.8637714" lon="7.7831665"><ele>19.5</ele><time>2026-04-12T08:18:04.074Z</time></trkpt><trkpt lat="33.8637169" lon="7.783243"><ele>19.333333333333332</ele><time>2026-04-12T08:18:09.073Z</time></trkpt><trkpt lat="33.8637677" lon="7.7831473"><ele>19.166666666666664</ele><time>2026-04-12T08:18:31.071Z</time></trkpt><trkpt lat="33.8637172" lon="7.7832484"><ele>19.0</ele><time>2026-04-12T08:18:34.065Z</time></trkpt><trkpt lat="33.8636777" lon="7.783326"><ele>19.0</ele><time>2026-04-12T08:18:36.059Z</time></trkpt><trkpt lat="33.86356" lon="7.7834487"><ele>19.0</ele><time>2026-04-12T08:18:38.957Z</time></trkpt><trkpt lat="33.8634878" lon="7.783476"><ele>19.0</ele><time>2026-04-12T08:18:39.954Z</time></trkpt><trkpt lat="33.8634105" lon="7.7834995"><ele>19.0</ele><time>2026-04-12T08:18:40.954Z</time></trkpt><trkpt lat="33.8633332" lon="7.7835332"><ele>19.0</ele><time>2026-04-12T08:18:41.976Z</time></trkpt><trkpt lat="33.8632584" lon="7.7835758"><ele>19.0</ele><time>2026-04-12T08:18:42.982Z</time></trkpt><trkpt lat="33.8631822" lon="7.7836256"><ele>19.0</ele><time>2026-04-12T08:18:43.977Z</time></trkpt><trkpt lat="33.8630995" lon="7.7836784"><ele>19.0</ele><time>2026-04-12T08:18:44.984Z</time></trkpt><trkpt lat="33.8630169" lon="7.7837315"><ele>19.0</ele><time>2026-04-12T08:18:45.98Z</time></trkpt><trkpt lat="33.8629351" lon="7.7837878"><ele>19.0</ele><time>2026-04-12T08:18:46.981Z</time></trkpt><trkpt lat="33.8628566" lon="7.7838386"><ele>19.0</ele><time>2026-04-12T08:18:47.982Z</time></trkpt><trkpt lat="33.8627757" lon="7.7838989"><ele>19.0</ele><time>2026-04-12T08:18:48.986Z</time></trkpt><trkpt lat="33.8626834" lon="7.7839554"><ele>19.0</ele><time>2026-04-12T08:18:49.983Z</time></trkpt><trkpt lat="33.8625942" lon="7.7840101"><ele>19.0</ele><time>2026-04-12T08:18:50.981Z</time></trkpt><trkpt lat="33.8625093" lon="7.7840551"><ele>19.0</ele><time>2026-04-12T08:18:51.983Z</time></trkpt><trkpt lat="33.8624323" lon="7.7841"><ele>19.0</ele><time>2026-04-12T08:18:52.982Z</time></trkpt><trkpt lat="33.8623417" lon="7.7841449"><ele>19.0</ele><time>2026-04-12T08:18:53.996Z</time></trkpt><trkpt lat="33.8622539" lon="7.7841843"><ele>19.0</ele><time>2026-04-12T08:18:54.984Z</time></trkpt><trkpt lat="33.8621671" lon="7.7842158"><ele>19.0</ele><time>2026-04-12T08:18:55.987Z</time></trkpt><trkpt lat="33.8620833" lon="7.7842512"><ele>19.0</ele><time>2026-04-12T08:18:56.98Z</time></trkpt><trkpt lat="33.8620012" lon="7.7842915"><ele>19.0</ele><time>2026-04-12T08:18:57.981Z</time></trkpt><trkpt lat="33.8619253" lon="7.7843226"><ele>19.0</ele><time>2026-04-12T08:18:58.986Z</time></trkpt><trkpt lat="33.8618629" lon="7.784352"><ele>19.0</ele><time>2026-04-12T08:18:59.975Z</time></trkpt><trkpt lat="33.8617688" lon="7.7843887"><ele>19.0</ele><time>2026-04-12T08:19:01.978Z</time></trkpt><trkpt lat="33.8617067" lon="7.7844228"><ele>19.0</ele><time>2026-04-12T08:19:03.982Z</time></trkpt><trkpt lat="33.8616383" lon="7.784458"><ele>19.0</ele><time>2026-04-12T08:19:06.985Z</time></trkpt><trkpt lat="33.8615496" lon="7.7844727"><ele>19.2</ele><time>2026-04-12T08:19:21.995Z</time></trkpt><trkpt lat="33.8614649" lon="7.7845175"><ele>19.4</ele><time>2026-04-12T08:19:23.989Z</time></trkpt><trkpt lat="33.8613559" lon="7.7845948"><ele>19.6</ele><time>2026-04-12T08:19:25.979Z</time></trkpt><trkpt lat="33.8612305" lon="7.7846663"><ele>19.8</ele><time>2026-04-12T08:19:27.982Z</time></trkpt><trkpt lat="33.8611502" lon="7.7847081"><ele>20.0</ele><time>2026-04-12T08:19:28.983Z</time></trkpt><trkpt lat="33.8610535" lon="7.7847388"><ele>20.0</ele><time>2026-04-12T08:19:29.98Z</time></trkpt><trkpt lat="33.8609608" lon="7.7847572"><ele>20.0</ele><time>2026-04-12T08:19:30.98Z</time></trkpt><trkpt lat="33.8608614" lon="7.784769"><ele>20.0</ele><time>2026-04-12T08:19:31.976Z</time></trkpt><trkpt lat="33.860759" lon="7.7847866"><ele>20.0</ele><time>2026-04-12T08:19:32.975Z</time></trkpt><trkpt lat="33.8606452" lon="7.7848059"><ele>20.0</ele><time>2026-04-12T08:19:33.976Z</time></trkpt><trkpt lat="33.8605469" lon="7.7848174"><ele>19.8</ele><time>2026-04-12T08:19:34.977Z</time></trkpt><trkpt lat="33.8604448" lon="7.7848287"><ele>19.6</ele><time>2026-04-12T08:19:35.975Z</time></trkpt><trkpt lat="33.8603477" lon="7.7848352"><ele>19.4</ele><time>2026-04-12T08:19:36.979Z</time></trkpt><trkpt lat="33.8602426" lon="7.7848384"><ele>19.2</ele><time>2026-04-12T08:19:37.977Z</time></trkpt><trkpt lat="33.860133" lon="7.7848478"><ele>19.0</ele><time>2026-04-12T08:19:38.977Z</time></trkpt><trkpt lat="33.8600347" lon="7.7848626"><ele>19.0</ele><time>2026-04-12T08:19:39.973Z</time></trkpt><trkpt lat="33.859935" lon="7.7848801"><ele>19.0</ele><time>2026-04-12T08:19:40.978Z</time></trkpt><trkpt lat="33.8598274" lon="7.7849014"><ele>19.0</ele><time>2026-04-12T08:19:41.976Z</time></trkpt><trkpt lat="33.8597148" lon="7.7849133"><ele>19.0</ele><time>2026-04-12T08:19:42.979Z</time></trkpt><trkpt lat="33.8595962" lon="7.7849327"><ele>19.0</ele><time>2026-04-12T08:19:43.981Z</time></trkpt><trkpt lat="33.8594885" lon="7.7849478"><ele>19.0</ele><time>2026-04-12T08:19:44.979Z</time></trkpt><trkpt lat="33.8593879" lon="7.7849561"><ele>19.0</ele><time>2026-04-12T08:19:45.98Z</time></trkpt><trkpt lat="33.8592894" lon="7.7849674"><ele>19.0</ele><time>2026-04-12T08:19:46.981Z</time></trkpt><trkpt lat="33.8591835" lon="7.7849709"><ele>19.0</ele><time>2026-04-12T08:19:47.978Z</time></trkpt><trkpt lat="33.8590808" lon="7.7849704"><ele>19.0</ele><time>2026-04-12T08:19:48.983Z</time></trkpt><trkpt lat="33.8589762" lon="7.7849661"><ele>19.0</ele><time>2026-04-12T08:19:49.977Z</time></trkpt><trkpt lat="33.8588659" lon="7.7849602"><ele>19.0</ele><time>2026-04-12T08:19:50.982Z</time></trkpt><trkpt lat="33.8587506" lon="7.7849527"><ele>19.0</ele><time>2026-04-12T08:19:51.98Z</time></trkpt><trkpt lat="33.858639" lon="7.7849503"><ele>19.0</ele><time>2026-04-12T08:19:52.976Z</time></trkpt><trkpt lat="33.8585284" lon="7.7849446"><ele>19.0</ele><time>2026-04-12T08:19:53.977Z</time></trkpt><trkpt lat="33.8584176" lon="7.7849337"><ele>19.0</ele><time>2026-04-12T08:19:54.978Z</time></trkpt><trkpt lat="33.8583101" lon="7.7849229"><ele>19.0</ele><time>2026-04-12T08:19:55.994Z</time></trkpt><trkpt lat="33.8582029" lon="7.7849135"><ele>19.0</ele><time>2026-04-12T08:19:56.977Z</time></trkpt><trkpt lat="33.8580933" lon="7.7849042"><ele>19.0</ele><time>2026-04-12T08:19:57.984Z</time></trkpt><trkpt lat="33.857989" lon="7.7848918"><ele>19.0</ele><time>2026-04-12T08:19:58.983Z</time></trkpt><trkpt lat="33.8578961" lon="7.7848782"><ele>19.0</ele><time>2026-04-12T08:19:59.978Z</time></trkpt><trkpt lat="33.8577929" lon="7.784865"><ele>19.0</ele><time>2026-04-12T08:20:00.979Z</time></trkpt><trkpt lat="33.8576863" lon="7.7848464"><ele>19.0</ele><time>2026-04-12T08:20:01.979Z</time></trkpt><trkpt lat="33.8575889" lon="7.7848326"><ele>19.0</ele><time>2026-04-12T08:20:02.979Z</time></trkpt><trkpt lat="33.8574906" lon="7.7848214"><ele>19.0</ele><time>2026-04-12T08:20:03.977Z</time></trkpt><trkpt lat="33.8573894" lon="7.7848015"><ele>19.2</ele><time>2026-04-12T08:20:04.979Z</time></trkpt><trkpt lat="33.8572956" lon="7.7847862"><ele>19.4</ele><time>2026-04-12T08:20:05.975Z</time></trkpt><trkpt lat="33.8571909" lon="7.7847618"><ele>19.6</ele><time>2026-04-12T08:20:06.977Z</time></trkpt><trkpt lat="33.8570869" lon="7.7847297"><ele>19.8</ele><time>2026-04-12T08:20:07.978Z</time></trkpt><trkpt lat="33.8569808" lon="7.7847022"><ele>20.0</ele><time>2026-04-12T08:20:08.981Z</time></trkpt><trkpt lat="33.8568861" lon="7.7846743"><ele>20.0</ele><time>2026-04-12T08:20:09.98Z</time></trkpt><trkpt lat="33.8567929" lon="7.7846341"><ele>20.0</ele><time>2026-04-12T08:20:10.98Z</time></trkpt><trkpt lat="33.8566894" lon="7.7845995"><ele>20.0</ele><time>2026-04-12T08:20:11.981Z</time></trkpt><trkpt lat="33.8565886" lon="7.7845603"><ele>20.0</ele><time>2026-04-12T08:20:12.982Z</time></trkpt><trkpt lat="33.8565089" lon="7.784521"><ele>20.0</ele><time>2026-04-12T08:20:13.98Z</time></trkpt><trkpt lat="33.8564188" lon="7.784487"><ele>20.0</ele><time>2026-04-12T08:20:14.98Z</time></trkpt><trkpt lat="33.8563129" lon="7.7844541"><ele>20.0</ele><time>2026-04-12T08:20:15.978Z</time></trkpt><trkpt lat="33.8562054" lon="7.7844201"><ele>20.0</ele><time>2026-04-12T08:20:16.978Z</time></trkpt><trkpt lat="33.8561117" lon="7.7843781"><ele>20.0</ele><time>2026-04-12T08:20:17.977Z</time></trkpt><trkpt lat="33.856016" lon="7.7843317"><ele>20.0</ele><time>2026-04-12T08:20:18.979Z</time></trkpt><trkpt lat="33.8559182" lon="7.7842856"><ele>21.25</ele><time>2026-04-12T08:20:19.976Z</time></trkpt><trkpt lat="33.8558123" lon="7.784239"><ele>22.5</ele><time>2026-04-12T08:20:20.978Z</time></trkpt><trkpt lat="33.8557069" lon="7.7841944"><ele>23.75</ele><time>2026-04-12T08:20:21.983Z</time></trkpt><trkpt lat="33.8555993" lon="7.7841508"><ele>25.0</ele><time>2026-04-12T08:20:22.98Z</time></trkpt><trkpt lat="33.8554818" lon="7.784102"><ele>25.0</ele><time>2026-04-12T08:20:23.977Z</time></trkpt><trkpt lat="33.8553543" lon="7.7840467"><ele>25.0</ele><time>2026-04-12T08:20:24.978Z</time></trkpt><trkpt lat="33.8552278" lon="7.7839922"><ele>25.0</ele><time>2026-04-12T08:20:25.974Z</time></trkpt><trkpt lat="33.8550963" lon="7.783941"><ele>25.0</ele><time>2026-04-12T08:20:26.992Z</time></trkpt><trkpt lat="33.8549525" lon="7.7838846"><ele>23.5</ele><time>2026-04-12T08:20:27.977Z</time></trkpt><trkpt lat="33.8548118" lon="7.7838335"><ele>22.0</ele><time>2026-04-12T08:20:28.98Z</time></trkpt><trkpt lat="33.8546675" lon="7.7837731"><ele>20.5</ele><time>2026-04-12T08:20:29.976Z</time></trkpt><trkpt lat="33.854532" lon="7.7837315"><ele>19.0</ele><time>2026-04-12T08:20:30.975Z</time></trkpt><trkpt lat="33.8544067" lon="7.783674"><ele>19.25</ele><time>2026-04-12T08:20:31.973Z</time></trkpt><trkpt lat="33.854286" lon="7.7836392"><ele>19.5</ele><time>2026-04-12T08:20:32.976Z</time></trkpt><trkpt lat="33.8541641" lon="7.7835912"><ele>19.75</ele><time>2026-04-12T08:20:33.977Z</time></trkpt><trkpt lat="33.8540479" lon="7.78354"><ele>20.0</ele><time>2026-04-12T08:20:34.977Z</time></trkpt><trkpt lat="33.8539231" lon="7.7834952"><ele>19.75</ele><time>2026-04-12T08:20:35.976Z</time></trkpt><trkpt lat="33.8538107" lon="7.7834413"><ele>19.5</ele><time>2026-04-12T08:20:36.979Z</time></trkpt><trkpt lat="33.8536948" lon="7.783388"><ele>19.25</ele><time>2026-04-12T08:20:37.98Z</time></trkpt><trkpt lat="33.8535777" lon="7.7833465"><ele>19.0</ele><time>2026-04-12T08:20:38.973Z</time></trkpt><trkpt lat="33.8534548" lon="7.7833"><ele>19.0</ele><time>2026-04-12T08:20:39.974Z</time></trkpt><trkpt lat="33.8533334" lon="7.7832481"><ele>19.0</ele><time>2026-04-12T08:20:40.971Z</time></trkpt><trkpt lat="33.8532073" lon="7.7831983"><ele>19.0</ele><time>2026-04-12T08:20:41.972Z</time></trkpt><trkpt lat="33.8530804" lon="7.7831468"><ele>19.0</ele><time>2026-04-12T08:20:42.973Z</time></trkpt><trkpt lat="33.852955" lon="7.7830962"><ele>19.0</ele><time>2026-04-12T08:20:43.974Z</time></trkpt><trkpt lat="33.8528252" lon="7.7830465"><ele>19.0</ele><time>2026-04-12T08:20:44.971Z</time></trkpt><trkpt lat="33.8526957" lon="7.7829877"><ele>19.0</ele><time>2026-04-12T08:20:45.972Z</time></trkpt><trkpt lat="33.8525673" lon="7.7829348"><ele>19.0</ele><time>2026-04-12T08:20:46.976Z</time></trkpt><trkpt lat="33.8524439" lon="7.7828944"><ele>19.25</ele><time>2026-04-12T08:20:47.974Z</time></trkpt><trkpt lat="33.8523162" lon="7.7828489"><ele>19.5</ele><time>2026-04-12T08:20:48.974Z</time></trkpt><trkpt lat="33.8521833" lon="7.7828073"><ele>19.75</ele><time>2026-04-12T08:20:49.973Z</time></trkpt><trkpt lat="33.8520499" lon="7.7827475"><ele>20.0</ele><time>2026-04-12T08:20:50.973Z</time></trkpt><trkpt lat="33.8519071" lon="7.7826993"><ele>21.0</ele><time>2026-04-12T08:20:51.977Z</time></trkpt><trkpt lat="33.8517826" lon="7.7826442"><ele>22.0</ele><time>2026-04-12T08:20:52.974Z</time></trkpt><trkpt lat="33.8516557" lon="7.7826069"><ele>23.0</ele><time>2026-04-12T08:20:53.974Z</time></trkpt><trkpt lat="33.8515213" lon="7.7825647"><ele>24.0</ele><time>2026-04-12T08:20:54.975Z</time></trkpt><trkpt lat="33.8513936" lon="7.7825025"><ele>24.0</ele><time>2026-04-12T08:20:55.973Z</time></trkpt><trkpt lat="33.851258" lon="7.7824489"><ele>24.0</ele><time>2026-04-12T08:20:56.974Z</time></trkpt><trkpt lat="33.8511248" lon="7.7823855"><ele>24.0</ele><time>2026-04-12T08:20:57.992Z</time></trkpt><trkpt lat="33.8509729" lon="7.7823262"><ele>24.0</ele><time>2026-04-12T08:20:58.979Z</time></trkpt><trkpt lat="33.8508356" lon="7.7822744"><ele>23.25</ele><time>2026-04-12T08:20:59.973Z</time></trkpt><trkpt lat="33.8506983" lon="7.782231"><ele>22.5</ele><time>2026-04-12T08:21:00.976Z</time></trkpt><trkpt lat="33.8505646" lon="7.7821714"><ele>21.75</ele><time>2026-04-12T08:21:01.977Z</time></trkpt><trkpt lat="33.8504206" lon="7.782115"><ele>21.0</ele><time>2026-04-12T08:21:02.977Z</time></trkpt><trkpt lat="33.8502728" lon="7.7820504"><ele>21.0</ele><time>2026-04-12T08:21:03.975Z</time></trkpt><trkpt lat="33.8501366" lon="7.7819967"><ele>21.0</ele><time>2026-04-12T08:21:04.977Z</time></trkpt><trkpt lat="33.8499922" lon="7.7819427"><ele>21.0</ele><time>2026-04-12T08:21:05.977Z</time></trkpt><trkpt lat="33.8498432" lon="7.7818865"><ele>22.0</ele><time>2026-04-12T08:21:06.977Z</time></trkpt><trkpt lat="33.849697" lon="7.7818413"><ele>23.0</ele><time>2026-04-12T08:21:07.975Z</time></trkpt><trkpt lat="33.8495531" lon="7.7817836"><ele>24.0</ele><time>2026-04-12T08:21:08.976Z</time></trkpt><trkpt lat="33.8494075" lon="7.7817224"><ele>23.5</ele><time>2026-04-12T08:21:09.974Z</time></trkpt><trkpt lat="33.849272" lon="7.7816597"><ele>23.0</ele><time>2026-04-12T08:21:10.976Z</time></trkpt><trkpt lat="33.8491595" lon="7.7815949"><ele>22.5</ele><time>2026-04-12T08:21:11.975Z</time></trkpt><trkpt lat="33.8490347" lon="7.7815179"><ele>22.0</ele><time>2026-04-12T08:21:12.975Z</time></trkpt><trkpt lat="33.8489123" lon="7.781463"><ele>22.0</ele><time>2026-04-12T08:21:13.976Z</time></trkpt><trkpt lat="33.8487751" lon="7.7814039"><ele>22.0</ele><time>2026-04-12T08:21:14.977Z</time></trkpt><trkpt lat="33.848645" lon="7.7813439"><ele>22.0</ele><time>2026-04-12T08:21:15.975Z</time></trkpt><trkpt lat="33.8485102" lon="7.7812844"><ele>22.0</ele><time>2026-04-12T08:21:16.98Z</time></trkpt><trkpt lat="33.8483794" lon="7.7812207"><ele>22.0</ele><time>2026-04-12T08:21:17.98Z</time></trkpt><trkpt lat="33.8482432" lon="7.7811591"><ele>22.0</ele><time>2026-04-12T08:21:18.977Z</time></trkpt><trkpt lat="33.8481088" lon="7.7810998"><ele>22.0</ele><time>2026-04-12T08:21:19.977Z</time></trkpt><trkpt lat="33.8479728" lon="7.7810471"><ele>22.0</ele><time>2026-04-12T08:21:20.976Z</time></trkpt><trkpt lat="33.8478314" lon="7.7809859"><ele>23.0</ele><time>2026-04-12T08:21:21.98Z</time></trkpt><trkpt lat="33.8476967" lon="7.7809188"><ele>24.0</ele><time>2026-04-12T08:21:22.977Z</time></trkpt><trkpt lat="33.8475654" lon="7.7808589"><ele>25.0</ele><time>2026-04-12T08:21:23.983Z</time></trkpt><trkpt lat="33.8474189" lon="7.7807865"><ele>26.0</ele><time>2026-04-12T08:21:24.979Z</time></trkpt><trkpt lat="33.8472684" lon="7.7807173"><ele>21.333333333333332</ele><time>2026-04-12T08:21:25.98Z</time></trkpt><trkpt lat="33.8471227" lon="7.7806538"><ele>16.666666666666664</ele><time>2026-04-12T08:21:26.98Z</time></trkpt><trkpt lat="33.846979" lon="7.7805906"><ele>12.0</ele><time>2026-04-12T08:21:27.979Z</time></trkpt><trkpt lat="33.8468212" lon="7.7805175"><ele>13.666666666666668</ele><time>2026-04-12T08:21:28.999Z</time></trkpt><trkpt lat="33.8466643" lon="7.7804458"><ele>15.333333333333334</ele><time>2026-04-12T08:21:29.98Z</time></trkpt><trkpt lat="33.8465168" lon="7.7803761"><ele>17.0</ele><time>2026-04-12T08:21:30.978Z</time></trkpt><trkpt lat="33.8463704" lon="7.7803169"><ele>17.0</ele><time>2026-04-12T08:21:31.978Z</time></trkpt><trkpt lat="33.8462222" lon="7.7802559"><ele>17.0</ele><time>2026-04-12T08:21:32.978Z</time></trkpt><trkpt lat="33.8460728" lon="7.7802011"><ele>17.0</ele><time>2026-04-12T08:21:33.977Z</time></trkpt><trkpt lat="33.8459457" lon="7.78013"><ele>17.666666666666668</ele><time>2026-04-12T08:21:34.976Z</time></trkpt><trkpt lat="33.8457983" lon="7.7800874"><ele>18.333333333333332</ele><time>2026-04-12T08:21:35.978Z</time></trkpt><trkpt lat="33.8456449" lon="7.780031"><ele>19.0</ele><time>2026-04-12T08:21:36.983Z</time></trkpt><trkpt lat="33.8454905" lon="7.7799709"><ele>19.0</ele><time>2026-04-12T08:21:37.977Z</time></trkpt><trkpt lat="33.8453411" lon="7.7799188"><ele>19.0</ele><time>2026-04-12T08:21:38.984Z</time></trkpt><trkpt lat="33.8451889" lon="7.7798662"><ele>19.0</ele><time>2026-04-12T08:21:39.981Z</time></trkpt><trkpt lat="33.8450636" lon="7.7798149"><ele>19.0</ele><time>2026-04-12T08:21:40.982Z</time></trkpt><trkpt lat="33.8449395" lon="7.779742"><ele>19.25</ele><time>2026-04-12T08:21:41.984Z</time></trkpt><trkpt lat="33.844824" lon="7.7797014"><ele>19.5</ele><time>2026-04-12T08:21:42.979Z</time></trkpt><trkpt lat="33.8447091" lon="7.7796595"><ele>19.75</ele><time>2026-04-12T08:21:43.984Z</time></trkpt><trkpt lat="33.8446007" lon="7.7796222"><ele>20.0</ele><time>2026-04-12T08:21:44.981Z</time></trkpt><trkpt lat="33.8444786" lon="7.7795819"><ele>20.0</ele><time>2026-04-12T08:21:45.983Z</time></trkpt><trkpt lat="33.844337" lon="7.7795558"><ele>20.0</ele><time>2026-04-12T08:21:46.994Z</time></trkpt><trkpt lat="33.84421" lon="7.7795461"><ele>20.0</ele><time>2026-04-12T08:21:47.984Z</time></trkpt><trkpt lat="33.8440856" lon="7.7795206"><ele>20.0</ele><time>2026-04-12T08:21:48.984Z</time></trkpt><trkpt lat="33.8439627" lon="7.7794972"><ele>19.8</ele><time>2026-04-12T08:21:49.982Z</time></trkpt><trkpt lat="33.8438485" lon="7.7794664"><ele>19.6</ele><time>2026-04-12T08:21:50.982Z</time></trkpt><trkpt lat="33.8437403" lon="7.7794289"><ele>19.4</ele><time>2026-04-12T08:21:51.982Z</time></trkpt><trkpt lat="33.8436374" lon="7.7793793"><ele>19.2</ele><time>2026-04-12T08:21:52.983Z</time></trkpt><trkpt lat="33.8435467" lon="7.7793382"><ele>19.0</ele><time>2026-04-12T08:21:53.984Z</time></trkpt><trkpt lat="33.8434714" lon="7.7793106"><ele>19.166666666666664</ele><time>2026-04-12T08:21:54.983Z</time></trkpt><trkpt lat="33.8434093" lon="7.7792812"><ele>19.333333333333332</ele><time>2026-04-12T08:21:55.984Z</time></trkpt><trkpt lat="33.8433448" lon="7.7792569"><ele>19.5</ele><time>2026-04-12T08:21:56.993Z</time></trkpt><trkpt lat="33.8432656" lon="7.7792212"><ele>19.666666666666668</ele><time>2026-04-12T08:21:57.999Z</time></trkpt><trkpt lat="33.8432089" lon="7.7791831"><ele>19.833333333333336</ele><time>2026-04-12T08:21:58.996Z</time></trkpt><trkpt lat="33.8431426" lon="7.7791087"><ele>20.0</ele><time>2026-04-12T08:22:00.986Z</time></trkpt><trkpt lat="33.8430694" lon="7.7790539"><ele>20.0</ele><time>2026-04-12T08:22:02.986Z</time></trkpt><trkpt lat="33.8430064" lon="7.7790057"><ele>20.0</ele><time>2026-04-12T08:22:04.998Z</time></trkpt><trkpt lat="33.842932" lon="7.7790261"><ele>20.0</ele><time>2026-04-12T08:35:23.997Z</time></trkpt><trkpt lat="33.8428717" lon="7.779101"><ele>20.0</ele><time>2026-04-12T08:35:26.977Z</time></trkpt><trkpt lat="33.8428262" lon="7.7791586"><ele>20.0</ele><time>2026-04-12T08:35:28.989Z</time></trkpt><trkpt lat="33.8427703" lon="7.7791952"><ele>20.0</ele><time>2026-04-12T08:35:30.982Z</time></trkpt><trkpt lat="33.8426976" lon="7.7791809"><ele>20.0</ele><time>2026-04-12T08:35:32.98Z</time></trkpt><trkpt lat="33.8425914" lon="7.7791532"><ele>19.333333333333336</ele><time>2026-04-12T08:35:34.972Z</time></trkpt><trkpt lat="33.8425263" lon="7.7791303"><ele>18.666666666666668</ele><time>2026-04-12T08:35:35.971Z</time></trkpt><trkpt lat="33.842458" lon="7.7791077"><ele>18.0</ele><time>2026-04-12T08:35:36.975Z</time></trkpt><trkpt lat="33.8423794" lon="7.7790875"><ele>17.333333333333332</ele><time>2026-04-12T08:35:37.974Z</time></trkpt><trkpt lat="33.8422867" lon="7.7790653"><ele>16.666666666666664</ele><time>2026-04-12T08:35:38.97Z</time></trkpt><trkpt lat="33.8421903" lon="7.77903"><ele>16.0</ele><time>2026-04-12T08:35:39.979Z</time></trkpt><trkpt lat="33.8420757" lon="7.7789943"><ele>16.0</ele><time>2026-04-12T08:35:40.971Z</time></trkpt><trkpt lat="33.8419664" lon="7.7789618"><ele>16.0</ele><time>2026-04-12T08:35:41.97Z</time></trkpt><trkpt lat="33.8418566" lon="7.7789305"><ele>16.0</ele><time>2026-04-12T08:35:42.97Z</time></trkpt><trkpt lat="33.8417518" lon="7.7788864"><ele>16.0</ele><time>2026-04-12T08:35:43.968Z</time></trkpt><trkpt lat="33.841654" lon="7.7788501"><ele>16.0</ele><time>2026-04-12T08:35:44.965Z</time></trkpt><trkpt lat="33.8415542" lon="7.7788099"><ele>16.6</ele><time>2026-04-12T08:35:45.966Z</time></trkpt><trkpt lat="33.8414588" lon="7.778768"><ele>17.200000000000003</ele><time>2026-04-12T08:35:46.964Z</time></trkpt><trkpt lat="33.8413567" lon="7.7787159"><ele>17.799999999999997</ele><time>2026-04-12T08:35:47.969Z</time></trkpt><trkpt lat="33.8412613" lon="7.778672"><ele>18.4</ele><time>2026-04-12T08:35:48.982Z</time></trkpt><trkpt lat="33.841161" lon="7.7786239"><ele>19.0</ele><time>2026-04-12T08:35:49.974Z</time></trkpt><trkpt lat="33.8410676" lon="7.7785707"><ele>19.0</ele><time>2026-04-12T08:35:50.977Z</time></trkpt><trkpt lat="33.8409862" lon="7.7785356"><ele>19.0</ele><time>2026-04-12T08:35:51.975Z</time></trkpt><trkpt lat="33.8409086" lon="7.7784972"><ele>19.0</ele><time>2026-04-12T08:35:52.979Z</time></trkpt><trkpt lat="33.8408211" lon="7.7784525"><ele>19.0</ele><time>2026-04-12T08:35:53.976Z</time></trkpt><trkpt lat="33.8407399" lon="7.7784078"><ele>19.0</ele><time>2026-04-12T08:35:54.993Z</time></trkpt><trkpt lat="33.8406516" lon="7.7783655"><ele>18.8</ele><time>2026-04-12T08:35:55.979Z</time></trkpt><trkpt lat="33.8405621" lon="7.7783176"><ele>18.599999999999998</ele><time>2026-04-12T08:35:56.974Z</time></trkpt><trkpt lat="33.8404654" lon="7.7782617"><ele>18.4</ele><time>2026-04-12T08:35:57.977Z</time></trkpt><trkpt lat="33.8403659" lon="7.7782085"><ele>18.2</ele><time>2026-04-12T08:35:58.977Z</time></trkpt><trkpt lat="33.8402619" lon="7.7781522"><ele>18.0</ele><time>2026-04-12T08:35:59.973Z</time></trkpt><trkpt lat="33.8401611" lon="7.778099"><ele>17.6</ele><time>2026-04-12T08:36:00.97Z</time></trkpt><trkpt lat="33.8400591" lon="7.7780454"><ele>17.200000000000003</ele><time>2026-04-12T08:36:01.977Z</time></trkpt><trkpt lat="33.8399563" lon="7.7779913"><ele>16.8</ele><time>2026-04-12T08:36:02.971Z</time></trkpt><trkpt lat="33.8398584" lon="7.7779413"><ele>16.400000000000002</ele><time>2026-04-12T08:36:03.967Z</time></trkpt><trkpt lat="33.8397633" lon="7.7778906"><ele>16.0</ele><time>2026-04-12T08:36:04.97Z</time></trkpt><trkpt lat="33.8396654" lon="7.777848"><ele>16.0</ele><time>2026-04-12T08:36:05.973Z</time></trkpt><trkpt lat="33.8395593" lon="7.7777991"><ele>16.0</ele><time>2026-04-12T08:36:06.975Z</time></trkpt><trkpt lat="33.839449" lon="7.7777467"><ele>16.0</ele><time>2026-04-12T08:36:07.974Z</time></trkpt><trkpt lat="33.8393408" lon="7.7777011"><ele>16.0</ele><time>2026-04-12T08:36:08.974Z</time></trkpt><trkpt lat="33.839226" lon="7.7776473"><ele>15.75</ele><time>2026-04-12T08:36:09.977Z</time></trkpt><trkpt lat="33.8391111" lon="7.7775923"><ele>15.5</ele><time>2026-04-12T08:36:10.977Z</time></trkpt><trkpt lat="33.8390017" lon="7.77753"><ele>15.25</ele><time>2026-04-12T08:36:11.977Z</time></trkpt><trkpt lat="33.8388839" lon="7.7774726"><ele>15.0</ele><time>2026-04-12T08:36:12.971Z</time></trkpt><trkpt lat="33.8387768" lon="7.7774097"><ele>15.0</ele><time>2026-04-12T08:36:13.977Z</time></trkpt><trkpt lat="33.8386678" lon="7.7773556"><ele>15.0</ele><time>2026-04-12T08:36:14.975Z</time></trkpt><trkpt lat="33.8385633" lon="7.7773004"><ele>15.0</ele><time>2026-04-12T08:36:15.971Z</time></trkpt><trkpt lat="33.8384597" lon="7.7772474"><ele>15.0</ele><time>2026-04-12T08:36:16.969Z</time></trkpt><trkpt lat="33.8383548" lon="7.7771892"><ele>13.75</ele><time>2026-04-12T08:36:17.972Z</time></trkpt><trkpt lat="33.838253" lon="7.7771226"><ele>12.5</ele><time>2026-04-12T08:36:18.97Z</time></trkpt><trkpt lat="33.8381464" lon="7.777055"><ele>11.25</ele><time>2026-04-12T08:36:19.969Z</time></trkpt><trkpt lat="33.8380393" lon="7.7769877"><ele>10.0</ele><time>2026-04-12T08:36:20.97Z</time></trkpt><trkpt lat="33.8379266" lon="7.7769281"><ele>10.0</ele><time>2026-04-12T08:36:21.977Z</time></trkpt><trkpt lat="33.8378215" lon="7.7768705"><ele>10.0</ele><time>2026-04-12T08:36:22.984Z</time></trkpt><trkpt lat="33.8377212" lon="7.7768147"><ele>10.0</ele><time>2026-04-12T08:36:23.973Z</time></trkpt><trkpt lat="33.8376162" lon="7.7767586"><ele>10.0</ele><time>2026-04-12T08:36:24.974Z</time></trkpt><trkpt lat="33.8375124" lon="7.7766966"><ele>10.0</ele><time>2026-04-12T08:36:26.006Z</time></trkpt><trkpt lat="33.8374027" lon="7.7766381"><ele>10.0</ele><time>2026-04-12T08:36:26.973Z</time></trkpt><trkpt lat="33.8372976" lon="7.7765764"><ele>10.0</ele><time>2026-04-12T08:36:27.982Z</time></trkpt><trkpt lat="33.8371961" lon="7.7765199"><ele>10.0</ele><time>2026-04-12T08:36:28.982Z</time></trkpt><trkpt lat="33.8370973" lon="7.7764633"><ele>10.0</ele><time>2026-04-12T08:36:29.977Z</time></trkpt><trkpt lat="33.8369965" lon="7.7764067"><ele>10.0</ele><time>2026-04-12T08:36:30.978Z</time></trkpt><trkpt lat="33.8368878" lon="7.7763495"><ele>10.0</ele><time>2026-04-12T08:36:31.976Z</time></trkpt><trkpt lat="33.8367796" lon="7.7762992"><ele>10.0</ele><time>2026-04-12T08:36:32.978Z</time></trkpt><trkpt lat="33.8366649" lon="7.7762513"><ele>11.5</ele><time>2026-04-12T08:36:33.987Z</time></trkpt><trkpt lat="33.8365527" lon="7.776193"><ele>13.0</ele><time>2026-04-12T08:36:34.974Z</time></trkpt><trkpt lat="33.8364368" lon="7.7761283"><ele>14.5</ele><time>2026-04-12T08:36:35.978Z</time></trkpt><trkpt lat="33.8363249" lon="7.7760607"><ele>16.0</ele><time>2026-04-12T08:36:36.975Z</time></trkpt><trkpt lat="33.8362149" lon="7.7759913"><ele>16.0</ele><time>2026-04-12T08:36:37.971Z</time></trkpt><trkpt lat="33.8360914" lon="7.7759174"><ele>16.0</ele><time>2026-04-12T08:36:38.966Z</time></trkpt><trkpt lat="33.8359766" lon="7.7758454"><ele>16.0</ele><time>2026-04-12T08:36:39.97Z</time></trkpt><trkpt lat="33.8358645" lon="7.7757692"><ele>16.0</ele><time>2026-04-12T08:36:40.962Z</time></trkpt><trkpt lat="33.8357451" lon="7.775707"><ele>16.25</ele><time>2026-04-12T08:36:41.967Z</time></trkpt><trkpt lat="33.8356378" lon="7.7756457"><ele>16.5</ele><time>2026-04-12T08:36:42.969Z</time></trkpt><trkpt lat="33.8355192" lon="7.7755867"><ele>16.75</ele><time>2026-04-12T08:36:43.982Z</time></trkpt><trkpt lat="33.8354046" lon="7.7755386"><ele>17.0</ele><time>2026-04-12T08:36:44.969Z</time></trkpt><trkpt lat="33.8352854" lon="7.7754801"><ele>17.0</ele><time>2026-04-12T08:36:45.974Z</time></trkpt><trkpt lat="33.8351652" lon="7.775419"><ele>17.0</ele><time>2026-04-12T08:36:46.977Z</time></trkpt><trkpt lat="33.8350443" lon="7.7753563"><ele>17.0</ele><time>2026-04-12T08:36:47.976Z</time></trkpt><trkpt lat="33.8349236" lon="7.7752904"><ele>17.0</ele><time>2026-04-12T08:36:48.977Z</time></trkpt><trkpt lat="33.8348035" lon="7.7752312"><ele>17.0</ele><time>2026-04-12T08:36:49.975Z</time></trkpt><trkpt lat="33.8346861" lon="7.7751685"><ele>17.0</ele><time>2026-04-12T08:36:50.975Z</time></trkpt><trkpt lat="33.8345677" lon="7.775099"><ele>17.0</ele><time>2026-04-12T08:36:51.973Z</time></trkpt><trkpt lat="33.834461" lon="7.7750325"><ele>17.0</ele><time>2026-04-12T08:36:52.981Z</time></trkpt><trkpt lat="33.8343586" lon="7.7749736"><ele>17.5</ele><time>2026-04-12T08:36:53.992Z</time></trkpt><trkpt lat="33.8342514" lon="7.7749082"><ele>18.0</ele><time>2026-04-12T08:36:54.977Z</time></trkpt><trkpt lat="33.8341421" lon="7.774845"><ele>18.5</ele><time>2026-04-12T08:36:55.993Z</time></trkpt><trkpt lat="33.834034" lon="7.7747894"><ele>19.0</ele><time>2026-04-12T08:36:56.971Z</time></trkpt><trkpt lat="33.8339199" lon="7.7747317"><ele>19.0</ele><time>2026-04-12T08:36:57.974Z</time></trkpt><trkpt lat="33.8338096" lon="7.7746721"><ele>19.0</ele><time>2026-04-12T08:36:58.982Z</time></trkpt><trkpt lat="33.8337033" lon="7.7746066"><ele>19.0</ele><time>2026-04-12T08:36:59.975Z</time></trkpt><trkpt lat="33.8335952" lon="7.7745415"><ele>19.0</ele><time>2026-04-12T08:37:00.973Z</time></trkpt><trkpt lat="33.8334891" lon="7.7744787"><ele>19.0</ele><time>2026-04-12T08:37:01.971Z</time></trkpt><trkpt lat="33.8333821" lon="7.7744193"><ele>19.0</ele><time>2026-04-12T08:37:02.97Z</time></trkpt><trkpt lat="33.8332659" lon="7.7743525"><ele>19.0</ele><time>2026-04-12T08:37:03.986Z</time></trkpt><trkpt lat="33.833151" lon="7.7742893"><ele>19.0</ele><time>2026-04-12T08:37:04.975Z</time></trkpt><trkpt lat="33.83303" lon="7.7742229"><ele>19.25</ele><time>2026-04-12T08:37:05.973Z</time></trkpt><trkpt lat="33.8329075" lon="7.7741447"><ele>19.5</ele><time>2026-04-12T08:37:06.971Z</time></trkpt><trkpt lat="33.8327857" lon="7.7740717"><ele>19.75</ele><time>2026-04-12T08:37:07.972Z</time></trkpt><trkpt lat="33.8326701" lon="7.7739986"><ele>20.0</ele><time>2026-04-12T08:37:08.97Z</time></trkpt><trkpt lat="33.8325343" lon="7.7739179"><ele>20.5</ele><time>2026-04-12T08:37:09.967Z</time></trkpt><trkpt lat="33.8324095" lon="7.7738557"><ele>21.0</ele><time>2026-04-12T08:37:10.97Z</time></trkpt><trkpt lat="33.8322792" lon="7.7737755"><ele>21.5</ele><time>2026-04-12T08:37:11.964Z</time></trkpt><trkpt lat="33.8321473" lon="7.7736975"><ele>22.0</ele><time>2026-04-12T08:37:12.993Z</time></trkpt><trkpt lat="33.8320166" lon="7.7736134"><ele>22.0</ele><time>2026-04-12T08:37:14.067Z</time></trkpt><trkpt lat="33.8318824" lon="7.7735285"><ele>22.0</ele><time>2026-04-12T08:37:15.055Z</time></trkpt><trkpt lat="33.8317436" lon="7.7734427"><ele>22.0</ele><time>2026-04-12T08:37:16.056Z</time></trkpt><trkpt lat="33.8316057" lon="7.7733575"><ele>22.0</ele><time>2026-04-12T08:37:17.054Z</time></trkpt><trkpt lat="33.8314687" lon="7.7732739"><ele>22.0</ele><time>2026-04-12T08:37:18.056Z</time></trkpt><trkpt lat="33.8313359" lon="7.7731898"><ele>22.0</ele><time>2026-04-12T08:37:19.063Z</time></trkpt><trkpt lat="33.8312078" lon="7.7731071"><ele>22.0</ele><time>2026-04-12T08:37:20.06Z</time></trkpt><trkpt lat="33.8310804" lon="7.7730265"><ele>21.5</ele><time>2026-04-12T08:37:21.059Z</time></trkpt><trkpt lat="33.8309512" lon="7.7729495"><ele>21.0</ele><time>2026-04-12T08:37:22.06Z</time></trkpt><trkpt lat="33.8308219" lon="7.7728728"><ele>20.5</ele><time>2026-04-12T08:37:23.055Z</time></trkpt><trkpt lat="33.8306933" lon="7.7727974"><ele>20.0</ele><time>2026-04-12T08:37:24.082Z</time></trkpt><trkpt lat="33.8305691" lon="7.7727088"><ele>20.5</ele><time>2026-04-12T08:37:25.064Z</time></trkpt><trkpt lat="33.8304414" lon="7.7726276"><ele>21.0</ele><time>2026-04-12T08:37:26.065Z</time></trkpt><trkpt lat="33.8303168" lon="7.7725549"><ele>21.5</ele><time>2026-04-12T08:37:27.075Z</time></trkpt><trkpt lat="33.8301896" lon="7.772476"><ele>22.0</ele><time>2026-04-12T08:37:28.06Z</time></trkpt><trkpt lat="33.8300642" lon="7.7723966"><ele>22.0</ele><time>2026-04-12T08:37:29.065Z</time></trkpt><trkpt lat="33.8299323" lon="7.7723141"><ele>22.0</ele><time>2026-04-12T08:37:30.064Z</time></trkpt><trkpt lat="33.829797" lon="7.7722318"><ele>22.0</ele><time>2026-04-12T08:37:31.059Z</time></trkpt><trkpt lat="33.8296642" lon="7.7721499"><ele>22.0</ele><time>2026-04-12T08:37:32.062Z</time></trkpt><trkpt lat="33.8295323" lon="7.7720701"><ele>22.0</ele><time>2026-04-12T08:37:33.056Z</time></trkpt><trkpt lat="33.8294011" lon="7.7719887"><ele>22.0</ele><time>2026-04-12T08:37:34.071Z</time></trkpt><trkpt lat="33.8292696" lon="7.7719007"><ele>22.0</ele><time>2026-04-12T08:37:35.056Z</time></trkpt><trkpt lat="33.8291407" lon="7.7718123"><ele>22.0</ele><time>2026-04-12T08:37:36.054Z</time></trkpt><trkpt lat="33.8290067" lon="7.771724"><ele>21.333333333333332</ele><time>2026-04-12T08:37:37.056Z</time></trkpt><trkpt lat="33.8288717" lon="7.7716364"><ele>20.666666666666668</ele><time>2026-04-12T08:37:38.052Z</time></trkpt><trkpt lat="33.8287341" lon="7.7715492"><ele>20.0</ele><time>2026-04-12T08:37:39.055Z</time></trkpt><trkpt lat="33.8285984" lon="7.7714633"><ele>21.0</ele><time>2026-04-12T08:37:40.053Z</time></trkpt><trkpt lat="33.8284621" lon="7.7713761"><ele>22.0</ele><time>2026-04-12T08:37:41.057Z</time></trkpt><trkpt lat="33.8283244" lon="7.771288"><ele>23.0</ele><time>2026-04-12T08:37:42.052Z</time></trkpt><trkpt lat="33.8281893" lon="7.7712002"><ele>23.0</ele><time>2026-04-12T08:37:43.055Z</time></trkpt><trkpt lat="33.8280597" lon="7.7711148"><ele>23.0</ele><time>2026-04-12T08:37:44.076Z</time></trkpt><trkpt lat="33.8279297" lon="7.7710298"><ele>23.0</ele><time>2026-04-12T08:37:45.059Z</time></trkpt><trkpt lat="33.827805" lon="7.7709435"><ele>23.0</ele><time>2026-04-12T08:37:46.064Z</time></trkpt><trkpt lat="33.8276854" lon="7.7708596"><ele>21.75</ele><time>2026-04-12T08:37:47.058Z</time></trkpt><trkpt lat="33.8275684" lon="7.7707811"><ele>20.5</ele><time>2026-04-12T08:37:48.056Z</time></trkpt><trkpt lat="33.827451" lon="7.7706998"><ele>19.25</ele><time>2026-04-12T08:37:49.056Z</time></trkpt><trkpt lat="33.8273337" lon="7.7706173"><ele>18.0</ele><time>2026-04-12T08:37:50.062Z</time></trkpt><trkpt lat="33.8272132" lon="7.7705328"><ele>18.0</ele><time>2026-04-12T08:37:51.056Z</time></trkpt><trkpt lat="33.8270902" lon="7.7704484"><ele>18.0</ele><time>2026-04-12T08:37:52.061Z</time></trkpt><trkpt lat="33.8269638" lon="7.7703606"><ele>18.0</ele><time>2026-04-12T08:37:53.059Z</time></trkpt><trkpt lat="33.8268322" lon="7.7702755"><ele>18.0</ele><time>2026-04-12T08:37:54.067Z</time></trkpt><trkpt lat="33.8266962" lon="7.7701895"><ele>18.666666666666668</ele><time>2026-04-12T08:37:55.06Z</time></trkpt><trkpt lat="33.8265578" lon="7.7701026"><ele>19.333333333333336</ele><time>2026-04-12T08:37:56.061Z</time></trkpt><trkpt lat="33.8264174" lon="7.7700209"><ele>20.0</ele><time>2026-04-12T08:37:57.055Z</time></trkpt><trkpt lat="33.8262765" lon="7.7699407"><ele>20.0</ele><time>2026-04-12T08:37:58.073Z</time></trkpt><trkpt lat="33.8261368" lon="7.7698588"><ele>20.0</ele><time>2026-04-12T08:37:59.066Z</time></trkpt><trkpt lat="33.8259961" lon="7.7697757"><ele>20.0</ele><time>2026-04-12T08:38:00.058Z</time></trkpt><trkpt lat="33.8258565" lon="7.7696906"><ele>20.666666666666668</ele><time>2026-04-12T08:38:01.064Z</time></trkpt><trkpt lat="33.8257164" lon="7.7696019"><ele>21.333333333333332</ele><time>2026-04-12T08:38:02.057Z</time></trkpt><trkpt lat="33.8255757" lon="7.7695135"><ele>22.0</ele><time>2026-04-12T08:38:03.058Z</time></trkpt><trkpt lat="33.8254332" lon="7.7694218"><ele>22.0</ele><time>2026-04-12T08:38:04.069Z</time></trkpt><trkpt lat="33.8252848" lon="7.7693267"><ele>22.0</ele><time>2026-04-12T08:38:05.058Z</time></trkpt><trkpt lat="33.8251334" lon="7.769231"><ele>22.0</ele><time>2026-04-12T08:38:06.057Z</time></trkpt><trkpt lat="33.8249803" lon="7.7691341"><ele>22.0</ele><time>2026-04-12T08:38:07.057Z</time></trkpt><trkpt lat="33.824825" lon="7.7690394"><ele>22.0</ele><time>2026-04-12T08:38:08.053Z</time></trkpt><trkpt lat="33.8246645" lon="7.768942"><ele>22.0</ele><time>2026-04-12T08:38:09.053Z</time></trkpt><trkpt lat="33.8245055" lon="7.7688461"><ele>22.0</ele><time>2026-04-12T08:38:10.055Z</time></trkpt><trkpt lat="33.8243403" lon="7.7687506"><ele>22.0</ele><time>2026-04-12T08:38:11.057Z</time></trkpt><trkpt lat="33.8241766" lon="7.768653"><ele>22.0</ele><time>2026-04-12T08:38:12.056Z</time></trkpt><trkpt lat="33.8240147" lon="7.7685581"><ele>21.666666666666664</ele><time>2026-04-12T08:38:13.059Z</time></trkpt><trkpt lat="33.8238555" lon="7.7684655"><ele>21.333333333333332</ele><time>2026-04-12T08:38:14.068Z</time></trkpt><trkpt lat="33.823698" lon="7.7683725"><ele>21.0</ele><time>2026-04-12T08:38:15.053Z</time></trkpt><trkpt lat="33.8235398" lon="7.7682816"><ele>21.333333333333332</ele><time>2026-04-12T08:38:16.056Z</time></trkpt><trkpt lat="33.82338" lon="7.7681937"><ele>21.666666666666664</ele><time>2026-04-12T08:38:17.058Z</time></trkpt><trkpt lat="33.8232184" lon="7.7681103"><ele>22.0</ele><time>2026-04-12T08:38:18.058Z</time></trkpt><trkpt lat="33.8230568" lon="7.7680287"><ele>22.0</ele><time>2026-04-12T08:38:19.063Z</time></trkpt><trkpt lat="33.8228964" lon="7.7679487"><ele>22.0</ele><time>2026-04-12T08:38:20.064Z</time></trkpt><trkpt lat="33.8227348" lon="7.7678702"><ele>22.0</ele><time>2026-04-12T08:38:21.061Z</time></trkpt><trkpt lat="33.8225742" lon="7.7677928"><ele>22.0</ele><time>2026-04-12T08:38:22.07Z</time></trkpt><trkpt lat="33.8224166" lon="7.7677128"><ele>22.0</ele><time>2026-04-12T08:38:23.065Z</time></trkpt><trkpt lat="33.8222579" lon="7.7676354"><ele>22.0</ele><time>2026-04-12T08:38:24.077Z</time></trkpt><trkpt lat="33.8221044" lon="7.767559"><ele>21.666666666666664</ele><time>2026-04-12T08:38:25.065Z</time></trkpt><trkpt lat="33.8219469" lon="7.7674848"><ele>21.333333333333332</ele><time>2026-04-12T08:38:26.067Z</time></trkpt><trkpt lat="33.8217879" lon="7.7674129"><ele>21.0</ele><time>2026-04-12T08:38:27.064Z</time></trkpt><trkpt lat="33.8216249" lon="7.7673428"><ele>20.333333333333332</ele><time>2026-04-12T08:38:28.063Z</time></trkpt><trkpt lat="33.8214562" lon="7.7672739"><ele>19.666666666666664</ele><time>2026-04-12T08:38:29.08Z</time></trkpt><trkpt lat="33.8212856" lon="7.7672051"><ele>19.0</ele><time>2026-04-12T08:38:30.059Z</time></trkpt><trkpt lat="33.8211117" lon="7.7671397"><ele>19.0</ele><time>2026-04-12T08:38:31.069Z</time></trkpt><trkpt lat="33.8209368" lon="7.7670777"><ele>19.0</ele><time>2026-04-12T08:38:32.062Z</time></trkpt><trkpt lat="33.8207608" lon="7.7670179"><ele>19.0</ele><time>2026-04-12T08:38:33.059Z</time></trkpt><trkpt lat="33.8205828" lon="7.7669588"><ele>19.0</ele><time>2026-04-12T08:38:34.07Z</time></trkpt><trkpt lat="33.8204111" lon="7.766903"><ele>19.0</ele><time>2026-04-12T08:38:35.056Z</time></trkpt><trkpt lat="33.8202418" lon="7.7668475"><ele>19.0</ele><time>2026-04-12T08:38:36.055Z</time></trkpt><trkpt lat="33.820068" lon="7.7667916"><ele>19.0</ele><time>2026-04-12T08:38:37.061Z</time></trkpt><trkpt lat="33.8198932" lon="7.7667377"><ele>19.0</ele><time>2026-04-12T08:38:38.058Z</time></trkpt><trkpt lat="33.8197188" lon="7.7666849"><ele>19.0</ele><time>2026-04-12T08:38:39.06Z</time></trkpt><trkpt lat="33.8195441" lon="7.766634"><ele>19.0</ele><time>2026-04-12T08:38:40.064Z</time></trkpt><trkpt lat="33.8193721" lon="7.766584"><ele>19.0</ele><time>2026-04-12T08:38:41.058Z</time></trkpt><trkpt lat="33.8192005" lon="7.7665332"><ele>19.0</ele><time>2026-04-12T08:38:42.056Z</time></trkpt><trkpt lat="33.8190328" lon="7.7664824"><ele>18.666666666666664</ele><time>2026-04-12T08:38:43.067Z</time></trkpt><trkpt lat="33.8188655" lon="7.7664308"><ele>18.333333333333332</ele><time>2026-04-12T08:38:44.073Z</time></trkpt><trkpt lat="33.8186989" lon="7.7663843"><ele>18.0</ele><time>2026-04-12T08:38:45.064Z</time></trkpt><trkpt lat="33.8185311" lon="7.7663421"><ele>18.333333333333332</ele><time>2026-04-12T08:38:46.063Z</time></trkpt><trkpt lat="33.8183635" lon="7.7662997"><ele>18.666666666666664</ele><time>2026-04-12T08:38:47.064Z</time></trkpt><trkpt lat="33.8181965" lon="7.7662585"><ele>19.0</ele><time>2026-04-12T08:38:48.062Z</time></trkpt><trkpt lat="33.8180307" lon="7.7662159"><ele>19.0</ele><time>2026-04-12T08:38:49.063Z</time></trkpt><trkpt lat="33.8178609" lon="7.7661723"><ele>19.0</ele><time>2026-04-12T08:38:50.058Z</time></trkpt><trkpt lat="33.8176892" lon="7.7661256"><ele>19.0</ele><time>2026-04-12T08:38:51.062Z</time></trkpt><trkpt lat="33.817516" lon="7.7660747"><ele>19.0</ele><time>2026-04-12T08:38:52.064Z</time></trkpt><trkpt lat="33.8173401" lon="7.7660161"><ele>19.0</ele><time>2026-04-12T08:38:53.064Z</time></trkpt><trkpt lat="33.8171626" lon="7.7659458"><ele>19.0</ele><time>2026-04-12T08:38:54.076Z</time></trkpt><trkpt lat="33.8169851" lon="7.7658716"><ele>19.666666666666664</ele><time>2026-04-12T08:38:55.07Z</time></trkpt><trkpt lat="33.8168115" lon="7.7657958"><ele>20.333333333333332</ele><time>2026-04-12T08:38:56.069Z</time></trkpt><trkpt lat="33.816643" lon="7.7657234"><ele>21.0</ele><time>2026-04-12T08:38:57.058Z</time></trkpt><trkpt lat="33.8164725" lon="7.7656548"><ele>21.0</ele><time>2026-04-12T08:38:58.06Z</time></trkpt><trkpt lat="33.8163015" lon="7.7655892"><ele>21.0</ele><time>2026-04-12T08:38:59.064Z</time></trkpt><trkpt lat="33.8161353" lon="7.7655231"><ele>21.0</ele><time>2026-04-12T08:39:00.075Z</time></trkpt><trkpt lat="33.815963" lon="7.7654594"><ele>20.666666666666668</ele><time>2026-04-12T08:39:01.062Z</time></trkpt><trkpt lat="33.8157915" lon="7.7653962"><ele>20.333333333333336</ele><time>2026-04-12T08:39:02.057Z</time></trkpt><trkpt lat="33.8156178" lon="7.7653318"><ele>20.0</ele><time>2026-04-12T08:39:03.061Z</time></trkpt><trkpt lat="33.8154438" lon="7.7652658"><ele>20.0</ele><time>2026-04-12T08:39:04.066Z</time></trkpt><trkpt lat="33.81527" lon="7.7651999"><ele>20.0</ele><time>2026-04-12T08:39:05.061Z</time></trkpt><trkpt lat="33.815095" lon="7.765133"><ele>20.0</ele><time>2026-04-12T08:39:06.055Z</time></trkpt><trkpt lat="33.8149184" lon="7.7650672"><ele>20.0</ele><time>2026-04-12T08:39:07.054Z</time></trkpt><trkpt lat="33.8147389" lon="7.7650009"><ele>20.0</ele><time>2026-04-12T08:39:08.057Z</time></trkpt><trkpt lat="33.8145607" lon="7.7649352"><ele>20.0</ele><time>2026-04-12T08:39:09.059Z</time></trkpt><trkpt lat="33.814384" lon="7.76487"><ele>20.333333333333336</ele><time>2026-04-12T08:39:10.057Z</time></trkpt><trkpt lat="33.8142044" lon="7.7648056"><ele>20.666666666666668</ele><time>2026-04-12T08:39:11.058Z</time></trkpt><trkpt lat="33.8140228" lon="7.7647457"><ele>21.0</ele><time>2026-04-12T08:39:12.061Z</time></trkpt><trkpt lat="33.813843" lon="7.7646899"><ele>21.0</ele><time>2026-04-12T08:39:13.059Z</time></trkpt><trkpt lat="33.8136623" lon="7.7646331"><ele>21.0</ele><time>2026-04-12T08:39:14.069Z</time></trkpt><trkpt lat="33.8134849" lon="7.7645763"><ele>21.0</ele><time>2026-04-12T08:39:15.058Z</time></trkpt><trkpt lat="33.8133078" lon="7.7645202"><ele>21.0</ele><time>2026-04-12T08:39:16.055Z</time></trkpt><trkpt lat="33.8131351" lon="7.7644649"><ele>21.0</ele><time>2026-04-12T08:39:17.064Z</time></trkpt><trkpt lat="33.8129624" lon="7.7644089"><ele>21.0</ele><time>2026-04-12T08:39:18.057Z</time></trkpt><trkpt lat="33.8127872" lon="7.7643525"><ele>20.666666666666668</ele><time>2026-04-12T08:39:19.064Z</time></trkpt><trkpt lat="33.8126136" lon="7.7642986"><ele>20.333333333333336</ele><time>2026-04-12T08:39:20.063Z</time></trkpt><trkpt lat="33.8124403" lon="7.7642432"><ele>20.0</ele><time>2026-04-12T08:39:21.062Z</time></trkpt><trkpt lat="33.8122676" lon="7.764188"><ele>20.0</ele><time>2026-04-12T08:39:22.063Z</time></trkpt><trkpt lat="33.8120946" lon="7.7641308"><ele>20.0</ele><time>2026-04-12T08:39:23.062Z</time></trkpt><trkpt lat="33.8119216" lon="7.7640718"><ele>20.0</ele><time>2026-04-12T08:39:24.069Z</time></trkpt><trkpt lat="33.8117478" lon="7.7640107"><ele>20.333333333333336</ele><time>2026-04-12T08:39:25.059Z</time></trkpt><trkpt lat="33.8115756" lon="7.7639486"><ele>20.666666666666668</ele><time>2026-04-12T08:39:26.064Z</time></trkpt><trkpt lat="33.8113996" lon="7.7638821"><ele>21.0</ele><time>2026-04-12T08:39:27.057Z</time></trkpt><trkpt lat="33.8112218" lon="7.7638113"><ele>21.0</ele><time>2026-04-12T08:39:28.06Z</time></trkpt><trkpt lat="33.8110399" lon="7.7637377"><ele>21.0</ele><time>2026-04-12T08:39:29.062Z</time></trkpt><trkpt lat="33.8108597" lon="7.7636668"><ele>21.0</ele><time>2026-04-12T08:39:30.062Z</time></trkpt><trkpt lat="33.8106807" lon="7.7635931"><ele>21.0</ele><time>2026-04-12T08:39:31.074Z</time></trkpt><trkpt lat="33.8104994" lon="7.7635168"><ele>21.0</ele><time>2026-04-12T08:39:32.057Z</time></trkpt><trkpt lat="33.8103233" lon="7.7634418"><ele>21.0</ele><time>2026-04-12T08:39:33.055Z</time></trkpt><trkpt lat="33.8101491" lon="7.7633689"><ele>21.0</ele><time>2026-04-12T08:39:34.069Z</time></trkpt><trkpt lat="33.8099749" lon="7.763299"><ele>21.0</ele><time>2026-04-12T08:39:35.055Z</time></trkpt><trkpt lat="33.8098032" lon="7.7632301"><ele>21.0</ele><time>2026-04-12T08:39:36.057Z</time></trkpt><trkpt lat="33.8096349" lon="7.7631618"><ele>21.0</ele><time>2026-04-12T08:39:37.057Z</time></trkpt><trkpt lat="33.809467" lon="7.763095"><ele>21.0</ele><time>2026-04-12T08:39:38.054Z</time></trkpt><trkpt lat="33.8092986" lon="7.7630268"><ele>21.0</ele><time>2026-04-12T08:39:39.06Z</time></trkpt><trkpt lat="33.8091313" lon="7.7629601"><ele>21.666666666666668</ele><time>2026-04-12T08:39:40.055Z</time></trkpt><trkpt lat="33.808961" lon="7.7628945"><ele>22.333333333333336</ele><time>2026-04-12T08:39:41.061Z</time></trkpt><trkpt lat="33.8087896" lon="7.7628301"><ele>23.0</ele><time>2026-04-12T08:39:42.058Z</time></trkpt><trkpt lat="33.8086212" lon="7.7627655"><ele>22.0</ele><time>2026-04-12T08:39:43.057Z</time></trkpt><trkpt lat="33.8084518" lon="7.7627018"><ele>21.0</ele><time>2026-04-12T08:39:44.071Z</time></trkpt><trkpt lat="33.8082865" lon="7.7626378"><ele>20.0</ele><time>2026-04-12T08:39:45.063Z</time></trkpt><trkpt lat="33.8081241" lon="7.7625764"><ele>20.0</ele><time>2026-04-12T08:39:46.063Z</time></trkpt><trkpt lat="33.807955" lon="7.7625154"><ele>20.0</ele><time>2026-04-12T08:39:47.062Z</time></trkpt><trkpt lat="33.8077838" lon="7.7624577"><ele>20.0</ele><time>2026-04-12T08:39:48.063Z</time></trkpt><trkpt lat="33.8076132" lon="7.7624013"><ele>20.0</ele><time>2026-04-12T08:39:49.063Z</time></trkpt><trkpt lat="33.8074418" lon="7.7623448"><ele>20.0</ele><time>2026-04-12T08:39:50.059Z</time></trkpt><trkpt lat="33.8072695" lon="7.7622894"><ele>20.0</ele><time>2026-04-12T08:39:51.071Z</time></trkpt><trkpt lat="33.8070961" lon="7.7622316"><ele>20.0</ele><time>2026-04-12T08:39:52.064Z</time></trkpt><trkpt lat="33.8069228" lon="7.7621714"><ele>20.0</ele><time>2026-04-12T08:39:53.063Z</time></trkpt><trkpt lat="33.8067474" lon="7.7621106"><ele>20.0</ele><time>2026-04-12T08:39:54.069Z</time></trkpt><trkpt lat="33.8065686" lon="7.7620462"><ele>20.333333333333336</ele><time>2026-04-12T08:39:55.059Z</time></trkpt><trkpt lat="33.8063917" lon="7.761981"><ele>20.666666666666668</ele><time>2026-04-12T08:39:56.063Z</time></trkpt><trkpt lat="33.8062128" lon="7.7619175"><ele>21.0</ele><time>2026-04-12T08:39:57.054Z</time></trkpt><trkpt lat="33.8060335" lon="7.761854"><ele>21.666666666666668</ele><time>2026-04-12T08:39:58.056Z</time></trkpt><trkpt lat="33.8058614" lon="7.7617889"><ele>22.333333333333336</ele><time>2026-04-12T08:39:59.064Z</time></trkpt><trkpt lat="33.8056913" lon="7.7617203"><ele>23.0</ele><time>2026-04-12T08:40:00.06Z</time></trkpt><trkpt lat="33.8055224" lon="7.7616549"><ele>23.0</ele><time>2026-04-12T08:40:01.058Z</time></trkpt><trkpt lat="33.80535" lon="7.7615936"><ele>23.0</ele><time>2026-04-12T08:40:02.075Z</time></trkpt><trkpt lat="33.8051852" lon="7.7615316"><ele>23.0</ele><time>2026-04-12T08:40:03.058Z</time></trkpt><trkpt lat="33.8050216" lon="7.7614721"><ele>22.333333333333336</ele><time>2026-04-12T08:40:04.071Z</time></trkpt><trkpt lat="33.8048522" lon="7.7614167"><ele>21.666666666666668</ele><time>2026-04-12T08:40:05.058Z</time></trkpt><trkpt lat="33.8046858" lon="7.761362"><ele>21.0</ele><time>2026-04-12T08:40:06.055Z</time></trkpt><trkpt lat="33.8045211" lon="7.7613086"><ele>21.0</ele><time>2026-04-12T08:40:07.05Z</time></trkpt><trkpt lat="33.8043542" lon="7.7612618"><ele>21.0</ele><time>2026-04-12T08:40:08.057Z</time></trkpt><trkpt lat="33.8041818" lon="7.7612063"><ele>21.0</ele><time>2026-04-12T08:40:09.06Z</time></trkpt><trkpt lat="33.8040065" lon="7.7611467"><ele>21.0</ele><time>2026-04-12T08:40:10.062Z</time></trkpt><trkpt lat="33.803831" lon="7.761087"><ele>21.0</ele><time>2026-04-12T08:40:11.058Z</time></trkpt><trkpt lat="33.8036553" lon="7.7610241"><ele>21.0</ele><time>2026-04-12T08:40:12.064Z</time></trkpt><trkpt lat="33.8034784" lon="7.7609574"><ele>21.333333333333332</ele><time>2026-04-12T08:40:13.058Z</time></trkpt><trkpt lat="33.8033027" lon="7.7608933"><ele>21.666666666666664</ele><time>2026-04-12T08:40:14.068Z</time></trkpt><trkpt lat="33.803125" lon="7.7608285"><ele>22.0</ele><time>2026-04-12T08:40:15.053Z</time></trkpt><trkpt lat="33.8029524" lon="7.7607598"><ele>22.0</ele><time>2026-04-12T08:40:16.052Z</time></trkpt><trkpt lat="33.802778" lon="7.7606924"><ele>22.0</ele><time>2026-04-12T08:40:17.063Z</time></trkpt><trkpt lat="33.8026045" lon="7.7606258"><ele>22.0</ele><time>2026-04-12T08:40:18.059Z</time></trkpt><trkpt lat="33.8024329" lon="7.7605645"><ele>22.333333333333332</ele><time>2026-04-12T08:40:19.059Z</time></trkpt><trkpt lat="33.8022605" lon="7.7605088"><ele>22.666666666666668</ele><time>2026-04-12T08:40:20.056Z</time></trkpt><trkpt lat="33.8020892" lon="7.7604526"><ele>23.0</ele><time>2026-04-12T08:40:21.056Z</time></trkpt><trkpt lat="33.8019202" lon="7.7603927"><ele>22.0</ele><time>2026-04-12T08:40:22.054Z</time></trkpt><trkpt lat="33.8017549" lon="7.760331"><ele>21.0</ele><time>2026-04-12T08:40:23.056Z</time></trkpt><trkpt lat="33.8015894" lon="7.7602665"><ele>20.0</ele><time>2026-04-12T08:40:24.062Z</time></trkpt><trkpt lat="33.8014281" lon="7.7602038"><ele>20.0</ele><time>2026-04-12T08:40:25.06Z</time></trkpt><trkpt lat="33.8012669" lon="7.760141"><ele>20.0</ele><time>2026-04-12T08:40:26.063Z</time></trkpt><trkpt lat="33.8011045" lon="7.7600781"><ele>20.0</ele><time>2026-04-12T08:40:27.057Z</time></trkpt><trkpt lat="33.8009408" lon="7.7600154"><ele>19.666666666666668</ele><time>2026-04-12T08:40:28.061Z</time></trkpt><trkpt lat="33.80078" lon="7.7599541"><ele>19.333333333333332</ele><time>2026-04-12T08:40:29.065Z</time></trkpt><trkpt lat="33.8006206" lon="7.7598951"><ele>19.0</ele><time>2026-04-12T08:40:30.061Z</time></trkpt><trkpt lat="33.8004649" lon="7.7598362"><ele>19.0</ele><time>2026-04-12T08:40:31.061Z</time></trkpt><trkpt lat="33.8003111" lon="7.7597767"><ele>19.0</ele><time>2026-04-12T08:40:32.063Z</time></trkpt><trkpt lat="33.8001564" lon="7.7597153"><ele>19.0</ele><time>2026-04-12T08:40:33.076Z</time></trkpt><trkpt lat="33.8000065" lon="7.7596541"><ele>19.666666666666664</ele><time>2026-04-12T08:40:34.069Z</time></trkpt><trkpt lat="33.7998515" lon="7.7595954"><ele>20.333333333333332</ele><time>2026-04-12T08:40:35.064Z</time></trkpt><trkpt lat="33.7996937" lon="7.7595322"><ele>21.0</ele><time>2026-04-12T08:40:36.058Z</time></trkpt><trkpt lat="33.7995367" lon="7.7594675"><ele>21.0</ele><time>2026-04-12T08:40:37.062Z</time></trkpt><trkpt lat="33.7993816" lon="7.7593986"><ele>21.0</ele><time>2026-04-12T08:40:38.057Z</time></trkpt><trkpt lat="33.7992275" lon="7.7593268"><ele>21.0</ele><time>2026-04-12T08:40:39.058Z</time></trkpt><trkpt lat="33.7990775" lon="7.7592507"><ele>21.0</ele><time>2026-04-12T08:40:40.057Z</time></trkpt><trkpt lat="33.7989297" lon="7.7591753"><ele>21.0</ele><time>2026-04-12T08:40:41.059Z</time></trkpt><trkpt lat="33.7987851" lon="7.7591029"><ele>21.0</ele><time>2026-04-12T08:40:42.052Z</time></trkpt><trkpt lat="33.7986429" lon="7.7590324"><ele>21.0</ele><time>2026-04-12T08:40:43.051Z</time></trkpt><trkpt lat="33.7985074" lon="7.7589659"><ele>21.0</ele><time>2026-04-12T08:40:44.066Z</time></trkpt><trkpt lat="33.7983764" lon="7.7589066"><ele>21.0</ele><time>2026-04-12T08:40:45.05Z</time></trkpt><trkpt lat="33.7982455" lon="7.7588496"><ele>21.0</ele><time>2026-04-12T08:40:46.053Z</time></trkpt><trkpt lat="33.7981141" lon="7.7587908"><ele>21.0</ele><time>2026-04-12T08:40:47.054Z</time></trkpt><trkpt lat="33.797985" lon="7.7587334"><ele>21.0</ele><time>2026-04-12T08:40:48.046Z</time></trkpt><trkpt lat="33.7978627" lon="7.7586788"><ele>21.0</ele><time>2026-04-12T08:40:49.055Z</time></trkpt><trkpt lat="33.7977403" lon="7.7586258"><ele>21.0</ele><time>2026-04-12T08:40:50.058Z</time></trkpt><trkpt lat="33.797624" lon="7.7585763"><ele>21.0</ele><time>2026-04-12T08:40:51.055Z</time></trkpt><trkpt lat="33.7975103" lon="7.7585309"><ele>21.0</ele><time>2026-04-12T08:40:52.055Z</time></trkpt><trkpt lat="33.7973945" lon="7.758489"><ele>21.0</ele><time>2026-04-12T08:40:53.056Z</time></trkpt><trkpt lat="33.7972774" lon="7.7584447"><ele>21.0</ele><time>2026-04-12T08:40:54.066Z</time></trkpt><trkpt lat="33.7971597" lon="7.7584045"><ele>21.0</ele><time>2026-04-12T08:40:55.063Z</time></trkpt><trkpt lat="33.7970323" lon="7.7583669"><ele>21.0</ele><time>2026-04-12T08:40:56.06Z</time></trkpt><trkpt lat="33.7969027" lon="7.7583311"><ele>21.0</ele><time>2026-04-12T08:40:57.059Z</time></trkpt><trkpt lat="33.7967703" lon="7.7582986"><ele>21.0</ele><time>2026-04-12T08:40:58.049Z</time></trkpt><trkpt lat="33.7966381" lon="7.7582692"><ele>20.75</ele><time>2026-04-12T08:40:59.06Z</time></trkpt><trkpt lat="33.7965079" lon="7.7582426"><ele>20.5</ele><time>2026-04-12T08:41:00.053Z</time></trkpt><trkpt lat="33.796379" lon="7.758218"><ele>20.25</ele><time>2026-04-12T08:41:01.048Z</time></trkpt><trkpt lat="33.796249" lon="7.7581951"><ele>20.0</ele><time>2026-04-12T08:41:02.057Z</time></trkpt><trkpt lat="33.7961214" lon="7.7581724"><ele>20.0</ele><time>2026-04-12T08:41:03.06Z</time></trkpt><trkpt lat="33.7959936" lon="7.7581523"><ele>20.0</ele><time>2026-04-12T08:41:04.097Z</time></trkpt><trkpt lat="33.7958658" lon="7.7581317"><ele>20.0</ele><time>2026-04-12T08:41:05.059Z</time></trkpt><trkpt lat="33.7957386" lon="7.7581104"><ele>20.0</ele><time>2026-04-12T08:41:06.06Z</time></trkpt><trkpt lat="33.7956159" lon="7.7580903"><ele>20.0</ele><time>2026-04-12T08:41:07.056Z</time></trkpt><trkpt lat="33.7955052" lon="7.7580745"><ele>20.0</ele><time>2026-04-12T08:41:08.057Z</time></trkpt><trkpt lat="33.7954046" lon="7.7580635"><ele>20.0</ele><time>2026-04-12T08:41:09.053Z</time></trkpt><trkpt lat="33.7953058" lon="7.7580513"><ele>20.0</ele><time>2026-04-12T08:41:10.05Z</time></trkpt><trkpt lat="33.7952075" lon="7.7580382"><ele>20.0</ele><time>2026-04-12T08:41:11.049Z</time></trkpt><trkpt lat="33.7951098" lon="7.7580166"><ele>20.0</ele><time>2026-04-12T08:41:12.041Z</time></trkpt><trkpt lat="33.7950145" lon="7.7579807"><ele>20.0</ele><time>2026-04-12T08:41:13.043Z</time></trkpt><trkpt lat="33.7949226" lon="7.7579304"><ele>20.0</ele><time>2026-04-12T08:41:14.052Z</time></trkpt><trkpt lat="33.7948304" lon="7.7578715"><ele>20.0</ele><time>2026-04-12T08:41:15.026Z</time></trkpt><trkpt lat="33.7947352" lon="7.7577954"><ele>20.0</ele><time>2026-04-12T08:41:16.026Z</time></trkpt><trkpt lat="33.7946414" lon="7.7577163"><ele>20.2</ele><time>2026-04-12T08:41:17.032Z</time></trkpt><trkpt lat="33.7945496" lon="7.757639"><ele>20.4</ele><time>2026-04-12T08:41:18.029Z</time></trkpt><trkpt lat="33.7944668" lon="7.7575657"><ele>20.6</ele><time>2026-04-12T08:41:19.051Z</time></trkpt><trkpt lat="33.7943871" lon="7.7574965"><ele>20.8</ele><time>2026-04-12T08:41:20.043Z</time></trkpt><trkpt lat="33.7943018" lon="7.7574308"><ele>21.0</ele><time>2026-04-12T08:41:21.042Z</time></trkpt><trkpt lat="33.7942137" lon="7.7573692"><ele>21.0</ele><time>2026-04-12T08:41:22.051Z</time></trkpt><trkpt lat="33.7941213" lon="7.757306"><ele>21.0</ele><time>2026-04-12T08:41:23.043Z</time></trkpt><trkpt lat="33.7940276" lon="7.7572446"><ele>21.0</ele><time>2026-04-12T08:41:24.055Z</time></trkpt><trkpt lat="33.793928" lon="7.7571818"><ele>21.0</ele><time>2026-04-12T08:41:25.049Z</time></trkpt><trkpt lat="33.7938238" lon="7.7571205"><ele>21.0</ele><time>2026-04-12T08:41:26.048Z</time></trkpt><trkpt lat="33.7937163" lon="7.7570608"><ele>21.0</ele><time>2026-04-12T08:41:27.05Z</time></trkpt><trkpt lat="33.7936025" lon="7.7570046"><ele>21.0</ele><time>2026-04-12T08:41:28.045Z</time></trkpt><trkpt lat="33.7934835" lon="7.7569468"><ele>21.0</ele><time>2026-04-12T08:41:29.051Z</time></trkpt><trkpt lat="33.7933642" lon="7.7568898"><ele>21.0</ele><time>2026-04-12T08:41:30.045Z</time></trkpt><trkpt lat="33.7932469" lon="7.7568353"><ele>21.0</ele><time>2026-04-12T08:41:31.054Z</time></trkpt><trkpt lat="33.7931295" lon="7.7567789"><ele>21.0</ele><time>2026-04-12T08:41:32.055Z</time></trkpt><trkpt lat="33.7930172" lon="7.7567243"><ele>21.0</ele><time>2026-04-12T08:41:33.05Z</time></trkpt><trkpt lat="33.7929194" lon="7.7566767"><ele>21.0</ele><time>2026-04-12T08:41:34.064Z</time></trkpt><trkpt lat="33.7928283" lon="7.7566301"><ele>21.0</ele><time>2026-04-12T08:41:35.049Z</time></trkpt><trkpt lat="33.7927353" lon="7.7565863"><ele>21.0</ele><time>2026-04-12T08:41:36.052Z</time></trkpt><trkpt lat="33.7926367" lon="7.7565419"><ele>21.0</ele><time>2026-04-12T08:41:37.054Z</time></trkpt><trkpt lat="33.792532" lon="7.7564934"><ele>21.0</ele><time>2026-04-12T08:41:38.054Z</time></trkpt><trkpt lat="33.7924344" lon="7.7564489"><ele>21.0</ele><time>2026-04-12T08:41:39.054Z</time></trkpt><trkpt lat="33.7923306" lon="7.7564029"><ele>21.0</ele><time>2026-04-12T08:41:40.055Z</time></trkpt><trkpt lat="33.7922272" lon="7.7563559"><ele>21.0</ele><time>2026-04-12T08:41:41.059Z</time></trkpt><trkpt lat="33.7921231" lon="7.7563097"><ele>21.0</ele><time>2026-04-12T08:41:42.052Z</time></trkpt><trkpt lat="33.7920176" lon="7.7562632"><ele>21.0</ele><time>2026-04-12T08:41:43.056Z</time></trkpt><trkpt lat="33.7919101" lon="7.7562166"><ele>21.0</ele><time>2026-04-12T08:41:44.066Z</time></trkpt><trkpt lat="33.7918025" lon="7.7561677"><ele>21.0</ele><time>2026-04-12T08:41:45.052Z</time></trkpt><trkpt lat="33.7916952" lon="7.7561193"><ele>21.0</ele><time>2026-04-12T08:41:46.057Z</time></trkpt><trkpt lat="33.7915985" lon="7.7560772"><ele>21.0</ele><time>2026-04-12T08:41:47.053Z</time></trkpt><trkpt lat="33.791503" lon="7.756039"><ele>21.0</ele><time>2026-04-12T08:41:48.054Z</time></trkpt><trkpt lat="33.7914162" lon="7.7560054"><ele>21.0</ele><time>2026-04-12T08:41:49.052Z</time></trkpt><trkpt lat="33.7913414" lon="7.7559756"><ele>21.0</ele><time>2026-04-12T08:41:50.048Z</time></trkpt><trkpt lat="33.7912677" lon="7.7559471"><ele>21.0</ele><time>2026-04-12T08:41:51.055Z</time></trkpt><trkpt lat="33.7911482" lon="7.7559035"><ele>21.0</ele><time>2026-04-12T08:41:53.054Z</time></trkpt><trkpt lat="33.7910613" lon="7.7558737"><ele>21.0</ele><time>2026-04-12T08:41:55.051Z</time></trkpt><trkpt lat="33.7909875" lon="7.7558449"><ele>21.0</ele><time>2026-04-12T08:41:58.051Z</time></trkpt><trkpt lat="33.7909194" lon="7.7558278"><ele>21.0</ele><time>2026-04-12T08:44:07.042Z</time></trkpt><trkpt lat="33.7908269" lon="7.7558019"><ele>21.200000000000003</ele><time>2026-04-12T08:44:09.063Z</time></trkpt><trkpt lat="33.7907642" lon="7.7557488"><ele>21.400000000000002</ele><time>2026-04-12T08:44:12.042Z</time></trkpt><trkpt lat="33.790682" lon="7.7557138"><ele>21.6</ele><time>2026-04-12T08:44:14.049Z</time></trkpt><trkpt lat="33.790589" lon="7.7556707"><ele>21.8</ele><time>2026-04-12T08:44:16.05Z</time></trkpt><trkpt lat="33.7904733" lon="7.7556254"><ele>22.0</ele><time>2026-04-12T08:44:18.048Z</time></trkpt><trkpt lat="33.7904119" lon="7.7555981"><ele>22.0</ele><time>2026-04-12T08:44:19.047Z</time></trkpt><trkpt lat="33.7903489" lon="7.7555726"><ele>22.0</ele><time>2026-04-12T08:44:20.053Z</time></trkpt><trkpt lat="33.790284" lon="7.755545"><ele>22.0</ele><time>2026-04-12T08:44:21.05Z</time></trkpt><trkpt lat="33.7902154" lon="7.7555164"><ele>22.0</ele><time>2026-04-12T08:44:22.049Z</time></trkpt><trkpt lat="33.790144" lon="7.755489"><ele>22.0</ele><time>2026-04-12T08:44:23.052Z</time></trkpt><trkpt lat="33.7900687" lon="7.7554609"><ele>22.0</ele><time>2026-04-12T08:44:24.054Z</time></trkpt><trkpt lat="33.7899893" lon="7.755433"><ele>22.0</ele><time>2026-04-12T08:44:25.05Z</time></trkpt><trkpt lat="33.7899086" lon="7.7554046"><ele>21.833333333333332</ele><time>2026-04-12T08:44:26.055Z</time></trkpt><trkpt lat="33.7898372" lon="7.7553889"><ele>21.666666666666664</ele><time>2026-04-12T08:44:27.055Z</time></trkpt><trkpt lat="33.7897585" lon="7.7553638"><ele>21.5</ele><time>2026-04-12T08:44:28.052Z</time></trkpt><trkpt lat="33.7896763" lon="7.7553362"><ele>21.333333333333332</ele><time>2026-04-12T08:44:29.056Z</time></trkpt><trkpt lat="33.7895904" lon="7.7553077"><ele>21.166666666666668</ele><time>2026-04-12T08:44:30.053Z</time></trkpt><trkpt lat="33.7895041" lon="7.7552795"><ele>21.0</ele><time>2026-04-12T08:44:31.055Z</time></trkpt><trkpt lat="33.7894164" lon="7.7552491"><ele>20.8</ele><time>2026-04-12T08:44:32.054Z</time></trkpt><trkpt lat="33.7893251" lon="7.7552174"><ele>20.6</ele><time>2026-04-12T08:44:33.055Z</time></trkpt><trkpt lat="33.7892288" lon="7.7551831"><ele>20.4</ele><time>2026-04-12T08:44:34.051Z</time></trkpt><trkpt lat="33.7891288" lon="7.7551471"><ele>20.2</ele><time>2026-04-12T08:44:35.054Z</time></trkpt><trkpt lat="33.7890285" lon="7.7551091"><ele>20.0</ele><time>2026-04-12T08:44:36.054Z</time></trkpt><trkpt lat="33.7889256" lon="7.7550679"><ele>20.0</ele><time>2026-04-12T08:44:37.056Z</time></trkpt><trkpt lat="33.7888217" lon="7.7550278"><ele>20.0</ele><time>2026-04-12T08:44:38.054Z</time></trkpt><trkpt lat="33.7887172" lon="7.754988"><ele>20.0</ele><time>2026-04-12T08:44:39.053Z</time></trkpt><trkpt lat="33.7886119" lon="7.7549479"><ele>20.0</ele><time>2026-04-12T08:44:40.07Z</time></trkpt><trkpt lat="33.7885031" lon="7.7549094"><ele>20.0</ele><time>2026-04-12T08:44:41.049Z</time></trkpt><trkpt lat="33.7883919" lon="7.7548738"><ele>20.25</ele><time>2026-04-12T08:44:42.05Z</time></trkpt><trkpt lat="33.7882831" lon="7.7548354"><ele>20.5</ele><time>2026-04-12T08:44:43.045Z</time></trkpt><trkpt lat="33.7881741" lon="7.7547992"><ele>20.75</ele><time>2026-04-12T08:44:44.05Z</time></trkpt><trkpt lat="33.7880648" lon="7.7547582"><ele>21.0</ele><time>2026-04-12T08:44:45.046Z</time></trkpt><trkpt lat="33.7879473" lon="7.754715"><ele>21.0</ele><time>2026-04-12T08:44:46.047Z</time></trkpt><trkpt lat="33.7878255" lon="7.7546716"><ele>21.0</ele><time>2026-04-12T08:44:47.047Z</time></trkpt><trkpt lat="33.7876971" lon="7.7546238"><ele>21.0</ele><time>2026-04-12T08:44:48.047Z</time></trkpt><trkpt lat="33.7875625" lon="7.7545738"><ele>21.0</ele><time>2026-04-12T08:44:49.053Z</time></trkpt><trkpt lat="33.7874218" lon="7.7545233"><ele>21.0</ele><time>2026-04-12T08:44:50.05Z</time></trkpt><trkpt lat="33.7872833" lon="7.7544725"><ele>21.0</ele><time>2026-04-12T08:44:51.054Z</time></trkpt><trkpt lat="33.7871474" lon="7.7544231"><ele>21.0</ele><time>2026-04-12T08:44:52.059Z</time></trkpt><trkpt lat="33.7870203" lon="7.7543772"><ele>21.0</ele><time>2026-04-12T08:44:53.056Z</time></trkpt><trkpt lat="33.786898" lon="7.7543324"><ele>21.25</ele><time>2026-04-12T08:44:54.067Z</time></trkpt><trkpt lat="33.7867771" lon="7.7542889"><ele>21.5</ele><time>2026-04-12T08:44:55.063Z</time></trkpt><trkpt lat="33.7866625" lon="7.7542463"><ele>21.75</ele><time>2026-04-12T08:44:56.062Z</time></trkpt><trkpt lat="33.7865453" lon="7.7542048"><ele>22.0</ele><time>2026-04-12T08:44:57.063Z</time></trkpt><trkpt lat="33.7864294" lon="7.7541633"><ele>22.0</ele><time>2026-04-12T08:44:58.061Z</time></trkpt><trkpt lat="33.7863138" lon="7.7541208"><ele>22.0</ele><time>2026-04-12T08:44:59.069Z</time></trkpt><trkpt lat="33.7861996" lon="7.7540819"><ele>22.0</ele><time>2026-04-12T08:45:00.063Z</time></trkpt><trkpt lat="33.78608" lon="7.7540413"><ele>22.0</ele><time>2026-04-12T08:45:01.068Z</time></trkpt><trkpt lat="33.7859587" lon="7.7540011"><ele>21.75</ele><time>2026-04-12T08:45:02.064Z</time></trkpt><trkpt lat="33.7858366" lon="7.7539594"><ele>21.5</ele><time>2026-04-12T08:45:03.06Z</time></trkpt><trkpt lat="33.785717" lon="7.7539179"><ele>21.25</ele><time>2026-04-12T08:45:04.058Z</time></trkpt><trkpt lat="33.7856044" lon="7.7538792"><ele>21.0</ele><time>2026-04-12T08:45:05.06Z</time></trkpt><trkpt lat="33.7854859" lon="7.7538387"><ele>21.0</ele><time>2026-04-12T08:45:06.063Z</time></trkpt><trkpt lat="33.7853675" lon="7.753799"><ele>21.0</ele><time>2026-04-12T08:45:07.063Z</time></trkpt><trkpt lat="33.7852486" lon="7.7537589"><ele>21.0</ele><time>2026-04-12T08:45:08.064Z</time></trkpt><trkpt lat="33.785127" lon="7.7537178"><ele>21.0</ele><time>2026-04-12T08:45:09.068Z</time></trkpt><trkpt lat="33.7850057" lon="7.7536774"><ele>20.75</ele><time>2026-04-12T08:45:10.07Z</time></trkpt><trkpt lat="33.7848806" lon="7.7536366"><ele>20.5</ele><time>2026-04-12T08:45:11.088Z</time></trkpt><trkpt lat="33.7847567" lon="7.7535959"><ele>20.25</ele><time>2026-04-12T08:45:12.071Z</time></trkpt><trkpt lat="33.7846348" lon="7.7535554"><ele>20.0</ele><time>2026-04-12T08:45:13.068Z</time></trkpt><trkpt lat="33.7845107" lon="7.7535153"><ele>20.5</ele><time>2026-04-12T08:45:14.068Z</time></trkpt><trkpt lat="33.7843824" lon="7.7534763"><ele>21.0</ele><time>2026-04-12T08:45:15.071Z</time></trkpt><trkpt lat="33.7842533" lon="7.753438"><ele>21.5</ele><time>2026-04-12T08:45:16.073Z</time></trkpt><trkpt lat="33.7841266" lon="7.7533974"><ele>22.0</ele><time>2026-04-12T08:45:17.081Z</time></trkpt><trkpt lat="33.783998" lon="7.7533558"><ele>22.0</ele><time>2026-04-12T08:45:18.075Z</time></trkpt><trkpt lat="33.7838691" lon="7.7533158"><ele>22.0</ele><time>2026-04-12T08:45:19.076Z</time></trkpt><trkpt lat="33.7837408" lon="7.7532788"><ele>22.0</ele><time>2026-04-12T08:45:20.071Z</time></trkpt><trkpt lat="33.7836127" lon="7.7532426"><ele>22.0</ele><time>2026-04-12T08:45:21.073Z</time></trkpt><trkpt lat="33.783485" lon="7.7532046"><ele>22.0</ele><time>2026-04-12T08:45:22.067Z</time></trkpt><trkpt lat="33.7833581" lon="7.7531667"><ele>22.0</ele><time>2026-04-12T08:45:23.074Z</time></trkpt><trkpt lat="33.7832332" lon="7.7531272"><ele>22.0</ele><time>2026-04-12T08:45:24.067Z</time></trkpt><trkpt lat="33.7831087" lon="7.7530876"><ele>22.0</ele><time>2026-04-12T08:45:25.071Z</time></trkpt><trkpt lat="33.7829847" lon="7.7530469"><ele>22.0</ele><time>2026-04-12T08:45:26.07Z</time></trkpt><trkpt lat="33.782863" lon="7.7530077"><ele>22.0</ele><time>2026-04-12T08:45:27.075Z</time></trkpt><trkpt lat="33.7827404" lon="7.7529674"><ele>22.0</ele><time>2026-04-12T08:45:28.071Z</time></trkpt><trkpt lat="33.7826191" lon="7.7529246"><ele>22.0</ele><time>2026-04-12T08:45:29.076Z</time></trkpt><trkpt lat="33.7825027" lon="7.7528838"><ele>21.8</ele><time>2026-04-12T08:45:30.073Z</time></trkpt><trkpt lat="33.7823934" lon="7.7528455"><ele>21.6</ele><time>2026-04-12T08:45:31.076Z</time></trkpt><trkpt lat="33.7822853" lon="7.7528081"><ele>21.400000000000002</ele><time>2026-04-12T08:45:32.072Z</time></trkpt><trkpt lat="33.7821785" lon="7.7527727"><ele>21.200000000000003</ele><time>2026-04-12T08:45:33.07Z</time></trkpt><trkpt lat="33.7820709" lon="7.7527362"><ele>21.0</ele><time>2026-04-12T08:45:34.073Z</time></trkpt><trkpt lat="33.7819619" lon="7.752698"><ele>21.0</ele><time>2026-04-12T08:45:35.075Z</time></trkpt><trkpt lat="33.7818517" lon="7.7526597"><ele>21.0</ele><time>2026-04-12T08:45:36.069Z</time></trkpt><trkpt lat="33.7817396" lon="7.7526201"><ele>21.0</ele><time>2026-04-12T08:45:37.064Z</time></trkpt><trkpt lat="33.781623" lon="7.7525801"><ele>21.0</ele><time>2026-04-12T08:45:38.06Z</time></trkpt><trkpt lat="33.7815052" lon="7.7525405"><ele>21.0</ele><time>2026-04-12T08:45:39.064Z</time></trkpt><trkpt lat="33.7813845" lon="7.7524973"><ele>21.0</ele><time>2026-04-12T08:45:40.058Z</time></trkpt><trkpt lat="33.7812616" lon="7.7524543"><ele>21.0</ele><time>2026-04-12T08:45:41.068Z</time></trkpt><trkpt lat="33.7811423" lon="7.7524166"><ele>21.0</ele><time>2026-04-12T08:45:42.07Z</time></trkpt><trkpt lat="33.7810294" lon="7.7523799"><ele>20.833333333333332</ele><time>2026-04-12T08:45:43.063Z</time></trkpt><trkpt lat="33.7809261" lon="7.7523465"><ele>20.666666666666668</ele><time>2026-04-12T08:45:44.065Z</time></trkpt><trkpt lat="33.7808332" lon="7.7523172"><ele>20.5</ele><time>2026-04-12T08:45:45.066Z</time></trkpt><trkpt lat="33.7807565" lon="7.7522955"><ele>20.333333333333336</ele><time>2026-04-12T08:45:46.059Z</time></trkpt><trkpt lat="33.7806934" lon="7.7522781"><ele>20.166666666666668</ele><time>2026-04-12T08:45:47.061Z</time></trkpt><trkpt lat="33.7806007" lon="7.7522539"><ele>20.0</ele><time>2026-04-12T08:45:49.061Z</time></trkpt><trkpt lat="33.780517" lon="7.7522405"><ele>20.0</ele><time>2026-04-12T08:45:52.073Z</time></trkpt><trkpt lat="33.7804514" lon="7.7522297"><ele>20.0</ele><time>2026-04-12T08:45:57.07Z</time></trkpt><trkpt lat="33.7803874" lon="7.7522295"><ele>20.0</ele><time>2026-04-12T08:46:09.07Z</time></trkpt><trkpt lat="33.7802774" lon="7.7522105"><ele>20.0</ele><time>2026-04-12T08:46:11.074Z</time></trkpt><trkpt lat="33.7801654" lon="7.7521925"><ele>20.0</ele><time>2026-04-12T08:46:13.083Z</time></trkpt><trkpt lat="33.7800991" lon="7.7521871"><ele>20.0</ele><time>2026-04-12T08:46:14.07Z</time></trkpt><trkpt lat="33.7799857" lon="7.7521875"><ele>20.166666666666668</ele><time>2026-04-12T08:46:16.065Z</time></trkpt><trkpt lat="33.7798976" lon="7.7521853"><ele>20.333333333333336</ele><time>2026-04-12T08:46:17.068Z</time></trkpt><trkpt lat="33.77979" lon="7.7521738"><ele>20.5</ele><time>2026-04-12T08:46:18.07Z</time></trkpt><trkpt lat="33.7796956" lon="7.7521703"><ele>20.666666666666668</ele><time>2026-04-12T08:46:19.047Z</time></trkpt><trkpt lat="33.7796128" lon="7.7521667"><ele>20.833333333333332</ele><time>2026-04-12T08:46:20.05Z</time></trkpt><trkpt lat="33.7795426" lon="7.7521618"><ele>21.0</ele><time>2026-04-12T08:46:21.045Z</time></trkpt><trkpt lat="33.7794425" lon="7.7521581"><ele>21.0</ele><time>2026-04-12T08:46:23.061Z</time></trkpt><trkpt lat="33.7793648" lon="7.7521539"><ele>21.0</ele><time>2026-04-12T08:46:26.068Z</time></trkpt><trkpt lat="33.7793008" lon="7.7521345"><ele>21.0</ele><time>2026-04-12T08:46:31.077Z</time></trkpt><trkpt lat="33.7792188" lon="7.7521304"><ele>21.0</ele><time>2026-04-12T08:46:52.068Z</time></trkpt><trkpt lat="33.7791111" lon="7.7521363"><ele>21.0</ele><time>2026-04-12T08:46:54.072Z</time></trkpt><trkpt lat="33.77904" lon="7.7521406"><ele>21.0</ele><time>2026-04-12T08:46:55.066Z</time></trkpt><trkpt lat="33.7789564" lon="7.7521457"><ele>21.0</ele><time>2026-04-12T08:46:56.061Z</time></trkpt><trkpt lat="33.7788678" lon="7.752155"><ele>21.0</ele><time>2026-04-12T08:46:57.058Z</time></trkpt><trkpt lat="33.7787789" lon="7.7521632"><ele>21.0</ele><time>2026-04-12T08:46:58.063Z</time></trkpt><trkpt lat="33.7786841" lon="7.7521702"><ele>21.0</ele><time>2026-04-12T08:46:59.063Z</time></trkpt><trkpt lat="33.7785857" lon="7.7521709"><ele>21.0</ele><time>2026-04-12T08:47:00.064Z</time></trkpt><trkpt lat="33.7784718" lon="7.7521711"><ele>21.0</ele><time>2026-04-12T08:47:01.063Z</time></trkpt><trkpt lat="33.7783742" lon="7.7521597"><ele>21.0</ele><time>2026-04-12T08:47:02.063Z</time></trkpt><trkpt lat="33.7782743" lon="7.7521465"><ele>21.0</ele><time>2026-04-12T08:47:03.069Z</time></trkpt><trkpt lat="33.7781746" lon="7.752133"><ele>21.0</ele><time>2026-04-12T08:47:04.063Z</time></trkpt><trkpt lat="33.7780709" lon="7.7521187"><ele>21.0</ele><time>2026-04-12T08:47:05.065Z</time></trkpt><trkpt lat="33.777957" lon="7.7521033"><ele>21.0</ele><time>2026-04-12T08:47:06.061Z</time></trkpt><trkpt lat="33.7778505" lon="7.7520809"><ele>21.0</ele><time>2026-04-12T08:47:07.062Z</time></trkpt><trkpt lat="33.7777488" lon="7.7520555"><ele>21.0</ele><time>2026-04-12T08:47:08.071Z</time></trkpt><trkpt lat="33.7776544" lon="7.7520368"><ele>21.0</ele><time>2026-04-12T08:47:09.065Z</time></trkpt><trkpt lat="33.777567" lon="7.7520251"><ele>21.0</ele><time>2026-04-12T08:47:10.063Z</time></trkpt><trkpt lat="33.7774747" lon="7.7520282"><ele>21.0</ele><time>2026-04-12T08:47:11.059Z</time></trkpt><trkpt lat="33.7773777" lon="7.7520431"><ele>21.0</ele><time>2026-04-12T08:47:12.07Z</time></trkpt><trkpt lat="33.7772719" lon="7.7520367"><ele>21.0</ele><time>2026-04-12T08:47:12.984Z</time></trkpt><trkpt lat="33.7771789" lon="7.7520533"><ele>21.0</ele><time>2026-04-12T08:47:13.98Z</time></trkpt><trkpt lat="33.7770894" lon="7.7520761"><ele>21.0</ele><time>2026-04-12T08:47:14.992Z</time></trkpt><trkpt lat="33.776989" lon="7.7520781"><ele>21.0</ele><time>2026-04-12T08:47:15.979Z</time></trkpt><trkpt lat="33.7768903" lon="7.75209"><ele>21.0</ele><time>2026-04-12T08:47:16.981Z</time></trkpt><trkpt lat="33.7767858" lon="7.7521068"><ele>21.0</ele><time>2026-04-12T08:47:17.979Z</time></trkpt><trkpt lat="33.7766706" lon="7.752127"><ele>21.0</ele><time>2026-04-12T08:47:18.983Z</time></trkpt><trkpt lat="33.7765639" lon="7.7521566"><ele>21.0</ele><time>2026-04-12T08:47:19.976Z</time></trkpt><trkpt lat="33.7764639" lon="7.7521877"><ele>21.0</ele><time>2026-04-12T08:47:20.979Z</time></trkpt><trkpt lat="33.7763685" lon="7.7522099"><ele>21.0</ele><time>2026-04-12T08:47:21.977Z</time></trkpt><trkpt lat="33.7762641" lon="7.7522346"><ele>21.0</ele><time>2026-04-12T08:47:22.976Z</time></trkpt><trkpt lat="33.7761674" lon="7.7522563"><ele>21.0</ele><time>2026-04-12T08:47:23.98Z</time></trkpt><trkpt lat="33.7760676" lon="7.7522811"><ele>21.0</ele><time>2026-04-12T08:47:24.979Z</time></trkpt><trkpt lat="33.7759726" lon="7.7523293"><ele>21.0</ele><time>2026-04-12T08:47:25.979Z</time></trkpt><trkpt lat="33.7758864" lon="7.7523825"><ele>21.0</ele><time>2026-04-12T08:47:26.982Z</time></trkpt><trkpt lat="33.7757884" lon="7.7524476"><ele>21.0</ele><time>2026-04-12T08:47:27.981Z</time></trkpt><trkpt lat="33.7756903" lon="7.7525106"><ele>21.0</ele><time>2026-04-12T08:47:28.981Z</time></trkpt><trkpt lat="33.7755941" lon="7.7525608"><ele>21.0</ele><time>2026-04-12T08:47:29.965Z</time></trkpt><trkpt lat="33.7754902" lon="7.7525987"><ele>21.0</ele><time>2026-04-12T08:47:30.972Z</time></trkpt><trkpt lat="33.7753734" lon="7.7526226"><ele>21.0</ele><time>2026-04-12T08:47:31.961Z</time></trkpt><trkpt lat="33.7752484" lon="7.7526306"><ele>21.0</ele><time>2026-04-12T08:47:32.979Z</time></trkpt><trkpt lat="33.7751197" lon="7.7526255"><ele>21.0</ele><time>2026-04-12T08:47:33.966Z</time></trkpt><trkpt lat="33.7749991" lon="7.7526238"><ele>21.0</ele><time>2026-04-12T08:47:34.971Z</time></trkpt><trkpt lat="33.7748768" lon="7.7526205"><ele>21.0</ele><time>2026-04-12T08:47:35.967Z</time></trkpt><trkpt lat="33.7747501" lon="7.7526324"><ele>21.0</ele><time>2026-04-12T08:47:36.98Z</time></trkpt><trkpt lat="33.7746322" lon="7.7526605"><ele>21.0</ele><time>2026-04-12T08:47:37.976Z</time></trkpt><trkpt lat="33.7745137" lon="7.7526897"><ele>21.0</ele><time>2026-04-12T08:47:38.982Z</time></trkpt><trkpt lat="33.7743807" lon="7.7526974"><ele>21.0</ele><time>2026-04-12T08:47:39.979Z</time></trkpt><trkpt lat="33.7742403" lon="7.7526936"><ele>21.0</ele><time>2026-04-12T08:47:40.986Z</time></trkpt><trkpt lat="33.7740985" lon="7.7526832"><ele>21.0</ele><time>2026-04-12T08:47:41.981Z</time></trkpt><trkpt lat="33.7739912" lon="7.7526505"><ele>21.5</ele><time>2026-04-12T08:47:42.974Z</time></trkpt><trkpt lat="33.7738555" lon="7.7526223"><ele>22.0</ele><time>2026-04-12T08:47:43.974Z</time></trkpt><trkpt lat="33.7737348" lon="7.7525918"><ele>22.5</ele><time>2026-04-12T08:47:44.978Z</time></trkpt><trkpt lat="33.7736299" lon="7.7525454"><ele>23.0</ele><time>2026-04-12T08:47:45.989Z</time></trkpt><trkpt lat="33.7735367" lon="7.7525117"><ele>22.599999999999998</ele><time>2026-04-12T08:47:46.979Z</time></trkpt><trkpt lat="33.7734314" lon="7.7524806"><ele>22.2</ele><time>2026-04-12T08:47:47.98Z</time></trkpt><trkpt lat="33.7733299" lon="7.7524552"><ele>21.8</ele><time>2026-04-12T08:47:48.977Z</time></trkpt><trkpt lat="33.773217" lon="7.7524339"><ele>21.4</ele><time>2026-04-12T08:47:49.977Z</time></trkpt><trkpt lat="33.7731078" lon="7.7524183"><ele>21.0</ele><time>2026-04-12T08:47:50.979Z</time></trkpt><trkpt lat="33.7729801" lon="7.752409"><ele>21.0</ele><time>2026-04-12T08:47:51.973Z</time></trkpt><trkpt lat="33.7728472" lon="7.7524305"><ele>21.0</ele><time>2026-04-12T08:47:52.981Z</time></trkpt><trkpt lat="33.7727174" lon="7.7524733"><ele>21.0</ele><time>2026-04-12T08:47:53.98Z</time></trkpt><trkpt lat="33.77258" lon="7.7525116"><ele>21.0</ele><time>2026-04-12T08:47:54.981Z</time></trkpt><trkpt lat="33.7724413" lon="7.7525638"><ele>21.333333333333332</ele><time>2026-04-12T08:47:55.988Z</time></trkpt><trkpt lat="33.7722905" lon="7.7526209"><ele>21.666666666666664</ele><time>2026-04-12T08:47:56.982Z</time></trkpt><trkpt lat="33.7721449" lon="7.7526715"><ele>22.0</ele><time>2026-04-12T08:47:57.982Z</time></trkpt><trkpt lat="33.7719992" lon="7.7527082"><ele>22.0</ele><time>2026-04-12T08:47:58.986Z</time></trkpt><trkpt lat="33.7718545" lon="7.7527455"><ele>22.0</ele><time>2026-04-12T08:47:59.978Z</time></trkpt><trkpt lat="33.7717286" lon="7.752772"><ele>22.0</ele><time>2026-04-12T08:48:00.987Z</time></trkpt><trkpt lat="33.7716154" lon="7.7527898"><ele>22.0</ele><time>2026-04-12T08:48:01.977Z</time></trkpt><trkpt lat="33.7714842" lon="7.7527984"><ele>22.0</ele><time>2026-04-12T08:48:02.973Z</time></trkpt><trkpt lat="33.7713528" lon="7.7528094"><ele>22.0</ele><time>2026-04-12T08:48:03.976Z</time></trkpt><trkpt lat="33.7712168" lon="7.7528203"><ele>22.0</ele><time>2026-04-12T08:48:04.971Z</time></trkpt><trkpt lat="33.7710833" lon="7.7528429"><ele>22.0</ele><time>2026-04-12T08:48:05.975Z</time></trkpt><trkpt lat="33.7709411" lon="7.7528557"><ele>22.25</ele><time>2026-04-12T08:48:06.978Z</time></trkpt><trkpt lat="33.770802" lon="7.7528625"><ele>22.5</ele><time>2026-04-12T08:48:07.982Z</time></trkpt><trkpt lat="33.770652" lon="7.7528733"><ele>22.75</ele><time>2026-04-12T08:48:08.979Z</time></trkpt><trkpt lat="33.7705144" lon="7.7528914"><ele>23.0</ele><time>2026-04-12T08:48:09.98Z</time></trkpt><trkpt lat="33.7703716" lon="7.7528962"><ele>23.0</ele><time>2026-04-12T08:48:10.985Z</time></trkpt><trkpt lat="33.7702369" lon="7.7529093"><ele>23.0</ele><time>2026-04-12T08:48:11.979Z</time></trkpt><trkpt lat="33.7700962" lon="7.7529184"><ele>23.0</ele><time>2026-04-12T08:48:12.983Z</time></trkpt><trkpt lat="33.7699512" lon="7.7529289"><ele>23.0</ele><time>2026-04-12T08:48:13.989Z</time></trkpt><trkpt lat="33.7698212" lon="7.7529274"><ele>22.75</ele><time>2026-04-12T08:48:14.976Z</time></trkpt><trkpt lat="33.769686" lon="7.7529173"><ele>22.5</ele><time>2026-04-12T08:48:15.977Z</time></trkpt><trkpt lat="33.7695528" lon="7.7529093"><ele>22.25</ele><time>2026-04-12T08:48:16.99Z</time></trkpt><trkpt lat="33.7694075" lon="7.7528897"><ele>22.0</ele><time>2026-04-12T08:48:17.98Z</time></trkpt><trkpt lat="33.7692515" lon="7.7528713"><ele>22.0</ele><time>2026-04-12T08:48:18.983Z</time></trkpt><trkpt lat="33.7691286" lon="7.7528576"><ele>22.0</ele><time>2026-04-12T08:48:19.985Z</time></trkpt><trkpt lat="33.7689801" lon="7.7528376"><ele>22.0</ele><time>2026-04-12T08:48:20.985Z</time></trkpt><trkpt lat="33.7688278" lon="7.7528123"><ele>22.0</ele><time>2026-04-12T08:48:21.98Z</time></trkpt><trkpt lat="33.7686772" lon="7.7527904"><ele>22.0</ele><time>2026-04-12T08:48:22.987Z</time></trkpt><trkpt lat="33.7685397" lon="7.7527781"><ele>22.0</ele><time>2026-04-12T08:48:23.981Z</time></trkpt><trkpt lat="33.7684086" lon="7.7527654"><ele>22.0</ele><time>2026-04-12T08:48:24.983Z</time></trkpt><trkpt lat="33.7682647" lon="7.7527545"><ele>22.0</ele><time>2026-04-12T08:48:25.982Z</time></trkpt><trkpt lat="33.7681141" lon="7.7527436"><ele>22.0</ele><time>2026-04-12T08:48:26.989Z</time></trkpt><trkpt lat="33.7679852" lon="7.7527333"><ele>22.0</ele><time>2026-04-12T08:48:27.98Z</time></trkpt><trkpt lat="33.7678574" lon="7.7527256"><ele>22.0</ele><time>2026-04-12T08:48:28.983Z</time></trkpt><trkpt lat="33.7677422" lon="7.7527115"><ele>22.0</ele><time>2026-04-12T08:48:29.983Z</time></trkpt><trkpt lat="33.7676152" lon="7.7526934"><ele>22.25</ele><time>2026-04-12T08:48:30.986Z</time></trkpt><trkpt lat="33.7674877" lon="7.7526758"><ele>22.5</ele><time>2026-04-12T08:48:31.982Z</time></trkpt><trkpt lat="33.7673797" lon="7.752684"><ele>22.75</ele><time>2026-04-12T08:48:32.985Z</time></trkpt><trkpt lat="33.7672384" lon="7.7526521"><ele>23.0</ele><time>2026-04-12T08:48:33.979Z</time></trkpt><trkpt lat="33.7671076" lon="7.7526389"><ele>23.0</ele><time>2026-04-12T08:48:34.985Z</time></trkpt><trkpt lat="33.7669772" lon="7.7526208"><ele>23.0</ele><time>2026-04-12T08:48:35.98Z</time></trkpt><trkpt lat="33.766852" lon="7.7526039"><ele>23.0</ele><time>2026-04-12T08:48:36.984Z</time></trkpt><trkpt lat="33.7667253" lon="7.752593"><ele>23.0</ele><time>2026-04-12T08:48:37.98Z</time></trkpt><trkpt lat="33.7665987" lon="7.7525776"><ele>23.5</ele><time>2026-04-12T08:48:38.981Z</time></trkpt><trkpt lat="33.766477" lon="7.7525652"><ele>24.0</ele><time>2026-04-12T08:48:39.977Z</time></trkpt><trkpt lat="33.7663575" lon="7.7525521"><ele>24.5</ele><time>2026-04-12T08:48:40.982Z</time></trkpt><trkpt lat="33.7662383" lon="7.7525373"><ele>25.0</ele><time>2026-04-12T08:48:41.982Z</time></trkpt><trkpt lat="33.7661191" lon="7.7525223"><ele>24.5</ele><time>2026-04-12T08:48:42.989Z</time></trkpt><trkpt lat="33.7659877" lon="7.7525037"><ele>24.0</ele><time>2026-04-12T08:48:43.983Z</time></trkpt><trkpt lat="33.7658506" lon="7.7524842"><ele>23.5</ele><time>2026-04-12T08:48:44.98Z</time></trkpt><trkpt lat="33.7657158" lon="7.7524624"><ele>23.0</ele><time>2026-04-12T08:48:45.982Z</time></trkpt><trkpt lat="33.7655816" lon="7.7524349"><ele>23.0</ele><time>2026-04-12T08:48:46.986Z</time></trkpt><trkpt lat="33.7654477" lon="7.7524167"><ele>23.0</ele><time>2026-04-12T08:48:47.996Z</time></trkpt><trkpt lat="33.7653107" lon="7.7524103"><ele>23.0</ele><time>2026-04-12T08:48:48.983Z</time></trkpt><trkpt lat="33.7651568" lon="7.752406"><ele>23.0</ele><time>2026-04-12T08:48:49.986Z</time></trkpt><trkpt lat="33.7650178" lon="7.7524"><ele>22.333333333333336</ele><time>2026-04-12T08:48:50.984Z</time></trkpt><trkpt lat="33.7648812" lon="7.7523774"><ele>21.666666666666668</ele><time>2026-04-12T08:48:51.98Z</time></trkpt><trkpt lat="33.7647215" lon="7.7523525"><ele>21.0</ele><time>2026-04-12T08:48:52.984Z</time></trkpt><trkpt lat="33.76455" lon="7.7523185"><ele>21.0</ele><time>2026-04-12T08:48:53.985Z</time></trkpt><trkpt lat="33.7643796" lon="7.7522924"><ele>21.0</ele><time>2026-04-12T08:48:54.99Z</time></trkpt><trkpt lat="33.7642217" lon="7.752269"><ele>21.0</ele><time>2026-04-12T08:48:55.989Z</time></trkpt><trkpt lat="33.7640632" lon="7.7522533"><ele>21.0</ele><time>2026-04-12T08:48:56.985Z</time></trkpt><trkpt lat="33.7638998" lon="7.7522311"><ele>21.0</ele><time>2026-04-12T08:48:57.988Z</time></trkpt><trkpt lat="33.7637468" lon="7.7522133"><ele>21.0</ele><time>2026-04-12T08:48:59Z</time></trkpt><trkpt lat="33.7635885" lon="7.7521942"><ele>21.0</ele><time>2026-04-12T08:48:59.979Z</time></trkpt><trkpt lat="33.7634326" lon="7.7521824"><ele>21.0</ele><time>2026-04-12T08:49:00.988Z</time></trkpt><trkpt lat="33.7632785" lon="7.752162"><ele>21.0</ele><time>2026-04-12T08:49:01.986Z</time></trkpt><trkpt lat="33.7631358" lon="7.7521505"><ele>21.0</ele><time>2026-04-12T08:49:02.98Z</time></trkpt><trkpt lat="33.7629962" lon="7.7521386"><ele>21.0</ele><time>2026-04-12T08:49:03.982Z</time></trkpt><trkpt lat="33.7628578" lon="7.7521311"><ele>21.0</ele><time>2026-04-12T08:49:04.984Z</time></trkpt><trkpt lat="33.7627232" lon="7.7521111"><ele>21.0</ele><time>2026-04-12T08:49:05.979Z</time></trkpt><trkpt lat="33.7626038" lon="7.7520912"><ele>21.5</ele><time>2026-04-12T08:49:06.987Z</time></trkpt><trkpt lat="33.7624615" lon="7.7520647"><ele>22.0</ele><time>2026-04-12T08:49:07.983Z</time></trkpt><trkpt lat="33.7623088" lon="7.7520427"><ele>22.5</ele><time>2026-04-12T08:49:08.98Z</time></trkpt><trkpt lat="33.7621695" lon="7.7520287"><ele>23.0</ele><time>2026-04-12T08:49:09.981Z</time></trkpt><trkpt lat="33.7620396" lon="7.752022"><ele>23.0</ele><time>2026-04-12T08:49:10.984Z</time></trkpt><trkpt lat="33.7619128" lon="7.7520093"><ele>23.0</ele><time>2026-04-12T08:49:11.987Z</time></trkpt><trkpt lat="33.761793" lon="7.7519981"><ele>23.0</ele><time>2026-04-12T08:49:12.984Z</time></trkpt><trkpt lat="33.7616663" lon="7.7519799"><ele>23.0</ele><time>2026-04-12T08:49:13.985Z</time></trkpt><trkpt lat="33.7615395" lon="7.7519628"><ele>23.0</ele><time>2026-04-12T08:49:14.984Z</time></trkpt><trkpt lat="33.7614042" lon="7.751942"><ele>23.0</ele><time>2026-04-12T08:49:15.98Z</time></trkpt><trkpt lat="33.7612744" lon="7.7519252"><ele>23.0</ele><time>2026-04-12T08:49:16.986Z</time></trkpt><trkpt lat="33.7611444" lon="7.7519097"><ele>23.0</ele><time>2026-04-12T08:49:17.979Z</time></trkpt><trkpt lat="33.7610036" lon="7.7518925"><ele>23.0</ele><time>2026-04-12T08:49:18.998Z</time></trkpt><trkpt lat="33.7608504" lon="7.751878"><ele>23.0</ele><time>2026-04-12T08:49:19.986Z</time></trkpt><trkpt lat="33.7607039" lon="7.7518492"><ele>23.0</ele><time>2026-04-12T08:49:20.98Z</time></trkpt><trkpt lat="33.760581" lon="7.7518321"><ele>23.0</ele><time>2026-04-12T08:49:21.983Z</time></trkpt><trkpt lat="33.7604501" lon="7.7518137"><ele>23.0</ele><time>2026-04-12T08:49:22.981Z</time></trkpt><trkpt lat="33.7603228" lon="7.7518032"><ele>23.0</ele><time>2026-04-12T08:49:23.982Z</time></trkpt><trkpt lat="33.7601633" lon="7.7517863"><ele>23.0</ele><time>2026-04-12T08:49:24.989Z</time></trkpt><trkpt lat="33.7600104" lon="7.751772"><ele>23.0</ele><time>2026-04-12T08:49:25.984Z</time></trkpt><trkpt lat="33.7598572" lon="7.7517615"><ele>23.0</ele><time>2026-04-12T08:49:26.98Z</time></trkpt><trkpt lat="33.7597226" lon="7.7517496"><ele>23.0</ele><time>2026-04-12T08:49:27.988Z</time></trkpt><trkpt lat="33.759572" lon="7.7517382"><ele>23.0</ele><time>2026-04-12T08:49:28.997Z</time></trkpt><trkpt lat="33.7594246" lon="7.7517241"><ele>23.0</ele><time>2026-04-12T08:49:29.983Z</time></trkpt><trkpt lat="33.7592825" lon="7.7516995"><ele>22.5</ele><time>2026-04-12T08:49:30.989Z</time></trkpt><trkpt lat="33.7591564" lon="7.7516781"><ele>22.0</ele><time>2026-04-12T08:49:31.981Z</time></trkpt><trkpt lat="33.7590206" lon="7.7516636"><ele>21.5</ele><time>2026-04-12T08:49:32.982Z</time></trkpt><trkpt lat="33.7588946" lon="7.7516499"><ele>21.0</ele><time>2026-04-12T08:49:33.988Z</time></trkpt><trkpt lat="33.7587788" lon="7.7516392"><ele>21.0</ele><time>2026-04-12T08:49:34.989Z</time></trkpt><trkpt lat="33.7586444" lon="7.7516163"><ele>21.0</ele><time>2026-04-12T08:49:35.986Z</time></trkpt><trkpt lat="33.7585219" lon="7.7516045"><ele>21.0</ele><time>2026-04-12T08:49:36.986Z</time></trkpt><trkpt lat="33.7583948" lon="7.7515885"><ele>21.0</ele><time>2026-04-12T08:49:37.982Z</time></trkpt><trkpt lat="33.758264" lon="7.7515696"><ele>21.0</ele><time>2026-04-12T08:49:38.978Z</time></trkpt><trkpt lat="33.7581265" lon="7.7515559"><ele>21.0</ele><time>2026-04-12T08:49:39.983Z</time></trkpt><trkpt lat="33.7579879" lon="7.751537"><ele>21.0</ele><time>2026-04-12T08:49:40.984Z</time></trkpt><trkpt lat="33.7578485" lon="7.7515191"><ele>21.0</ele><time>2026-04-12T08:49:42.002Z</time></trkpt><trkpt lat="33.7577168" lon="7.7514996"><ele>21.0</ele><time>2026-04-12T08:49:43.076Z</time></trkpt><trkpt lat="33.7575823" lon="7.7514763"><ele>21.0</ele><time>2026-04-12T08:49:44.074Z</time></trkpt><trkpt lat="33.7574457" lon="7.7514529"><ele>21.0</ele><time>2026-04-12T08:49:45.078Z</time></trkpt><trkpt lat="33.7573103" lon="7.7514333"><ele>21.0</ele><time>2026-04-12T08:49:46.069Z</time></trkpt><trkpt lat="33.757183" lon="7.7514176"><ele>21.0</ele><time>2026-04-12T08:49:47.069Z</time></trkpt><trkpt lat="33.7570567" lon="7.7514073"><ele>21.0</ele><time>2026-04-12T08:49:48.067Z</time></trkpt><trkpt lat="33.7569328" lon="7.7513979"><ele>21.0</ele><time>2026-04-12T08:49:49.074Z</time></trkpt><trkpt lat="33.7568056" lon="7.751387"><ele>21.0</ele><time>2026-04-12T08:49:50.08Z</time></trkpt><trkpt lat="33.7566813" lon="7.7513767"><ele>21.25</ele><time>2026-04-12T08:49:51.067Z</time></trkpt><trkpt lat="33.7565582" lon="7.7513636"><ele>21.5</ele><time>2026-04-12T08:49:52.069Z</time></trkpt><trkpt lat="33.7564337" lon="7.7513459"><ele>21.75</ele><time>2026-04-12T08:49:53.067Z</time></trkpt><trkpt lat="33.7563149" lon="7.7513118"><ele>22.0</ele><time>2026-04-12T08:49:54.069Z</time></trkpt><trkpt lat="33.7561858" lon="7.7512976"><ele>22.0</ele><time>2026-04-12T08:49:55.072Z</time></trkpt><trkpt lat="33.7560496" lon="7.7512847"><ele>22.0</ele><time>2026-04-12T08:49:56.076Z</time></trkpt><trkpt lat="33.7559102" lon="7.7512755"><ele>22.0</ele><time>2026-04-12T08:49:57.071Z</time></trkpt><trkpt lat="33.7557714" lon="7.7512631"><ele>22.0</ele><time>2026-04-12T08:49:58.078Z</time></trkpt><trkpt lat="33.7556292" lon="7.7512523"><ele>21.75</ele><time>2026-04-12T08:49:59.074Z</time></trkpt><trkpt lat="33.7554877" lon="7.7512413"><ele>21.5</ele><time>2026-04-12T08:50:00.078Z</time></trkpt><trkpt lat="33.7553405" lon="7.7512278"><ele>21.25</ele><time>2026-04-12T08:50:01.077Z</time></trkpt><trkpt lat="33.7551959" lon="7.7512093"><ele>21.0</ele><time>2026-04-12T08:50:02.071Z</time></trkpt><trkpt lat="33.755047" lon="7.7511875"><ele>21.0</ele><time>2026-04-12T08:50:03.076Z</time></trkpt><trkpt lat="33.7548967" lon="7.7511662"><ele>21.0</ele><time>2026-04-12T08:50:04.07Z</time></trkpt><trkpt lat="33.7547424" lon="7.7511469"><ele>21.0</ele><time>2026-04-12T08:50:05.07Z</time></trkpt><trkpt lat="33.7545905" lon="7.7511278"><ele>21.0</ele><time>2026-04-12T08:50:06.072Z</time></trkpt><trkpt lat="33.754437" lon="7.7511088"><ele>21.0</ele><time>2026-04-12T08:50:07.07Z</time></trkpt><trkpt lat="33.7542805" lon="7.7510899"><ele>21.0</ele><time>2026-04-12T08:50:08.072Z</time></trkpt><trkpt lat="33.7541287" lon="7.7510714"><ele>21.333333333333332</ele><time>2026-04-12T08:50:09.074Z</time></trkpt><trkpt lat="33.7539766" lon="7.751052"><ele>21.666666666666664</ele><time>2026-04-12T08:50:10.071Z</time></trkpt><trkpt lat="33.7538252" lon="7.7510338"><ele>22.0</ele><time>2026-04-12T08:50:11.072Z</time></trkpt><trkpt lat="33.7536784" lon="7.7510157"><ele>22.666666666666664</ele><time>2026-04-12T08:50:12.072Z</time></trkpt><trkpt lat="33.7535276" lon="7.7509967"><ele>23.333333333333332</ele><time>2026-04-12T08:50:13.07Z</time></trkpt><trkpt lat="33.7533686" lon="7.7509767"><ele>24.0</ele><time>2026-04-12T08:50:14.076Z</time></trkpt><trkpt lat="33.7532047" lon="7.7509552"><ele>24.0</ele><time>2026-04-12T08:50:15.07Z</time></trkpt><trkpt lat="33.75304" lon="7.7509358"><ele>24.0</ele><time>2026-04-12T08:50:16.065Z</time></trkpt><trkpt lat="33.7528812" lon="7.7509188"><ele>24.0</ele><time>2026-04-12T08:50:17.07Z</time></trkpt><trkpt lat="33.7527253" lon="7.7509004"><ele>23.75</ele><time>2026-04-12T08:50:18.067Z</time></trkpt><trkpt lat="33.7525742" lon="7.750882"><ele>23.5</ele><time>2026-04-12T08:50:19.069Z</time></trkpt><trkpt lat="33.752433" lon="7.7508629"><ele>23.25</ele><time>2026-04-12T08:50:20.069Z</time></trkpt><trkpt lat="33.7522946" lon="7.7508461"><ele>23.0</ele><time>2026-04-12T08:50:21.097Z</time></trkpt><trkpt lat="33.7521487" lon="7.750828"><ele>23.0</ele><time>2026-04-12T08:50:22.071Z</time></trkpt><trkpt lat="33.7520075" lon="7.7508105"><ele>23.0</ele><time>2026-04-12T08:50:23.073Z</time></trkpt><trkpt lat="33.7518595" lon="7.7507889"><ele>23.0</ele><time>2026-04-12T08:50:24.068Z</time></trkpt><trkpt lat="33.7517258" lon="7.7507718"><ele>23.0</ele><time>2026-04-12T08:50:25.074Z</time></trkpt><trkpt lat="33.7516035" lon="7.7507551"><ele>22.75</ele><time>2026-04-12T08:50:26.067Z</time></trkpt><trkpt lat="33.7514853" lon="7.7507426"><ele>22.5</ele><time>2026-04-12T08:50:27.066Z</time></trkpt><trkpt lat="33.7513681" lon="7.7507317"><ele>22.25</ele><time>2026-04-12T08:50:28.068Z</time></trkpt><trkpt lat="33.7512472" lon="7.7507161"><ele>22.0</ele><time>2026-04-12T08:50:29.071Z</time></trkpt><trkpt lat="33.7511327" lon="7.7506957"><ele>22.200000000000003</ele><time>2026-04-12T08:50:30.07Z</time></trkpt><trkpt lat="33.751011" lon="7.750679"><ele>22.4</ele><time>2026-04-12T08:50:31.078Z</time></trkpt><trkpt lat="33.7509035" lon="7.7506683"><ele>22.6</ele><time>2026-04-12T08:50:32.069Z</time></trkpt><trkpt lat="33.750798" lon="7.7506597"><ele>22.799999999999997</ele><time>2026-04-12T08:50:33.072Z</time></trkpt><trkpt lat="33.7506867" lon="7.7506524"><ele>23.0</ele><time>2026-04-12T08:50:34.072Z</time></trkpt><trkpt lat="33.7505705" lon="7.7506377"><ele>23.0</ele><time>2026-04-12T08:50:35.06Z</time></trkpt><trkpt lat="33.7504469" lon="7.75062"><ele>23.0</ele><time>2026-04-12T08:50:36.065Z</time></trkpt><trkpt lat="33.7503133" lon="7.7505988"><ele>23.0</ele><time>2026-04-12T08:50:37.071Z</time></trkpt><trkpt lat="33.7501781" lon="7.7505783"><ele>23.0</ele><time>2026-04-12T08:50:38.066Z</time></trkpt><trkpt lat="33.7500375" lon="7.7505602"><ele>23.0</ele><time>2026-04-12T08:50:39.068Z</time></trkpt><trkpt lat="33.7498966" lon="7.7505423"><ele>23.0</ele><time>2026-04-12T08:50:40.07Z</time></trkpt><trkpt lat="33.74975" lon="7.7505236"><ele>23.0</ele><time>2026-04-12T08:50:41.068Z</time></trkpt><trkpt lat="33.7495982" lon="7.750503"><ele>23.0</ele><time>2026-04-12T08:50:42.069Z</time></trkpt><trkpt lat="33.7494415" lon="7.7504834"><ele>23.333333333333336</ele><time>2026-04-12T08:50:43.071Z</time></trkpt><trkpt lat="33.7492809" lon="7.7504627"><ele>23.666666666666668</ele><time>2026-04-12T08:50:44.077Z</time></trkpt><trkpt lat="33.7491297" lon="7.7504422"><ele>24.0</ele><time>2026-04-12T08:50:45.065Z</time></trkpt><trkpt lat="33.7489807" lon="7.750424"><ele>24.0</ele><time>2026-04-12T08:50:46.067Z</time></trkpt><trkpt lat="33.748834" lon="7.7504099"><ele>24.0</ele><time>2026-04-12T08:50:47.068Z</time></trkpt><trkpt lat="33.7486899" lon="7.7503929"><ele>24.0</ele><time>2026-04-12T08:50:48.064Z</time></trkpt><trkpt lat="33.7485532" lon="7.7503735"><ele>24.0</ele><time>2026-04-12T08:50:49.068Z</time></trkpt><trkpt lat="33.7484262" lon="7.750359"><ele>24.0</ele><time>2026-04-12T08:50:50.065Z</time></trkpt><trkpt lat="33.7482954" lon="7.7503472"><ele>24.0</ele><time>2026-04-12T08:50:51.079Z</time></trkpt><trkpt lat="33.7481585" lon="7.7503354"><ele>24.0</ele><time>2026-04-12T08:50:52.069Z</time></trkpt><trkpt lat="33.7480147" lon="7.7503127"><ele>24.0</ele><time>2026-04-12T08:50:53.071Z</time></trkpt><trkpt lat="33.7478654" lon="7.7502885"><ele>24.0</ele><time>2026-04-12T08:50:54.075Z</time></trkpt><trkpt lat="33.7477214" lon="7.7502712"><ele>24.0</ele><time>2026-04-12T08:50:55.068Z</time></trkpt><trkpt lat="33.7475799" lon="7.7502568"><ele>24.0</ele><time>2026-04-12T08:50:56.07Z</time></trkpt><trkpt lat="33.7474383" lon="7.7502364"><ele>24.0</ele><time>2026-04-12T08:50:57.068Z</time></trkpt><trkpt lat="33.7473047" lon="7.7502214"><ele>24.0</ele><time>2026-04-12T08:50:58.071Z</time></trkpt><trkpt lat="33.7471706" lon="7.7502105"><ele>24.0</ele><time>2026-04-12T08:50:59.071Z</time></trkpt><trkpt lat="33.7470363" lon="7.7501974"><ele>24.0</ele><time>2026-04-12T08:51:00.069Z</time></trkpt><trkpt lat="33.746909" lon="7.7501851"><ele>24.0</ele><time>2026-04-12T08:51:01.068Z</time></trkpt><trkpt lat="33.7467803" lon="7.7501756"><ele>23.75</ele><time>2026-04-12T08:51:02.07Z</time></trkpt><trkpt lat="33.7466465" lon="7.7501662"><ele>23.5</ele><time>2026-04-12T08:51:03.07Z</time></trkpt><trkpt lat="33.7465033" lon="7.7501542"><ele>23.25</ele><time>2026-04-12T08:51:04.071Z</time></trkpt><trkpt lat="33.7463626" lon="7.7501404"><ele>23.0</ele><time>2026-04-12T08:51:05.064Z</time></trkpt><trkpt lat="33.7462206" lon="7.7501215"><ele>23.0</ele><time>2026-04-12T08:51:06.075Z</time></trkpt><trkpt lat="33.7460762" lon="7.7500993"><ele>23.0</ele><time>2026-04-12T08:51:07.069Z</time></trkpt><trkpt lat="33.7459297" lon="7.7500762"><ele>23.0</ele><time>2026-04-12T08:51:08.07Z</time></trkpt><trkpt lat="33.7457829" lon="7.7500555"><ele>23.0</ele><time>2026-04-12T08:51:09.074Z</time></trkpt><trkpt lat="33.745636" lon="7.7500365"><ele>23.0</ele><time>2026-04-12T08:51:10.072Z</time></trkpt><trkpt lat="33.7454881" lon="7.7500184"><ele>23.0</ele><time>2026-04-12T08:51:11.069Z</time></trkpt><trkpt lat="33.745343" lon="7.7500019"><ele>23.0</ele><time>2026-04-12T08:51:12.069Z</time></trkpt><trkpt lat="33.7451991" lon="7.7499855"><ele>23.0</ele><time>2026-04-12T08:51:13.071Z</time></trkpt><trkpt lat="33.7450562" lon="7.7499691"><ele>23.5</ele><time>2026-04-12T08:51:14.075Z</time></trkpt><trkpt lat="33.7449303" lon="7.7499573"><ele>24.0</ele><time>2026-04-12T08:51:15.068Z</time></trkpt><trkpt lat="33.744804" lon="7.749941"><ele>24.5</ele><time>2026-04-12T08:51:16.067Z</time></trkpt><trkpt lat="33.7446741" lon="7.749921"><ele>25.0</ele><time>2026-04-12T08:51:17.075Z</time></trkpt><trkpt lat="33.7445514" lon="7.7499041"><ele>25.0</ele><time>2026-04-12T08:51:18.077Z</time></trkpt><trkpt lat="33.744419" lon="7.7498828"><ele>25.0</ele><time>2026-04-12T08:51:19.071Z</time></trkpt><trkpt lat="33.7442864" lon="7.7498624"><ele>25.0</ele><time>2026-04-12T08:51:20.074Z</time></trkpt><trkpt lat="33.7441524" lon="7.7498456"><ele>25.0</ele><time>2026-04-12T08:51:21.071Z</time></trkpt><trkpt lat="33.74402" lon="7.7498339"><ele>24.25</ele><time>2026-04-12T08:51:22.084Z</time></trkpt><trkpt lat="33.7438888" lon="7.7498199"><ele>23.5</ele><time>2026-04-12T08:51:23.073Z</time></trkpt><trkpt lat="33.7437591" lon="7.7498068"><ele>22.75</ele><time>2026-04-12T08:51:24.072Z</time></trkpt><trkpt lat="33.7436308" lon="7.7497972"><ele>22.0</ele><time>2026-04-12T08:51:25.073Z</time></trkpt><trkpt lat="33.7434952" lon="7.7497817"><ele>21.75</ele><time>2026-04-12T08:51:26.071Z</time></trkpt><trkpt lat="33.7433698" lon="7.7497689"><ele>21.5</ele><time>2026-04-12T08:51:27.073Z</time></trkpt><trkpt lat="33.7432411" lon="7.7497559"><ele>21.25</ele><time>2026-04-12T08:51:28.069Z</time></trkpt><trkpt lat="33.7431091" lon="7.7497446"><ele>21.0</ele><time>2026-04-12T08:51:29.072Z</time></trkpt><trkpt lat="33.7429742" lon="7.7497314"><ele>21.0</ele><time>2026-04-12T08:51:30.072Z</time></trkpt><trkpt lat="33.7428366" lon="7.749716"><ele>21.0</ele><time>2026-04-12T08:51:31.072Z</time></trkpt><trkpt lat="33.7426969" lon="7.7496994"><ele>21.0</ele><time>2026-04-12T08:51:32.07Z</time></trkpt><trkpt lat="33.7425539" lon="7.7496809"><ele>21.0</ele><time>2026-04-12T08:51:33.077Z</time></trkpt><trkpt lat="33.7424084" lon="7.7496587"><ele>21.5</ele><time>2026-04-12T08:51:34.07Z</time></trkpt><trkpt lat="33.7422655" lon="7.7496345"><ele>22.0</ele><time>2026-04-12T08:51:35.075Z</time></trkpt><trkpt lat="33.7421373" lon="7.7496138"><ele>22.5</ele><time>2026-04-12T08:51:36.064Z</time></trkpt><trkpt lat="33.7420229" lon="7.7495986"><ele>23.0</ele><time>2026-04-12T08:51:37.058Z</time></trkpt><trkpt lat="33.7419211" lon="7.749585"><ele>23.2</ele><time>2026-04-12T08:51:38.071Z</time></trkpt><trkpt lat="33.7418312" lon="7.7495723"><ele>23.4</ele><time>2026-04-12T08:51:39.07Z</time></trkpt><trkpt lat="33.7417417" lon="7.7495629"><ele>23.599999999999998</ele><time>2026-04-12T08:51:40.066Z</time></trkpt><trkpt lat="33.7416483" lon="7.7495526"><ele>23.799999999999997</ele><time>2026-04-12T08:51:41.07Z</time></trkpt><trkpt lat="33.7415423" lon="7.7495394"><ele>24.0</ele><time>2026-04-12T08:51:42.066Z</time></trkpt><trkpt lat="33.7414299" lon="7.7495237"><ele>24.0</ele><time>2026-04-12T08:51:43.069Z</time></trkpt><trkpt lat="33.7413024" lon="7.7494964"><ele>24.0</ele><time>2026-04-12T08:51:44.077Z</time></trkpt><trkpt lat="33.7411784" lon="7.7494775"><ele>24.0</ele><time>2026-04-12T08:51:45.071Z</time></trkpt><trkpt lat="33.7410513" lon="7.7494623"><ele>24.0</ele><time>2026-04-12T08:51:46.069Z</time></trkpt><trkpt lat="33.7409248" lon="7.7494472"><ele>24.5</ele><time>2026-04-12T08:51:47.076Z</time></trkpt><trkpt lat="33.7408017" lon="7.7494322"><ele>25.0</ele><time>2026-04-12T08:51:48.075Z</time></trkpt><trkpt lat="33.7406802" lon="7.7494164"><ele>25.5</ele><time>2026-04-12T08:51:49.071Z</time></trkpt><trkpt lat="33.7405588" lon="7.7494005"><ele>26.0</ele><time>2026-04-12T08:51:50.07Z</time></trkpt><trkpt lat="33.7404369" lon="7.7493867"><ele>25.75</ele><time>2026-04-12T08:51:51.067Z</time></trkpt><trkpt lat="33.7403118" lon="7.7493737"><ele>25.5</ele><time>2026-04-12T08:51:52.069Z</time></trkpt><trkpt lat="33.7401852" lon="7.7493573"><ele>25.25</ele><time>2026-04-12T08:51:53.085Z</time></trkpt><trkpt lat="33.7400614" lon="7.7493393"><ele>25.0</ele><time>2026-04-12T08:51:54.068Z</time></trkpt><trkpt lat="33.7399392" lon="7.7493217"><ele>25.0</ele><time>2026-04-12T08:51:55.075Z</time></trkpt><trkpt lat="33.7398071" lon="7.7493056"><ele>25.0</ele><time>2026-04-12T08:51:56.072Z</time></trkpt><trkpt lat="33.7396852" lon="7.7492919"><ele>25.0</ele><time>2026-04-12T08:51:57.069Z</time></trkpt><trkpt lat="33.7395667" lon="7.7492772"><ele>25.0</ele><time>2026-04-12T08:51:58.078Z</time></trkpt><trkpt lat="33.7394531" lon="7.7492685"><ele>25.5</ele><time>2026-04-12T08:51:59.082Z</time></trkpt><trkpt lat="33.7393389" lon="7.7492578"><ele>26.0</ele><time>2026-04-12T08:52:00.07Z</time></trkpt><trkpt lat="33.73922" lon="7.7492449"><ele>26.5</ele><time>2026-04-12T08:52:01.074Z</time></trkpt><trkpt lat="33.7391054" lon="7.7492298"><ele>27.0</ele><time>2026-04-12T08:52:02.07Z</time></trkpt><trkpt lat="33.7389992" lon="7.7492178"><ele>27.0</ele><time>2026-04-12T08:52:03.067Z</time></trkpt><trkpt lat="33.7388923" lon="7.7492026"><ele>27.000000000000004</ele><time>2026-04-12T08:52:04.068Z</time></trkpt><trkpt lat="33.7387866" lon="7.749191"><ele>27.000000000000004</ele><time>2026-04-12T08:52:05.071Z</time></trkpt><trkpt lat="33.7386784" lon="7.749176"><ele>27.0</ele><time>2026-04-12T08:52:06.068Z</time></trkpt><trkpt lat="33.7385736" lon="7.7491587"><ele>27.0</ele><time>2026-04-12T08:52:07.069Z</time></trkpt><trkpt lat="33.7384822" lon="7.7491441"><ele>26.6</ele><time>2026-04-12T08:52:08.063Z</time></trkpt><trkpt lat="33.7383979" lon="7.7491325"><ele>26.200000000000003</ele><time>2026-04-12T08:52:09.069Z</time></trkpt><trkpt lat="33.7383071" lon="7.7491242"><ele>25.8</ele><time>2026-04-12T08:52:10.065Z</time></trkpt><trkpt lat="33.7382122" lon="7.7491187"><ele>25.4</ele><time>2026-04-12T08:52:11.067Z</time></trkpt><trkpt lat="33.7381141" lon="7.7491142"><ele>25.0</ele><time>2026-04-12T08:52:12.073Z</time></trkpt><trkpt lat="33.7380153" lon="7.7491059"><ele>25.0</ele><time>2026-04-12T08:52:13.062Z</time></trkpt><trkpt lat="33.7379165" lon="7.7490937"><ele>25.0</ele><time>2026-04-12T08:52:14.083Z</time></trkpt><trkpt lat="33.7378171" lon="7.7490853"><ele>25.0</ele><time>2026-04-12T08:52:15.067Z</time></trkpt><trkpt lat="33.7377137" lon="7.7490749"><ele>25.0</ele><time>2026-04-12T08:52:16.066Z</time></trkpt><trkpt lat="33.7376103" lon="7.7490618"><ele>25.0</ele><time>2026-04-12T08:52:17.068Z</time></trkpt><trkpt lat="33.737507" lon="7.7490502"><ele>25.0</ele><time>2026-04-12T08:52:18.08Z</time></trkpt><trkpt lat="33.7373994" lon="7.7490368"><ele>25.0</ele><time>2026-04-12T08:52:19.064Z</time></trkpt><trkpt lat="33.7372894" lon="7.7490213"><ele>25.0</ele><time>2026-04-12T08:52:20.071Z</time></trkpt><trkpt lat="33.7371773" lon="7.7490086"><ele>25.0</ele><time>2026-04-12T08:52:21.073Z</time></trkpt><trkpt lat="33.7370641" lon="7.7489974"><ele>25.0</ele><time>2026-04-12T08:52:22.066Z</time></trkpt><trkpt lat="33.7369593" lon="7.7489827"><ele>25.0</ele><time>2026-04-12T08:52:23.073Z</time></trkpt><trkpt lat="33.7368607" lon="7.7489765"><ele>25.0</ele><time>2026-04-12T08:52:24.083Z</time></trkpt><trkpt lat="33.7367557" lon="7.7489714"><ele>25.0</ele><time>2026-04-12T08:52:25.064Z</time></trkpt><trkpt lat="33.7366362" lon="7.7489627"><ele>25.0</ele><time>2026-04-12T08:52:26.073Z</time></trkpt><trkpt lat="33.7365099" lon="7.7489513"><ele>25.0</ele><time>2026-04-12T08:52:27.047Z</time></trkpt><trkpt lat="33.7363706" lon="7.7489344"><ele>25.0</ele><time>2026-04-12T08:52:28.046Z</time></trkpt><trkpt lat="33.7362189" lon="7.7489137"><ele>25.0</ele><time>2026-04-12T08:52:29.055Z</time></trkpt><trkpt lat="33.736067" lon="7.7488908"><ele>25.0</ele><time>2026-04-12T08:52:30.041Z</time></trkpt><trkpt lat="33.7359044" lon="7.74887"><ele>25.0</ele><time>2026-04-12T08:52:31.071Z</time></trkpt><trkpt lat="33.7357387" lon="7.7488498"><ele>25.0</ele><time>2026-04-12T08:52:32.072Z</time></trkpt><trkpt lat="33.7355743" lon="7.7488305"><ele>25.0</ele><time>2026-04-12T08:52:33.072Z</time></trkpt><trkpt lat="33.7354134" lon="7.7488135"><ele>25.0</ele><time>2026-04-12T08:52:34.073Z</time></trkpt><trkpt lat="33.73526" lon="7.7487961"><ele>25.0</ele><time>2026-04-12T08:52:35.069Z</time></trkpt><trkpt lat="33.7351131" lon="7.7487783"><ele>25.0</ele><time>2026-04-12T08:52:36.068Z</time></trkpt><trkpt lat="33.734968" lon="7.7487637"><ele>25.0</ele><time>2026-04-12T08:52:37.068Z</time></trkpt><trkpt lat="33.7348203" lon="7.7487469"><ele>25.0</ele><time>2026-04-12T08:52:38.069Z</time></trkpt><trkpt lat="33.7346713" lon="7.7487282"><ele>25.0</ele><time>2026-04-12T08:52:39.065Z</time></trkpt><trkpt lat="33.7345165" lon="7.7487093"><ele>25.0</ele><time>2026-04-12T08:52:40.069Z</time></trkpt><trkpt lat="33.7343599" lon="7.7486916"><ele>24.333333333333336</ele><time>2026-04-12T08:52:41.071Z</time></trkpt><trkpt lat="33.7342057" lon="7.7486755"><ele>23.666666666666668</ele><time>2026-04-12T08:52:42.068Z</time></trkpt><trkpt lat="33.7340588" lon="7.7486635"><ele>23.0</ele><time>2026-04-12T08:52:43.069Z</time></trkpt><trkpt lat="33.7339087" lon="7.748651"><ele>23.0</ele><time>2026-04-12T08:52:44.074Z</time></trkpt><trkpt lat="33.7337631" lon="7.7486328"><ele>23.0</ele><time>2026-04-12T08:52:45.065Z</time></trkpt><trkpt lat="33.7336167" lon="7.7486141"><ele>23.0</ele><time>2026-04-12T08:52:46.067Z</time></trkpt><trkpt lat="33.7334674" lon="7.7486031"><ele>23.0</ele><time>2026-04-12T08:52:47.072Z</time></trkpt><trkpt lat="33.7333258" lon="7.748588"><ele>23.25</ele><time>2026-04-12T08:52:48.066Z</time></trkpt><trkpt lat="33.7331823" lon="7.7485707"><ele>23.5</ele><time>2026-04-12T08:52:49.071Z</time></trkpt><trkpt lat="33.7330409" lon="7.7485549"><ele>23.75</ele><time>2026-04-12T08:52:50.067Z</time></trkpt><trkpt lat="33.7328974" lon="7.7485379"><ele>24.0</ele><time>2026-04-12T08:52:51.069Z</time></trkpt><trkpt lat="33.7327556" lon="7.7485191"><ele>24.5</ele><time>2026-04-12T08:52:52.067Z</time></trkpt><trkpt lat="33.732624" lon="7.7485013"><ele>25.0</ele><time>2026-04-12T08:52:53.068Z</time></trkpt><trkpt lat="33.7325052" lon="7.7484887"><ele>25.5</ele><time>2026-04-12T08:52:54.066Z</time></trkpt><trkpt lat="33.7323929" lon="7.7484755"><ele>26.0</ele><time>2026-04-12T08:52:55.08Z</time></trkpt><trkpt lat="33.7322798" lon="7.7484623"><ele>26.0</ele><time>2026-04-12T08:52:56.069Z</time></trkpt><trkpt lat="33.7321662" lon="7.7484484"><ele>26.0</ele><time>2026-04-12T08:52:57.067Z</time></trkpt><trkpt lat="33.7320504" lon="7.748432"><ele>26.0</ele><time>2026-04-12T08:52:58.067Z</time></trkpt><trkpt lat="33.7319321" lon="7.7484151"><ele>26.0</ele><time>2026-04-12T08:52:59.072Z</time></trkpt><trkpt lat="33.7318126" lon="7.7483999"><ele>26.75</ele><time>2026-04-12T08:53:00.063Z</time></trkpt><trkpt lat="33.7316918" lon="7.7483842"><ele>27.5</ele><time>2026-04-12T08:53:01.07Z</time></trkpt><trkpt lat="33.7315702" lon="7.7483675"><ele>28.25</ele><time>2026-04-12T08:53:02.072Z</time></trkpt><trkpt lat="33.731447" lon="7.7483538"><ele>29.0</ele><time>2026-04-12T08:53:03.07Z</time></trkpt><trkpt lat="33.7313259" lon="7.7483415"><ele>29.0</ele><time>2026-04-12T08:53:04.074Z</time></trkpt><trkpt lat="33.7312112" lon="7.7483312"><ele>29.0</ele><time>2026-04-12T08:53:05.067Z</time></trkpt><trkpt lat="33.7310988" lon="7.7483184"><ele>29.0</ele><time>2026-04-12T08:53:06.074Z</time></trkpt><trkpt lat="33.7309812" lon="7.7483019"><ele>29.0</ele><time>2026-04-12T08:53:07.07Z</time></trkpt><trkpt lat="33.7308566" lon="7.7482846"><ele>28.25</ele><time>2026-04-12T08:53:08.071Z</time></trkpt><trkpt lat="33.7307284" lon="7.7482694"><ele>27.5</ele><time>2026-04-12T08:53:09.07Z</time></trkpt><trkpt lat="33.7306008" lon="7.7482559"><ele>26.75</ele><time>2026-04-12T08:53:10.066Z</time></trkpt><trkpt lat="33.7304684" lon="7.7482419"><ele>26.0</ele><time>2026-04-12T08:53:11.069Z</time></trkpt><trkpt lat="33.7303324" lon="7.7482278"><ele>25.75</ele><time>2026-04-12T08:53:12.064Z</time></trkpt><trkpt lat="33.7301939" lon="7.748212"><ele>25.5</ele><time>2026-04-12T08:53:13.066Z</time></trkpt><trkpt lat="33.7300526" lon="7.7481934"><ele>25.25</ele><time>2026-04-12T08:53:14.071Z</time></trkpt><trkpt lat="33.7299118" lon="7.7481762"><ele>25.0</ele><time>2026-04-12T08:53:15.064Z</time></trkpt><trkpt lat="33.7297699" lon="7.7481586"><ele>25.0</ele><time>2026-04-12T08:53:16.07Z</time></trkpt><trkpt lat="33.7296327" lon="7.7481449"><ele>25.0</ele><time>2026-04-12T08:53:17.069Z</time></trkpt><trkpt lat="33.7294905" lon="7.7481299"><ele>25.0</ele><time>2026-04-12T08:53:18.069Z</time></trkpt><trkpt lat="33.7293563" lon="7.7481163"><ele>25.0</ele><time>2026-04-12T08:53:19.066Z</time></trkpt><trkpt lat="33.7292141" lon="7.7481038"><ele>25.5</ele><time>2026-04-12T08:53:20.066Z</time></trkpt><trkpt lat="33.7290765" lon="7.7480893"><ele>26.0</ele><time>2026-04-12T08:53:21.069Z</time></trkpt><trkpt lat="33.7289445" lon="7.7480721"><ele>26.5</ele><time>2026-04-12T08:53:22.072Z</time></trkpt><trkpt lat="33.7288167" lon="7.7480589"><ele>27.0</ele><time>2026-04-12T08:53:23.071Z</time></trkpt><trkpt lat="33.7286931" lon="7.748046"><ele>27.0</ele><time>2026-04-12T08:53:24.069Z</time></trkpt><trkpt lat="33.7285626" lon="7.7480345"><ele>27.0</ele><time>2026-04-12T08:53:25.068Z</time></trkpt><trkpt lat="33.7284352" lon="7.7480197"><ele>27.0</ele><time>2026-04-12T08:53:26.079Z</time></trkpt><trkpt lat="33.7283096" lon="7.7480043"><ele>27.0</ele><time>2026-04-12T08:53:27.063Z</time></trkpt><trkpt lat="33.7281982" lon="7.7479905"><ele>27.0</ele><time>2026-04-12T08:53:28.068Z</time></trkpt><trkpt lat="33.7280848" lon="7.7479806"><ele>27.0</ele><time>2026-04-12T08:53:29.07Z</time></trkpt><trkpt lat="33.7279657" lon="7.7479694"><ele>27.0</ele><time>2026-04-12T08:53:30.064Z</time></trkpt><trkpt lat="33.7278499" lon="7.7479573"><ele>27.0</ele><time>2026-04-12T08:53:31.075Z</time></trkpt><trkpt lat="33.7277069" lon="7.7479391"><ele>27.0</ele><time>2026-04-12T08:53:32.07Z</time></trkpt><trkpt lat="33.7275684" lon="7.7479228"><ele>27.000000000000004</ele><time>2026-04-12T08:53:33.073Z</time></trkpt><trkpt lat="33.7274856" lon="7.747919"><ele>27.000000000000004</ele><time>2026-04-12T08:53:34.065Z</time></trkpt><trkpt lat="33.727375" lon="7.7479032"><ele>27.0</ele><time>2026-04-12T08:53:35.07Z</time></trkpt><trkpt lat="33.7272686" lon="7.7478887"><ele>27.0</ele><time>2026-04-12T08:53:36.067Z</time></trkpt><trkpt lat="33.727161" lon="7.7478834"><ele>27.0</ele><time>2026-04-12T08:53:38.071Z</time></trkpt><trkpt lat="33.7270956" lon="7.7478749"><ele>27.0</ele><time>2026-04-12T08:53:40.074Z</time></trkpt><trkpt lat="33.7264436" lon="7.7477981"><ele>27.0</ele><time>2026-04-12T08:53:43.072Z</time></trkpt><trkpt lat="33.7263803" lon="7.7477872"><ele>27.0</ele><time>2026-04-12T08:53:45.073Z</time></trkpt><trkpt lat="33.726029" lon="7.7477286"><ele>27.0</ele><time>2026-04-12T08:53:47.075Z</time></trkpt><trkpt lat="33.7257369" lon="7.7476879"><ele>27.0</ele><time>2026-04-12T08:53:49.071Z</time></trkpt><trkpt lat="33.7256088" lon="7.7476745"><ele>27.0</ele><time>2026-04-12T08:53:50.064Z</time></trkpt><trkpt lat="33.7254979" lon="7.7476605"><ele>27.0</ele><time>2026-04-12T08:53:51.07Z</time></trkpt><trkpt lat="33.7253883" lon="7.7476423"><ele>27.0</ele><time>2026-04-12T08:53:52.061Z</time></trkpt><trkpt lat="33.7252727" lon="7.7476218"><ele>27.0</ele><time>2026-04-12T08:53:53.07Z</time></trkpt><trkpt lat="33.7251575" lon="7.7476016"><ele>27.0</ele><time>2026-04-12T08:53:54.071Z</time></trkpt><trkpt lat="33.7250208" lon="7.7475828"><ele>27.0</ele><time>2026-04-12T08:53:55.071Z</time></trkpt><trkpt lat="33.7248984" lon="7.7475659"><ele>27.0</ele><time>2026-04-12T08:53:56.065Z</time></trkpt><trkpt lat="33.7247709" lon="7.7475506"><ele>27.0</ele><time>2026-04-12T08:53:57.078Z</time></trkpt><trkpt lat="33.7246393" lon="7.7475385"><ele>27.0</ele><time>2026-04-12T08:53:58.066Z</time></trkpt><trkpt lat="33.7245138" lon="7.7475308"><ele>27.0</ele><time>2026-04-12T08:53:59.07Z</time></trkpt><trkpt lat="33.7243921" lon="7.7475218"><ele>27.0</ele><time>2026-04-12T08:54:00.071Z</time></trkpt><trkpt lat="33.7242822" lon="7.7475111"><ele>27.0</ele><time>2026-04-12T08:54:01.067Z</time></trkpt><trkpt lat="33.7241809" lon="7.7474976"><ele>27.000000000000004</ele><time>2026-04-12T08:54:02.066Z</time></trkpt><trkpt lat="33.7240927" lon="7.7474858"><ele>27.000000000000004</ele><time>2026-04-12T08:54:03.071Z</time></trkpt><trkpt lat="33.7240079" lon="7.7474737"><ele>27.0</ele><time>2026-04-12T08:54:04.065Z</time></trkpt><trkpt lat="33.7239409" lon="7.7474653"><ele>27.0</ele><time>2026-04-12T08:54:05.058Z</time></trkpt><trkpt lat="33.7238344" lon="7.7474606"><ele>27.0</ele><time>2026-04-12T08:54:07.051Z</time></trkpt><trkpt lat="33.7237486" lon="7.7474569"><ele>27.0</ele><time>2026-04-12T08:54:10.075Z</time></trkpt><trkpt lat="33.7236707" lon="7.7474444"><ele>27.0</ele><time>2026-04-12T08:54:12.078Z</time></trkpt><trkpt lat="33.7235905" lon="7.7474237"><ele>27.0</ele><time>2026-04-12T08:54:14.081Z</time></trkpt><trkpt lat="33.7235004" lon="7.7473985"><ele>27.0</ele><time>2026-04-12T08:54:16.073Z</time></trkpt><trkpt lat="33.7234336" lon="7.7473945"><ele>27.0</ele><time>2026-04-12T08:54:21.076Z</time></trkpt><trkpt lat="33.7227476" lon="7.7473322"><ele>27.5</ele><time>2026-04-12T08:54:25.079Z</time></trkpt><trkpt lat="33.7226484" lon="7.7473127"><ele>28.0</ele><time>2026-04-12T08:54:26.068Z</time></trkpt><trkpt lat="33.722519" lon="7.747291"><ele>28.5</ele><time>2026-04-12T08:54:27.065Z</time></trkpt><trkpt lat="33.7223895" lon="7.7472743"><ele>29.0</ele><time>2026-04-12T08:54:28.076Z</time></trkpt><trkpt lat="33.7222425" lon="7.7472708"><ele>29.0</ele><time>2026-04-12T08:54:29.066Z</time></trkpt><trkpt lat="33.7221367" lon="7.7472812"><ele>29.0</ele><time>2026-04-12T08:54:30.056Z</time></trkpt><trkpt lat="33.7220396" lon="7.7472939"><ele>29.0</ele><time>2026-04-12T08:54:31.065Z</time></trkpt><trkpt lat="33.7218599" lon="7.7473009"><ele>29.0</ele><time>2026-04-12T08:54:32.965Z</time></trkpt><trkpt lat="33.7217682" lon="7.7472969"><ele>29.4</ele><time>2026-04-12T08:54:33.962Z</time></trkpt><trkpt lat="33.7216756" lon="7.7472855"><ele>29.799999999999997</ele><time>2026-04-12T08:54:34.959Z</time></trkpt><trkpt lat="33.7215715" lon="7.7472632"><ele>30.200000000000003</ele><time>2026-04-12T08:54:35.983Z</time></trkpt><trkpt lat="33.7214576" lon="7.7472425"><ele>30.6</ele><time>2026-04-12T08:54:36.98Z</time></trkpt><trkpt lat="33.7213376" lon="7.7472203"><ele>31.0</ele><time>2026-04-12T08:54:37.977Z</time></trkpt><trkpt lat="33.7212395" lon="7.7472029"><ele>31.000000000000004</ele><time>2026-04-12T08:54:38.981Z</time></trkpt><trkpt lat="33.7211528" lon="7.7471834"><ele>31.0</ele><time>2026-04-12T08:54:39.977Z</time></trkpt><trkpt lat="33.7210797" lon="7.7471675"><ele>31.0</ele><time>2026-04-12T08:54:40.97Z</time></trkpt><trkpt lat="33.7210115" lon="7.7471461"><ele>31.0</ele><time>2026-04-12T08:54:42.972Z</time></trkpt><trkpt lat="33.7209668" lon="7.7470785"><ele>31.000000000000004</ele><time>2026-04-12T09:00:00.996Z</time></trkpt><trkpt lat="33.7208932" lon="7.74706"><ele>31.0</ele><time>2026-04-12T09:00:03.982Z</time></trkpt><trkpt lat="33.7207865" lon="7.7470631"><ele>31.000000000000004</ele><time>2026-04-12T09:00:05.968Z</time></trkpt><trkpt lat="33.7207048" lon="7.7470646"><ele>31.0</ele><time>2026-04-12T09:00:06.97Z</time></trkpt><trkpt lat="33.7206234" lon="7.747073"><ele>31.0</ele><time>2026-04-12T09:00:07.979Z</time></trkpt><trkpt lat="33.7205521" lon="7.7470686"><ele>31.0</ele><time>2026-04-12T09:00:08.964Z</time></trkpt><trkpt lat="33.7204803" lon="7.7470648"><ele>31.000000000000004</ele><time>2026-04-12T09:00:09.964Z</time></trkpt><trkpt lat="33.7204156" lon="7.7470505"><ele>31.0</ele><time>2026-04-12T09:00:10.975Z</time></trkpt><trkpt lat="33.7202928" lon="7.7470279"><ele>30.833333333333336</ele><time>2026-04-12T09:00:12.968Z</time></trkpt><trkpt lat="33.7202116" lon="7.7470204"><ele>30.666666666666668</ele><time>2026-04-12T09:00:13.974Z</time></trkpt><trkpt lat="33.7201238" lon="7.7470155"><ele>30.5</ele><time>2026-04-12T09:00:14.966Z</time></trkpt><trkpt lat="33.7200383" lon="7.7470025"><ele>30.333333333333336</ele><time>2026-04-12T09:00:15.971Z</time></trkpt><trkpt lat="33.719956" lon="7.7469891"><ele>30.166666666666668</ele><time>2026-04-12T09:00:16.97Z</time></trkpt><trkpt lat="33.7198845" lon="7.7469741"><ele>30.0</ele><time>2026-04-12T09:00:17.967Z</time></trkpt><trkpt lat="33.7198154" lon="7.7469562"><ele>30.0</ele><time>2026-04-12T09:00:18.976Z</time></trkpt><trkpt lat="33.7197433" lon="7.7469434"><ele>30.0</ele><time>2026-04-12T09:00:19.967Z</time></trkpt><trkpt lat="33.7196756" lon="7.7469364"><ele>30.0</ele><time>2026-04-12T09:00:20.976Z</time></trkpt><trkpt lat="33.7196007" lon="7.7469223"><ele>30.0</ele><time>2026-04-12T09:00:21.971Z</time></trkpt><trkpt lat="33.7195191" lon="7.7469178"><ele>30.0</ele><time>2026-04-12T09:00:22.968Z</time></trkpt><trkpt lat="33.7194314" lon="7.7469281"><ele>30.0</ele><time>2026-04-12T09:00:23.967Z</time></trkpt><trkpt lat="33.7193387" lon="7.7469262"><ele>29.8</ele><time>2026-04-12T09:00:24.969Z</time></trkpt><trkpt lat="33.719242" lon="7.7469236"><ele>29.6</ele><time>2026-04-12T09:00:25.969Z</time></trkpt><trkpt lat="33.7191501" lon="7.7469122"><ele>29.4</ele><time>2026-04-12T09:00:26.965Z</time></trkpt><trkpt lat="33.719051" lon="7.7468972"><ele>29.2</ele><time>2026-04-12T09:00:27.968Z</time></trkpt><trkpt lat="33.718957" lon="7.7468783"><ele>29.0</ele><time>2026-04-12T09:00:28.974Z</time></trkpt><trkpt lat="33.7188657" lon="7.7468635"><ele>28.999999999999996</ele><time>2026-04-12T09:00:29.962Z</time></trkpt><trkpt lat="33.7187782" lon="7.7468471"><ele>29.0</ele><time>2026-04-12T09:00:30.968Z</time></trkpt><trkpt lat="33.7186928" lon="7.7468286"><ele>29.0</ele><time>2026-04-12T09:00:31.962Z</time></trkpt><trkpt lat="33.7186115" lon="7.7468144"><ele>29.0</ele><time>2026-04-12T09:00:32.967Z</time></trkpt><trkpt lat="33.718524" lon="7.7467976"><ele>28.999999999999996</ele><time>2026-04-12T09:00:33.962Z</time></trkpt><trkpt lat="33.7184359" lon="7.7467821"><ele>29.0</ele><time>2026-04-12T09:00:34.965Z</time></trkpt><trkpt lat="33.718349" lon="7.7467822"><ele>28.999999999999996</ele><time>2026-04-12T09:00:35.965Z</time></trkpt><trkpt lat="33.7182622" lon="7.7467847"><ele>29.0</ele><time>2026-04-12T09:00:36.966Z</time></trkpt><trkpt lat="33.7181912" lon="7.7467793"><ele>29.0</ele><time>2026-04-12T09:00:37.977Z</time></trkpt><trkpt lat="33.7181287" lon="7.7467694"><ele>29.0</ele><time>2026-04-12T09:00:38.994Z</time></trkpt><trkpt lat="33.7180254" lon="7.7467649"><ele>28.999999999999996</ele><time>2026-04-12T09:00:40.974Z</time></trkpt><trkpt lat="33.7179061" lon="7.7467531"><ele>29.0</ele><time>2026-04-12T09:00:42.971Z</time></trkpt><trkpt lat="33.7178407" lon="7.7467387"><ele>29.000000000000004</ele><time>2026-04-12T09:00:43.982Z</time></trkpt><trkpt lat="33.7177696" lon="7.7467247"><ele>29.0</ele><time>2026-04-12T09:00:44.978Z</time></trkpt><trkpt lat="33.7176944" lon="7.7467109"><ele>29.000000000000004</ele><time>2026-04-12T09:00:45.971Z</time></trkpt><trkpt lat="33.7176256" lon="7.7467096"><ele>29.000000000000004</ele><time>2026-04-12T09:00:46.978Z</time></trkpt><trkpt lat="33.717556" lon="7.7467115"><ele>29.0</ele><time>2026-04-12T09:00:47.972Z</time></trkpt><trkpt lat="33.7174893" lon="7.7467027"><ele>29.000000000000004</ele><time>2026-04-12T09:00:48.98Z</time></trkpt><trkpt lat="33.7174251" lon="7.7466928"><ele>29.000000000000004</ele><time>2026-04-12T09:00:49.983Z</time></trkpt><trkpt lat="33.717359" lon="7.7466804"><ele>29.0</ele><time>2026-04-12T09:00:50.975Z</time></trkpt><trkpt lat="33.7172856" lon="7.7466691"><ele>29.0</ele><time>2026-04-12T09:00:51.984Z</time></trkpt><trkpt lat="33.71721" lon="7.7466609"><ele>29.0</ele><time>2026-04-12T09:00:52.973Z</time></trkpt><trkpt lat="33.7171417" lon="7.7466699"><ele>29.0</ele><time>2026-04-12T09:00:53.975Z</time></trkpt><trkpt lat="33.7170266" lon="7.7466558"><ele>29.0</ele><time>2026-04-12T09:00:55.978Z</time></trkpt><trkpt lat="33.7168995" lon="7.7466566"><ele>28.999999999999996</ele><time>2026-04-12T09:00:57.976Z</time></trkpt><trkpt lat="33.7168325" lon="7.7466507"><ele>29.0</ele><time>2026-04-12T09:00:58.988Z</time></trkpt><trkpt lat="33.7166984" lon="7.7466425"><ele>29.0</ele><time>2026-04-12T09:01:00.978Z</time></trkpt><trkpt lat="33.716625" lon="7.7466319"><ele>29.0</ele><time>2026-04-12T09:01:01.982Z</time></trkpt><trkpt lat="33.7165433" lon="7.7466151"><ele>28.999999999999996</ele><time>2026-04-12T09:01:02.973Z</time></trkpt><trkpt lat="33.7164567" lon="7.7466014"><ele>29.0</ele><time>2026-04-12T09:01:03.977Z</time></trkpt><trkpt lat="33.7163618" lon="7.7465882"><ele>29.0</ele><time>2026-04-12T09:01:04.973Z</time></trkpt><trkpt lat="33.7162761" lon="7.7465749"><ele>29.0</ele><time>2026-04-12T09:01:05.976Z</time></trkpt><trkpt lat="33.7161859" lon="7.7465706"><ele>29.0</ele><time>2026-04-12T09:01:06.973Z</time></trkpt><trkpt lat="33.7160911" lon="7.746555"><ele>29.0</ele><time>2026-04-12T09:01:07.973Z</time></trkpt><trkpt lat="33.7159995" lon="7.7465381"><ele>29.0</ele><time>2026-04-12T09:01:08.977Z</time></trkpt><trkpt lat="33.715899" lon="7.7465247"><ele>29.0</ele><time>2026-04-12T09:01:09.991Z</time></trkpt><trkpt lat="33.7158015" lon="7.7465111"><ele>29.0</ele><time>2026-04-12T09:01:10.966Z</time></trkpt><trkpt lat="33.7157002" lon="7.7465193"><ele>29.0</ele><time>2026-04-12T09:01:11.978Z</time></trkpt><trkpt lat="33.7155984" lon="7.7465251"><ele>29.0</ele><time>2026-04-12T09:01:12.969Z</time></trkpt><trkpt lat="33.7155012" lon="7.7465222"><ele>29.0</ele><time>2026-04-12T09:01:13.967Z</time></trkpt><trkpt lat="33.7154052" lon="7.7465133"><ele>29.0</ele><time>2026-04-12T09:01:14.966Z</time></trkpt><trkpt lat="33.7153116" lon="7.7464953"><ele>29.0</ele><time>2026-04-12T09:01:15.969Z</time></trkpt><trkpt lat="33.7152201" lon="7.7464794"><ele>29.0</ele><time>2026-04-12T09:01:16.971Z</time></trkpt><trkpt lat="33.7151194" lon="7.746461"><ele>29.0</ele><time>2026-04-12T09:01:17.978Z</time></trkpt><trkpt lat="33.7150221" lon="7.7464409"><ele>29.0</ele><time>2026-04-12T09:01:18.976Z</time></trkpt><trkpt lat="33.7149229" lon="7.7464192"><ele>28.799999999999997</ele><time>2026-04-12T09:01:19.977Z</time></trkpt><trkpt lat="33.7148271" lon="7.7464104"><ele>28.599999999999998</ele><time>2026-04-12T09:01:20.983Z</time></trkpt><trkpt lat="33.7147251" lon="7.7463998"><ele>28.4</ele><time>2026-04-12T09:01:21.974Z</time></trkpt><trkpt lat="33.714617" lon="7.7463878"><ele>28.2</ele><time>2026-04-12T09:01:22.981Z</time></trkpt><trkpt lat="33.7145164" lon="7.7463793"><ele>28.0</ele><time>2026-04-12T09:01:23.972Z</time></trkpt><trkpt lat="33.7144142" lon="7.7463672"><ele>28.2</ele><time>2026-04-12T09:01:24.981Z</time></trkpt><trkpt lat="33.7143125" lon="7.7463573"><ele>28.4</ele><time>2026-04-12T09:01:25.974Z</time></trkpt><trkpt lat="33.7142158" lon="7.7463437"><ele>28.599999999999998</ele><time>2026-04-12T09:01:26.976Z</time></trkpt><trkpt lat="33.714111" lon="7.7463404"><ele>28.799999999999997</ele><time>2026-04-12T09:01:27.98Z</time></trkpt><trkpt lat="33.7140029" lon="7.7463341"><ele>29.0</ele><time>2026-04-12T09:01:28.973Z</time></trkpt><trkpt lat="33.7138967" lon="7.7463229"><ele>29.0</ele><time>2026-04-12T09:01:29.98Z</time></trkpt><trkpt lat="33.7137995" lon="7.7463042"><ele>29.0</ele><time>2026-04-12T09:01:30.978Z</time></trkpt><trkpt lat="33.7136965" lon="7.7462928"><ele>29.0</ele><time>2026-04-12T09:01:31.972Z</time></trkpt><trkpt lat="33.7135939" lon="7.7462792"><ele>29.0</ele><time>2026-04-12T09:01:32.975Z</time></trkpt><trkpt lat="33.7134866" lon="7.7462647"><ele>29.0</ele><time>2026-04-12T09:01:33.968Z</time></trkpt><trkpt lat="33.7133762" lon="7.7462602"><ele>29.0</ele><time>2026-04-12T09:01:34.976Z</time></trkpt><trkpt lat="33.7132645" lon="7.7462459"><ele>29.0</ele><time>2026-04-12T09:01:35.974Z</time></trkpt><trkpt lat="33.7131498" lon="7.7462319"><ele>29.0</ele><time>2026-04-12T09:01:36.972Z</time></trkpt><trkpt lat="33.7130364" lon="7.74622"><ele>29.0</ele><time>2026-04-12T09:01:37.968Z</time></trkpt><trkpt lat="33.7129259" lon="7.7462074"><ele>29.0</ele><time>2026-04-12T09:01:38.983Z</time></trkpt><trkpt lat="33.7128244" lon="7.7461867"><ele>29.0</ele><time>2026-04-12T09:01:39.982Z</time></trkpt><trkpt lat="33.7127204" lon="7.7461757"><ele>29.0</ele><time>2026-04-12T09:01:40.984Z</time></trkpt><trkpt lat="33.7126103" lon="7.746174"><ele>29.0</ele><time>2026-04-12T09:01:41.978Z</time></trkpt><trkpt lat="33.7124933" lon="7.7461641"><ele>29.0</ele><time>2026-04-12T09:01:42.972Z</time></trkpt><trkpt lat="33.7123733" lon="7.7461607"><ele>28.75</ele><time>2026-04-12T09:01:43.972Z</time></trkpt><trkpt lat="33.7122495" lon="7.7461401"><ele>28.5</ele><time>2026-04-12T09:01:44.981Z</time></trkpt><trkpt lat="33.7121307" lon="7.7461189"><ele>28.25</ele><time>2026-04-12T09:01:45.973Z</time></trkpt><trkpt lat="33.712018" lon="7.7461096"><ele>28.0</ele><time>2026-04-12T09:01:46.985Z</time></trkpt><trkpt lat="33.7119097" lon="7.7460949"><ele>28.0</ele><time>2026-04-12T09:01:47.974Z</time></trkpt><trkpt lat="33.7117999" lon="7.7460765"><ele>28.0</ele><time>2026-04-12T09:01:48.978Z</time></trkpt><trkpt lat="33.7116894" lon="7.7460598"><ele>28.0</ele><time>2026-04-12T09:01:49.98Z</time></trkpt><trkpt lat="33.711567" lon="7.7460338"><ele>28.0</ele><time>2026-04-12T09:01:50.979Z</time></trkpt><trkpt lat="33.7114418" lon="7.7460131"><ele>28.0</ele><time>2026-04-12T09:01:51.98Z</time></trkpt><trkpt lat="33.7113175" lon="7.7459985"><ele>28.0</ele><time>2026-04-12T09:01:52.97Z</time></trkpt><trkpt lat="33.711197" lon="7.745986"><ele>28.0</ele><time>2026-04-12T09:01:53.981Z</time></trkpt><trkpt lat="33.711081" lon="7.7459638"><ele>28.0</ele><time>2026-04-12T09:01:54.98Z</time></trkpt><trkpt lat="33.7109618" lon="7.7459629"><ele>28.0</ele><time>2026-04-12T09:01:55.974Z</time></trkpt><trkpt lat="33.7108399" lon="7.74596"><ele>28.0</ele><time>2026-04-12T09:01:56.979Z</time></trkpt><trkpt lat="33.7107146" lon="7.745959"><ele>28.0</ele><time>2026-04-12T09:01:57.983Z</time></trkpt><trkpt lat="33.7105953" lon="7.7459431"><ele>28.0</ele><time>2026-04-12T09:01:58.981Z</time></trkpt><trkpt lat="33.7104828" lon="7.745924"><ele>28.0</ele><time>2026-04-12T09:01:59.984Z</time></trkpt><trkpt lat="33.7103614" lon="7.7458996"><ele>28.0</ele><time>2026-04-12T09:02:00.975Z</time></trkpt><trkpt lat="33.7102409" lon="7.7458786"><ele>28.0</ele><time>2026-04-12T09:02:01.976Z</time></trkpt><trkpt lat="33.7101207" lon="7.7458585"><ele>28.0</ele><time>2026-04-12T09:02:02.982Z</time></trkpt><trkpt lat="33.7100007" lon="7.7458368"><ele>27.5</ele><time>2026-04-12T09:02:03.974Z</time></trkpt><trkpt lat="33.709879" lon="7.7458282"><ele>27.0</ele><time>2026-04-12T09:02:04.973Z</time></trkpt><trkpt lat="33.709762" lon="7.7458207"><ele>26.5</ele><time>2026-04-12T09:02:05.986Z</time></trkpt><trkpt lat="33.7096463" lon="7.7458091"><ele>26.0</ele><time>2026-04-12T09:02:06.972Z</time></trkpt><trkpt lat="33.7095351" lon="7.7458026"><ele>26.0</ele><time>2026-04-12T09:02:07.977Z</time></trkpt><trkpt lat="33.7094266" lon="7.7457844"><ele>26.0</ele><time>2026-04-12T09:02:08.978Z</time></trkpt><trkpt lat="33.7093158" lon="7.7457627"><ele>26.0</ele><time>2026-04-12T09:02:09.978Z</time></trkpt><trkpt lat="33.7092015" lon="7.7457509"><ele>26.0</ele><time>2026-04-12T09:02:10.978Z</time></trkpt><trkpt lat="33.7090849" lon="7.7457315"><ele>26.5</ele><time>2026-04-12T09:02:11.989Z</time></trkpt><trkpt lat="33.7089648" lon="7.7457334"><ele>27.0</ele><time>2026-04-12T09:02:12.978Z</time></trkpt><trkpt lat="33.7088468" lon="7.7457283"><ele>27.5</ele><time>2026-04-12T09:02:13.979Z</time></trkpt><trkpt lat="33.7087266" lon="7.7457166"><ele>28.0</ele><time>2026-04-12T09:02:14.977Z</time></trkpt><trkpt lat="33.7086091" lon="7.7456987"><ele>27.75</ele><time>2026-04-12T09:02:15.972Z</time></trkpt><trkpt lat="33.7084896" lon="7.7456799"><ele>27.5</ele><time>2026-04-12T09:02:16.981Z</time></trkpt><trkpt lat="33.7083609" lon="7.7456633"><ele>27.25</ele><time>2026-04-12T09:02:17.967Z</time></trkpt><trkpt lat="33.7082396" lon="7.74565"><ele>27.0</ele><time>2026-04-12T09:02:18.981Z</time></trkpt><trkpt lat="33.70812" lon="7.7456418"><ele>27.0</ele><time>2026-04-12T09:02:19.982Z</time></trkpt><trkpt lat="33.7080068" lon="7.745623"><ele>27.000000000000004</ele><time>2026-04-12T09:02:20.968Z</time></trkpt><trkpt lat="33.7079027" lon="7.7456095"><ele>27.000000000000004</ele><time>2026-04-12T09:02:21.978Z</time></trkpt><trkpt lat="33.7077913" lon="7.7456085"><ele>27.0</ele><time>2026-04-12T09:02:22.982Z</time></trkpt><trkpt lat="33.7076783" lon="7.7456088"><ele>27.0</ele><time>2026-04-12T09:02:23.975Z</time></trkpt><trkpt lat="33.7075861" lon="7.7455912"><ele>26.75</ele><time>2026-04-12T09:02:24.983Z</time></trkpt><trkpt lat="33.707493" lon="7.7455589"><ele>26.5</ele><time>2026-04-12T09:02:25.982Z</time></trkpt><trkpt lat="33.7073813" lon="7.7455427"><ele>26.25</ele><time>2026-04-12T09:02:26.974Z</time></trkpt><trkpt lat="33.7072603" lon="7.7455328"><ele>26.0</ele><time>2026-04-12T09:02:27.984Z</time></trkpt><trkpt lat="33.7071315" lon="7.7455224"><ele>26.0</ele><time>2026-04-12T09:02:28.983Z</time></trkpt><trkpt lat="33.7070172" lon="7.7455059"><ele>26.0</ele><time>2026-04-12T09:02:29.974Z</time></trkpt><trkpt lat="33.706902" lon="7.7454926"><ele>26.0</ele><time>2026-04-12T09:02:30.988Z</time></trkpt><trkpt lat="33.7067838" lon="7.7454768"><ele>26.0</ele><time>2026-04-12T09:02:31.982Z</time></trkpt><trkpt lat="33.7066634" lon="7.7454642"><ele>26.5</ele><time>2026-04-12T09:02:32.983Z</time></trkpt><trkpt lat="33.7065385" lon="7.7454507"><ele>27.0</ele><time>2026-04-12T09:02:33.978Z</time></trkpt><trkpt lat="33.7064205" lon="7.7454418"><ele>27.5</ele><time>2026-04-12T09:02:34.976Z</time></trkpt><trkpt lat="33.706309" lon="7.74543"><ele>28.0</ele><time>2026-04-12T09:02:35.977Z</time></trkpt><trkpt lat="33.7062035" lon="7.7454281"><ele>28.0</ele><time>2026-04-12T09:02:36.967Z</time></trkpt><trkpt lat="33.7060924" lon="7.7454227"><ele>28.0</ele><time>2026-04-12T09:02:37.974Z</time></trkpt><trkpt lat="33.7059807" lon="7.7454169"><ele>28.0</ele><time>2026-04-12T09:02:38.977Z</time></trkpt><trkpt lat="33.7058716" lon="7.7454056"><ele>28.0</ele><time>2026-04-12T09:02:39.972Z</time></trkpt><trkpt lat="33.7057547" lon="7.7453842"><ele>28.25</ele><time>2026-04-12T09:02:40.976Z</time></trkpt><trkpt lat="33.7056363" lon="7.745366"><ele>28.5</ele><time>2026-04-12T09:02:41.97Z</time></trkpt><trkpt lat="33.7055217" lon="7.7453457"><ele>28.75</ele><time>2026-04-12T09:02:42.991Z</time></trkpt><trkpt lat="33.7054023" lon="7.7453205"><ele>29.0</ele><time>2026-04-12T09:02:43.972Z</time></trkpt><trkpt lat="33.7052796" lon="7.7453048"><ele>28.5</ele><time>2026-04-12T09:02:44.981Z</time></trkpt><trkpt lat="33.7051668" lon="7.7452986"><ele>28.0</ele><time>2026-04-12T09:02:45.97Z</time></trkpt><trkpt lat="33.7050504" lon="7.7453025"><ele>27.5</ele><time>2026-04-12T09:02:46.976Z</time></trkpt><trkpt lat="33.7049328" lon="7.7452936"><ele>27.0</ele><time>2026-04-12T09:02:47.974Z</time></trkpt><trkpt lat="33.7048125" lon="7.7452736"><ele>27.0</ele><time>2026-04-12T09:02:48.975Z</time></trkpt><trkpt lat="33.7046827" lon="7.7452536"><ele>27.0</ele><time>2026-04-12T09:02:49.964Z</time></trkpt><trkpt lat="33.704543" lon="7.7452328"><ele>27.0</ele><time>2026-04-12T09:02:50.972Z</time></trkpt><trkpt lat="33.704406" lon="7.7452167"><ele>27.0</ele><time>2026-04-12T09:02:51.965Z</time></trkpt><trkpt lat="33.7042741" lon="7.7451981"><ele>27.25</ele><time>2026-04-12T09:02:52.972Z</time></trkpt><trkpt lat="33.7041446" lon="7.7451827"><ele>27.5</ele><time>2026-04-12T09:02:53.979Z</time></trkpt><trkpt lat="33.7040102" lon="7.7451682"><ele>27.75</ele><time>2026-04-12T09:02:54.978Z</time></trkpt><trkpt lat="33.7038844" lon="7.7451585"><ele>28.0</ele><time>2026-04-12T09:02:55.971Z</time></trkpt><trkpt lat="33.7037514" lon="7.745142"><ele>28.0</ele><time>2026-04-12T09:02:56.977Z</time></trkpt><trkpt lat="33.7036241" lon="7.7451189"><ele>28.0</ele><time>2026-04-12T09:02:57.975Z</time></trkpt><trkpt lat="33.7035031" lon="7.745098"><ele>28.0</ele><time>2026-04-12T09:02:58.982Z</time></trkpt><trkpt lat="33.703387" lon="7.7450823"><ele>28.0</ele><time>2026-04-12T09:02:59.966Z</time></trkpt><trkpt lat="33.7032736" lon="7.7450719"><ele>27.75</ele><time>2026-04-12T09:03:00.961Z</time></trkpt><trkpt lat="33.7031593" lon="7.7450672"><ele>27.5</ele><time>2026-04-12T09:03:01.975Z</time></trkpt><trkpt lat="33.7030386" lon="7.7450505"><ele>27.25</ele><time>2026-04-12T09:03:02.973Z</time></trkpt><trkpt lat="33.7029144" lon="7.7450268"><ele>27.0</ele><time>2026-04-12T09:03:03.969Z</time></trkpt><trkpt lat="33.7027988" lon="7.7450071"><ele>27.25</ele><time>2026-04-12T09:03:04.977Z</time></trkpt><trkpt lat="33.702682" lon="7.7449882"><ele>27.5</ele><time>2026-04-12T09:03:05.973Z</time></trkpt><trkpt lat="33.7025597" lon="7.7449693"><ele>27.75</ele><time>2026-04-12T09:03:06.978Z</time></trkpt><trkpt lat="33.7024432" lon="7.7449555"><ele>28.0</ele><time>2026-04-12T09:03:07.983Z</time></trkpt><trkpt lat="33.7023228" lon="7.744942"><ele>28.0</ele><time>2026-04-12T09:03:08.979Z</time></trkpt><trkpt lat="33.7022075" lon="7.7449331"><ele>27.999999999999996</ele><time>2026-04-12T09:03:09.979Z</time></trkpt><trkpt lat="33.7020968" lon="7.7449173"><ele>27.999999999999996</ele><time>2026-04-12T09:03:10.979Z</time></trkpt><trkpt lat="33.7019904" lon="7.744906"><ele>28.0</ele><time>2026-04-12T09:03:11.994Z</time></trkpt><trkpt lat="33.7018757" lon="7.7448996"><ele>28.0</ele><time>2026-04-12T09:03:12.981Z</time></trkpt><trkpt lat="33.7017598" lon="7.7448919"><ele>28.25</ele><time>2026-04-12T09:03:13.997Z</time></trkpt><trkpt lat="33.7016487" lon="7.7448809"><ele>28.5</ele><time>2026-04-12T09:03:14.976Z</time></trkpt><trkpt lat="33.7015329" lon="7.7448678"><ele>28.75</ele><time>2026-04-12T09:03:15.976Z</time></trkpt><trkpt lat="33.7014087" lon="7.7448543"><ele>29.0</ele><time>2026-04-12T09:03:16.971Z</time></trkpt><trkpt lat="33.7012821" lon="7.7448338"><ele>29.0</ele><time>2026-04-12T09:03:17.986Z</time></trkpt><trkpt lat="33.7011558" lon="7.7448125"><ele>29.0</ele><time>2026-04-12T09:03:18.989Z</time></trkpt><trkpt lat="33.7010348" lon="7.7448019"><ele>29.0</ele><time>2026-04-12T09:03:19.98Z</time></trkpt><trkpt lat="33.7009079" lon="7.7447903"><ele>29.0</ele><time>2026-04-12T09:03:20.979Z</time></trkpt><trkpt lat="33.7007885" lon="7.7447779"><ele>28.5</ele><time>2026-04-12T09:03:21.984Z</time></trkpt><trkpt lat="33.7006629" lon="7.7447699"><ele>28.0</ele><time>2026-04-12T09:03:22.981Z</time></trkpt><trkpt lat="33.7005392" lon="7.7447576"><ele>27.5</ele><time>2026-04-12T09:03:23.978Z</time></trkpt><trkpt lat="33.7004199" lon="7.7447504"><ele>27.0</ele><time>2026-04-12T09:03:24.984Z</time></trkpt><trkpt lat="33.7003054" lon="7.7447411"><ele>27.25</ele><time>2026-04-12T09:03:25.972Z</time></trkpt><trkpt lat="33.7001864" lon="7.7447303"><ele>27.5</ele><time>2026-04-12T09:03:26.978Z</time></trkpt><trkpt lat="33.7000728" lon="7.7447164"><ele>27.75</ele><time>2026-04-12T09:03:27.98Z</time></trkpt><trkpt lat="33.6999607" lon="7.7446964"><ele>28.0</ele><time>2026-04-12T09:03:28.985Z</time></trkpt><trkpt lat="33.6998503" lon="7.7446758"><ele>28.0</ele><time>2026-04-12T09:03:29.971Z</time></trkpt><trkpt lat="33.699738" lon="7.744663"><ele>28.0</ele><time>2026-04-12T09:03:30.965Z</time></trkpt><trkpt lat="33.6996237" lon="7.7446488"><ele>28.0</ele><time>2026-04-12T09:03:31.971Z</time></trkpt><trkpt lat="33.6995038" lon="7.7446313"><ele>28.0</ele><time>2026-04-12T09:03:32.98Z</time></trkpt><trkpt lat="33.6993829" lon="7.7446237"><ele>28.0</ele><time>2026-04-12T09:03:33.972Z</time></trkpt><trkpt lat="33.6992601" lon="7.7446186"><ele>28.0</ele><time>2026-04-12T09:03:34.969Z</time></trkpt><trkpt lat="33.6991333" lon="7.7446057"><ele>28.0</ele><time>2026-04-12T09:03:35.963Z</time></trkpt><trkpt lat="33.6990001" lon="7.7445849"><ele>28.0</ele><time>2026-04-12T09:03:36.976Z</time></trkpt><trkpt lat="33.6988677" lon="7.7445658"><ele>28.0</ele><time>2026-04-12T09:03:37.964Z</time></trkpt><trkpt lat="33.6987261" lon="7.7445558"><ele>28.0</ele><time>2026-04-12T09:03:38.967Z</time></trkpt><trkpt lat="33.698583" lon="7.7445481"><ele>28.0</ele><time>2026-04-12T09:03:39.974Z</time></trkpt><trkpt lat="33.6984423" lon="7.7445431"><ele>28.0</ele><time>2026-04-12T09:03:40.976Z</time></trkpt><trkpt lat="33.6983021" lon="7.7445248"><ele>28.0</ele><time>2026-04-12T09:03:41.983Z</time></trkpt><trkpt lat="33.6981681" lon="7.7445117"><ele>28.0</ele><time>2026-04-12T09:03:42.994Z</time></trkpt><trkpt lat="33.6980523" lon="7.7444838"><ele>28.0</ele><time>2026-04-12T09:03:43.981Z</time></trkpt><trkpt lat="33.6979152" lon="7.7444669"><ele>28.0</ele><time>2026-04-12T09:03:44.992Z</time></trkpt><trkpt lat="33.6977941" lon="7.7444422"><ele>27.75</ele><time>2026-04-12T09:03:45.987Z</time></trkpt><trkpt lat="33.6976577" lon="7.7444406"><ele>27.5</ele><time>2026-04-12T09:03:46.979Z</time></trkpt><trkpt lat="33.697524" lon="7.7444255"><ele>27.25</ele><time>2026-04-12T09:03:47.982Z</time></trkpt><trkpt lat="33.6973992" lon="7.7444126"><ele>27.0</ele><time>2026-04-12T09:03:48.986Z</time></trkpt><trkpt lat="33.6972805" lon="7.7443998"><ele>27.0</ele><time>2026-04-12T09:03:49.978Z</time></trkpt><trkpt lat="33.6971531" lon="7.7443833"><ele>27.0</ele><time>2026-04-12T09:03:50.985Z</time></trkpt><trkpt lat="33.6970167" lon="7.7443713"><ele>27.0</ele><time>2026-04-12T09:03:51.977Z</time></trkpt><trkpt lat="33.6968578" lon="7.7443537"><ele>27.0</ele><time>2026-04-12T09:03:52.994Z</time></trkpt><trkpt lat="33.6967256" lon="7.744337"><ele>27.5</ele><time>2026-04-12T09:03:53.978Z</time></trkpt><trkpt lat="33.6966123" lon="7.7443335"><ele>28.0</ele><time>2026-04-12T09:03:54.982Z</time></trkpt><trkpt lat="33.6964904" lon="7.744317"><ele>28.5</ele><time>2026-04-12T09:03:55.983Z</time></trkpt><trkpt lat="33.6963656" lon="7.7442968"><ele>29.0</ele><time>2026-04-12T09:03:56.98Z</time></trkpt><trkpt lat="33.696238" lon="7.7442856"><ele>29.0</ele><time>2026-04-12T09:03:57.981Z</time></trkpt><trkpt lat="33.6960965" lon="7.744272"><ele>29.0</ele><time>2026-04-12T09:03:58.997Z</time></trkpt><trkpt lat="33.6959618" lon="7.7442554"><ele>29.0</ele><time>2026-04-12T09:03:59.975Z</time></trkpt><trkpt lat="33.6958303" lon="7.7442315"><ele>29.0</ele><time>2026-04-12T09:04:00.977Z</time></trkpt><trkpt lat="33.6957049" lon="7.7442152"><ele>28.75</ele><time>2026-04-12T09:04:01.987Z</time></trkpt><trkpt lat="33.6955801" lon="7.7441949"><ele>28.5</ele><time>2026-04-12T09:04:02.99Z</time></trkpt><trkpt lat="33.6954582" lon="7.7441792"><ele>28.25</ele><time>2026-04-12T09:04:03.98Z</time></trkpt><trkpt lat="33.6953356" lon="7.7441711"><ele>28.0</ele><time>2026-04-12T09:04:04.973Z</time></trkpt><trkpt lat="33.6952111" lon="7.7441629"><ele>28.0</ele><time>2026-04-12T09:04:05.979Z</time></trkpt><trkpt lat="33.6950913" lon="7.7441483"><ele>28.0</ele><time>2026-04-12T09:04:06.98Z</time></trkpt><trkpt lat="33.6949714" lon="7.7441319"><ele>28.0</ele><time>2026-04-12T09:04:07.973Z</time></trkpt><trkpt lat="33.6948494" lon="7.7441181"><ele>28.0</ele><time>2026-04-12T09:04:08.975Z</time></trkpt><trkpt lat="33.6947273" lon="7.7441034"><ele>28.0</ele><time>2026-04-12T09:04:09.98Z</time></trkpt><trkpt lat="33.6946021" lon="7.7440919"><ele>28.0</ele><time>2026-04-12T09:04:10.975Z</time></trkpt><trkpt lat="33.6944758" lon="7.7440779"><ele>28.0</ele><time>2026-04-12T09:04:11.98Z</time></trkpt><trkpt lat="33.6943483" lon="7.7440626"><ele>28.0</ele><time>2026-04-12T09:04:12.987Z</time></trkpt><trkpt lat="33.6942261" lon="7.7440495"><ele>28.25</ele><time>2026-04-12T09:04:13.977Z</time></trkpt><trkpt lat="33.6941086" lon="7.7440309"><ele>28.5</ele><time>2026-04-12T09:04:14.979Z</time></trkpt><trkpt lat="33.6939894" lon="7.7440134"><ele>28.75</ele><time>2026-04-12T09:04:15.994Z</time></trkpt><trkpt lat="33.6938626" lon="7.7439983"><ele>29.0</ele><time>2026-04-12T09:04:16.974Z</time></trkpt><trkpt lat="33.6937332" lon="7.7439855"><ele>29.0</ele><time>2026-04-12T09:04:17.981Z</time></trkpt><trkpt lat="33.6936016" lon="7.7439722"><ele>29.0</ele><time>2026-04-12T09:04:18.973Z</time></trkpt><trkpt lat="33.6934707" lon="7.7439595"><ele>29.0</ele><time>2026-04-12T09:04:19.973Z</time></trkpt><trkpt lat="33.6933387" lon="7.7439507"><ele>29.0</ele><time>2026-04-12T09:04:20.982Z</time></trkpt><trkpt lat="33.6932111" lon="7.7439434"><ele>28.75</ele><time>2026-04-12T09:04:21.981Z</time></trkpt><trkpt lat="33.6930797" lon="7.7439332"><ele>28.5</ele><time>2026-04-12T09:04:22.993Z</time></trkpt><trkpt lat="33.692948" lon="7.7439178"><ele>28.25</ele><time>2026-04-12T09:04:23.98Z</time></trkpt><trkpt lat="33.6928115" lon="7.7439019"><ele>28.0</ele><time>2026-04-12T09:04:24.989Z</time></trkpt><trkpt lat="33.692682" lon="7.7438902"><ele>28.5</ele><time>2026-04-12T09:04:25.98Z</time></trkpt><trkpt lat="33.6925359" lon="7.7438766"><ele>29.0</ele><time>2026-04-12T09:04:26.979Z</time></trkpt><trkpt lat="33.6923974" lon="7.7438566"><ele>29.5</ele><time>2026-04-12T09:04:27.976Z</time></trkpt><trkpt lat="33.6922704" lon="7.7438393"><ele>30.0</ele><time>2026-04-12T09:04:28.989Z</time></trkpt><trkpt lat="33.6921355" lon="7.7438218"><ele>30.0</ele><time>2026-04-12T09:04:29.971Z</time></trkpt><trkpt lat="33.6920195" lon="7.7437954"><ele>30.0</ele><time>2026-04-12T09:04:30.975Z</time></trkpt><trkpt lat="33.691907" lon="7.743774"><ele>30.0</ele><time>2026-04-12T09:04:31.98Z</time></trkpt><trkpt lat="33.6917752" lon="7.7437567"><ele>30.0</ele><time>2026-04-12T09:04:32.989Z</time></trkpt><trkpt lat="33.6916449" lon="7.7437438"><ele>29.75</ele><time>2026-04-12T09:04:33.973Z</time></trkpt><trkpt lat="33.6915083" lon="7.7437335"><ele>29.5</ele><time>2026-04-12T09:04:34.98Z</time></trkpt><trkpt lat="33.6913643" lon="7.7437279"><ele>29.25</ele><time>2026-04-12T09:04:35.969Z</time></trkpt><trkpt lat="33.6912207" lon="7.7437287"><ele>29.0</ele><time>2026-04-12T09:04:36.966Z</time></trkpt><trkpt lat="33.6910862" lon="7.7437131"><ele>28.75</ele><time>2026-04-12T09:04:37.967Z</time></trkpt><trkpt lat="33.6909584" lon="7.743698"><ele>28.5</ele><time>2026-04-12T09:04:38.974Z</time></trkpt><trkpt lat="33.6908307" lon="7.7436883"><ele>28.25</ele><time>2026-04-12T09:04:39.972Z</time></trkpt><trkpt lat="33.6907134" lon="7.7436656"><ele>28.0</ele><time>2026-04-12T09:04:40.97Z</time></trkpt><trkpt lat="33.6905972" lon="7.7436429"><ele>28.0</ele><time>2026-04-12T09:04:41.971Z</time></trkpt><trkpt lat="33.6904772" lon="7.7436295"><ele>28.0</ele><time>2026-04-12T09:04:42.981Z</time></trkpt><trkpt lat="33.6903525" lon="7.7436195"><ele>28.0</ele><time>2026-04-12T09:04:43.975Z</time></trkpt><trkpt lat="33.6902262" lon="7.7436132"><ele>28.0</ele><time>2026-04-12T09:04:44.975Z</time></trkpt><trkpt lat="33.6900992" lon="7.743608"><ele>28.0</ele><time>2026-04-12T09:04:45.985Z</time></trkpt><trkpt lat="33.6899667" lon="7.7435979"><ele>28.0</ele><time>2026-04-12T09:04:46.977Z</time></trkpt><trkpt lat="33.6898382" lon="7.7435822"><ele>28.0</ele><time>2026-04-12T09:04:47.976Z</time></trkpt><trkpt lat="33.6897202" lon="7.7435559"><ele>28.0</ele><time>2026-04-12T09:04:48.971Z</time></trkpt><trkpt lat="33.6896117" lon="7.743533"><ele>28.0</ele><time>2026-04-12T09:04:49.973Z</time></trkpt><trkpt lat="33.6894997" lon="7.7435116"><ele>27.999999999999996</ele><time>2026-04-12T09:04:50.973Z</time></trkpt><trkpt lat="33.6894031" lon="7.7434839"><ele>27.999999999999996</ele><time>2026-04-12T09:04:51.964Z</time></trkpt><trkpt lat="33.6893145" lon="7.7434664"><ele>28.0</ele><time>2026-04-12T09:04:52.984Z</time></trkpt><trkpt lat="33.6892336" lon="7.7434569"><ele>28.0</ele><time>2026-04-12T09:04:53.969Z</time></trkpt><trkpt lat="33.6891487" lon="7.7434453"><ele>28.0</ele><time>2026-04-12T09:04:54.97Z</time></trkpt><trkpt lat="33.6890589" lon="7.7434357"><ele>27.999999999999996</ele><time>2026-04-12T09:04:55.97Z</time></trkpt><trkpt lat="33.6889686" lon="7.7434401"><ele>27.999999999999996</ele><time>2026-04-12T09:04:56.968Z</time></trkpt><trkpt lat="33.688867" lon="7.7434443"><ele>28.0</ele><time>2026-04-12T09:04:57.964Z</time></trkpt><trkpt lat="33.6887548" lon="7.7434527"><ele>28.0</ele><time>2026-04-12T09:04:58.976Z</time></trkpt><trkpt lat="33.688638" lon="7.7434455"><ele>27.75</ele><time>2026-04-12T09:04:59.991Z</time></trkpt><trkpt lat="33.6885229" lon="7.743425"><ele>27.5</ele><time>2026-04-12T09:05:00.981Z</time></trkpt><trkpt lat="33.6884081" lon="7.743403"><ele>27.25</ele><time>2026-04-12T09:05:01.987Z</time></trkpt><trkpt lat="33.6882803" lon="7.743385"><ele>27.0</ele><time>2026-04-12T09:05:02.989Z</time></trkpt><trkpt lat="33.6881616" lon="7.7433664"><ele>27.0</ele><time>2026-04-12T09:05:03.985Z</time></trkpt><trkpt lat="33.6880356" lon="7.7433493"><ele>27.0</ele><time>2026-04-12T09:05:04.98Z</time></trkpt><trkpt lat="33.6879076" lon="7.743326"><ele>27.0</ele><time>2026-04-12T09:05:05.983Z</time></trkpt><trkpt lat="33.687777" lon="7.743312"><ele>27.0</ele><time>2026-04-12T09:05:06.989Z</time></trkpt><trkpt lat="33.6876578" lon="7.7433006"><ele>27.25</ele><time>2026-04-12T09:05:07.985Z</time></trkpt><trkpt lat="33.687548" lon="7.7432884"><ele>27.5</ele><time>2026-04-12T09:05:08.984Z</time></trkpt><trkpt lat="33.6874241" lon="7.7432881"><ele>27.75</ele><time>2026-04-12T09:05:09.985Z</time></trkpt><trkpt lat="33.6873106" lon="7.743286"><ele>28.0</ele><time>2026-04-12T09:05:10.985Z</time></trkpt><trkpt lat="33.687198" lon="7.7432737"><ele>28.0</ele><time>2026-04-12T09:05:11.984Z</time></trkpt><trkpt lat="33.6870735" lon="7.7432428"><ele>28.0</ele><time>2026-04-12T09:05:12.986Z</time></trkpt><trkpt lat="33.6869459" lon="7.7432233"><ele>28.0</ele><time>2026-04-12T09:05:13.977Z</time></trkpt><trkpt lat="33.6868181" lon="7.7432102"><ele>28.0</ele><time>2026-04-12T09:05:14.969Z</time></trkpt><trkpt lat="33.6867047" lon="7.7431971"><ele>28.4</ele><time>2026-04-12T09:05:15.969Z</time></trkpt><trkpt lat="33.6865994" lon="7.7431943"><ele>28.799999999999997</ele><time>2026-04-12T09:05:16.984Z</time></trkpt><trkpt lat="33.6864953" lon="7.7431923"><ele>29.2</ele><time>2026-04-12T09:05:17.972Z</time></trkpt><trkpt lat="33.6863928" lon="7.7431867"><ele>29.6</ele><time>2026-04-12T09:05:18.972Z</time></trkpt><trkpt lat="33.6862998" lon="7.7431655"><ele>30.0</ele><time>2026-04-12T09:05:19.975Z</time></trkpt><trkpt lat="33.6862026" lon="7.7431445"><ele>29.75</ele><time>2026-04-12T09:05:20.972Z</time></trkpt><trkpt lat="33.6860913" lon="7.7431301"><ele>29.5</ele><time>2026-04-12T09:05:21.975Z</time></trkpt><trkpt lat="33.6859675" lon="7.7431164"><ele>29.25</ele><time>2026-04-12T09:05:22.969Z</time></trkpt><trkpt lat="33.6858468" lon="7.7431079"><ele>29.0</ele><time>2026-04-12T09:05:23.978Z</time></trkpt><trkpt lat="33.6857173" lon="7.7430987"><ele>29.0</ele><time>2026-04-12T09:05:24.974Z</time></trkpt><trkpt lat="33.6855866" lon="7.7430816"><ele>29.0</ele><time>2026-04-12T09:05:25.977Z</time></trkpt><trkpt lat="33.6854496" lon="7.7430694"><ele>29.0</ele><time>2026-04-12T09:05:26.972Z</time></trkpt><trkpt lat="33.6853177" lon="7.7430593"><ele>29.0</ele><time>2026-04-12T09:05:27.976Z</time></trkpt><trkpt lat="33.6851863" lon="7.7430428"><ele>29.0</ele><time>2026-04-12T09:05:28.973Z</time></trkpt><trkpt lat="33.6850578" lon="7.7430176"><ele>29.0</ele><time>2026-04-12T09:05:29.972Z</time></trkpt><trkpt lat="33.6849277" lon="7.7429924"><ele>29.0</ele><time>2026-04-12T09:05:30.976Z</time></trkpt><trkpt lat="33.6847924" lon="7.7429769"><ele>29.0</ele><time>2026-04-12T09:05:31.974Z</time></trkpt><trkpt lat="33.6846713" lon="7.7429584"><ele>29.0</ele><time>2026-04-12T09:05:32.983Z</time></trkpt><trkpt lat="33.6845554" lon="7.7429453"><ele>29.0</ele><time>2026-04-12T09:05:33.98Z</time></trkpt><trkpt lat="33.6844602" lon="7.742927"><ele>29.0</ele><time>2026-04-12T09:05:34.979Z</time></trkpt><trkpt lat="33.6843659" lon="7.7429134"><ele>29.0</ele><time>2026-04-12T09:05:35.98Z</time></trkpt><trkpt lat="33.6842702" lon="7.7428977"><ele>29.0</ele><time>2026-04-12T09:05:36.979Z</time></trkpt><trkpt lat="33.6841727" lon="7.742894"><ele>28.6</ele><time>2026-04-12T09:05:37.974Z</time></trkpt><trkpt lat="33.6840645" lon="7.7428857"><ele>28.2</ele><time>2026-04-12T09:05:38.979Z</time></trkpt><trkpt lat="33.683956" lon="7.7428847"><ele>27.800000000000004</ele><time>2026-04-12T09:05:39.976Z</time></trkpt><trkpt lat="33.6838402" lon="7.7428726"><ele>27.400000000000002</ele><time>2026-04-12T09:05:40.98Z</time></trkpt><trkpt lat="33.6837319" lon="7.7428654"><ele>27.0</ele><time>2026-04-12T09:05:41.98Z</time></trkpt><trkpt lat="33.6836142" lon="7.7428642"><ele>27.400000000000002</ele><time>2026-04-12T09:05:42.981Z</time></trkpt><trkpt lat="33.6834993" lon="7.7428557"><ele>27.800000000000004</ele><time>2026-04-12T09:05:43.972Z</time></trkpt><trkpt lat="33.6833801" lon="7.7428465"><ele>28.2</ele><time>2026-04-12T09:05:44.969Z</time></trkpt><trkpt lat="33.6832736" lon="7.742827"><ele>28.6</ele><time>2026-04-12T09:05:45.975Z</time></trkpt><trkpt lat="33.6831719" lon="7.7428142"><ele>29.0</ele><time>2026-04-12T09:05:46.97Z</time></trkpt><trkpt lat="33.6830734" lon="7.7427934"><ele>29.0</ele><time>2026-04-12T09:05:47.986Z</time></trkpt><trkpt lat="33.6829752" lon="7.7427826"><ele>29.0</ele><time>2026-04-12T09:05:48.975Z</time></trkpt><trkpt lat="33.6828684" lon="7.7427698"><ele>29.0</ele><time>2026-04-12T09:05:49.972Z</time></trkpt><trkpt lat="33.7209668" lon="7.7470785"><ele>29.333333333333332</ele><time>2026-04-12T09:00:00.996Z</time></trkpt><trkpt lat="33.7208932" lon="7.74706"><ele>29.666666666666664</ele><time>2026-04-12T09:00:03.982Z</time></trkpt><trkpt lat="33.7207865" lon="7.7470631"><ele>30.0</ele><time>2026-04-12T09:00:05.968Z</time></trkpt><trkpt lat="33.7207048" lon="7.7470646"><ele>30.333333333333336</ele><time>2026-04-12T09:00:06.97Z</time></trkpt><trkpt lat="33.7206234" lon="7.747073"><ele>30.666666666666668</ele><time>2026-04-12T09:00:07.979Z</time></trkpt><trkpt lat="33.7205521" lon="7.7470686"><ele>31.0</ele><time>2026-04-12T09:00:08.964Z</time></trkpt><trkpt lat="33.7204803" lon="7.7470648"><ele>31.000000000000004</ele><time>2026-04-12T09:00:09.964Z</time></trkpt><trkpt lat="33.7204156" lon="7.7470505"><ele>31.0</ele><time>2026-04-12T09:00:10.975Z</time></trkpt><trkpt lat="33.7202928" lon="7.7470279"><ele>31.0</ele><time>2026-04-12T09:00:12.968Z</time></trkpt><trkpt lat="33.7202116" lon="7.7470204"><ele>31.0</ele><time>2026-04-12T09:00:13.974Z</time></trkpt><trkpt lat="33.7201238" lon="7.7470155"><ele>31.000000000000004</ele><time>2026-04-12T09:00:14.966Z</time></trkpt><trkpt lat="33.7200383" lon="7.7470025"><ele>31.0</ele><time>2026-04-12T09:00:15.971Z</time></trkpt><trkpt lat="33.719956" lon="7.7469891"><ele>30.857142857142858</ele><time>2026-04-12T09:00:16.97Z</time></trkpt><trkpt lat="33.7198845" lon="7.7469741"><ele>30.714285714285715</ele><time>2026-04-12T09:00:17.967Z</time></trkpt><trkpt lat="33.7198154" lon="7.7469562"><ele>30.571428571428573</ele><time>2026-04-12T09:00:18.976Z</time></trkpt><trkpt lat="33.7197433" lon="7.7469434"><ele>30.42857142857143</ele><time>2026-04-12T09:00:19.967Z</time></trkpt><trkpt lat="33.7196756" lon="7.7469364"><ele>30.285714285714285</ele><time>2026-04-12T09:00:20.976Z</time></trkpt><trkpt lat="33.7196007" lon="7.7469223"><ele>30.142857142857146</ele><time>2026-04-12T09:00:21.971Z</time></trkpt><trkpt lat="33.7195191" lon="7.7469178"><ele>30.0</ele><time>2026-04-12T09:00:22.968Z</time></trkpt><trkpt lat="33.7194314" lon="7.7469281"><ele>29.8</ele><time>2026-04-12T09:00:23.967Z</time></trkpt><trkpt lat="33.7193387" lon="7.7469262"><ele>29.6</ele><time>2026-04-12T09:00:24.969Z</time></trkpt><trkpt lat="33.719242" lon="7.7469236"><ele>29.4</ele><time>2026-04-12T09:00:25.969Z</time></trkpt><trkpt lat="33.7191501" lon="7.7469122"><ele>29.2</ele><time>2026-04-12T09:00:26.965Z</time></trkpt><trkpt lat="33.719051" lon="7.7468972"><ele>29.0</ele><time>2026-04-12T09:00:27.968Z</time></trkpt><trkpt lat="33.718957" lon="7.7468783"><ele>28.999999999999996</ele><time>2026-04-12T09:00:28.974Z</time></trkpt><trkpt lat="33.7188657" lon="7.7468635"><ele>29.0</ele><time>2026-04-12T09:00:29.962Z</time></trkpt><trkpt lat="33.7187782" lon="7.7468471"><ele>29.0</ele><time>2026-04-12T09:00:30.968Z</time></trkpt><trkpt lat="33.7186928" lon="7.7468286"><ele>29.0</ele><time>2026-04-12T09:00:31.962Z</time></trkpt><trkpt lat="33.7186115" lon="7.7468144"><ele>28.999999999999996</ele><time>2026-04-12T09:00:32.967Z</time></trkpt><trkpt lat="33.718524" lon="7.7467976"><ele>29.0</ele><time>2026-04-12T09:00:33.962Z</time></trkpt><trkpt lat="33.7184359" lon="7.7467821"><ele>28.999999999999996</ele><time>2026-04-12T09:00:34.965Z</time></trkpt><trkpt lat="33.718349" lon="7.7467822"><ele>29.0</ele><time>2026-04-12T09:00:35.965Z</time></trkpt><trkpt lat="33.7182622" lon="7.7467847"><ele>29.0</ele><time>2026-04-12T09:00:36.966Z</time></trkpt><trkpt lat="33.7181912" lon="7.7467793"><ele>29.0</ele><time>2026-04-12T09:00:37.977Z</time></trkpt><trkpt lat="33.7181287" lon="7.7467694"><ele>28.999999999999996</ele><time>2026-04-12T09:00:38.994Z</time></trkpt><trkpt lat="33.7180254" lon="7.7467649"><ele>29.0</ele><time>2026-04-12T09:00:40.974Z</time></trkpt><trkpt lat="33.7179061" lon="7.7467531"><ele>29.000000000000004</ele><time>2026-04-12T09:00:42.971Z</time></trkpt><trkpt lat="33.7178407" lon="7.7467387"><ele>29.0</ele><time>2026-04-12T09:00:43.982Z</time></trkpt><trkpt lat="33.7177696" lon="7.7467247"><ele>29.000000000000004</ele><time>2026-04-12T09:00:44.978Z</time></trkpt><trkpt lat="33.7176944" lon="7.7467109"><ele>29.000000000000004</ele><time>2026-04-12T09:00:45.971Z</time></trkpt><trkpt lat="33.7176256" lon="7.7467096"><ele>29.0</ele><time>2026-04-12T09:00:46.978Z</time></trkpt><trkpt lat="33.717556" lon="7.7467115"><ele>29.000000000000004</ele><time>2026-04-12T09:00:47.972Z</time></trkpt><trkpt lat="33.7174893" lon="7.7467027"><ele>29.000000000000004</ele><time>2026-04-12T09:00:48.98Z</time></trkpt><trkpt lat="33.7174251" lon="7.7466928"><ele>28.999999999999996</ele><time>2026-04-12T09:00:49.983Z</time></trkpt><trkpt lat="33.717359" lon="7.7466804"><ele>29.0</ele><time>2026-04-12T09:00:50.975Z</time></trkpt><trkpt lat="33.7172856" lon="7.7466691"><ele>29.0</ele><time>2026-04-12T09:00:51.984Z</time></trkpt><trkpt lat="33.71721" lon="7.7466609"><ele>29.0</ele><time>2026-04-12T09:00:52.973Z</time></trkpt><trkpt lat="33.7171417" lon="7.7466699"><ele>28.999999999999996</ele><time>2026-04-12T09:00:53.975Z</time></trkpt><trkpt lat="33.7170266" lon="7.7466558"><ele>29.0</ele><time>2026-04-12T09:00:55.978Z</time></trkpt><trkpt lat="33.7168995" lon="7.7466566"><ele>28.999999999999996</ele><time>2026-04-12T09:00:57.976Z</time></trkpt><trkpt lat="33.7168325" lon="7.7466507"><ele>29.0</ele><time>2026-04-12T09:00:58.988Z</time></trkpt><trkpt lat="33.7166984" lon="7.7466425"><ele>29.0</ele><time>2026-04-12T09:01:00.978Z</time></trkpt><trkpt lat="33.716625" lon="7.7466319"><ele>29.0</ele><time>2026-04-12T09:01:01.982Z</time></trkpt><trkpt lat="33.7165433" lon="7.7466151"><ele>28.999999999999996</ele><time>2026-04-12T09:01:02.973Z</time></trkpt><trkpt lat="33.7164567" lon="7.7466014"><ele>29.0</ele><time>2026-04-12T09:01:03.977Z</time></trkpt><trkpt lat="33.7163618" lon="7.7465882"><ele>29.0</ele><time>2026-04-12T09:01:04.973Z</time></trkpt><trkpt lat="33.7162761" lon="7.7465749"><ele>29.0</ele><time>2026-04-12T09:01:05.976Z</time></trkpt><trkpt lat="33.7161859" lon="7.7465706"><ele>29.0</ele><time>2026-04-12T09:01:06.973Z</time></trkpt><trkpt lat="33.7160911" lon="7.746555"><ele>29.0</ele><time>2026-04-12T09:01:07.973Z</time></trkpt><trkpt lat="33.7159995" lon="7.7465381"><ele>29.0</ele><time>2026-04-12T09:01:08.977Z</time></trkpt><trkpt lat="33.715899" lon="7.7465247"><ele>29.0</ele><time>2026-04-12T09:01:09.991Z</time></trkpt><trkpt lat="33.7158015" lon="7.7465111"><ele>29.0</ele><time>2026-04-12T09:01:10.966Z</time></trkpt><trkpt lat="33.7157002" lon="7.7465193"><ele>29.0</ele><time>2026-04-12T09:01:11.978Z</time></trkpt><trkpt lat="33.7155984" lon="7.7465251"><ele>29.0</ele><time>2026-04-12T09:01:12.969Z</time></trkpt><trkpt lat="33.7155012" lon="7.7465222"><ele>29.0</ele><time>2026-04-12T09:01:13.967Z</time></trkpt><trkpt lat="33.7154052" lon="7.7465133"><ele>29.0</ele><time>2026-04-12T09:01:14.966Z</time></trkpt><trkpt lat="33.7153116" lon="7.7464953"><ele>29.0</ele><time>2026-04-12T09:01:15.969Z</time></trkpt><trkpt lat="33.7152201" lon="7.7464794"><ele>29.0</ele><time>2026-04-12T09:01:16.971Z</time></trkpt><trkpt lat="33.7151194" lon="7.746461"><ele>29.0</ele><time>2026-04-12T09:01:17.978Z</time></trkpt><trkpt lat="33.7150221" lon="7.7464409"><ele>29.0</ele><time>2026-04-12T09:01:18.976Z</time></trkpt><trkpt lat="33.7149229" lon="7.7464192"><ele>28.799999999999997</ele><time>2026-04-12T09:01:19.977Z</time></trkpt><trkpt lat="33.7148271" lon="7.7464104"><ele>28.599999999999998</ele><time>2026-04-12T09:01:20.983Z</time></trkpt><trkpt lat="33.7147251" lon="7.7463998"><ele>28.4</ele><time>2026-04-12T09:01:21.974Z</time></trkpt><trkpt lat="33.714617" lon="7.7463878"><ele>28.2</ele><time>2026-04-12T09:01:22.981Z</time></trkpt><trkpt lat="33.7145164" lon="7.7463793"><ele>28.0</ele><time>2026-04-12T09:01:23.972Z</time></trkpt><trkpt lat="33.7144142" lon="7.7463672"><ele>28.2</ele><time>2026-04-12T09:01:24.981Z</time></trkpt><trkpt lat="33.7143125" lon="7.7463573"><ele>28.4</ele><time>2026-04-12T09:01:25.974Z</time></trkpt><trkpt lat="33.7142158" lon="7.7463437"><ele>28.599999999999998</ele><time>2026-04-12T09:01:26.976Z</time></trkpt><trkpt lat="33.714111" lon="7.7463404"><ele>28.799999999999997</ele><time>2026-04-12T09:01:27.98Z</time></trkpt><trkpt lat="33.7140029" lon="7.7463341"><ele>29.0</ele><time>2026-04-12T09:01:28.973Z</time></trkpt><trkpt lat="33.7138967" lon="7.7463229"><ele>29.0</ele><time>2026-04-12T09:01:29.98Z</time></trkpt><trkpt lat="33.7137995" lon="7.7463042"><ele>29.0</ele><time>2026-04-12T09:01:30.978Z</time></trkpt><trkpt lat="33.7136965" lon="7.7462928"><ele>29.0</ele><time>2026-04-12T09:01:31.972Z</time></trkpt><trkpt lat="33.7135939" lon="7.7462792"><ele>29.0</ele><time>2026-04-12T09:01:32.975Z</time></trkpt><trkpt lat="33.7134866" lon="7.7462647"><ele>29.0</ele><time>2026-04-12T09:01:33.968Z</time></trkpt><trkpt lat="33.7133762" lon="7.7462602"><ele>29.0</ele><time>2026-04-12T09:01:34.976Z</time></trkpt><trkpt lat="33.7132645" lon="7.7462459"><ele>29.0</ele><time>2026-04-12T09:01:35.974Z</time></trkpt><trkpt lat="33.7131498" lon="7.7462319"><ele>29.0</ele><time>2026-04-12T09:01:36.972Z</time></trkpt><trkpt lat="33.7130364" lon="7.74622"><ele>29.0</ele><time>2026-04-12T09:01:37.968Z</time></trkpt><trkpt lat="33.7129259" lon="7.7462074"><ele>29.0</ele><time>2026-04-12T09:01:38.983Z</time></trkpt><trkpt lat="33.7128244" lon="7.7461867"><ele>29.0</ele><time>2026-04-12T09:01:39.982Z</time></trkpt><trkpt lat="33.7127204" lon="7.7461757"><ele>29.0</ele><time>2026-04-12T09:01:40.984Z</time></trkpt><trkpt lat="33.7126103" lon="7.746174"><ele>29.0</ele><time>2026-04-12T09:01:41.978Z</time></trkpt><trkpt lat="33.7124933" lon="7.7461641"><ele>29.0</ele><time>2026-04-12T09:01:42.972Z</time></trkpt><trkpt lat="33.7123733" lon="7.7461607"><ele>28.75</ele><time>2026-04-12T09:01:43.972Z</time></trkpt><trkpt lat="33.7122495" lon="7.7461401"><ele>28.5</ele><time>2026-04-12T09:01:44.981Z</time></trkpt><trkpt lat="33.7121307" lon="7.7461189"><ele>28.25</ele><time>2026-04-12T09:01:45.973Z</time></trkpt><trkpt lat="33.712018" lon="7.7461096"><ele>28.0</ele><time>2026-04-12T09:01:46.985Z</time></trkpt><trkpt lat="33.7119097" lon="7.7460949"><ele>28.0</ele><time>2026-04-12T09:01:47.974Z</time></trkpt><trkpt lat="33.7117999" lon="7.7460765"><ele>28.0</ele><time>2026-04-12T09:01:48.978Z</time></trkpt><trkpt lat="33.7116894" lon="7.7460598"><ele>28.0</ele><time>2026-04-12T09:01:49.98Z</time></trkpt><trkpt lat="33.711567" lon="7.7460338"><ele>28.0</ele><time>2026-04-12T09:01:50.979Z</time></trkpt><trkpt lat="33.7114418" lon="7.7460131"><ele>28.0</ele><time>2026-04-12T09:01:51.98Z</time></trkpt><trkpt lat="33.7113175" lon="7.7459985"><ele>28.0</ele><time>2026-04-12T09:01:52.97Z</time></trkpt><trkpt lat="33.711197" lon="7.745986"><ele>28.0</ele><time>2026-04-12T09:01:53.981Z</time></trkpt><trkpt lat="33.711081" lon="7.7459638"><ele>28.0</ele><time>2026-04-12T09:01:54.98Z</time></trkpt><trkpt lat="33.7109618" lon="7.7459629"><ele>28.0</ele><time>2026-04-12T09:01:55.974Z</time></trkpt><trkpt lat="33.7108399" lon="7.74596"><ele>28.0</ele><time>2026-04-12T09:01:56.979Z</time></trkpt><trkpt lat="33.7107146" lon="7.745959"><ele>28.0</ele><time>2026-04-12T09:01:57.983Z</time></trkpt><trkpt lat="33.7105953" lon="7.7459431"><ele>28.0</ele><time>2026-04-12T09:01:58.981Z</time></trkpt><trkpt lat="33.7104828" lon="7.745924"><ele>28.0</ele><time>2026-04-12T09:01:59.984Z</time></trkpt><trkpt lat="33.7103614" lon="7.7458996"><ele>28.0</ele><time>2026-04-12T09:02:00.975Z</time></trkpt><trkpt lat="33.7102409" lon="7.7458786"><ele>28.0</ele><time>2026-04-12T09:02:01.976Z</time></trkpt><trkpt lat="33.7101207" lon="7.7458585"><ele>28.0</ele><time>2026-04-12T09:02:02.982Z</time></trkpt><trkpt lat="33.7100007" lon="7.7458368"><ele>27.5</ele><time>2026-04-12T09:02:03.974Z</time></trkpt><trkpt lat="33.709879" lon="7.7458282"><ele>27.0</ele><time>2026-04-12T09:02:04.973Z</time></trkpt><trkpt lat="33.709762" lon="7.7458207"><ele>26.5</ele><time>2026-04-12T09:02:05.986Z</time></trkpt><trkpt lat="33.7096463" lon="7.7458091"><ele>26.0</ele><time>2026-04-12T09:02:06.972Z</time></trkpt><trkpt lat="33.7095351" lon="7.7458026"><ele>26.0</ele><time>2026-04-12T09:02:07.977Z</time></trkpt><trkpt lat="33.7094266" lon="7.7457844"><ele>26.0</ele><time>2026-04-12T09:02:08.978Z</time></trkpt><trkpt lat="33.7093158" lon="7.7457627"><ele>26.0</ele><time>2026-04-12T09:02:09.978Z</time></trkpt><trkpt lat="33.7092015" lon="7.7457509"><ele>26.0</ele><time>2026-04-12T09:02:10.978Z</time></trkpt><trkpt lat="33.7090849" lon="7.7457315"><ele>26.5</ele><time>2026-04-12T09:02:11.989Z</time></trkpt><trkpt lat="33.7089648" lon="7.7457334"><ele>27.0</ele><time>2026-04-12T09:02:12.978Z</time></trkpt><trkpt lat="33.7088468" lon="7.7457283"><ele>27.5</ele><time>2026-04-12T09:02:13.979Z</time></trkpt><trkpt lat="33.7087266" lon="7.7457166"><ele>28.0</ele><time>2026-04-12T09:02:14.977Z</time></trkpt><trkpt lat="33.7086091" lon="7.7456987"><ele>27.75</ele><time>2026-04-12T09:02:15.972Z</time></trkpt><trkpt lat="33.7084896" lon="7.7456799"><ele>27.5</ele><time>2026-04-12T09:02:16.981Z</time></trkpt><trkpt lat="33.7083609" lon="7.7456633"><ele>27.25</ele><time>2026-04-12T09:02:17.967Z</time></trkpt><trkpt lat="33.7082396" lon="7.74565"><ele>27.0</ele><time>2026-04-12T09:02:18.981Z</time></trkpt><trkpt lat="33.70812" lon="7.7456418"><ele>27.0</ele><time>2026-04-12T09:02:19.982Z</time></trkpt><trkpt lat="33.7080068" lon="7.745623"><ele>27.000000000000004</ele><time>2026-04-12T09:02:20.968Z</time></trkpt><trkpt lat="33.7079027" lon="7.7456095"><ele>27.000000000000004</ele><time>2026-04-12T09:02:21.978Z</time></trkpt><trkpt lat="33.7077913" lon="7.7456085"><ele>27.0</ele><time>2026-04-12T09:02:22.982Z</time></trkpt><trkpt lat="33.7076783" lon="7.7456088"><ele>27.0</ele><time>2026-04-12T09:02:23.975Z</time></trkpt><trkpt lat="33.7075861" lon="7.7455912"><ele>26.75</ele><time>2026-04-12T09:02:24.983Z</time></trkpt><trkpt lat="33.707493" lon="7.7455589"><ele>26.5</ele><time>2026-04-12T09:02:25.982Z</time></trkpt><trkpt lat="33.7073813" lon="7.7455427"><ele>26.25</ele><time>2026-04-12T09:02:26.974Z</time></trkpt><trkpt lat="33.7072603" lon="7.7455328"><ele>26.0</ele><time>2026-04-12T09:02:27.984Z</time></trkpt><trkpt lat="33.7071315" lon="7.7455224"><ele>26.0</ele><time>2026-04-12T09:02:28.983Z</time></trkpt><trkpt lat="33.7070172" lon="7.7455059"><ele>26.0</ele><time>2026-04-12T09:02:29.974Z</time></trkpt><trkpt lat="33.706902" lon="7.7454926"><ele>26.0</ele><time>2026-04-12T09:02:30.988Z</time></trkpt><trkpt lat="33.7067838" lon="7.7454768"><ele>26.0</ele><time>2026-04-12T09:02:31.982Z</time></trkpt><trkpt lat="33.7066634" lon="7.7454642"><ele>26.5</ele><time>2026-04-12T09:02:32.983Z</time></trkpt><trkpt lat="33.7065385" lon="7.7454507"><ele>27.0</ele><time>2026-04-12T09:02:33.978Z</time></trkpt><trkpt lat="33.7064205" lon="7.7454418"><ele>27.5</ele><time>2026-04-12T09:02:34.976Z</time></trkpt><trkpt lat="33.706309" lon="7.74543"><ele>28.0</ele><time>2026-04-12T09:02:35.977Z</time></trkpt><trkpt lat="33.7062035" lon="7.7454281"><ele>28.0</ele><time>2026-04-12T09:02:36.967Z</time></trkpt><trkpt lat="33.7060924" lon="7.7454227"><ele>28.0</ele><time>2026-04-12T09:02:37.974Z</time></trkpt><trkpt lat="33.7059807" lon="7.7454169"><ele>28.0</ele><time>2026-04-12T09:02:38.977Z</time></trkpt><trkpt lat="33.7058716" lon="7.7454056"><ele>28.0</ele><time>2026-04-12T09:02:39.972Z</time></trkpt><trkpt lat="33.7057547" lon="7.7453842"><ele>28.25</ele><time>2026-04-12T09:02:40.976Z</time></trkpt><trkpt lat="33.7056363" lon="7.745366"><ele>28.5</ele><time>2026-04-12T09:02:41.97Z</time></trkpt><trkpt lat="33.7055217" lon="7.7453457"><ele>28.75</ele><time>2026-04-12T09:02:42.991Z</time></trkpt><trkpt lat="33.7054023" lon="7.7453205"><ele>29.0</ele><time>2026-04-12T09:02:43.972Z</time></trkpt><trkpt lat="33.7052796" lon="7.7453048"><ele>28.5</ele><time>2026-04-12T09:02:44.981Z</time></trkpt><trkpt lat="33.7051668" lon="7.7452986"><ele>28.0</ele><time>2026-04-12T09:02:45.97Z</time></trkpt><trkpt lat="33.7050504" lon="7.7453025"><ele>27.5</ele><time>2026-04-12T09:02:46.976Z</time></trkpt><trkpt lat="33.7049328" lon="7.7452936"><ele>27.0</ele><time>2026-04-12T09:02:47.974Z</time></trkpt><trkpt lat="33.7048125" lon="7.7452736"><ele>27.0</ele><time>2026-04-12T09:02:48.975Z</time></trkpt><trkpt lat="33.7046827" lon="7.7452536"><ele>27.0</ele><time>2026-04-12T09:02:49.964Z</time></trkpt><trkpt lat="33.704543" lon="7.7452328"><ele>27.0</ele><time>2026-04-12T09:02:50.972Z</time></trkpt><trkpt lat="33.704406" lon="7.7452167"><ele>27.0</ele><time>2026-04-12T09:02:51.965Z</time></trkpt><trkpt lat="33.7042741" lon="7.7451981"><ele>27.25</ele><time>2026-04-12T09:02:52.972Z</time></trkpt><trkpt lat="33.7041446" lon="7.7451827"><ele>27.5</ele><time>2026-04-12T09:02:53.979Z</time></trkpt><trkpt lat="33.7040102" lon="7.7451682"><ele>27.75</ele><time>2026-04-12T09:02:54.978Z</time></trkpt><trkpt lat="33.7038844" lon="7.7451585"><ele>28.0</ele><time>2026-04-12T09:02:55.971Z</time></trkpt><trkpt lat="33.7037514" lon="7.745142"><ele>28.0</ele><time>2026-04-12T09:02:56.977Z</time></trkpt><trkpt lat="33.7036241" lon="7.7451189"><ele>28.0</ele><time>2026-04-12T09:02:57.975Z</time></trkpt><trkpt lat="33.7035031" lon="7.745098"><ele>28.0</ele><time>2026-04-12T09:02:58.982Z</time></trkpt><trkpt lat="33.703387" lon="7.7450823"><ele>28.0</ele><time>2026-04-12T09:02:59.966Z</time></trkpt><trkpt lat="33.7032736" lon="7.7450719"><ele>27.75</ele><time>2026-04-12T09:03:00.961Z</time></trkpt><trkpt lat="33.7031593" lon="7.7450672"><ele>27.5</ele><time>2026-04-12T09:03:01.975Z</time></trkpt><trkpt lat="33.7030386" lon="7.7450505"><ele>27.25</ele><time>2026-04-12T09:03:02.973Z</time></trkpt><trkpt lat="33.7029144" lon="7.7450268"><ele>27.0</ele><time>2026-04-12T09:03:03.969Z</time></trkpt><trkpt lat="33.7027988" lon="7.7450071"><ele>27.25</ele><time>2026-04-12T09:03:04.977Z</time></trkpt><trkpt lat="33.702682" lon="7.7449882"><ele>27.5</ele><time>2026-04-12T09:03:05.973Z</time></trkpt><trkpt lat="33.7025597" lon="7.7449693"><ele>27.75</ele><time>2026-04-12T09:03:06.978Z</time></trkpt><trkpt lat="33.7024432" lon="7.7449555"><ele>28.0</ele><time>2026-04-12T09:03:07.983Z</time></trkpt><trkpt lat="33.7023228" lon="7.744942"><ele>28.0</ele><time>2026-04-12T09:03:08.979Z</time></trkpt><trkpt lat="33.7022075" lon="7.7449331"><ele>27.999999999999996</ele><time>2026-04-12T09:03:09.979Z</time></trkpt><trkpt lat="33.7020968" lon="7.7449173"><ele>27.999999999999996</ele><time>2026-04-12T09:03:10.979Z</time></trkpt><trkpt lat="33.7019904" lon="7.744906"><ele>28.0</ele><time>2026-04-12T09:03:11.994Z</time></trkpt><trkpt lat="33.7018757" lon="7.7448996"><ele>28.0</ele><time>2026-04-12T09:03:12.981Z</time></trkpt><trkpt lat="33.7017598" lon="7.7448919"><ele>28.25</ele><time>2026-04-12T09:03:13.997Z</time></trkpt><trkpt lat="33.7016487" lon="7.7448809"><ele>28.5</ele><time>2026-04-12T09:03:14.976Z</time></trkpt><trkpt lat="33.7015329" lon="7.7448678"><ele>28.75</ele><time>2026-04-12T09:03:15.976Z</time></trkpt><trkpt lat="33.7014087" lon="7.7448543"><ele>29.0</ele><time>2026-04-12T09:03:16.971Z</time></trkpt><trkpt lat="33.7012821" lon="7.7448338"><ele>29.0</ele><time>2026-04-12T09:03:17.986Z</time></trkpt><trkpt lat="33.7011558" lon="7.7448125"><ele>29.0</ele><time>2026-04-12T09:03:18.989Z</time></trkpt><trkpt lat="33.7010348" lon="7.7448019"><ele>29.0</ele><time>2026-04-12T09:03:19.98Z</time></trkpt><trkpt lat="33.7009079" lon="7.7447903"><ele>29.0</ele><time>2026-04-12T09:03:20.979Z</time></trkpt><trkpt lat="33.7007885" lon="7.7447779"><ele>28.5</ele><time>2026-04-12T09:03:21.984Z</time></trkpt><trkpt lat="33.7006629" lon="7.7447699"><ele>28.0</ele><time>2026-04-12T09:03:22.981Z</time></trkpt><trkpt lat="33.7005392" lon="7.7447576"><ele>27.5</ele><time>2026-04-12T09:03:23.978Z</time></trkpt><trkpt lat="33.7004199" lon="7.7447504"><ele>27.0</ele><time>2026-04-12T09:03:24.984Z</time></trkpt><trkpt lat="33.7003054" lon="7.7447411"><ele>27.25</ele><time>2026-04-12T09:03:25.972Z</time></trkpt><trkpt lat="33.7001864" lon="7.7447303"><ele>27.5</ele><time>2026-04-12T09:03:26.978Z</time></trkpt><trkpt lat="33.7000728" lon="7.7447164"><ele>27.75</ele><time>2026-04-12T09:03:27.98Z</time></trkpt><trkpt lat="33.6999607" lon="7.7446964"><ele>28.0</ele><time>2026-04-12T09:03:28.985Z</time></trkpt><trkpt lat="33.6998503" lon="7.7446758"><ele>28.0</ele><time>2026-04-12T09:03:29.971Z</time></trkpt><trkpt lat="33.699738" lon="7.744663"><ele>28.0</ele><time>2026-04-12T09:03:30.965Z</time></trkpt><trkpt lat="33.6996237" lon="7.7446488"><ele>28.0</ele><time>2026-04-12T09:03:31.971Z</time></trkpt><trkpt lat="33.6995038" lon="7.7446313"><ele>28.0</ele><time>2026-04-12T09:03:32.98Z</time></trkpt><trkpt lat="33.6993829" lon="7.7446237"><ele>28.0</ele><time>2026-04-12T09:03:33.972Z</time></trkpt><trkpt lat="33.6992601" lon="7.7446186"><ele>28.0</ele><time>2026-04-12T09:03:34.969Z</time></trkpt><trkpt lat="33.6991333" lon="7.7446057"><ele>28.0</ele><time>2026-04-12T09:03:35.963Z</time></trkpt><trkpt lat="33.6990001" lon="7.7445849"><ele>28.0</ele><time>2026-04-12T09:03:36.976Z</time></trkpt><trkpt lat="33.6988677" lon="7.7445658"><ele>28.0</ele><time>2026-04-12T09:03:37.964Z</time></trkpt><trkpt lat="33.6987261" lon="7.7445558"><ele>28.0</ele><time>2026-04-12T09:03:38.967Z</time></trkpt><trkpt lat="33.698583" lon="7.7445481"><ele>28.0</ele><time>2026-04-12T09:03:39.974Z</time></trkpt><trkpt lat="33.6984423" lon="7.7445431"><ele>28.0</ele><time>2026-04-12T09:03:40.976Z</time></trkpt><trkpt lat="33.6983021" lon="7.7445248"><ele>28.0</ele><time>2026-04-12T09:03:41.983Z</time></trkpt><trkpt lat="33.6981681" lon="7.7445117"><ele>28.0</ele><time>2026-04-12T09:03:42.994Z</time></trkpt><trkpt lat="33.6980523" lon="7.7444838"><ele>28.0</ele><time>2026-04-12T09:03:43.981Z</time></trkpt><trkpt lat="33.6979152" lon="7.7444669"><ele>28.0</ele><time>2026-04-12T09:03:44.992Z</time></trkpt><trkpt lat="33.6977941" lon="7.7444422"><ele>27.75</ele><time>2026-04-12T09:03:45.987Z</time></trkpt><trkpt lat="33.6976577" lon="7.7444406"><ele>27.5</ele><time>2026-04-12T09:03:46.979Z</time></trkpt><trkpt lat="33.697524" lon="7.7444255"><ele>27.25</ele><time>2026-04-12T09:03:47.982Z</time></trkpt><trkpt lat="33.6973992" lon="7.7444126"><ele>27.0</ele><time>2026-04-12T09:03:48.986Z</time></trkpt><trkpt lat="33.6972805" lon="7.7443998"><ele>27.0</ele><time>2026-04-12T09:03:49.978Z</time></trkpt><trkpt lat="33.6971531" lon="7.7443833"><ele>27.0</ele><time>2026-04-12T09:03:50.985Z</time></trkpt><trkpt lat="33.6970167" lon="7.7443713"><ele>27.0</ele><time>2026-04-12T09:03:51.977Z</time></trkpt><trkpt lat="33.6968578" lon="7.7443537"><ele>27.0</ele><time>2026-04-12T09:03:52.994Z</time></trkpt><trkpt lat="33.6967256" lon="7.744337"><ele>27.5</ele><time>2026-04-12T09:03:53.978Z</time></trkpt><trkpt lat="33.6966123" lon="7.7443335"><ele>28.0</ele><time>2026-04-12T09:03:54.982Z</time></trkpt><trkpt lat="33.6964904" lon="7.744317"><ele>28.5</ele><time>2026-04-12T09:03:55.983Z</time></trkpt><trkpt lat="33.6963656" lon="7.7442968"><ele>29.0</ele><time>2026-04-12T09:03:56.98Z</time></trkpt><trkpt lat="33.696238" lon="7.7442856"><ele>29.0</ele><time>2026-04-12T09:03:57.981Z</time></trkpt><trkpt lat="33.6960965" lon="7.744272"><ele>29.0</ele><time>2026-04-12T09:03:58.997Z</time></trkpt><trkpt lat="33.6959618" lon="7.7442554"><ele>29.0</ele><time>2026-04-12T09:03:59.975Z</time></trkpt><trkpt lat="33.6958303" lon="7.7442315"><ele>29.0</ele><time>2026-04-12T09:04:00.977Z</time></trkpt><trkpt lat="33.6957049" lon="7.7442152"><ele>28.75</ele><time>2026-04-12T09:04:01.987Z</time></trkpt><trkpt lat="33.6955801" lon="7.7441949"><ele>28.5</ele><time>2026-04-12T09:04:02.99Z</time></trkpt><trkpt lat="33.6954582" lon="7.7441792"><ele>28.25</ele><time>2026-04-12T09:04:03.98Z</time></trkpt><trkpt lat="33.6953356" lon="7.7441711"><ele>28.0</ele><time>2026-04-12T09:04:04.973Z</time></trkpt><trkpt lat="33.6952111" lon="7.7441629"><ele>28.0</ele><time>2026-04-12T09:04:05.979Z</time></trkpt><trkpt lat="33.6950913" lon="7.7441483"><ele>28.0</ele><time>2026-04-12T09:04:06.98Z</time></trkpt><trkpt lat="33.6949714" lon="7.7441319"><ele>28.0</ele><time>2026-04-12T09:04:07.973Z</time></trkpt><trkpt lat="33.6948494" lon="7.7441181"><ele>28.0</ele><time>2026-04-12T09:04:08.975Z</time></trkpt><trkpt lat="33.6947273" lon="7.7441034"><ele>28.0</ele><time>2026-04-12T09:04:09.98Z</time></trkpt><trkpt lat="33.6946021" lon="7.7440919"><ele>28.0</ele><time>2026-04-12T09:04:10.975Z</time></trkpt><trkpt lat="33.6944758" lon="7.7440779"><ele>28.0</ele><time>2026-04-12T09:04:11.98Z</time></trkpt><trkpt lat="33.6943483" lon="7.7440626"><ele>28.0</ele><time>2026-04-12T09:04:12.987Z</time></trkpt><trkpt lat="33.6942261" lon="7.7440495"><ele>28.25</ele><time>2026-04-12T09:04:13.977Z</time></trkpt><trkpt lat="33.6941086" lon="7.7440309"><ele>28.5</ele><time>2026-04-12T09:04:14.979Z</time></trkpt><trkpt lat="33.6939894" lon="7.7440134"><ele>28.75</ele><time>2026-04-12T09:04:15.994Z</time></trkpt><trkpt lat="33.6938626" lon="7.7439983"><ele>29.0</ele><time>2026-04-12T09:04:16.974Z</time></trkpt><trkpt lat="33.6937332" lon="7.7439855"><ele>29.0</ele><time>2026-04-12T09:04:17.981Z</time></trkpt><trkpt lat="33.6936016" lon="7.7439722"><ele>29.0</ele><time>2026-04-12T09:04:18.973Z</time></trkpt><trkpt lat="33.6934707" lon="7.7439595"><ele>29.0</ele><time>2026-04-12T09:04:19.973Z</time></trkpt><trkpt lat="33.6933387" lon="7.7439507"><ele>29.0</ele><time>2026-04-12T09:04:20.982Z</time></trkpt><trkpt lat="33.6932111" lon="7.7439434"><ele>28.75</ele><time>2026-04-12T09:04:21.981Z</time></trkpt><trkpt lat="33.6930797" lon="7.7439332"><ele>28.5</ele><time>2026-04-12T09:04:22.993Z</time></trkpt><trkpt lat="33.692948" lon="7.7439178"><ele>28.25</ele><time>2026-04-12T09:04:23.98Z</time></trkpt><trkpt lat="33.6928115" lon="7.7439019"><ele>28.0</ele><time>2026-04-12T09:04:24.989Z</time></trkpt><trkpt lat="33.692682" lon="7.7438902"><ele>28.5</ele><time>2026-04-12T09:04:25.98Z</time></trkpt><trkpt lat="33.6925359" lon="7.7438766"><ele>29.0</ele><time>2026-04-12T09:04:26.979Z</time></trkpt><trkpt lat="33.6923974" lon="7.7438566"><ele>29.5</ele><time>2026-04-12T09:04:27.976Z</time></trkpt><trkpt lat="33.6922704" lon="7.7438393"><ele>30.0</ele><time>2026-04-12T09:04:28.989Z</time></trkpt><trkpt lat="33.6921355" lon="7.7438218"><ele>30.0</ele><time>2026-04-12T09:04:29.971Z</time></trkpt><trkpt lat="33.6920195" lon="7.7437954"><ele>30.0</ele><time>2026-04-12T09:04:30.975Z</time></trkpt><trkpt lat="33.691907" lon="7.743774"><ele>30.0</ele><time>2026-04-12T09:04:31.98Z</time></trkpt><trkpt lat="33.6917752" lon="7.7437567"><ele>30.0</ele><time>2026-04-12T09:04:32.989Z</time></trkpt><trkpt lat="33.6916449" lon="7.7437438"><ele>29.75</ele><time>2026-04-12T09:04:33.973Z</time></trkpt><trkpt lat="33.6915083" lon="7.7437335"><ele>29.5</ele><time>2026-04-12T09:04:34.98Z</time></trkpt><trkpt lat="33.6913643" lon="7.7437279"><ele>29.25</ele><time>2026-04-12T09:04:35.969Z</time></trkpt><trkpt lat="33.6912207" lon="7.7437287"><ele>29.0</ele><time>2026-04-12T09:04:36.966Z</time></trkpt><trkpt lat="33.6910862" lon="7.7437131"><ele>28.75</ele><time>2026-04-12T09:04:37.967Z</time></trkpt><trkpt lat="33.6909584" lon="7.743698"><ele>28.5</ele><time>2026-04-12T09:04:38.974Z</time></trkpt><trkpt lat="33.6908307" lon="7.7436883"><ele>28.25</ele><time>2026-04-12T09:04:39.972Z</time></trkpt><trkpt lat="33.6907134" lon="7.7436656"><ele>28.0</ele><time>2026-04-12T09:04:40.97Z</time></trkpt><trkpt lat="33.6905972" lon="7.7436429"><ele>28.0</ele><time>2026-04-12T09:04:41.971Z</time></trkpt><trkpt lat="33.6904772" lon="7.7436295"><ele>28.0</ele><time>2026-04-12T09:04:42.981Z</time></trkpt><trkpt lat="33.6903525" lon="7.7436195"><ele>28.0</ele><time>2026-04-12T09:04:43.975Z</time></trkpt><trkpt lat="33.6902262" lon="7.7436132"><ele>28.0</ele><time>2026-04-12T09:04:44.975Z</time></trkpt><trkpt lat="33.6900992" lon="7.743608"><ele>28.0</ele><time>2026-04-12T09:04:45.985Z</time></trkpt><trkpt lat="33.6899667" lon="7.7435979"><ele>28.0</ele><time>2026-04-12T09:04:46.977Z</time></trkpt><trkpt lat="33.6898382" lon="7.7435822"><ele>28.0</ele><time>2026-04-12T09:04:47.976Z</time></trkpt><trkpt lat="33.6897202" lon="7.7435559"><ele>28.0</ele><time>2026-04-12T09:04:48.971Z</time></trkpt><trkpt lat="33.6896117" lon="7.743533"><ele>28.0</ele><time>2026-04-12T09:04:49.973Z</time></trkpt><trkpt lat="33.6894997" lon="7.7435116"><ele>27.999999999999996</ele><time>2026-04-12T09:04:50.973Z</time></trkpt><trkpt lat="33.6894031" lon="7.7434839"><ele>27.999999999999996</ele><time>2026-04-12T09:04:51.964Z</time></trkpt><trkpt lat="33.6893145" lon="7.7434664"><ele>28.0</ele><time>2026-04-12T09:04:52.984Z</time></trkpt><trkpt lat="33.6892336" lon="7.7434569"><ele>28.0</ele><time>2026-04-12T09:04:53.969Z</time></trkpt><trkpt lat="33.6891487" lon="7.7434453"><ele>28.0</ele><time>2026-04-12T09:04:54.97Z</time></trkpt><trkpt lat="33.6890589" lon="7.7434357"><ele>27.999999999999996</ele><time>2026-04-12T09:04:55.97Z</time></trkpt><trkpt lat="33.6889686" lon="7.7434401"><ele>27.999999999999996</ele><time>2026-04-12T09:04:56.968Z</time></trkpt><trkpt lat="33.688867" lon="7.7434443"><ele>28.0</ele><time>2026-04-12T09:04:57.964Z</time></trkpt><trkpt lat="33.6887548" lon="7.7434527"><ele>28.0</ele><time>2026-04-12T09:04:58.976Z</time></trkpt><trkpt lat="33.688638" lon="7.7434455"><ele>27.75</ele><time>2026-04-12T09:04:59.991Z</time></trkpt><trkpt lat="33.6885229" lon="7.743425"><ele>27.5</ele><time>2026-04-12T09:05:00.981Z</time></trkpt><trkpt lat="33.6884081" lon="7.743403"><ele>27.25</ele><time>2026-04-12T09:05:01.987Z</time></trkpt><trkpt lat="33.6882803" lon="7.743385"><ele>27.0</ele><time>2026-04-12T09:05:02.989Z</time></trkpt><trkpt lat="33.6881616" lon="7.7433664"><ele>27.0</ele><time>2026-04-12T09:05:03.985Z</time></trkpt><trkpt lat="33.6880356" lon="7.7433493"><ele>27.0</ele><time>2026-04-12T09:05:04.98Z</time></trkpt><trkpt lat="33.6879076" lon="7.743326"><ele>27.0</ele><time>2026-04-12T09:05:05.983Z</time></trkpt><trkpt lat="33.687777" lon="7.743312"><ele>27.0</ele><time>2026-04-12T09:05:06.989Z</time></trkpt><trkpt lat="33.6876578" lon="7.7433006"><ele>27.25</ele><time>2026-04-12T09:05:07.985Z</time></trkpt><trkpt lat="33.687548" lon="7.7432884"><ele>27.5</ele><time>2026-04-12T09:05:08.984Z</time></trkpt><trkpt lat="33.6874241" lon="7.7432881"><ele>27.75</ele><time>2026-04-12T09:05:09.985Z</time></trkpt><trkpt lat="33.6873106" lon="7.743286"><ele>28.0</ele><time>2026-04-12T09:05:10.985Z</time></trkpt><trkpt lat="33.687198" lon="7.7432737"><ele>28.0</ele><time>2026-04-12T09:05:11.984Z</time></trkpt><trkpt lat="33.6870735" lon="7.7432428"><ele>28.0</ele><time>2026-04-12T09:05:12.986Z</time></trkpt><trkpt lat="33.6869459" lon="7.7432233"><ele>28.0</ele><time>2026-04-12T09:05:13.977Z</time></trkpt><trkpt lat="33.6868181" lon="7.7432102"><ele>28.0</ele><time>2026-04-12T09:05:14.969Z</time></trkpt><trkpt lat="33.6867047" lon="7.7431971"><ele>28.4</ele><time>2026-04-12T09:05:15.969Z</time></trkpt><trkpt lat="33.6865994" lon="7.7431943"><ele>28.799999999999997</ele><time>2026-04-12T09:05:16.984Z</time></trkpt><trkpt lat="33.6864953" lon="7.7431923"><ele>29.2</ele><time>2026-04-12T09:05:17.972Z</time></trkpt><trkpt lat="33.6863928" lon="7.7431867"><ele>29.6</ele><time>2026-04-12T09:05:18.972Z</time></trkpt><trkpt lat="33.6862998" lon="7.7431655"><ele>30.0</ele><time>2026-04-12T09:05:19.975Z</time></trkpt><trkpt lat="33.6862026" lon="7.7431445"><ele>29.75</ele><time>2026-04-12T09:05:20.972Z</time></trkpt><trkpt lat="33.6860913" lon="7.7431301"><ele>29.5</ele><time>2026-04-12T09:05:21.975Z</time></trkpt><trkpt lat="33.6859675" lon="7.7431164"><ele>29.25</ele><time>2026-04-12T09:05:22.969Z</time></trkpt><trkpt lat="33.6858468" lon="7.7431079"><ele>29.0</ele><time>2026-04-12T09:05:23.978Z</time></trkpt><trkpt lat="33.6857173" lon="7.7430987"><ele>29.0</ele><time>2026-04-12T09:05:24.974Z</time></trkpt><trkpt lat="33.6855866" lon="7.7430816"><ele>29.0</ele><time>2026-04-12T09:05:25.977Z</time></trkpt><trkpt lat="33.6854496" lon="7.7430694"><ele>29.0</ele><time>2026-04-12T09:05:26.972Z</time></trkpt><trkpt lat="33.6853177" lon="7.7430593"><ele>29.0</ele><time>2026-04-12T09:05:27.976Z</time></trkpt><trkpt lat="33.6851863" lon="7.7430428"><ele>29.0</ele><time>2026-04-12T09:05:28.973Z</time></trkpt><trkpt lat="33.6850578" lon="7.7430176"><ele>29.0</ele><time>2026-04-12T09:05:29.972Z</time></trkpt><trkpt lat="33.6849277" lon="7.7429924"><ele>29.0</ele><time>2026-04-12T09:05:30.976Z</time></trkpt><trkpt lat="33.6847924" lon="7.7429769"><ele>29.0</ele><time>2026-04-12T09:05:31.974Z</time></trkpt><trkpt lat="33.6846713" lon="7.7429584"><ele>29.0</ele><time>2026-04-12T09:05:32.983Z</time></trkpt><trkpt lat="33.6845554" lon="7.7429453"><ele>29.0</ele><time>2026-04-12T09:05:33.98Z</time></trkpt><trkpt lat="33.6844602" lon="7.742927"><ele>29.0</ele><time>2026-04-12T09:05:34.979Z</time></trkpt><trkpt lat="33.6843659" lon="7.7429134"><ele>29.0</ele><time>2026-04-12T09:05:35.98Z</time></trkpt><trkpt lat="33.6842702" lon="7.7428977"><ele>29.0</ele><time>2026-04-12T09:05:36.979Z</time></trkpt><trkpt lat="33.6841727" lon="7.742894"><ele>28.6</ele><time>2026-04-12T09:05:37.974Z</time></trkpt><trkpt lat="33.6840645" lon="7.7428857"><ele>28.2</ele><time>2026-04-12T09:05:38.979Z</time></trkpt><trkpt lat="33.683956" lon="7.7428847"><ele>27.800000000000004</ele><time>2026-04-12T09:05:39.976Z</time></trkpt><trkpt lat="33.6838402" lon="7.7428726"><ele>27.400000000000002</ele><time>2026-04-12T09:05:40.98Z</time></trkpt><trkpt lat="33.6837319" lon="7.7428654"><ele>27.0</ele><time>2026-04-12T09:05:41.98Z</time></trkpt><trkpt lat="33.6836142" lon="7.7428642"><ele>27.400000000000002</ele><time>2026-04-12T09:05:42.981Z</time></trkpt><trkpt lat="33.6834993" lon="7.7428557"><ele>27.800000000000004</ele><time>2026-04-12T09:05:43.972Z</time></trkpt><trkpt lat="33.6833801" lon="7.7428465"><ele>28.2</ele><time>2026-04-12T09:05:44.969Z</time></trkpt><trkpt lat="33.6832736" lon="7.742827"><ele>28.6</ele><time>2026-04-12T09:05:45.975Z</time></trkpt><trkpt lat="33.6831719" lon="7.7428142"><ele>29.0</ele><time>2026-04-12T09:05:46.97Z</time></trkpt><trkpt lat="33.6830734" lon="7.7427934"><ele>29.0</ele><time>2026-04-12T09:05:47.986Z</time></trkpt><trkpt lat="33.6829752" lon="7.7427826"><ele>29.0</ele><time>2026-04-12T09:05:48.975Z</time></trkpt><trkpt lat="33.6828684" lon="7.7427698"><ele>29.0</ele><time>2026-04-12T09:05:49.972Z</time></trkpt><trkpt lat="33.6827588" lon="7.7427605"><ele>29.0</ele><time>2026-04-12T09:05:50.973Z</time></trkpt><trkpt lat="33.6826495" lon="7.7427479"><ele>29.0</ele><time>2026-04-12T09:05:51.97Z</time></trkpt><trkpt lat="33.6825444" lon="7.7427329"><ele>29.0</ele><time>2026-04-12T09:05:52.971Z</time></trkpt><trkpt lat="33.6824453" lon="7.7427104"><ele>29.0</ele><time>2026-04-12T09:05:53.97Z</time></trkpt><trkpt lat="33.6823437" lon="7.7426909"><ele>29.0</ele><time>2026-04-12T09:05:54.976Z</time></trkpt><trkpt lat="33.6822402" lon="7.7426775"><ele>29.0</ele><time>2026-04-12T09:05:55.971Z</time></trkpt><trkpt lat="33.682119" lon="7.7426685"><ele>29.0</ele><time>2026-04-12T09:05:56.971Z</time></trkpt><trkpt lat="33.6820079" lon="7.7426574"><ele>29.5</ele><time>2026-04-12T09:05:57.972Z</time></trkpt><trkpt lat="33.6818941" lon="7.7426415"><ele>30.0</ele><time>2026-04-12T09:05:58.982Z</time></trkpt><trkpt lat="33.6817812" lon="7.7426199"><ele>30.5</ele><time>2026-04-12T09:05:59.966Z</time></trkpt><trkpt lat="33.6816623" lon="7.7426075"><ele>31.0</ele><time>2026-04-12T09:06:00.969Z</time></trkpt><trkpt lat="33.6815459" lon="7.7425948"><ele>31.0</ele><time>2026-04-12T09:06:01.966Z</time></trkpt><trkpt lat="33.6814394" lon="7.7425794"><ele>31.0</ele><time>2026-04-12T09:06:02.968Z</time></trkpt><trkpt lat="33.6813252" lon="7.7425713"><ele>31.0</ele><time>2026-04-12T09:06:03.974Z</time></trkpt><trkpt lat="33.681201" lon="7.7425626"><ele>31.0</ele><time>2026-04-12T09:06:04.972Z</time></trkpt><trkpt lat="33.681076" lon="7.7425575"><ele>30.5</ele><time>2026-04-12T09:06:05.975Z</time></trkpt><trkpt lat="33.6809535" lon="7.7425469"><ele>30.0</ele><time>2026-04-12T09:06:06.976Z</time></trkpt><trkpt lat="33.68083" lon="7.7425324"><ele>29.5</ele><time>2026-04-12T09:06:07.971Z</time></trkpt><trkpt lat="33.6807077" lon="7.7425065"><ele>29.0</ele><time>2026-04-12T09:06:08.976Z</time></trkpt><trkpt lat="33.6805847" lon="7.7424887"><ele>29.0</ele><time>2026-04-12T09:06:09.972Z</time></trkpt><trkpt lat="33.6804672" lon="7.7424697"><ele>29.0</ele><time>2026-04-12T09:06:10.973Z</time></trkpt><trkpt lat="33.6803477" lon="7.7424569"><ele>29.0</ele><time>2026-04-12T09:06:11.977Z</time></trkpt><trkpt lat="33.680229" lon="7.7424436"><ele>29.0</ele><time>2026-04-12T09:06:12.974Z</time></trkpt><trkpt lat="33.6801146" lon="7.7424197"><ele>29.4</ele><time>2026-04-12T09:06:13.978Z</time></trkpt><trkpt lat="33.6800048" lon="7.7423984"><ele>29.799999999999997</ele><time>2026-04-12T09:06:14.973Z</time></trkpt><trkpt lat="33.6798997" lon="7.7423816"><ele>30.200000000000003</ele><time>2026-04-12T09:06:15.977Z</time></trkpt><trkpt lat="33.6797999" lon="7.7423733"><ele>30.6</ele><time>2026-04-12T09:06:16.991Z</time></trkpt><trkpt lat="33.679693" lon="7.7423679"><ele>31.0</ele><time>2026-04-12T09:06:17.977Z</time></trkpt><trkpt lat="33.6795759" lon="7.7423653"><ele>31.0</ele><time>2026-04-12T09:06:18.989Z</time></trkpt><trkpt lat="33.6794648" lon="7.7423466"><ele>31.0</ele><time>2026-04-12T09:06:19.975Z</time></trkpt><trkpt lat="33.6793515" lon="7.7423314"><ele>31.0</ele><time>2026-04-12T09:06:20.973Z</time></trkpt><trkpt lat="33.6792421" lon="7.7423182"><ele>31.0</ele><time>2026-04-12T09:06:21.976Z</time></trkpt><trkpt lat="33.6791291" lon="7.7423046"><ele>30.5</ele><time>2026-04-12T09:06:22.979Z</time></trkpt><trkpt lat="33.6790185" lon="7.7422941"><ele>30.0</ele><time>2026-04-12T09:06:23.973Z</time></trkpt><trkpt lat="33.678907" lon="7.7422837"><ele>29.5</ele><time>2026-04-12T09:06:24.979Z</time></trkpt><trkpt lat="33.6787918" lon="7.7422647"><ele>29.0</ele><time>2026-04-12T09:06:25.971Z</time></trkpt><trkpt lat="33.6786709" lon="7.7422426"><ele>28.75</ele><time>2026-04-12T09:06:26.983Z</time></trkpt><trkpt lat="33.678547" lon="7.7422249"><ele>28.5</ele><time>2026-04-12T09:06:27.978Z</time></trkpt><trkpt lat="33.67842" lon="7.7422154"><ele>28.25</ele><time>2026-04-12T09:06:28.981Z</time></trkpt><trkpt lat="33.6782912" lon="7.7422147"><ele>28.0</ele><time>2026-04-12T09:06:29.979Z</time></trkpt><trkpt lat="33.6781719" lon="7.742211"><ele>28.0</ele><time>2026-04-12T09:06:30.974Z</time></trkpt><trkpt lat="33.6780707" lon="7.7422082"><ele>27.999999999999996</ele><time>2026-04-12T09:06:31.975Z</time></trkpt><trkpt lat="33.6779742" lon="7.7422005"><ele>27.999999999999996</ele><time>2026-04-12T09:06:32.972Z</time></trkpt><trkpt lat="33.6778749" lon="7.7421902"><ele>28.0</ele><time>2026-04-12T09:06:33.966Z</time></trkpt><trkpt lat="33.677761" lon="7.7421771"><ele>28.0</ele><time>2026-04-12T09:06:34.975Z</time></trkpt><trkpt lat="33.6776318" lon="7.7421498"><ele>28.0</ele><time>2026-04-12T09:06:35.972Z</time></trkpt><trkpt lat="33.6774989" lon="7.7421267"><ele>28.0</ele><time>2026-04-12T09:06:36.985Z</time></trkpt><trkpt lat="33.6773606" lon="7.7421166"><ele>28.0</ele><time>2026-04-12T09:06:37.975Z</time></trkpt><trkpt lat="33.6772328" lon="7.7421049"><ele>28.0</ele><time>2026-04-12T09:06:38.975Z</time></trkpt><trkpt lat="33.6771128" lon="7.7420933"><ele>28.0</ele><time>2026-04-12T09:06:39.98Z</time></trkpt><trkpt lat="33.6769938" lon="7.7420743"><ele>28.0</ele><time>2026-04-12T09:06:40.974Z</time></trkpt><trkpt lat="33.6768799" lon="7.7420584"><ele>28.0</ele><time>2026-04-12T09:06:41.975Z</time></trkpt><trkpt lat="33.67676" lon="7.7420571"><ele>28.0</ele><time>2026-04-12T09:06:42.975Z</time></trkpt><trkpt lat="33.6766524" lon="7.7420476"><ele>28.599999999999998</ele><time>2026-04-12T09:06:43.976Z</time></trkpt><trkpt lat="33.6765498" lon="7.742041"><ele>29.199999999999996</ele><time>2026-04-12T09:06:44.974Z</time></trkpt><trkpt lat="33.6764495" lon="7.7420157"><ele>29.8</ele><time>2026-04-12T09:06:45.975Z</time></trkpt><trkpt lat="33.6763414" lon="7.7420022"><ele>30.4</ele><time>2026-04-12T09:06:46.996Z</time></trkpt><trkpt lat="33.6762312" lon="7.7419962"><ele>31.0</ele><time>2026-04-12T09:06:47.971Z</time></trkpt><trkpt lat="33.6761035" lon="7.7419814"><ele>30.75</ele><time>2026-04-12T09:06:48.977Z</time></trkpt><trkpt lat="33.6759767" lon="7.7419618"><ele>30.5</ele><time>2026-04-12T09:06:49.981Z</time></trkpt><trkpt lat="33.6758533" lon="7.7419446"><ele>30.25</ele><time>2026-04-12T09:06:50.975Z</time></trkpt><trkpt lat="33.6757312" lon="7.7419357"><ele>30.0</ele><time>2026-04-12T09:06:51.981Z</time></trkpt><trkpt lat="33.6756091" lon="7.7419265"><ele>30.0</ele><time>2026-04-12T09:06:52.965Z</time></trkpt><trkpt lat="33.6754963" lon="7.7419068"><ele>30.0</ele><time>2026-04-12T09:06:53.969Z</time></trkpt><trkpt lat="33.6753922" lon="7.7418907"><ele>30.0</ele><time>2026-04-12T09:06:54.974Z</time></trkpt><trkpt lat="33.6752893" lon="7.7418759"><ele>30.0</ele><time>2026-04-12T09:06:55.974Z</time></trkpt><trkpt lat="33.675186" lon="7.7418579"><ele>30.0</ele><time>2026-04-12T09:06:56.987Z</time></trkpt><trkpt lat="33.6750811" lon="7.7418366"><ele>30.0</ele><time>2026-04-12T09:06:57.972Z</time></trkpt><trkpt lat="33.6749697" lon="7.7418202"><ele>30.0</ele><time>2026-04-12T09:06:58.971Z</time></trkpt><trkpt lat="33.6748445" lon="7.7418157"><ele>30.0</ele><time>2026-04-12T09:06:59.971Z</time></trkpt><trkpt lat="33.6747215" lon="7.7418039"><ele>30.0</ele><time>2026-04-12T09:07:00.979Z</time></trkpt><trkpt lat="33.6745959" lon="7.7417902"><ele>30.0</ele><time>2026-04-12T09:07:01.972Z</time></trkpt><trkpt lat="33.6744644" lon="7.7417751"><ele>30.0</ele><time>2026-04-12T09:07:02.973Z</time></trkpt><trkpt lat="33.6743457" lon="7.7417611"><ele>30.0</ele><time>2026-04-12T09:07:03.967Z</time></trkpt><trkpt lat="33.6742301" lon="7.7417522"><ele>30.0</ele><time>2026-04-12T09:07:04.972Z</time></trkpt><trkpt lat="33.6741184" lon="7.7417403"><ele>30.0</ele><time>2026-04-12T09:07:05.978Z</time></trkpt><trkpt lat="33.673996" lon="7.7417255"><ele>30.0</ele><time>2026-04-12T09:07:06.985Z</time></trkpt><trkpt lat="33.6738746" lon="7.7417098"><ele>30.0</ele><time>2026-04-12T09:07:07.973Z</time></trkpt><trkpt lat="33.6737503" lon="7.7416858"><ele>30.0</ele><time>2026-04-12T09:07:08.981Z</time></trkpt><trkpt lat="33.6736185" lon="7.7416677"><ele>30.0</ele><time>2026-04-12T09:07:09.974Z</time></trkpt><trkpt lat="33.6734848" lon="7.7416535"><ele>30.0</ele><time>2026-04-12T09:07:10.977Z</time></trkpt><trkpt lat="33.6733538" lon="7.7416451"><ele>30.0</ele><time>2026-04-12T09:07:11.977Z</time></trkpt><trkpt lat="33.6732191" lon="7.741631"><ele>30.0</ele><time>2026-04-12T09:07:12.971Z</time></trkpt><trkpt lat="33.6730857" lon="7.7416179"><ele>30.0</ele><time>2026-04-12T09:07:13.974Z</time></trkpt><trkpt lat="33.6729561" lon="7.7416018"><ele>30.0</ele><time>2026-04-12T09:07:14.975Z</time></trkpt><trkpt lat="33.6728297" lon="7.7415832"><ele>30.0</ele><time>2026-04-12T09:07:15.975Z</time></trkpt><trkpt lat="33.672703" lon="7.7415618"><ele>30.0</ele><time>2026-04-12T09:07:16.99Z</time></trkpt><trkpt lat="33.6725726" lon="7.7415484"><ele>30.75</ele><time>2026-04-12T09:07:17.978Z</time></trkpt><trkpt lat="33.6724484" lon="7.7415292"><ele>31.5</ele><time>2026-04-12T09:07:18.974Z</time></trkpt><trkpt lat="33.672317" lon="7.741517"><ele>32.25</ele><time>2026-04-12T09:07:19.968Z</time></trkpt><trkpt lat="33.6721895" lon="7.7415057"><ele>33.0</ele><time>2026-04-12T09:07:20.992Z</time></trkpt><trkpt lat="33.6720783" lon="7.7414847"><ele>33.0</ele><time>2026-04-12T09:07:21.972Z</time></trkpt><trkpt lat="33.6719606" lon="7.7414725"><ele>33.0</ele><time>2026-04-12T09:07:22.979Z</time></trkpt><trkpt lat="33.6718521" lon="7.741463"><ele>33.0</ele><time>2026-04-12T09:07:23.991Z</time></trkpt><trkpt lat="33.671747" lon="7.7414583"><ele>33.0</ele><time>2026-04-12T09:07:24.986Z</time></trkpt><trkpt lat="33.6716518" lon="7.7414398"><ele>33.0</ele><time>2026-04-12T09:07:25.986Z</time></trkpt><trkpt lat="33.671539" lon="7.7414205"><ele>33.0</ele><time>2026-04-12T09:07:26.992Z</time></trkpt><trkpt lat="33.6714279" lon="7.7414042"><ele>33.0</ele><time>2026-04-12T09:07:27.982Z</time></trkpt><trkpt lat="33.6713117" lon="7.7413873"><ele>33.0</ele><time>2026-04-12T09:07:28.988Z</time></trkpt><trkpt lat="33.6711952" lon="7.7413725"><ele>33.0</ele><time>2026-04-12T09:07:29.987Z</time></trkpt><trkpt lat="33.6710958" lon="7.7413672"><ele>33.0</ele><time>2026-04-12T09:07:30.98Z</time></trkpt><trkpt lat="33.6710051" lon="7.7413573"><ele>32.8</ele><time>2026-04-12T09:07:31.99Z</time></trkpt><trkpt lat="33.6709222" lon="7.7413465"><ele>32.599999999999994</ele><time>2026-04-12T09:07:32.983Z</time></trkpt><trkpt lat="33.6708403" lon="7.7413365"><ele>32.400000000000006</ele><time>2026-04-12T09:07:33.986Z</time></trkpt><trkpt lat="33.6707579" lon="7.7413292"><ele>32.2</ele><time>2026-04-12T09:07:34.977Z</time></trkpt><trkpt lat="33.6706593" lon="7.7413239"><ele>32.0</ele><time>2026-04-12T09:07:35.976Z</time></trkpt><trkpt lat="33.6705511" lon="7.7413111"><ele>32.0</ele><time>2026-04-12T09:07:36.991Z</time></trkpt><trkpt lat="33.6704342" lon="7.7412945"><ele>32.0</ele><time>2026-04-12T09:07:37.979Z</time></trkpt><trkpt lat="33.6703252" lon="7.7412764"><ele>32.0</ele><time>2026-04-12T09:07:38.986Z</time></trkpt><trkpt lat="33.6702316" lon="7.7412578"><ele>32.0</ele><time>2026-04-12T09:07:39.988Z</time></trkpt><trkpt lat="33.6701318" lon="7.7412438"><ele>32.0</ele><time>2026-04-12T09:07:40.982Z</time></trkpt><trkpt lat="33.6700307" lon="7.7412408"><ele>31.6</ele><time>2026-04-12T09:07:41.985Z</time></trkpt><trkpt lat="33.6699225" lon="7.7412396"><ele>31.200000000000003</ele><time>2026-04-12T09:07:42.986Z</time></trkpt><trkpt lat="33.6698194" lon="7.7412312"><ele>30.8</ele><time>2026-04-12T09:07:43.986Z</time></trkpt><trkpt lat="33.6697148" lon="7.7412209"><ele>30.4</ele><time>2026-04-12T09:07:44.981Z</time></trkpt><trkpt lat="33.6696026" lon="7.7412151"><ele>30.0</ele><time>2026-04-12T09:07:45.985Z</time></trkpt><trkpt lat="33.6694883" lon="7.7412106"><ele>30.4</ele><time>2026-04-12T09:07:46.998Z</time></trkpt><trkpt lat="33.6693772" lon="7.7411993"><ele>30.8</ele><time>2026-04-12T09:07:47.982Z</time></trkpt><trkpt lat="33.6692646" lon="7.7411797"><ele>31.200000000000003</ele><time>2026-04-12T09:07:48.985Z</time></trkpt><trkpt lat="33.6691671" lon="7.7411652"><ele>31.6</ele><time>2026-04-12T09:07:49.981Z</time></trkpt><trkpt lat="33.6690805" lon="7.74115"><ele>32.0</ele><time>2026-04-12T09:07:50.988Z</time></trkpt><trkpt lat="33.6689985" lon="7.7411307"><ele>31.999999999999996</ele><time>2026-04-12T09:07:51.995Z</time></trkpt><trkpt lat="33.6689131" lon="7.7411099"><ele>32.0</ele><time>2026-04-12T09:07:52.986Z</time></trkpt><trkpt lat="33.668824" lon="7.7410913"><ele>32.0</ele><time>2026-04-12T09:07:53.989Z</time></trkpt><trkpt lat="33.6687317" lon="7.7410884"><ele>32.0</ele><time>2026-04-12T09:07:54.981Z</time></trkpt><trkpt lat="33.6686446" lon="7.741077"><ele>31.999999999999996</ele><time>2026-04-12T09:07:55.984Z</time></trkpt><trkpt lat="33.6685638" lon="7.7410623"><ele>32.0</ele><time>2026-04-12T09:07:56.99Z</time></trkpt><trkpt lat="33.6684706" lon="7.7410502"><ele>32.2</ele><time>2026-04-12T09:07:57.983Z</time></trkpt><trkpt lat="33.6683731" lon="7.7410353"><ele>32.400000000000006</ele><time>2026-04-12T09:07:58.99Z</time></trkpt><trkpt lat="33.6682685" lon="7.7410299"><ele>32.599999999999994</ele><time>2026-04-12T09:07:59.983Z</time></trkpt><trkpt lat="33.6681479" lon="7.7410216"><ele>32.8</ele><time>2026-04-12T09:08:00.983Z</time></trkpt><trkpt lat="33.6680375" lon="7.7410136"><ele>33.0</ele><time>2026-04-12T09:08:01.983Z</time></trkpt><trkpt lat="33.6679301" lon="7.7409975"><ele>33.0</ele><time>2026-04-12T09:08:02.982Z</time></trkpt><trkpt lat="33.6678244" lon="7.7409866"><ele>33.0</ele><time>2026-04-12T09:08:03.979Z</time></trkpt><trkpt lat="33.6677067" lon="7.7409741"><ele>33.0</ele><time>2026-04-12T09:08:04.984Z</time></trkpt><trkpt lat="33.6675865" lon="7.7409592"><ele>33.0</ele><time>2026-04-12T09:08:05.984Z</time></trkpt><trkpt lat="33.6674603" lon="7.740949"><ele>32.6</ele><time>2026-04-12T09:08:06.994Z</time></trkpt><trkpt lat="33.6673442" lon="7.7409342"><ele>32.199999999999996</ele><time>2026-04-12T09:08:07.98Z</time></trkpt><trkpt lat="33.6672345" lon="7.7409261"><ele>31.8</ele><time>2026-04-12T09:08:08.984Z</time></trkpt><trkpt lat="33.6671346" lon="7.7409197"><ele>31.4</ele><time>2026-04-12T09:08:09.981Z</time></trkpt><trkpt lat="33.667038" lon="7.7409126"><ele>31.0</ele><time>2026-04-12T09:08:10.977Z</time></trkpt><trkpt lat="33.6669253" lon="7.7409045"><ele>30.75</ele><time>2026-04-12T09:08:11.978Z</time></trkpt><trkpt lat="33.6668006" lon="7.7409004"><ele>30.5</ele><time>2026-04-12T09:08:12.981Z</time></trkpt><trkpt lat="33.6666682" lon="7.7408885"><ele>30.25</ele><time>2026-04-12T09:08:13.981Z</time></trkpt><trkpt lat="33.6665442" lon="7.7408679"><ele>30.0</ele><time>2026-04-12T09:08:15.06Z</time></trkpt><trkpt lat="33.6664202" lon="7.7408496"><ele>30.0</ele><time>2026-04-12T09:08:16.056Z</time></trkpt><trkpt lat="33.6663005" lon="7.740836"><ele>30.0</ele><time>2026-04-12T09:08:17.065Z</time></trkpt><trkpt lat="33.6661805" lon="7.7408261"><ele>30.0</ele><time>2026-04-12T09:08:18.058Z</time></trkpt><trkpt lat="33.6660615" lon="7.7408147"><ele>30.0</ele><time>2026-04-12T09:08:19.055Z</time></trkpt><trkpt lat="33.6659343" lon="7.7408014"><ele>30.0</ele><time>2026-04-12T09:08:20.057Z</time></trkpt><trkpt lat="33.6658097" lon="7.7407851"><ele>30.0</ele><time>2026-04-12T09:08:21.058Z</time></trkpt><trkpt lat="33.6656861" lon="7.7407669"><ele>30.0</ele><time>2026-04-12T09:08:22.06Z</time></trkpt><trkpt lat="33.6655635" lon="7.7407501"><ele>30.0</ele><time>2026-04-12T09:08:23.068Z</time></trkpt><trkpt lat="33.665439" lon="7.7407357"><ele>30.0</ele><time>2026-04-12T09:08:24.057Z</time></trkpt><trkpt lat="33.665318" lon="7.7407208"><ele>30.0</ele><time>2026-04-12T09:08:25.068Z</time></trkpt><trkpt lat="33.6652084" lon="7.7406985"><ele>30.0</ele><time>2026-04-12T09:08:26.051Z</time></trkpt><trkpt lat="33.6651019" lon="7.7406832"><ele>30.0</ele><time>2026-04-12T09:08:27.061Z</time></trkpt><trkpt lat="33.6650057" lon="7.7406744"><ele>30.0</ele><time>2026-04-12T09:08:28.048Z</time></trkpt><trkpt lat="33.6649112" lon="7.7406595"><ele>30.0</ele><time>2026-04-12T09:08:29.053Z</time></trkpt><trkpt lat="33.6648222" lon="7.7406499"><ele>30.0</ele><time>2026-04-12T09:08:30.043Z</time></trkpt><trkpt lat="33.6647495" lon="7.7406425"><ele>30.0</ele><time>2026-04-12T09:08:31.04Z</time></trkpt><trkpt lat="33.6646825" lon="7.7406356"><ele>30.0</ele><time>2026-04-12T09:08:32.044Z</time></trkpt><trkpt lat="33.6646171" lon="7.7406341"><ele>30.0</ele><time>2026-04-12T09:08:33.043Z</time></trkpt><trkpt lat="33.6644966" lon="7.7406306"><ele>30.0</ele><time>2026-04-12T09:08:35.054Z</time></trkpt><trkpt lat="33.6644059" lon="7.7406239"><ele>30.0</ele><time>2026-04-12T09:08:37.066Z</time></trkpt><trkpt lat="33.6643218" lon="7.7406211"><ele>30.0</ele><time>2026-04-12T09:08:39.055Z</time></trkpt><trkpt lat="33.6642281" lon="7.7405963"><ele>30.0</ele><time>2026-04-12T09:08:42.06Z</time></trkpt><trkpt lat="33.6641603" lon="7.7405942"><ele>30.0</ele><time>2026-04-12T09:08:45.06Z</time></trkpt><trkpt lat="33.664261" lon="7.7405925"><ele>30.0</ele><time>2026-04-12T09:09:13.075Z</time></trkpt><trkpt lat="33.6642026" lon="7.7405452"><ele>30.0</ele><time>2026-04-12T09:09:37.056Z</time></trkpt><trkpt lat="33.6641085" lon="7.7405071"><ele>30.0</ele><time>2026-04-12T09:09:40.057Z</time></trkpt><trkpt lat="33.6640424" lon="7.7405014"><ele>30.0</ele><time>2026-04-12T09:09:42.055Z</time></trkpt><trkpt lat="33.6639585" lon="7.7405308"><ele>30.0</ele><time>2026-04-12T09:09:44.078Z</time></trkpt><trkpt lat="33.6638531" lon="7.7405534"><ele>30.0</ele><time>2026-04-12T09:09:46.059Z</time></trkpt><trkpt lat="33.6637886" lon="7.7405518"><ele>30.0</ele><time>2026-04-12T09:09:47.044Z</time></trkpt><trkpt lat="33.6637248" lon="7.740551"><ele>30.0</ele><time>2026-04-12T09:09:48.025Z</time></trkpt><trkpt lat="33.6636592" lon="7.7405496"><ele>30.0</ele><time>2026-04-12T09:09:49.035Z</time></trkpt><trkpt lat="33.6635849" lon="7.7405459"><ele>30.0</ele><time>2026-04-12T09:09:50.035Z</time></trkpt><trkpt lat="33.6634665" lon="7.7405375"><ele>30.0</ele><time>2026-04-12T09:09:52.06Z</time></trkpt><trkpt lat="33.6633576" lon="7.7405183"><ele>30.0</ele><time>2026-04-12T09:09:54.067Z</time></trkpt><trkpt lat="33.6632916" lon="7.7405123"><ele>30.0</ele><time>2026-04-12T09:09:55.064Z</time></trkpt><trkpt lat="33.6632211" lon="7.7405066"><ele>30.0</ele><time>2026-04-12T09:09:56.058Z</time></trkpt><trkpt lat="33.6631461" lon="7.7404959"><ele>30.0</ele><time>2026-04-12T09:09:57.052Z</time></trkpt><trkpt lat="33.6630737" lon="7.7404829"><ele>30.0</ele><time>2026-04-12T09:09:58.062Z</time></trkpt><trkpt lat="33.6629956" lon="7.7404712"><ele>30.0</ele><time>2026-04-12T09:09:59.064Z</time></trkpt><trkpt lat="33.6629162" lon="7.7404586"><ele>30.0</ele><time>2026-04-12T09:10:00.063Z</time></trkpt><trkpt lat="33.6628343" lon="7.7404489"><ele>30.0</ele><time>2026-04-12T09:10:01.06Z</time></trkpt><trkpt lat="33.6627559" lon="7.7404384"><ele>30.0</ele><time>2026-04-12T09:10:02.06Z</time></trkpt><trkpt lat="33.6626414" lon="7.7404303"><ele>30.0</ele><time>2026-04-12T09:10:04.053Z</time></trkpt><trkpt lat="33.6625654" lon="7.7404232"><ele>30.0</ele><time>2026-04-12T09:10:06.046Z</time></trkpt><trkpt lat="33.6624735" lon="7.7403953"><ele>30.0</ele><time>2026-04-12T09:10:10.053Z</time></trkpt><trkpt lat="33.6624034" lon="7.7403767"><ele>30.0</ele><time>2026-04-12T09:10:14.06Z</time></trkpt><trkpt lat="33.6623331" lon="7.7403671"><ele>30.0</ele><time>2026-04-12T09:10:18.06Z</time></trkpt><trkpt lat="33.6622454" lon="7.7403557"><ele>30.0</ele><time>2026-04-12T09:10:21.063Z</time></trkpt><trkpt lat="33.6621748" lon="7.7403499"><ele>30.0</ele><time>2026-04-12T09:10:23.058Z</time></trkpt><trkpt lat="33.6620993" lon="7.7403434"><ele>30.0</ele><time>2026-04-12T09:10:25.068Z</time></trkpt><trkpt lat="33.6620063" lon="7.7403358"><ele>30.0</ele><time>2026-04-12T09:10:27.062Z</time></trkpt><trkpt lat="33.661901" lon="7.7403193"><ele>30.0</ele><time>2026-04-12T09:10:29.063Z</time></trkpt><trkpt lat="33.6617868" lon="7.7403049"><ele>30.0</ele><time>2026-04-12T09:10:31.053Z</time></trkpt><trkpt lat="33.6617207" lon="7.7402969"><ele>30.0</ele><time>2026-04-12T09:10:32.055Z</time></trkpt><trkpt lat="33.6616556" lon="7.7402917"><ele>30.0</ele><time>2026-04-12T09:10:33.05Z</time></trkpt><trkpt lat="33.6615804" lon="7.7402822"><ele>30.0</ele><time>2026-04-12T09:10:34.053Z</time></trkpt><trkpt lat="33.6615027" lon="7.7402731"><ele>30.0</ele><time>2026-04-12T09:10:35.05Z</time></trkpt><trkpt lat="33.6614126" lon="7.7402629"><ele>30.0</ele><time>2026-04-12T09:10:36.058Z</time></trkpt><trkpt lat="33.6613187" lon="7.7402527"><ele>30.0</ele><time>2026-04-12T09:10:37.06Z</time></trkpt><trkpt lat="33.6612233" lon="7.7402416"><ele>30.0</ele><time>2026-04-12T09:10:38.056Z</time></trkpt><trkpt lat="33.6611109" lon="7.740222"><ele>30.0</ele><time>2026-04-12T09:10:39.056Z</time></trkpt><trkpt lat="33.6610063" lon="7.7402093"><ele>30.0</ele><time>2026-04-12T09:10:40.048Z</time></trkpt><trkpt lat="33.6608968" lon="7.7401979"><ele>30.0</ele><time>2026-04-12T09:10:41.05Z</time></trkpt><trkpt lat="33.6607852" lon="7.7401856"><ele>30.0</ele><time>2026-04-12T09:10:42.056Z</time></trkpt><trkpt lat="33.6606637" lon="7.7401648"><ele>30.5</ele><time>2026-04-12T09:10:43.049Z</time></trkpt><trkpt lat="33.6605472" lon="7.7401485"><ele>31.0</ele><time>2026-04-12T09:10:44.064Z</time></trkpt><trkpt lat="33.6604305" lon="7.7401336"><ele>31.5</ele><time>2026-04-12T09:10:45.058Z</time></trkpt><trkpt lat="33.6603121" lon="7.7401183"><ele>32.0</ele><time>2026-04-12T09:10:46.054Z</time></trkpt><trkpt lat="33.6601901" lon="7.7401052"><ele>32.0</ele><time>2026-04-12T09:10:47.055Z</time></trkpt><trkpt lat="33.660065" lon="7.740091"><ele>32.0</ele><time>2026-04-12T09:10:48.061Z</time></trkpt><trkpt lat="33.6599515" lon="7.7400746"><ele>32.0</ele><time>2026-04-12T09:10:49.057Z</time></trkpt><trkpt lat="33.659846" lon="7.7400624"><ele>32.0</ele><time>2026-04-12T09:10:50.063Z</time></trkpt><trkpt lat="33.6597366" lon="7.7400515"><ele>32.0</ele><time>2026-04-12T09:10:51.058Z</time></trkpt><trkpt lat="33.6596278" lon="7.7400454"><ele>32.0</ele><time>2026-04-12T09:10:52.063Z</time></trkpt><trkpt lat="33.6595312" lon="7.7400383"><ele>32.0</ele><time>2026-04-12T09:10:53.058Z</time></trkpt><trkpt lat="33.6594325" lon="7.7400311"><ele>32.0</ele><time>2026-04-12T09:10:54.059Z</time></trkpt><trkpt lat="33.6593223" lon="7.7400176"><ele>32.0</ele><time>2026-04-12T09:10:55.059Z</time></trkpt><trkpt lat="33.6591981" lon="7.740003"><ele>31.5</ele><time>2026-04-12T09:10:56.061Z</time></trkpt><trkpt lat="33.6590555" lon="7.7399815"><ele>31.0</ele><time>2026-04-12T09:10:57.066Z</time></trkpt><trkpt lat="33.6589249" lon="7.7399656"><ele>30.5</ele><time>2026-04-12T09:10:58.057Z</time></trkpt><trkpt lat="33.6587979" lon="7.7399515"><ele>30.0</ele><time>2026-04-12T09:10:59.064Z</time></trkpt><trkpt lat="33.658686" lon="7.7399392"><ele>30.0</ele><time>2026-04-12T09:11:00.059Z</time></trkpt><trkpt lat="33.6585766" lon="7.7399276"><ele>30.0</ele><time>2026-04-12T09:11:01.052Z</time></trkpt><trkpt lat="33.6584655" lon="7.7399139"><ele>30.0</ele><time>2026-04-12T09:11:02.062Z</time></trkpt><trkpt lat="33.6583543" lon="7.7398938"><ele>30.0</ele><time>2026-04-12T09:11:03.055Z</time></trkpt><trkpt lat="33.658237" lon="7.7398746"><ele>30.0</ele><time>2026-04-12T09:11:04.058Z</time></trkpt><trkpt lat="33.6581175" lon="7.7398549"><ele>30.0</ele><time>2026-04-12T09:11:05.056Z</time></trkpt><trkpt lat="33.657999" lon="7.7398425"><ele>30.0</ele><time>2026-04-12T09:11:06.064Z</time></trkpt><trkpt lat="33.6578723" lon="7.7398277"><ele>30.0</ele><time>2026-04-12T09:11:07.058Z</time></trkpt><trkpt lat="33.6577515" lon="7.7398127"><ele>30.75</ele><time>2026-04-12T09:11:08.064Z</time></trkpt><trkpt lat="33.6576298" lon="7.7397959"><ele>31.5</ele><time>2026-04-12T09:11:09.057Z</time></trkpt><trkpt lat="33.6575148" lon="7.7397811"><ele>32.25</ele><time>2026-04-12T09:11:10.058Z</time></trkpt><trkpt lat="33.6574059" lon="7.739774"><ele>33.0</ele><time>2026-04-12T09:11:11.061Z</time></trkpt><trkpt lat="33.6573006" lon="7.7397664"><ele>33.0</ele><time>2026-04-12T09:11:12.056Z</time></trkpt><trkpt lat="33.6571961" lon="7.739754"><ele>33.0</ele><time>2026-04-12T09:11:13.059Z</time></trkpt><trkpt lat="33.6570873" lon="7.7397358"><ele>33.0</ele><time>2026-04-12T09:11:14.061Z</time></trkpt><trkpt lat="33.6569623" lon="7.7397193"><ele>33.0</ele><time>2026-04-12T09:11:15.056Z</time></trkpt><trkpt lat="33.6568498" lon="7.739706"><ele>33.0</ele><time>2026-04-12T09:11:16.053Z</time></trkpt><trkpt lat="33.6567369" lon="7.7396909"><ele>33.0</ele><time>2026-04-12T09:11:17.054Z</time></trkpt><trkpt lat="33.6566273" lon="7.7396777"><ele>33.0</ele><time>2026-04-12T09:11:18.059Z</time></trkpt><trkpt lat="33.656517" lon="7.7396612"><ele>33.0</ele><time>2026-04-12T09:11:19.063Z</time></trkpt><trkpt lat="33.6564022" lon="7.7396491"><ele>33.0</ele><time>2026-04-12T09:11:20.053Z</time></trkpt><trkpt lat="33.6562894" lon="7.7396371"><ele>33.0</ele><time>2026-04-12T09:11:21.068Z</time></trkpt><trkpt lat="33.6561752" lon="7.7396327"><ele>33.0</ele><time>2026-04-12T09:11:22.054Z</time></trkpt><trkpt lat="33.6560613" lon="7.7396239"><ele>33.0</ele><time>2026-04-12T09:11:23.05Z</time></trkpt><trkpt lat="33.6559567" lon="7.7396102"><ele>33.0</ele><time>2026-04-12T09:11:24.051Z</time></trkpt><trkpt lat="33.6558436" lon="7.7395913"><ele>32.25</ele><time>2026-04-12T09:11:25.056Z</time></trkpt><trkpt lat="33.6557421" lon="7.7395755"><ele>31.5</ele><time>2026-04-12T09:11:26.05Z</time></trkpt><trkpt lat="33.6556202" lon="7.7395569"><ele>30.75</ele><time>2026-04-12T09:11:27.05Z</time></trkpt><trkpt lat="33.6554935" lon="7.7395422"><ele>30.0</ele><time>2026-04-12T09:11:28.066Z</time></trkpt><trkpt lat="33.6553679" lon="7.7395265"><ele>30.75</ele><time>2026-04-12T09:11:29.062Z</time></trkpt><trkpt lat="33.6552411" lon="7.7395072"><ele>31.5</ele><time>2026-04-12T09:11:30.06Z</time></trkpt><trkpt lat="33.6551211" lon="7.7394948"><ele>32.25</ele><time>2026-04-12T09:11:31.062Z</time></trkpt><trkpt lat="33.6550031" lon="7.7394818"><ele>33.0</ele><time>2026-04-12T09:11:32.062Z</time></trkpt><trkpt lat="33.6548801" lon="7.7394669"><ele>33.0</ele><time>2026-04-12T09:11:33.06Z</time></trkpt><trkpt lat="33.6547571" lon="7.7394546"><ele>33.0</ele><time>2026-04-12T09:11:34.065Z</time></trkpt><trkpt lat="33.6546353" lon="7.7394429"><ele>33.0</ele><time>2026-04-12T09:11:35.058Z</time></trkpt><trkpt lat="33.6545197" lon="7.7394316"><ele>33.0</ele><time>2026-04-12T09:11:36.055Z</time></trkpt><trkpt lat="33.6544089" lon="7.7394169"><ele>33.0</ele><time>2026-04-12T09:11:37.054Z</time></trkpt><trkpt lat="33.6542932" lon="7.7393974"><ele>33.0</ele><time>2026-04-12T09:11:38.061Z</time></trkpt><trkpt lat="33.6541847" lon="7.7393769"><ele>33.0</ele><time>2026-04-12T09:11:39.065Z</time></trkpt><trkpt lat="33.6540863" lon="7.7393594"><ele>33.0</ele><time>2026-04-12T09:11:40.058Z</time></trkpt><trkpt lat="33.6539798" lon="7.7393489"><ele>33.0</ele><time>2026-04-12T09:11:41.053Z</time></trkpt><trkpt lat="33.65387" lon="7.7393414"><ele>33.0</ele><time>2026-04-12T09:11:42.048Z</time></trkpt><trkpt lat="33.6537492" lon="7.7393328"><ele>33.0</ele><time>2026-04-12T09:11:43.038Z</time></trkpt><trkpt lat="33.6536227" lon="7.7393201"><ele>33.0</ele><time>2026-04-12T09:11:44.037Z</time></trkpt><trkpt lat="33.6534903" lon="7.7393047"><ele>33.0</ele><time>2026-04-12T09:11:45.037Z</time></trkpt><trkpt lat="33.6533482" lon="7.7392846"><ele>32.5</ele><time>2026-04-12T09:11:46.029Z</time></trkpt><trkpt lat="33.6532084" lon="7.7392628"><ele>32.0</ele><time>2026-04-12T09:11:47.057Z</time></trkpt><trkpt lat="33.6530715" lon="7.7392399"><ele>31.5</ele><time>2026-04-12T09:11:48.053Z</time></trkpt><trkpt lat="33.6529344" lon="7.7392215"><ele>31.0</ele><time>2026-04-12T09:11:49.057Z</time></trkpt><trkpt lat="33.6527992" lon="7.7392092"><ele>31.25</ele><time>2026-04-12T09:11:50.054Z</time></trkpt><trkpt lat="33.6526735" lon="7.7391961"><ele>31.5</ele><time>2026-04-12T09:11:51.06Z</time></trkpt><trkpt lat="33.652555" lon="7.7391823"><ele>31.75</ele><time>2026-04-12T09:11:52.052Z</time></trkpt><trkpt lat="33.6524396" lon="7.739176"><ele>32.0</ele><time>2026-04-12T09:11:53.056Z</time></trkpt><trkpt lat="33.6523203" lon="7.7391653"><ele>32.0</ele><time>2026-04-12T09:11:54.058Z</time></trkpt><trkpt lat="33.652203" lon="7.7391567"><ele>32.0</ele><time>2026-04-12T09:11:55.056Z</time></trkpt><trkpt lat="33.6520937" lon="7.7391483"><ele>32.0</ele><time>2026-04-12T09:11:56.058Z</time></trkpt><trkpt lat="33.6519872" lon="7.7391345"><ele>32.0</ele><time>2026-04-12T09:11:57.051Z</time></trkpt><trkpt lat="33.6518865" lon="7.7391184"><ele>32.0</ele><time>2026-04-12T09:11:58.05Z</time></trkpt><trkpt lat="33.6517976" lon="7.739106"><ele>32.33333333333333</ele><time>2026-04-12T09:11:59.07Z</time></trkpt><trkpt lat="33.6516677" lon="7.7390851"><ele>32.666666666666664</ele><time>2026-04-12T09:12:00.047Z</time></trkpt><trkpt lat="33.6515145" lon="7.7390583"><ele>33.0</ele><time>2026-04-12T09:12:01.057Z</time></trkpt><trkpt lat="33.65135" lon="7.739031"><ele>33.0</ele><time>2026-04-12T09:12:02.05Z</time></trkpt><trkpt lat="33.6511963" lon="7.7390224"><ele>33.0</ele><time>2026-04-12T09:12:04.056Z</time></trkpt><trkpt lat="33.6510777" lon="7.7390161"><ele>33.0</ele><time>2026-04-12T09:12:05.059Z</time></trkpt><trkpt lat="33.6509648" lon="7.7390037"><ele>33.0</ele><time>2026-04-12T09:12:06.056Z</time></trkpt><trkpt lat="33.6508605" lon="7.7389882"><ele>33.166666666666664</ele><time>2026-04-12T09:12:07.058Z</time></trkpt><trkpt lat="33.6507715" lon="7.7389723"><ele>33.333333333333336</ele><time>2026-04-12T09:12:08.055Z</time></trkpt><trkpt lat="33.650685" lon="7.7389516"><ele>33.5</ele><time>2026-04-12T09:12:09.055Z</time></trkpt><trkpt lat="33.6506014" lon="7.7389372"><ele>33.66666666666667</ele><time>2026-04-12T09:12:10.053Z</time></trkpt><trkpt lat="33.6505248" lon="7.7389241"><ele>33.833333333333336</ele><time>2026-04-12T09:12:11.046Z</time></trkpt><trkpt lat="33.6504248" lon="7.7389153"><ele>34.0</ele><time>2026-04-12T09:12:13.046Z</time></trkpt><trkpt lat="33.6503567" lon="7.7389123"><ele>34.16666666666667</ele><time>2026-04-12T09:12:15.056Z</time></trkpt><trkpt lat="33.6502807" lon="7.7389075"><ele>34.333333333333336</ele><time>2026-04-12T09:12:19.067Z</time></trkpt><trkpt lat="33.6502033" lon="7.7389053"><ele>34.5</ele><time>2026-04-12T09:12:36.06Z</time></trkpt><trkpt lat="33.6501098" lon="7.7388866"><ele>34.666666666666664</ele><time>2026-04-12T09:12:39.058Z</time></trkpt><trkpt lat="33.6500087" lon="7.7388828"><ele>34.83333333333333</ele><time>2026-04-12T09:12:41.048Z</time></trkpt><trkpt lat="33.6499313" lon="7.7388713"><ele>35.0</ele><time>2026-04-12T09:12:42.049Z</time></trkpt><trkpt lat="33.6498496" lon="7.7388606"><ele>35.0</ele><time>2026-04-12T09:12:43.025Z</time></trkpt><trkpt lat="33.6497704" lon="7.7388497"><ele>35.0</ele><time>2026-04-12T09:12:44.026Z</time></trkpt><trkpt lat="33.649644" lon="7.7387976"><ele>35.0</ele><time>2026-04-12T09:12:47.048Z</time></trkpt><trkpt lat="33.6495544" lon="7.7387844"><ele>35.0</ele><time>2026-04-12T09:12:48.05Z</time></trkpt><trkpt lat="33.6494544" lon="7.7387741"><ele>35.0</ele><time>2026-04-12T09:12:49.047Z</time></trkpt><trkpt lat="33.6493485" lon="7.7387635"><ele>34.8</ele><time>2026-04-12T09:12:50.053Z</time></trkpt><trkpt lat="33.6492444" lon="7.7387534"><ele>34.6</ele><time>2026-04-12T09:12:51.055Z</time></trkpt><trkpt lat="33.6491469" lon="7.7387393"><ele>34.4</ele><time>2026-04-12T09:12:52.05Z</time></trkpt><trkpt lat="33.6490496" lon="7.7387225"><ele>34.2</ele><time>2026-04-12T09:12:53.049Z</time></trkpt><trkpt lat="33.6489538" lon="7.7387089"><ele>34.0</ele><time>2026-04-12T09:12:54.052Z</time></trkpt><trkpt lat="33.6488696" lon="7.7386957"><ele>34.0</ele><time>2026-04-12T09:12:55.06Z</time></trkpt><trkpt lat="33.648787" lon="7.7386881"><ele>34.0</ele><time>2026-04-12T09:12:56.051Z</time></trkpt><trkpt lat="33.6486984" lon="7.7386788"><ele>34.0</ele><time>2026-04-12T09:12:57.059Z</time></trkpt><trkpt lat="33.6486093" lon="7.7386731"><ele>34.0</ele><time>2026-04-12T09:12:58.053Z</time></trkpt><trkpt lat="33.6485252" lon="7.7386644"><ele>34.0</ele><time>2026-04-12T09:12:59.055Z</time></trkpt><trkpt lat="33.6484513" lon="7.7386579"><ele>34.0</ele><time>2026-04-12T09:13:00.064Z</time></trkpt><trkpt lat="33.6483787" lon="7.7386525"><ele>33.6</ele><time>2026-04-12T09:13:01.073Z</time></trkpt><trkpt lat="33.6482998" lon="7.7386449"><ele>33.2</ele><time>2026-04-12T09:13:02.051Z</time></trkpt><trkpt lat="33.6482117" lon="7.7386384"><ele>32.800000000000004</ele><time>2026-04-12T09:13:03.057Z</time></trkpt><trkpt lat="33.6481171" lon="7.7386276"><ele>32.4</ele><time>2026-04-12T09:13:04.055Z</time></trkpt><trkpt lat="33.6480237" lon="7.738618"><ele>32.0</ele><time>2026-04-12T09:13:05.051Z</time></trkpt><trkpt lat="33.6479287" lon="7.73861"><ele>32.0</ele><time>2026-04-12T09:13:06.052Z</time></trkpt><trkpt lat="33.6478423" lon="7.7386248"><ele>32.0</ele><time>2026-04-12T09:13:07.05Z</time></trkpt><trkpt lat="33.6477402" lon="7.7386042"><ele>32.0</ele><time>2026-04-12T09:13:08.059Z</time></trkpt><trkpt lat="33.6476343" lon="7.7385854"><ele>32.0</ele><time>2026-04-12T09:13:09.048Z</time></trkpt><trkpt lat="33.6475297" lon="7.7385686"><ele>32.0</ele><time>2026-04-12T09:13:10.053Z</time></trkpt><trkpt lat="33.6474221" lon="7.7385563"><ele>31.75</ele><time>2026-04-12T09:13:11.06Z</time></trkpt><trkpt lat="33.647307" lon="7.7385451"><ele>31.5</ele><time>2026-04-12T09:13:12.062Z</time></trkpt><trkpt lat="33.6471905" lon="7.7385313"><ele>31.25</ele><time>2026-04-12T09:13:13.059Z</time></trkpt><trkpt lat="33.6470726" lon="7.7385148"><ele>31.0</ele><time>2026-04-12T09:13:14.059Z</time></trkpt><trkpt lat="33.646959" lon="7.7384989"><ele>31.75</ele><time>2026-04-12T09:13:15.059Z</time></trkpt><trkpt lat="33.6468451" lon="7.7384837"><ele>32.5</ele><time>2026-04-12T09:13:16.056Z</time></trkpt><trkpt lat="33.6467288" lon="7.7384716"><ele>33.25</ele><time>2026-04-12T09:13:17.057Z</time></trkpt><trkpt lat="33.6466106" lon="7.7384601"><ele>34.0</ele><time>2026-04-12T09:13:18.059Z</time></trkpt><trkpt lat="33.6465011" lon="7.7384516"><ele>34.0</ele><time>2026-04-12T09:13:19.061Z</time></trkpt><trkpt lat="33.6463893" lon="7.7384382"><ele>34.0</ele><time>2026-04-12T09:13:20.049Z</time></trkpt><trkpt lat="33.6462688" lon="7.7384259"><ele>34.0</ele><time>2026-04-12T09:13:21.056Z</time></trkpt><trkpt lat="33.6461566" lon="7.7384097"><ele>34.0</ele><time>2026-04-12T09:13:22.061Z</time></trkpt><trkpt lat="33.6460439" lon="7.7383967"><ele>34.2</ele><time>2026-04-12T09:13:23.056Z</time></trkpt><trkpt lat="33.6459324" lon="7.7383803"><ele>34.4</ele><time>2026-04-12T09:13:24.055Z</time></trkpt><trkpt lat="33.6458271" lon="7.7383676"><ele>34.6</ele><time>2026-04-12T09:13:25.048Z</time></trkpt><trkpt lat="33.6457385" lon="7.7383577"><ele>34.8</ele><time>2026-04-12T09:13:26.044Z</time></trkpt><trkpt lat="33.6456531" lon="7.7383449"><ele>35.0</ele><time>2026-04-12T09:13:27.046Z</time></trkpt><trkpt lat="33.645571" lon="7.7383361"><ele>35.0</ele><time>2026-04-12T09:13:28.054Z</time></trkpt><trkpt lat="33.6454752" lon="7.7383265"><ele>35.0</ele><time>2026-04-12T09:13:29.052Z</time></trkpt><trkpt lat="33.6453756" lon="7.7383154"><ele>35.0</ele><time>2026-04-12T09:13:30.054Z</time></trkpt><trkpt lat="33.6452619" lon="7.7383026"><ele>35.0</ele><time>2026-04-12T09:13:31.048Z</time></trkpt><trkpt lat="33.6451455" lon="7.7382924"><ele>35.0</ele><time>2026-04-12T09:13:32.072Z</time></trkpt><trkpt lat="33.6450377" lon="7.738286"><ele>35.0</ele><time>2026-04-12T09:13:33.046Z</time></trkpt><trkpt lat="33.6449353" lon="7.7382743"><ele>35.0</ele><time>2026-04-12T09:13:34.049Z</time></trkpt><trkpt lat="33.6448381" lon="7.738266"><ele>35.0</ele><time>2026-04-12T09:13:35.045Z</time></trkpt><trkpt lat="33.6447429" lon="7.7382551"><ele>35.0</ele><time>2026-04-12T09:13:36.045Z</time></trkpt><trkpt lat="33.6446404" lon="7.7382369"><ele>35.0</ele><time>2026-04-12T09:13:37.052Z</time></trkpt><trkpt lat="33.6445356" lon="7.7382215"><ele>34.6</ele><time>2026-04-12T09:13:38.055Z</time></trkpt><trkpt lat="33.6444252" lon="7.7382061"><ele>34.2</ele><time>2026-04-12T09:13:39.054Z</time></trkpt><trkpt lat="33.6443161" lon="7.7381993"><ele>33.8</ele><time>2026-04-12T09:13:40.054Z</time></trkpt><trkpt lat="33.6441993" lon="7.7381869"><ele>33.4</ele><time>2026-04-12T09:13:41.057Z</time></trkpt><trkpt lat="33.6440889" lon="7.7381739"><ele>33.0</ele><time>2026-04-12T09:13:42.06Z</time></trkpt><trkpt lat="33.6439777" lon="7.7381597"><ele>33.0</ele><time>2026-04-12T09:13:43.057Z</time></trkpt><trkpt lat="33.643866" lon="7.7381465"><ele>33.0</ele><time>2026-04-12T09:13:44.056Z</time></trkpt><trkpt lat="33.6437471" lon="7.7381335"><ele>33.0</ele><time>2026-04-12T09:13:45.047Z</time></trkpt><trkpt lat="33.6436309" lon="7.7381163"><ele>33.0</ele><time>2026-04-12T09:13:46.049Z</time></trkpt><trkpt lat="33.6435189" lon="7.7381009"><ele>32.8</ele><time>2026-04-12T09:13:47.052Z</time></trkpt><trkpt lat="33.6434033" lon="7.7380919"><ele>32.599999999999994</ele><time>2026-04-12T09:13:48.051Z</time></trkpt><trkpt lat="33.6432942" lon="7.7380841"><ele>32.400000000000006</ele><time>2026-04-12T09:13:49.059Z</time></trkpt><trkpt lat="33.6431945" lon="7.7380731"><ele>32.2</ele><time>2026-04-12T09:13:50.051Z</time></trkpt><trkpt lat="33.6430944" lon="7.7380624"><ele>32.0</ele><time>2026-04-12T09:13:51.058Z</time></trkpt><trkpt lat="33.6429892" lon="7.7380486"><ele>32.0</ele><time>2026-04-12T09:13:52.058Z</time></trkpt><trkpt lat="33.6428829" lon="7.7380352"><ele>32.0</ele><time>2026-04-12T09:13:53.058Z</time></trkpt><trkpt lat="33.6427733" lon="7.7380277"><ele>32.0</ele><time>2026-04-12T09:13:54.052Z</time></trkpt><trkpt lat="33.6426723" lon="7.7380242"><ele>32.0</ele><time>2026-04-12T09:13:55.054Z</time></trkpt><trkpt lat="33.6425702" lon="7.7380146"><ele>32.0</ele><time>2026-04-12T09:13:56.054Z</time></trkpt><trkpt lat="33.6424614" lon="7.7380005"><ele>31.6</ele><time>2026-04-12T09:13:57.055Z</time></trkpt><trkpt lat="33.642362" lon="7.7379841"><ele>31.200000000000003</ele><time>2026-04-12T09:13:58.058Z</time></trkpt><trkpt lat="33.6422604" lon="7.7379706"><ele>30.8</ele><time>2026-04-12T09:13:59.059Z</time></trkpt><trkpt lat="33.6421626" lon="7.7379635"><ele>30.4</ele><time>2026-04-12T09:14:00.051Z</time></trkpt><trkpt lat="33.6420536" lon="7.7379536"><ele>30.0</ele><time>2026-04-12T09:14:01.056Z</time></trkpt><trkpt lat="33.6419618" lon="7.7379401"><ele>30.8</ele><time>2026-04-12T09:14:02.061Z</time></trkpt><trkpt lat="33.6418568" lon="7.737922"><ele>31.6</ele><time>2026-04-12T09:14:03.032Z</time></trkpt><trkpt lat="33.6417485" lon="7.7379103"><ele>32.4</ele><time>2026-04-12T09:14:04.029Z</time></trkpt><trkpt lat="33.6416405" lon="7.7379015"><ele>33.2</ele><time>2026-04-12T09:14:05.028Z</time></trkpt><trkpt lat="33.6415369" lon="7.7378898"><ele>34.0</ele><time>2026-04-12T09:14:06.036Z</time></trkpt><trkpt lat="33.6414237" lon="7.7378747"><ele>34.0</ele><time>2026-04-12T09:14:07.059Z</time></trkpt><trkpt lat="33.6413151" lon="7.7378608"><ele>34.0</ele><time>2026-04-12T09:14:08.057Z</time></trkpt><trkpt lat="33.6412124" lon="7.7378513"><ele>34.0</ele><time>2026-04-12T09:14:09.056Z</time></trkpt><trkpt lat="33.6411206" lon="7.7378394"><ele>34.0</ele><time>2026-04-12T09:14:10.054Z</time></trkpt><trkpt lat="33.6409974" lon="7.7378198"><ele>34.0</ele><time>2026-04-12T09:14:11.053Z</time></trkpt><trkpt lat="33.6408529" lon="7.7377975"><ele>33.8</ele><time>2026-04-12T09:14:12.055Z</time></trkpt><trkpt lat="33.6406908" lon="7.7377767"><ele>33.599999999999994</ele><time>2026-04-12T09:14:13.053Z</time></trkpt><trkpt lat="33.6405978" lon="7.7377614"><ele>33.4</ele><time>2026-04-12T09:14:14.051Z</time></trkpt><trkpt lat="33.6405321" lon="7.7377532"><ele>33.199999999999996</ele><time>2026-04-12T09:14:15.054Z</time></trkpt><trkpt lat="33.6404507" lon="7.7377439"><ele>33.0</ele><time>2026-04-12T09:14:16.048Z</time></trkpt><trkpt lat="33.6403614" lon="7.7377338"><ele>33.0</ele><time>2026-04-12T09:14:17.055Z</time></trkpt><trkpt lat="33.6402734" lon="7.7377233"><ele>33.0</ele><time>2026-04-12T09:14:18.056Z</time></trkpt><trkpt lat="33.6401795" lon="7.7377098"><ele>33.0</ele><time>2026-04-12T09:14:19.056Z</time></trkpt><trkpt lat="33.6400945" lon="7.7377002"><ele>33.0</ele><time>2026-04-12T09:14:20.056Z</time></trkpt><trkpt lat="33.6400124" lon="7.7376935"><ele>33.0</ele><time>2026-04-12T09:14:21.055Z</time></trkpt><trkpt lat="33.6399303" lon="7.7376855"><ele>33.0</ele><time>2026-04-12T09:14:22.057Z</time></trkpt><trkpt lat="33.6398443" lon="7.7376701"><ele>33.199999999999996</ele><time>2026-04-12T09:14:23.05Z</time></trkpt><trkpt lat="33.6397479" lon="7.7376488"><ele>33.4</ele><time>2026-04-12T09:14:24.06Z</time></trkpt><trkpt lat="33.6396497" lon="7.7376356"><ele>33.599999999999994</ele><time>2026-04-12T09:14:25.056Z</time></trkpt><trkpt lat="33.639549" lon="7.737629"><ele>33.8</ele><time>2026-04-12T09:14:26.032Z</time></trkpt><trkpt lat="33.6394489" lon="7.7376233"><ele>34.0</ele><time>2026-04-12T09:14:27.033Z</time></trkpt><trkpt lat="33.6393517" lon="7.7376153"><ele>34.16666666666667</ele><time>2026-04-12T09:14:28.039Z</time></trkpt><trkpt lat="33.6392615" lon="7.7376079"><ele>34.333333333333336</ele><time>2026-04-12T09:14:29.035Z</time></trkpt><trkpt lat="33.6391788" lon="7.7375976"><ele>34.5</ele><time>2026-04-12T09:14:30.058Z</time></trkpt><trkpt lat="33.6391018" lon="7.7375874"><ele>34.666666666666664</ele><time>2026-04-12T09:14:31.054Z</time></trkpt><trkpt lat="33.6390231" lon="7.7375785"><ele>34.83333333333333</ele><time>2026-04-12T09:14:32.054Z</time></trkpt><trkpt lat="33.6389562" lon="7.7375734"><ele>35.0</ele><time>2026-04-12T09:14:33.065Z</time></trkpt><trkpt lat="33.6388548" lon="7.7375627"><ele>35.0</ele><time>2026-04-12T09:14:35.054Z</time></trkpt><trkpt lat="33.6387751" lon="7.7375558"><ele>35.0</ele><time>2026-04-12T09:14:37.041Z</time></trkpt><trkpt lat="33.6386943" lon="7.7375435"><ele>35.0</ele><time>2026-04-12T09:14:40.056Z</time></trkpt><trkpt lat="33.6387676" lon="7.7375543"><ele>35.0</ele><time>2026-04-12T09:14:50.066Z</time></trkpt><trkpt lat="33.6387042" lon="7.7375274"><ele>35.0</ele><time>2026-04-12T09:14:54.065Z</time></trkpt><trkpt lat="33.6386238" lon="7.7375218"><ele>35.0</ele><time>2026-04-12T09:14:56.054Z</time></trkpt><trkpt lat="33.6385459" lon="7.7375048"><ele>34.857142857142854</ele><time>2026-04-12T09:14:58.059Z</time></trkpt><trkpt lat="33.6384815" lon="7.7374908"><ele>34.714285714285715</ele><time>2026-04-12T09:15:00.057Z</time></trkpt><trkpt lat="33.6384079" lon="7.7374786"><ele>34.57142857142857</ele><time>2026-04-12T09:15:03.05Z</time></trkpt><trkpt lat="33.6383449" lon="7.7375022"><ele>34.42857142857143</ele><time>2026-04-12T09:15:05.05Z</time></trkpt><trkpt lat="33.6382844" lon="7.7375594"><ele>34.285714285714285</ele><time>2026-04-12T09:15:07.056Z</time></trkpt><trkpt lat="33.6382476" lon="7.7376288"><ele>34.14285714285714</ele><time>2026-04-12T09:15:09.051Z</time></trkpt><trkpt lat="33.6382236" lon="7.7377429"><ele>34.0</ele><time>2026-04-12T09:15:11.053Z</time></trkpt><trkpt lat="33.6382306" lon="7.737842"><ele>34.0</ele><time>2026-04-12T09:15:13.05Z</time></trkpt><trkpt lat="33.6382636" lon="7.7379539"><ele>34.0</ele><time>2026-04-12T09:15:15.052Z</time></trkpt><trkpt lat="33.6383045" lon="7.7380437"><ele>34.0</ele><time>2026-04-12T09:15:17.044Z</time></trkpt><trkpt lat="33.6383271" lon="7.7381324"><ele>34.0</ele><time>2026-04-12T09:15:19.044Z</time></trkpt><trkpt lat="33.6383324" lon="7.7382109"><ele>34.0</ele><time>2026-04-12T09:15:22.052Z</time></trkpt><trkpt lat="33.6383344" lon="7.7382902"><ele>34.0</ele><time>2026-04-12T09:15:27.05Z</time></trkpt><trkpt lat="33.6383604" lon="7.7383723"><ele>34.0</ele><time>2026-04-12T09:15:28.048Z</time></trkpt><trkpt lat="33.6383607" lon="7.7384783"><ele>34.0</ele><time>2026-04-12T09:15:30.039Z</time></trkpt><trkpt lat="33.6383441" lon="7.7385963"><ele>34.0</ele><time>2026-04-12T09:15:32.023Z</time></trkpt><trkpt lat="33.6383037" lon="7.7387177"><ele>34.0</ele><time>2026-04-12T09:15:34.019Z</time></trkpt><trkpt lat="33.6382244" lon="7.7388296"><ele>34.0</ele><time>2026-04-12T09:15:36.042Z</time></trkpt><trkpt lat="33.6381712" lon="7.7389"><ele>34.333333333333336</ele><time>2026-04-12T09:15:37.037Z</time></trkpt><trkpt lat="33.6381214" lon="7.7389784"><ele>34.66666666666667</ele><time>2026-04-12T09:15:38.047Z</time></trkpt><trkpt lat="33.6380699" lon="7.7390581"><ele>35.0</ele><time>2026-04-12T09:15:39.044Z</time></trkpt><trkpt lat="33.6380182" lon="7.7391265"><ele>35.333333333333336</ele><time>2026-04-12T09:15:40.037Z</time></trkpt><trkpt lat="33.6379269" lon="7.7392157"><ele>35.666666666666664</ele><time>2026-04-12T09:15:42.039Z</time></trkpt><trkpt lat="33.6378769" lon="7.7392671"><ele>36.0</ele><time>2026-04-12T09:15:43.043Z</time></trkpt><trkpt lat="33.6378185" lon="7.739319"><ele>36.00000000000001</ele><time>2026-04-12T09:15:44.043Z</time></trkpt><trkpt lat="33.6377701" lon="7.7393757"><ele>36.0</ele><time>2026-04-12T09:15:45.046Z</time></trkpt><trkpt lat="33.6377224" lon="7.7394353"><ele>36.0</ele><time>2026-04-12T09:15:46.052Z</time></trkpt><trkpt lat="33.6376719" lon="7.7394969"><ele>36.0</ele><time>2026-04-12T09:15:47.055Z</time></trkpt><trkpt lat="33.6376208" lon="7.739561"><ele>36.0</ele><time>2026-04-12T09:15:48.054Z</time></trkpt><trkpt lat="33.6375673" lon="7.7396134"><ele>36.00000000000001</ele><time>2026-04-12T09:15:49.054Z</time></trkpt><trkpt lat="33.6375111" lon="7.739664"><ele>36.0</ele><time>2026-04-12T09:15:50.058Z</time></trkpt><trkpt lat="33.6374517" lon="7.7397196"><ele>35.833333333333336</ele><time>2026-04-12T09:15:51.038Z</time></trkpt><trkpt lat="33.6373953" lon="7.7397878"><ele>35.666666666666664</ele><time>2026-04-12T09:15:52.038Z</time></trkpt><trkpt lat="33.6373537" lon="7.7398635"><ele>35.5</ele><time>2026-04-12T09:15:53.027Z</time></trkpt><trkpt lat="33.6373193" lon="7.7399481"><ele>35.33333333333333</ele><time>2026-04-12T09:15:54.036Z</time></trkpt><trkpt lat="33.6372879" lon="7.7400376"><ele>35.166666666666664</ele><time>2026-04-12T09:15:55.059Z</time></trkpt><trkpt lat="33.6372596" lon="7.7401399"><ele>35.0</ele><time>2026-04-12T09:15:56.05Z</time></trkpt><trkpt lat="33.6372224" lon="7.740242"><ele>34.4</ele><time>2026-04-12T09:15:57.049Z</time></trkpt><trkpt lat="33.6371687" lon="7.7403244"><ele>33.8</ele><time>2026-04-12T09:15:58.04Z</time></trkpt><trkpt lat="33.6371118" lon="7.7403932"><ele>33.2</ele><time>2026-04-12T09:15:59.044Z</time></trkpt><trkpt lat="33.6370365" lon="7.7404892"><ele>32.6</ele><time>2026-04-12T09:16:00.019Z</time></trkpt><trkpt lat="33.6369413" lon="7.7405705"><ele>32.0</ele><time>2026-04-12T09:16:01.017Z</time></trkpt><trkpt lat="33.6368566" lon="7.7406424"><ele>32.0</ele><time>2026-04-12T09:16:02.019Z</time></trkpt><trkpt lat="33.6367611" lon="7.7407278"><ele>32.0</ele><time>2026-04-12T09:16:03.014Z</time></trkpt><trkpt lat="33.6366749" lon="7.7408162"><ele>32.0</ele><time>2026-04-12T09:16:04.037Z</time></trkpt><trkpt lat="33.6365907" lon="7.7409019"><ele>32.0</ele><time>2026-04-12T09:16:05.037Z</time></trkpt><trkpt lat="33.6365167" lon="7.7409853"><ele>32.0</ele><time>2026-04-12T09:16:06.037Z</time></trkpt><trkpt lat="33.6364417" lon="7.7410703"><ele>32.0</ele><time>2026-04-12T09:16:07.016Z</time></trkpt><trkpt lat="33.6363512" lon="7.741138"><ele>32.0</ele><time>2026-04-12T09:16:08.02Z</time></trkpt><trkpt lat="33.6362599" lon="7.7412309"><ele>32.0</ele><time>2026-04-12T09:16:09.017Z</time></trkpt><trkpt lat="33.6361691" lon="7.7413202"><ele>32.0</ele><time>2026-04-12T09:16:10.035Z</time></trkpt><trkpt lat="33.6360731" lon="7.7414009"><ele>32.5</ele><time>2026-04-12T09:16:11.04Z</time></trkpt><trkpt lat="33.6359803" lon="7.7414883"><ele>33.0</ele><time>2026-04-12T09:16:12.041Z</time></trkpt><trkpt lat="33.6358853" lon="7.7415808"><ele>33.5</ele><time>2026-04-12T09:16:13.042Z</time></trkpt><trkpt lat="33.6357975" lon="7.7416655"><ele>34.0</ele><time>2026-04-12T09:16:14.052Z</time></trkpt><trkpt lat="33.6357138" lon="7.7417325"><ele>34.0</ele><time>2026-04-12T09:16:15.045Z</time></trkpt><trkpt lat="33.635636" lon="7.7418135"><ele>34.0</ele><time>2026-04-12T09:16:16.046Z</time></trkpt><trkpt lat="33.6355624" lon="7.7419038"><ele>34.0</ele><time>2026-04-12T09:16:17.052Z</time></trkpt><trkpt lat="33.6354906" lon="7.7419881"><ele>34.0</ele><time>2026-04-12T09:16:18.032Z</time></trkpt><trkpt lat="33.6354056" lon="7.7420696"><ele>34.0</ele><time>2026-04-12T09:16:19.024Z</time></trkpt><trkpt lat="33.6353197" lon="7.742157"><ele>33.6</ele><time>2026-04-12T09:16:20.025Z</time></trkpt><trkpt lat="33.6352439" lon="7.7422319"><ele>33.2</ele><time>2026-04-12T09:16:21.024Z</time></trkpt><trkpt lat="33.6351685" lon="7.7423138"><ele>32.800000000000004</ele><time>2026-04-12T09:16:22.044Z</time></trkpt><trkpt lat="33.6350959" lon="7.7423958"><ele>32.4</ele><time>2026-04-12T09:16:23.049Z</time></trkpt><trkpt lat="33.6350163" lon="7.7424872"><ele>32.0</ele><time>2026-04-12T09:16:24.048Z</time></trkpt><trkpt lat="33.6349374" lon="7.7425682"><ele>32.0</ele><time>2026-04-12T09:16:25.053Z</time></trkpt><trkpt lat="33.6348648" lon="7.7426523"><ele>32.0</ele><time>2026-04-12T09:16:26.042Z</time></trkpt><trkpt lat="33.6347968" lon="7.7427329"><ele>32.0</ele><time>2026-04-12T09:16:27.059Z</time></trkpt><trkpt lat="33.6347159" lon="7.7428233"><ele>32.0</ele><time>2026-04-12T09:16:28.047Z</time></trkpt><trkpt lat="33.6346421" lon="7.7428999"><ele>32.0</ele><time>2026-04-12T09:16:29.051Z</time></trkpt><trkpt lat="33.6345626" lon="7.7429728"><ele>32.0</ele><time>2026-04-12T09:16:30.048Z</time></trkpt><trkpt lat="33.6344813" lon="7.7430403"><ele>32.0</ele><time>2026-04-12T09:16:31.048Z</time></trkpt><trkpt lat="33.6344008" lon="7.743103"><ele>32.0</ele><time>2026-04-12T09:16:32.047Z</time></trkpt><trkpt lat="33.6343203" lon="7.743165"><ele>32.0</ele><time>2026-04-12T09:16:33.044Z</time></trkpt><trkpt lat="33.634234" lon="7.7432089"><ele>32.0</ele><time>2026-04-12T09:16:34.04Z</time></trkpt><trkpt lat="33.63417" lon="7.7432845"><ele>32.0</ele><time>2026-04-12T09:16:35.043Z</time></trkpt><trkpt lat="33.6341148" lon="7.743372"><ele>32.0</ele><time>2026-04-12T09:16:36.027Z</time></trkpt><trkpt lat="33.6340643" lon="7.7434456"><ele>32.0</ele><time>2026-04-12T09:16:37.038Z</time></trkpt><trkpt lat="33.6340094" lon="7.7435172"><ele>32.0</ele><time>2026-04-12T09:16:38.028Z</time></trkpt><trkpt lat="33.6339359" lon="7.7435924"><ele>32.0</ele><time>2026-04-12T09:16:39.026Z</time></trkpt><trkpt lat="33.6338574" lon="7.7436703"><ele>32.0</ele><time>2026-04-12T09:16:40.044Z</time></trkpt><trkpt lat="33.6337835" lon="7.7437468"><ele>32.0</ele><time>2026-04-12T09:16:41.046Z</time></trkpt><trkpt lat="33.6337294" lon="7.7438021"><ele>32.0</ele><time>2026-04-12T09:16:42.048Z</time></trkpt><trkpt lat="33.6335975" lon="7.7439508"><ele>32.0</ele><time>2026-04-12T09:16:44.043Z</time></trkpt><trkpt lat="33.6335428" lon="7.743991"><ele>32.0</ele><time>2026-04-12T09:16:46.049Z</time></trkpt><trkpt lat="33.633462" lon="7.7440447"><ele>32.0</ele><time>2026-04-12T09:16:48.028Z</time></trkpt><trkpt lat="33.632867" lon="7.744497"><ele>32.4</ele><time>2026-04-12T09:16:52.061Z</time></trkpt><trkpt lat="33.6327608" lon="7.7445922"><ele>32.800000000000004</ele><time>2026-04-12T09:16:53.047Z</time></trkpt><trkpt lat="33.6326933" lon="7.7446583"><ele>33.2</ele><time>2026-04-12T09:16:54.045Z</time></trkpt><trkpt lat="33.6326295" lon="7.7447402"><ele>33.6</ele><time>2026-04-12T09:16:55.048Z</time></trkpt><trkpt lat="33.6325794" lon="7.7448299"><ele>34.0</ele><time>2026-04-12T09:16:56.025Z</time></trkpt><trkpt lat="33.6325072" lon="7.7449373"><ele>34.0</ele><time>2026-04-12T09:16:57.026Z</time></trkpt><trkpt lat="33.6324402" lon="7.7450235"><ele>34.0</ele><time>2026-04-12T09:16:58.026Z</time></trkpt><trkpt lat="33.6323636" lon="7.7451031"><ele>34.0</ele><time>2026-04-12T09:16:59.026Z</time></trkpt><trkpt lat="33.6322863" lon="7.7451839"><ele>34.0</ele><time>2026-04-12T09:17:00.048Z</time></trkpt><trkpt lat="33.6322012" lon="7.7452699"><ele>34.0</ele><time>2026-04-12T09:17:01.038Z</time></trkpt><trkpt lat="33.6321356" lon="7.7453508"><ele>34.0</ele><time>2026-04-12T09:17:02.038Z</time></trkpt><trkpt lat="33.6320448" lon="7.7454276"><ele>34.0</ele><time>2026-04-12T09:17:03.043Z</time></trkpt><trkpt lat="33.6319578" lon="7.7455048"><ele>34.0</ele><time>2026-04-12T09:17:04.038Z</time></trkpt><trkpt lat="33.6318718" lon="7.7455807"><ele>34.0</ele><time>2026-04-12T09:17:05.049Z</time></trkpt><trkpt lat="33.6317788" lon="7.7456615"><ele>34.0</ele><time>2026-04-12T09:17:06.041Z</time></trkpt><trkpt lat="33.6316948" lon="7.7457313"><ele>33.8</ele><time>2026-04-12T09:17:07.041Z</time></trkpt><trkpt lat="33.6316202" lon="7.745799"><ele>33.599999999999994</ele><time>2026-04-12T09:17:08.048Z</time></trkpt><trkpt lat="33.6315508" lon="7.7458733"><ele>33.4</ele><time>2026-04-12T09:17:09.042Z</time></trkpt><trkpt lat="33.6314833" lon="7.7459611"><ele>33.199999999999996</ele><time>2026-04-12T09:17:10.049Z</time></trkpt><trkpt lat="33.631421" lon="7.7460639"><ele>33.0</ele><time>2026-04-12T09:17:11.021Z</time></trkpt><trkpt lat="33.6313605" lon="7.7461793"><ele>33.0</ele><time>2026-04-12T09:17:12.024Z</time></trkpt><trkpt lat="33.6312906" lon="7.7462824"><ele>33.0</ele><time>2026-04-12T09:17:13.022Z</time></trkpt><trkpt lat="33.6312146" lon="7.7463629"><ele>33.0</ele><time>2026-04-12T09:17:14.027Z</time></trkpt><trkpt lat="33.6311287" lon="7.7464544"><ele>33.0</ele><time>2026-04-12T09:17:15.05Z</time></trkpt><trkpt lat="33.6310451" lon="7.7465464"><ele>33.0</ele><time>2026-04-12T09:17:16.049Z</time></trkpt><trkpt lat="33.6309547" lon="7.7466481"><ele>32.75</ele><time>2026-04-12T09:17:17.049Z</time></trkpt><trkpt lat="33.6308658" lon="7.7467432"><ele>32.5</ele><time>2026-04-12T09:17:18.049Z</time></trkpt><trkpt lat="33.6307761" lon="7.7468248"><ele>32.25</ele><time>2026-04-12T09:17:19.046Z</time></trkpt><trkpt lat="33.6306779" lon="7.7469074"><ele>32.0</ele><time>2026-04-12T09:17:20.044Z</time></trkpt><trkpt lat="33.6305831" lon="7.7469917"><ele>32.0</ele><time>2026-04-12T09:17:21.046Z</time></trkpt><trkpt lat="33.6304943" lon="7.7470811"><ele>32.0</ele><time>2026-04-12T09:17:22.044Z</time></trkpt><trkpt lat="33.6304138" lon="7.7471743"><ele>32.0</ele><time>2026-04-12T09:17:23.046Z</time></trkpt><trkpt lat="33.6303336" lon="7.7472671"><ele>32.0</ele><time>2026-04-12T09:17:24.045Z</time></trkpt><trkpt lat="33.6302484" lon="7.7473571"><ele>32.25</ele><time>2026-04-12T09:17:25.049Z</time></trkpt><trkpt lat="33.6301657" lon="7.7474413"><ele>32.5</ele><time>2026-04-12T09:17:26.049Z</time></trkpt><trkpt lat="33.6300789" lon="7.7475332"><ele>32.75</ele><time>2026-04-12T09:17:27.05Z</time></trkpt><trkpt lat="33.6299853" lon="7.7476321"><ele>33.0</ele><time>2026-04-12T09:17:28.042Z</time></trkpt><trkpt lat="33.6298967" lon="7.7477267"><ele>33.0</ele><time>2026-04-12T09:17:29.054Z</time></trkpt><trkpt lat="33.6297991" lon="7.7478279"><ele>33.0</ele><time>2026-04-12T09:17:30.039Z</time></trkpt><trkpt lat="33.6297067" lon="7.7479266"><ele>33.0</ele><time>2026-04-12T09:17:31.043Z</time></trkpt><trkpt lat="33.6296138" lon="7.7480238"><ele>33.0</ele><time>2026-04-12T09:17:32.044Z</time></trkpt><trkpt lat="33.6295142" lon="7.7481207"><ele>32.75</ele><time>2026-04-12T09:17:33.045Z</time></trkpt><trkpt lat="33.6294071" lon="7.7482157"><ele>32.5</ele><time>2026-04-12T09:17:34.039Z</time></trkpt><trkpt lat="33.6293066" lon="7.7483174"><ele>32.25</ele><time>2026-04-12T09:17:35.048Z</time></trkpt><trkpt lat="33.6292042" lon="7.7484242"><ele>32.0</ele><time>2026-04-12T09:17:36.042Z</time></trkpt><trkpt lat="33.629105" lon="7.7485315"><ele>31.75</ele><time>2026-04-12T09:17:37.046Z</time></trkpt><trkpt lat="33.6290076" lon="7.7486448"><ele>31.5</ele><time>2026-04-12T09:17:38.042Z</time></trkpt><trkpt lat="33.6289102" lon="7.7487579"><ele>31.25</ele><time>2026-04-12T09:17:39.057Z</time></trkpt><trkpt lat="33.62881" lon="7.7488672"><ele>31.0</ele><time>2026-04-12T09:17:40.039Z</time></trkpt><trkpt lat="33.6287073" lon="7.748959"><ele>31.75</ele><time>2026-04-12T09:17:41.045Z</time></trkpt><trkpt lat="33.6286139" lon="7.7490607"><ele>32.5</ele><time>2026-04-12T09:17:42.044Z</time></trkpt><trkpt lat="33.6285282" lon="7.7491614"><ele>33.25</ele><time>2026-04-12T09:17:43.039Z</time></trkpt><trkpt lat="33.6284469" lon="7.7492491"><ele>34.0</ele><time>2026-04-12T09:17:44.038Z</time></trkpt><trkpt lat="33.6283619" lon="7.7493412"><ele>33.5</ele><time>2026-04-12T09:17:45.021Z</time></trkpt><trkpt lat="33.6282634" lon="7.7494279"><ele>33.0</ele><time>2026-04-12T09:17:46.028Z</time></trkpt><trkpt lat="33.6282052" lon="7.7494858"><ele>32.5</ele><time>2026-04-12T09:17:47.027Z</time></trkpt><trkpt lat="33.628152" lon="7.7495362"><ele>32.0</ele><time>2026-04-12T09:17:48.024Z</time></trkpt><trkpt lat="33.6279787" lon="7.749691"><ele>32.0</ele><time>2026-04-12T09:17:49.046Z</time></trkpt><trkpt lat="33.6278808" lon="7.7497795"><ele>32.0</ele><time>2026-04-12T09:17:50.048Z</time></trkpt><trkpt lat="33.6277557" lon="7.7498974"><ele>32.0</ele><time>2026-04-12T09:17:51.04Z</time></trkpt><trkpt lat="33.6276501" lon="7.750007"><ele>32.0</ele><time>2026-04-12T09:17:52.047Z</time></trkpt><trkpt lat="33.6275509" lon="7.750108"><ele>32.0</ele><time>2026-04-12T09:17:53.021Z</time></trkpt><trkpt lat="33.6274441" lon="7.7502149"><ele>32.0</ele><time>2026-04-12T09:17:54.021Z</time></trkpt><trkpt lat="33.6273342" lon="7.7503344"><ele>32.0</ele><time>2026-04-12T09:17:55.028Z</time></trkpt><trkpt lat="33.6272297" lon="7.7504518"><ele>32.0</ele><time>2026-04-12T09:17:56.029Z</time></trkpt><trkpt lat="33.6271311" lon="7.7505573"><ele>32.0</ele><time>2026-04-12T09:17:57.044Z</time></trkpt><trkpt lat="33.6270338" lon="7.7506583"><ele>32.0</ele><time>2026-04-12T09:17:58.035Z</time></trkpt><trkpt lat="33.6269543" lon="7.7507192"><ele>32.0</ele><time>2026-04-12T09:17:59.042Z</time></trkpt><trkpt lat="33.6268824" lon="7.7507581"><ele>32.0</ele><time>2026-04-12T09:18:00.047Z</time></trkpt><trkpt lat="33.6267933" lon="7.7507972"><ele>32.0</ele><time>2026-04-12T09:18:01.023Z</time></trkpt><trkpt lat="33.6266974" lon="7.7508162"><ele>32.33333333333333</ele><time>2026-04-12T09:18:02.021Z</time></trkpt><trkpt lat="33.6265983" lon="7.7508365"><ele>32.666666666666664</ele><time>2026-04-12T09:18:03.02Z</time></trkpt><trkpt lat="33.6264938" lon="7.7508604"><ele>33.0</ele><time>2026-04-12T09:18:04.02Z</time></trkpt><trkpt lat="33.6264058" lon="7.7508949"><ele>33.333333333333336</ele><time>2026-04-12T09:18:05.037Z</time></trkpt><trkpt lat="33.6263394" lon="7.7509474"><ele>33.66666666666667</ele><time>2026-04-12T09:18:06.04Z</time></trkpt><trkpt lat="33.6262988" lon="7.7510127"><ele>34.0</ele><time>2026-04-12T09:18:07.018Z</time></trkpt><trkpt lat="33.6262521" lon="7.7510956"><ele>34.0</ele><time>2026-04-12T09:18:08.022Z</time></trkpt><trkpt lat="33.6261844" lon="7.7511875"><ele>34.0</ele><time>2026-04-12T09:18:08.934Z</time></trkpt><trkpt lat="33.6261418" lon="7.7512689"><ele>34.0</ele><time>2026-04-12T09:18:09.946Z</time></trkpt><trkpt lat="33.6260745" lon="7.7513161"><ele>34.0</ele><time>2026-04-12T09:18:10.951Z</time></trkpt><trkpt lat="33.6259985" lon="7.7513494"><ele>34.0</ele><time>2026-04-12T09:18:11.949Z</time></trkpt><trkpt lat="33.6259262" lon="7.7513596"><ele>34.0</ele><time>2026-04-12T09:18:12.964Z</time></trkpt><trkpt lat="33.6258513" lon="7.7513919"><ele>34.4</ele><time>2026-04-12T09:18:13.952Z</time></trkpt><trkpt lat="33.6257841" lon="7.7514257"><ele>34.8</ele><time>2026-04-12T09:18:14.952Z</time></trkpt><trkpt lat="33.6257053" lon="7.7515097"><ele>35.2</ele><time>2026-04-12T09:18:15.961Z</time></trkpt><trkpt lat="33.6256309" lon="7.7516093"><ele>35.6</ele><time>2026-04-12T09:18:16.964Z</time></trkpt><trkpt lat="33.6255516" lon="7.7517201"><ele>36.0</ele><time>2026-04-12T09:18:17.956Z</time></trkpt><trkpt lat="33.6254552" lon="7.7518331"><ele>35.25</ele><time>2026-04-12T09:18:18.966Z</time></trkpt><trkpt lat="33.6253585" lon="7.7519392"><ele>34.5</ele><time>2026-04-12T09:18:19.951Z</time></trkpt><trkpt lat="33.6252726" lon="7.7520399"><ele>33.75</ele><time>2026-04-12T09:18:20.96Z</time></trkpt><trkpt lat="33.625196" lon="7.7521418"><ele>33.0</ele><time>2026-04-12T09:18:21.959Z</time></trkpt><trkpt lat="33.6251298" lon="7.7522474"><ele>33.0</ele><time>2026-04-12T09:18:22.959Z</time></trkpt><trkpt lat="33.62507" lon="7.7523384"><ele>33.0</ele><time>2026-04-12T09:18:23.957Z</time></trkpt><trkpt lat="33.6249973" lon="7.7524086"><ele>33.0</ele><time>2026-04-12T09:18:24.953Z</time></trkpt><trkpt lat="33.6249094" lon="7.7524632"><ele>33.0</ele><time>2026-04-12T09:18:25.95Z</time></trkpt><trkpt lat="33.6248069" lon="7.7525047"><ele>33.0</ele><time>2026-04-12T09:18:26.961Z</time></trkpt><trkpt lat="33.6246954" lon="7.7525328"><ele>33.0</ele><time>2026-04-12T09:18:27.969Z</time></trkpt><trkpt lat="33.624582" lon="7.7525578"><ele>33.0</ele><time>2026-04-12T09:18:28.964Z</time></trkpt><trkpt lat="33.6244768" lon="7.7525896"><ele>33.0</ele><time>2026-04-12T09:18:29.962Z</time></trkpt><trkpt lat="33.6243843" lon="7.752611"><ele>33.0</ele><time>2026-04-12T09:18:30.958Z</time></trkpt><trkpt lat="33.624307" lon="7.752645"><ele>33.0</ele><time>2026-04-12T09:18:31.954Z</time></trkpt><trkpt lat="33.6242448" lon="7.7526992"><ele>33.0</ele><time>2026-04-12T09:18:32.954Z</time></trkpt><trkpt lat="33.6241961" lon="7.7527741"><ele>33.0</ele><time>2026-04-12T09:18:33.956Z</time></trkpt><trkpt lat="33.624158" lon="7.7528803"><ele>33.0</ele><time>2026-04-12T09:18:34.95Z</time></trkpt><trkpt lat="33.6241212" lon="7.7530061"><ele>33.0</ele><time>2026-04-12T09:18:35.956Z</time></trkpt><trkpt lat="33.624083" lon="7.7531362"><ele>33.0</ele><time>2026-04-12T09:18:36.96Z</time></trkpt><trkpt lat="33.6240215" lon="7.7532704"><ele>33.0</ele><time>2026-04-12T09:18:37.96Z</time></trkpt><trkpt lat="33.6239407" lon="7.7533779"><ele>33.0</ele><time>2026-04-12T09:18:38.953Z</time></trkpt><trkpt lat="33.6238459" lon="7.7534822"><ele>33.0</ele><time>2026-04-12T09:18:39.951Z</time></trkpt><trkpt lat="33.6237459" lon="7.7535713"><ele>33.0</ele><time>2026-04-12T09:18:40.967Z</time></trkpt><trkpt lat="33.6236378" lon="7.7536591"><ele>33.25</ele><time>2026-04-12T09:18:41.954Z</time></trkpt><trkpt lat="33.6235508" lon="7.753751"><ele>33.5</ele><time>2026-04-12T09:18:42.955Z</time></trkpt><trkpt lat="33.6235003" lon="7.753853"><ele>33.75</ele><time>2026-04-12T09:18:43.958Z</time></trkpt><trkpt lat="33.6234444" lon="7.7539825"><ele>34.0</ele><time>2026-04-12T09:18:44.955Z</time></trkpt><trkpt lat="33.6233976" lon="7.7541281"><ele>34.0</ele><time>2026-04-12T09:18:45.962Z</time></trkpt><trkpt lat="33.6233461" lon="7.7542642"><ele>34.0</ele><time>2026-04-12T09:18:46.956Z</time></trkpt><trkpt lat="33.62329" lon="7.754397"><ele>34.0</ele><time>2026-04-12T09:18:47.959Z</time></trkpt><trkpt lat="33.6232436" lon="7.7545179"><ele>34.0</ele><time>2026-04-12T09:18:48.96Z</time></trkpt><trkpt lat="33.6231976" lon="7.7546435"><ele>33.75</ele><time>2026-04-12T09:18:49.96Z</time></trkpt><trkpt lat="33.6231395" lon="7.7547645"><ele>33.5</ele><time>2026-04-12T09:18:50.95Z</time></trkpt><trkpt lat="33.6230561" lon="7.7548816"><ele>33.25</ele><time>2026-04-12T09:18:51.956Z</time></trkpt><trkpt lat="33.6229699" lon="7.7549935"><ele>33.0</ele><time>2026-04-12T09:18:52.962Z</time></trkpt><trkpt lat="33.6228823" lon="7.755103"><ele>33.199999999999996</ele><time>2026-04-12T09:18:53.957Z</time></trkpt><trkpt lat="33.6227954" lon="7.7552041"><ele>33.4</ele><time>2026-04-12T09:18:54.959Z</time></trkpt><trkpt lat="33.6227031" lon="7.7553011"><ele>33.599999999999994</ele><time>2026-04-12T09:18:55.96Z</time></trkpt><trkpt lat="33.6226205" lon="7.7553856"><ele>33.8</ele><time>2026-04-12T09:18:56.948Z</time></trkpt><trkpt lat="33.6225433" lon="7.7554444"><ele>34.0</ele><time>2026-04-12T09:18:57.946Z</time></trkpt><trkpt lat="33.622466" lon="7.7554839"><ele>34.0</ele><time>2026-04-12T09:18:58.968Z</time></trkpt><trkpt lat="33.6223719" lon="7.7555206"><ele>34.0</ele><time>2026-04-12T09:18:59.964Z</time></trkpt><trkpt lat="33.6222884" lon="7.7555696"><ele>34.0</ele><time>2026-04-12T09:19:00.951Z</time></trkpt><trkpt lat="33.6222018" lon="7.7556387"><ele>34.0</ele><time>2026-04-12T09:19:01.95Z</time></trkpt><trkpt lat="33.6221078" lon="7.7557305"><ele>34.0</ele><time>2026-04-12T09:19:02.95Z</time></trkpt><trkpt lat="33.6220173" lon="7.755832"><ele>34.0</ele><time>2026-04-12T09:19:03.964Z</time></trkpt><trkpt lat="33.6219236" lon="7.7559444"><ele>34.0</ele><time>2026-04-12T09:19:04.957Z</time></trkpt><trkpt lat="33.6218196" lon="7.7560603"><ele>34.0</ele><time>2026-04-12T09:19:05.954Z</time></trkpt><trkpt lat="33.6217154" lon="7.756174"><ele>34.0</ele><time>2026-04-12T09:19:06.959Z</time></trkpt><trkpt lat="33.6216076" lon="7.7562861"><ele>34.0</ele><time>2026-04-12T09:19:07.954Z</time></trkpt><trkpt lat="33.6215081" lon="7.756393"><ele>34.0</ele><time>2026-04-12T09:19:08.96Z</time></trkpt><trkpt lat="33.6214127" lon="7.7565013"><ele>34.0</ele><time>2026-04-12T09:19:09.96Z</time></trkpt><trkpt lat="33.6213308" lon="7.7565946"><ele>34.0</ele><time>2026-04-12T09:19:10.953Z</time></trkpt><trkpt lat="33.6212412" lon="7.7566866"><ele>34.0</ele><time>2026-04-12T09:19:11.968Z</time></trkpt><trkpt lat="33.6211507" lon="7.7567664"><ele>34.0</ele><time>2026-04-12T09:19:12.951Z</time></trkpt><trkpt lat="33.6210544" lon="7.7568529"><ele>34.0</ele><time>2026-04-12T09:19:13.96Z</time></trkpt><trkpt lat="33.6209486" lon="7.7569346"><ele>34.0</ele><time>2026-04-12T09:19:14.952Z</time></trkpt><trkpt lat="33.6208528" lon="7.7570201"><ele>33.75</ele><time>2026-04-12T09:19:15.951Z</time></trkpt><trkpt lat="33.6207607" lon="7.7571246"><ele>33.5</ele><time>2026-04-12T09:19:16.959Z</time></trkpt><trkpt lat="33.6206692" lon="7.7572452"><ele>33.25</ele><time>2026-04-12T09:19:17.954Z</time></trkpt><trkpt lat="33.6205787" lon="7.7573469"><ele>33.0</ele><time>2026-04-12T09:19:18.963Z</time></trkpt><trkpt lat="33.6204737" lon="7.757435"><ele>33.0</ele><time>2026-04-12T09:19:19.954Z</time></trkpt><trkpt lat="33.6203666" lon="7.7575331"><ele>33.0</ele><time>2026-04-12T09:19:20.963Z</time></trkpt><trkpt lat="33.6202647" lon="7.7576258"><ele>33.0</ele><time>2026-04-12T09:19:21.961Z</time></trkpt><trkpt lat="33.6201696" lon="7.757737"><ele>33.0</ele><time>2026-04-12T09:19:22.963Z</time></trkpt><trkpt lat="33.62008" lon="7.7578441"><ele>32.75</ele><time>2026-04-12T09:19:23.959Z</time></trkpt><trkpt lat="33.6199853" lon="7.7579509"><ele>32.5</ele><time>2026-04-12T09:19:24.962Z</time></trkpt><trkpt lat="33.6198881" lon="7.7580572"><ele>32.25</ele><time>2026-04-12T09:19:25.957Z</time></trkpt><trkpt lat="33.6197969" lon="7.7581683"><ele>32.0</ele><time>2026-04-12T09:19:26.962Z</time></trkpt><trkpt lat="33.6197099" lon="7.7582785"><ele>32.0</ele><time>2026-04-12T09:19:27.963Z</time></trkpt><trkpt lat="33.6196269" lon="7.7583775"><ele>32.0</ele><time>2026-04-12T09:19:28.953Z</time></trkpt><trkpt lat="33.6195298" lon="7.7584725"><ele>32.0</ele><time>2026-04-12T09:19:29.956Z</time></trkpt><trkpt lat="33.6194353" lon="7.7585468"><ele>32.0</ele><time>2026-04-12T09:19:30.955Z</time></trkpt><trkpt lat="33.6193397" lon="7.7586302"><ele>32.25</ele><time>2026-04-12T09:19:31.955Z</time></trkpt><trkpt lat="33.6192448" lon="7.7587396"><ele>32.5</ele><time>2026-04-12T09:19:32.955Z</time></trkpt><trkpt lat="33.6191589" lon="7.7588387"><ele>32.75</ele><time>2026-04-12T09:19:33.962Z</time></trkpt><trkpt lat="33.6190936" lon="7.7589434"><ele>33.0</ele><time>2026-04-12T09:19:34.956Z</time></trkpt><trkpt lat="33.6190209" lon="7.7590656"><ele>33.0</ele><time>2026-04-12T09:19:35.948Z</time></trkpt><trkpt lat="33.618971" lon="7.7591934"><ele>33.0</ele><time>2026-04-12T09:19:36.953Z</time></trkpt><trkpt lat="33.6189278" lon="7.7593082"><ele>33.0</ele><time>2026-04-12T09:19:37.959Z</time></trkpt><trkpt lat="33.6188724" lon="7.7594223"><ele>33.0</ele><time>2026-04-12T09:19:38.951Z</time></trkpt><trkpt lat="33.6188084" lon="7.7595146"><ele>33.0</ele><time>2026-04-12T09:19:39.953Z</time></trkpt><trkpt lat="33.6187354" lon="7.7596069"><ele>33.0</ele><time>2026-04-12T09:19:40.945Z</time></trkpt><trkpt lat="33.61863" lon="7.7596701"><ele>33.0</ele><time>2026-04-12T09:19:41.947Z</time></trkpt><trkpt lat="33.6185234" lon="7.7597336"><ele>33.0</ele><time>2026-04-12T09:19:42.965Z</time></trkpt><trkpt lat="33.6184088" lon="7.7597983"><ele>33.0</ele><time>2026-04-12T09:19:43.958Z</time></trkpt><trkpt lat="33.6182953" lon="7.7598814"><ele>33.0</ele><time>2026-04-12T09:19:44.958Z</time></trkpt><trkpt lat="33.6181905" lon="7.7599612"><ele>33.0</ele><time>2026-04-12T09:19:45.963Z</time></trkpt><trkpt lat="33.6180918" lon="7.7600288"><ele>33.0</ele><time>2026-04-12T09:19:46.965Z</time></trkpt><trkpt lat="33.6179958" lon="7.7601026"><ele>33.0</ele><time>2026-04-12T09:19:47.961Z</time></trkpt><trkpt lat="33.6179026" lon="7.7601579"><ele>32.8</ele><time>2026-04-12T09:19:48.967Z</time></trkpt><trkpt lat="33.6178099" lon="7.7602053"><ele>32.599999999999994</ele><time>2026-04-12T09:19:49.961Z</time></trkpt><trkpt lat="33.617719" lon="7.7602609"><ele>32.400000000000006</ele><time>2026-04-12T09:19:50.958Z</time></trkpt><trkpt lat="33.6176318" lon="7.7603302"><ele>32.2</ele><time>2026-04-12T09:19:51.963Z</time></trkpt><trkpt lat="33.6175479" lon="7.7604315"><ele>32.0</ele><time>2026-04-12T09:19:52.956Z</time></trkpt><trkpt lat="33.617459" lon="7.7605437"><ele>32.0</ele><time>2026-04-12T09:19:53.963Z</time></trkpt><trkpt lat="33.6173631" lon="7.7606507"><ele>32.0</ele><time>2026-04-12T09:19:54.959Z</time></trkpt><trkpt lat="33.6172677" lon="7.7607689"><ele>32.0</ele><time>2026-04-12T09:19:55.951Z</time></trkpt><trkpt lat="33.617178" lon="7.7608971"><ele>32.0</ele><time>2026-04-12T09:19:56.952Z</time></trkpt><trkpt lat="33.6170686" lon="7.7610106"><ele>32.25</ele><time>2026-04-12T09:19:57.952Z</time></trkpt><trkpt lat="33.6169762" lon="7.7611223"><ele>32.5</ele><time>2026-04-12T09:19:58.956Z</time></trkpt><trkpt lat="33.6168679" lon="7.7612319"><ele>32.75</ele><time>2026-04-12T09:19:59.95Z</time></trkpt><trkpt lat="33.6167527" lon="7.7613275"><ele>33.0</ele><time>2026-04-12T09:20:00.958Z</time></trkpt><trkpt lat="33.6166504" lon="7.761414"><ele>33.0</ele><time>2026-04-12T09:20:01.945Z</time></trkpt><trkpt lat="33.6165648" lon="7.7614892"><ele>33.0</ele><time>2026-04-12T09:20:02.952Z</time></trkpt><trkpt lat="33.6164734" lon="7.7615806"><ele>33.0</ele><time>2026-04-12T09:20:03.953Z</time></trkpt><trkpt lat="33.6163772" lon="7.761667"><ele>33.0</ele><time>2026-04-12T09:20:04.956Z</time></trkpt><trkpt lat="33.6162676" lon="7.7617577"><ele>33.0</ele><time>2026-04-12T09:20:05.951Z</time></trkpt><trkpt lat="33.6162033" lon="7.7618541"><ele>33.0</ele><time>2026-04-12T09:20:06.959Z</time></trkpt><trkpt lat="33.6161381" lon="7.7619551"><ele>33.0</ele><time>2026-04-12T09:20:07.961Z</time></trkpt><trkpt lat="33.6160743" lon="7.7620653"><ele>33.0</ele><time>2026-04-12T09:20:08.963Z</time></trkpt><trkpt lat="33.6160019" lon="7.7621834"><ele>33.0</ele><time>2026-04-12T09:20:09.955Z</time></trkpt><trkpt lat="33.6159101" lon="7.762283"><ele>33.25</ele><time>2026-04-12T09:20:10.946Z</time></trkpt><trkpt lat="33.6158018" lon="7.7623694"><ele>33.5</ele><time>2026-04-12T09:20:11.958Z</time></trkpt><trkpt lat="33.6156846" lon="7.7624631"><ele>33.75</ele><time>2026-04-12T09:20:12.955Z</time></trkpt><trkpt lat="33.6155674" lon="7.7625687"><ele>34.0</ele><time>2026-04-12T09:20:13.967Z</time></trkpt><trkpt lat="33.6154541" lon="7.7626844"><ele>34.0</ele><time>2026-04-12T09:20:14.956Z</time></trkpt><trkpt lat="33.61536" lon="7.7627833"><ele>34.0</ele><time>2026-04-12T09:20:15.956Z</time></trkpt><trkpt lat="33.6152599" lon="7.762882"><ele>34.0</ele><time>2026-04-12T09:20:16.954Z</time></trkpt><trkpt lat="33.6151467" lon="7.7629746"><ele>34.0</ele><time>2026-04-12T09:20:17.961Z</time></trkpt><trkpt lat="33.6150353" lon="7.7630733"><ele>33.75</ele><time>2026-04-12T09:20:18.962Z</time></trkpt><trkpt lat="33.6149381" lon="7.7631743"><ele>33.5</ele><time>2026-04-12T09:20:19.959Z</time></trkpt><trkpt lat="33.6148503" lon="7.7632727"><ele>33.25</ele><time>2026-04-12T09:20:20.955Z</time></trkpt><trkpt lat="33.6147695" lon="7.7633742"><ele>33.0</ele><time>2026-04-12T09:20:21.965Z</time></trkpt><trkpt lat="33.6146785" lon="7.7634762"><ele>33.0</ele><time>2026-04-12T09:20:22.963Z</time></trkpt><trkpt lat="33.6145859" lon="7.7635689"><ele>33.0</ele><time>2026-04-12T09:20:23.958Z</time></trkpt><trkpt lat="33.6144963" lon="7.7636681"><ele>33.0</ele><time>2026-04-12T09:20:24.958Z</time></trkpt><trkpt lat="33.6144084" lon="7.7637619"><ele>33.0</ele><time>2026-04-12T09:20:25.958Z</time></trkpt><trkpt lat="33.6143301" lon="7.7638421"><ele>33.25</ele><time>2026-04-12T09:20:26.958Z</time></trkpt><trkpt lat="33.6142507" lon="7.763923"><ele>33.5</ele><time>2026-04-12T09:20:27.958Z</time></trkpt><trkpt lat="33.6141684" lon="7.7640176"><ele>33.75</ele><time>2026-04-12T09:20:28.964Z</time></trkpt><trkpt lat="33.6140799" lon="7.764125"><ele>34.0</ele><time>2026-04-12T09:20:29.965Z</time></trkpt><trkpt lat="33.613993" lon="7.7642309"><ele>34.0</ele><time>2026-04-12T09:20:30.955Z</time></trkpt><trkpt lat="33.6139154" lon="7.7643307"><ele>34.0</ele><time>2026-04-12T09:20:31.953Z</time></trkpt><trkpt lat="33.6138375" lon="7.7644105"><ele>34.0</ele><time>2026-04-12T09:20:32.951Z</time></trkpt><trkpt lat="33.6137459" lon="7.7644752"><ele>34.0</ele><time>2026-04-12T09:20:33.959Z</time></trkpt><trkpt lat="33.6136492" lon="7.7645412"><ele>34.0</ele><time>2026-04-12T09:20:34.959Z</time></trkpt><trkpt lat="33.6135539" lon="7.7646123"><ele>34.0</ele><time>2026-04-12T09:20:35.952Z</time></trkpt><trkpt lat="33.6134499" lon="7.7646939"><ele>34.0</ele><time>2026-04-12T09:20:36.955Z</time></trkpt><trkpt lat="33.6133473" lon="7.7647738"><ele>34.0</ele><time>2026-04-12T09:20:37.954Z</time></trkpt><trkpt lat="33.6132429" lon="7.7648578"><ele>34.0</ele><time>2026-04-12T09:20:38.956Z</time></trkpt><trkpt lat="33.6131283" lon="7.7649539"><ele>34.0</ele><time>2026-04-12T09:20:39.956Z</time></trkpt><trkpt lat="33.6130232" lon="7.7650645"><ele>34.0</ele><time>2026-04-12T09:20:40.956Z</time></trkpt><trkpt lat="33.6129303" lon="7.7651635"><ele>34.0</ele><time>2026-04-12T09:20:41.96Z</time></trkpt><trkpt lat="33.6128424" lon="7.7652552"><ele>34.0</ele><time>2026-04-12T09:20:42.952Z</time></trkpt><trkpt lat="33.6127511" lon="7.7653512"><ele>33.75</ele><time>2026-04-12T09:20:43.955Z</time></trkpt><trkpt lat="33.6126599" lon="7.7654356"><ele>33.5</ele><time>2026-04-12T09:20:44.974Z</time></trkpt><trkpt lat="33.6125721" lon="7.765524"><ele>33.25</ele><time>2026-04-12T09:20:45.955Z</time></trkpt><trkpt lat="33.6124955" lon="7.7656164"><ele>33.0</ele><time>2026-04-12T09:20:46.955Z</time></trkpt><trkpt lat="33.6124146" lon="7.7657254"><ele>33.0</ele><time>2026-04-12T09:20:47.961Z</time></trkpt><trkpt lat="33.6123339" lon="7.7658322"><ele>33.0</ele><time>2026-04-12T09:20:48.955Z</time></trkpt><trkpt lat="33.6122406" lon="7.7659263"><ele>33.0</ele><time>2026-04-12T09:20:49.953Z</time></trkpt><trkpt lat="33.6121388" lon="7.7660217"><ele>33.0</ele><time>2026-04-12T09:20:50.949Z</time></trkpt><trkpt lat="33.6120336" lon="7.7661118"><ele>33.0</ele><time>2026-04-12T09:20:51.956Z</time></trkpt><trkpt lat="33.6119359" lon="7.7662081"><ele>33.0</ele><time>2026-04-12T09:20:52.953Z</time></trkpt><trkpt lat="33.611838" lon="7.7663023"><ele>33.0</ele><time>2026-04-12T09:20:53.95Z</time></trkpt><trkpt lat="33.6117389" lon="7.7663972"><ele>33.0</ele><time>2026-04-12T09:20:54.949Z</time></trkpt><trkpt lat="33.6116397" lon="7.7665125"><ele>33.0</ele><time>2026-04-12T09:20:55.948Z</time></trkpt><trkpt lat="33.6115335" lon="7.7666111"><ele>33.0</ele><time>2026-04-12T09:20:56.949Z</time></trkpt><trkpt lat="33.6114441" lon="7.7667044"><ele>33.0</ele><time>2026-04-12T09:20:57.957Z</time></trkpt><trkpt lat="33.6113472" lon="7.7667869"><ele>33.0</ele><time>2026-04-12T09:20:58.959Z</time></trkpt><trkpt lat="33.6112544" lon="7.766871"><ele>33.0</ele><time>2026-04-12T09:20:59.956Z</time></trkpt><trkpt lat="33.6111588" lon="7.7669611"><ele>33.0</ele><time>2026-04-12T09:21:00.957Z</time></trkpt><trkpt lat="33.6110673" lon="7.7670623"><ele>33.0</ele><time>2026-04-12T09:21:01.961Z</time></trkpt><trkpt lat="33.6109749" lon="7.7671702"><ele>33.0</ele><time>2026-04-12T09:21:02.953Z</time></trkpt><trkpt lat="33.6108902" lon="7.7672749"><ele>33.0</ele><time>2026-04-12T09:21:03.953Z</time></trkpt><trkpt lat="33.6108056" lon="7.7673897"><ele>33.0</ele><time>2026-04-12T09:21:04.954Z</time></trkpt><trkpt lat="33.6107184" lon="7.7674921"><ele>33.0</ele><time>2026-04-12T09:21:05.954Z</time></trkpt><trkpt lat="33.6106236" lon="7.7675778"><ele>33.0</ele><time>2026-04-12T09:21:06.951Z</time></trkpt><trkpt lat="33.6105314" lon="7.7676571"><ele>33.5</ele><time>2026-04-12T09:21:07.958Z</time></trkpt><trkpt lat="33.6104445" lon="7.7677338"><ele>34.0</ele><time>2026-04-12T09:21:08.955Z</time></trkpt><trkpt lat="33.6103503" lon="7.7678226"><ele>34.5</ele><time>2026-04-12T09:21:09.964Z</time></trkpt><trkpt lat="33.6102687" lon="7.7679162"><ele>35.0</ele><time>2026-04-12T09:21:10.958Z</time></trkpt><trkpt lat="33.6101913" lon="7.7680151"><ele>35.25</ele><time>2026-04-12T09:21:11.959Z</time></trkpt><trkpt lat="33.61011" lon="7.7681015"><ele>35.5</ele><time>2026-04-12T09:21:12.953Z</time></trkpt><trkpt lat="33.6100145" lon="7.768182"><ele>35.75</ele><time>2026-04-12T09:21:13.964Z</time></trkpt><trkpt lat="33.6099147" lon="7.7682658"><ele>36.0</ele><time>2026-04-12T09:21:14.956Z</time></trkpt><trkpt lat="33.6098104" lon="7.7683637"><ele>36.0</ele><time>2026-04-12T09:21:15.965Z</time></trkpt><trkpt lat="33.6097212" lon="7.7684672"><ele>36.0</ele><time>2026-04-12T09:21:16.959Z</time></trkpt><trkpt lat="33.6096306" lon="7.7685836"><ele>36.0</ele><time>2026-04-12T09:21:17.953Z</time></trkpt><trkpt lat="33.6095463" lon="7.7686758"><ele>36.0</ele><time>2026-04-12T09:21:18.95Z</time></trkpt><trkpt lat="33.609469" lon="7.7687622"><ele>35.25</ele><time>2026-04-12T09:21:19.958Z</time></trkpt><trkpt lat="33.6093787" lon="7.7688571"><ele>34.5</ele><time>2026-04-12T09:21:20.945Z</time></trkpt><trkpt lat="33.6092797" lon="7.7689526"><ele>33.75</ele><time>2026-04-12T09:21:21.953Z</time></trkpt><trkpt lat="33.6091761" lon="7.7690545"><ele>33.0</ele><time>2026-04-12T09:21:22.948Z</time></trkpt><trkpt lat="33.6090719" lon="7.7691589"><ele>33.0</ele><time>2026-04-12T09:21:23.95Z</time></trkpt><trkpt lat="33.6089735" lon="7.7692642"><ele>33.0</ele><time>2026-04-12T09:21:24.957Z</time></trkpt><trkpt lat="33.6088869" lon="7.7693505"><ele>33.0</ele><time>2026-04-12T09:21:25.952Z</time></trkpt><trkpt lat="33.6087943" lon="7.769435"><ele>33.0</ele><time>2026-04-12T09:21:26.965Z</time></trkpt><trkpt lat="33.608695" lon="7.7694943"><ele>33.25</ele><time>2026-04-12T09:21:27.963Z</time></trkpt><trkpt lat="33.6085971" lon="7.7695702"><ele>33.5</ele><time>2026-04-12T09:21:28.96Z</time></trkpt><trkpt lat="33.6085017" lon="7.7696497"><ele>33.75</ele><time>2026-04-12T09:21:29.957Z</time></trkpt><trkpt lat="33.6084053" lon="7.7697417"><ele>34.0</ele><time>2026-04-12T09:21:30.961Z</time></trkpt><trkpt lat="33.6083092" lon="7.7698305"><ele>34.0</ele><time>2026-04-12T09:21:31.959Z</time></trkpt><trkpt lat="33.6082313" lon="7.7699074"><ele>34.0</ele><time>2026-04-12T09:21:32.952Z</time></trkpt><trkpt lat="33.6081459" lon="7.7699876"><ele>34.0</ele><time>2026-04-12T09:21:33.947Z</time></trkpt><trkpt lat="33.6080684" lon="7.7700944"><ele>34.0</ele><time>2026-04-12T09:21:34.94Z</time></trkpt><trkpt lat="33.6079855" lon="7.7702186"><ele>33.75</ele><time>2026-04-12T09:21:35.939Z</time></trkpt><trkpt lat="33.6079127" lon="7.7703475"><ele>33.5</ele><time>2026-04-12T09:21:36.95Z</time></trkpt><trkpt lat="33.6078452" lon="7.7704773"><ele>33.25</ele><time>2026-04-12T09:21:37.952Z</time></trkpt><trkpt lat="33.6077858" lon="7.7705731"><ele>33.0</ele><time>2026-04-12T09:21:38.947Z</time></trkpt><trkpt lat="33.6077066" lon="7.7706603"><ele>33.0</ele><time>2026-04-12T09:21:39.948Z</time></trkpt><trkpt lat="33.6076171" lon="7.7707424"><ele>33.0</ele><time>2026-04-12T09:21:40.952Z</time></trkpt><trkpt lat="33.6075174" lon="7.7708404"><ele>33.0</ele><time>2026-04-12T09:21:41.95Z</time></trkpt><trkpt lat="33.6074217" lon="7.7709282"><ele>33.0</ele><time>2026-04-12T09:21:42.95Z</time></trkpt><trkpt lat="33.6073524" lon="7.7709923"><ele>33.0</ele><time>2026-04-12T09:21:43.951Z</time></trkpt><trkpt lat="33.6072908" lon="7.7710549"><ele>33.199999999999996</ele><time>2026-04-12T09:21:44.946Z</time></trkpt><trkpt lat="33.6072294" lon="7.7711154"><ele>33.4</ele><time>2026-04-12T09:21:45.944Z</time></trkpt><trkpt lat="33.6071833" lon="7.7711688"><ele>33.599999999999994</ele><time>2026-04-12T09:21:46.954Z</time></trkpt><trkpt lat="33.6071123" lon="7.7712413"><ele>33.8</ele><time>2026-04-12T09:21:48.948Z</time></trkpt><trkpt lat="33.606998" lon="7.77133"><ele>34.0</ele><time>2026-04-12T09:21:50.952Z</time></trkpt><trkpt lat="33.6069068" lon="7.7713842"><ele>34.0</ele><time>2026-04-12T09:21:51.958Z</time></trkpt><trkpt lat="33.6068076" lon="7.7714365"><ele>34.0</ele><time>2026-04-12T09:21:52.954Z</time></trkpt><trkpt lat="33.6067131" lon="7.771506"><ele>34.0</ele><time>2026-04-12T09:21:53.964Z</time></trkpt><trkpt lat="33.6066327" lon="7.7715829"><ele>34.0</ele><time>2026-04-12T09:21:54.956Z</time></trkpt><trkpt lat="33.6065618" lon="7.7716674"><ele>34.0</ele><time>2026-04-12T09:21:55.951Z</time></trkpt><trkpt lat="33.6064801" lon="7.7717588"><ele>34.0</ele><time>2026-04-12T09:21:56.955Z</time></trkpt><trkpt lat="33.6064006" lon="7.7718466"><ele>34.0</ele><time>2026-04-12T09:21:57.959Z</time></trkpt><trkpt lat="33.6063171" lon="7.7719381"><ele>34.0</ele><time>2026-04-12T09:21:58.959Z</time></trkpt><trkpt lat="33.6062385" lon="7.772026"><ele>34.0</ele><time>2026-04-12T09:21:59.957Z</time></trkpt><trkpt lat="33.6061566" lon="7.7721133"><ele>34.0</ele><time>2026-04-12T09:22:00.959Z</time></trkpt><trkpt lat="33.6060761" lon="7.7722041"><ele>33.8</ele><time>2026-04-12T09:22:01.956Z</time></trkpt><trkpt lat="33.6059937" lon="7.7722887"><ele>33.599999999999994</ele><time>2026-04-12T09:22:02.961Z</time></trkpt><trkpt lat="33.6059104" lon="7.7723742"><ele>33.4</ele><time>2026-04-12T09:22:03.954Z</time></trkpt><trkpt lat="33.6058236" lon="7.7724632"><ele>33.199999999999996</ele><time>2026-04-12T09:22:04.956Z</time></trkpt><trkpt lat="33.6057442" lon="7.7725445"><ele>33.0</ele><time>2026-04-12T09:22:05.959Z</time></trkpt><trkpt lat="33.6056694" lon="7.7726177"><ele>33.0</ele><time>2026-04-12T09:22:06.955Z</time></trkpt><trkpt lat="33.6056043" lon="7.7726844"><ele>33.0</ele><time>2026-04-12T09:22:07.947Z</time></trkpt><trkpt lat="33.6055474" lon="7.7727252"><ele>33.0</ele><time>2026-04-12T09:22:08.946Z</time></trkpt><trkpt lat="33.6054709" lon="7.772795"><ele>33.0</ele><time>2026-04-12T09:22:10.943Z</time></trkpt><trkpt lat="33.6054232" lon="7.7728514"><ele>33.0</ele><time>2026-04-12T09:22:11.946Z</time></trkpt><trkpt lat="33.6053784" lon="7.772915"><ele>33.0</ele><time>2026-04-12T09:22:12.951Z</time></trkpt><trkpt lat="33.60531" lon="7.7729933"><ele>32.833333333333336</ele><time>2026-04-12T09:22:13.95Z</time></trkpt><trkpt lat="33.6052468" lon="7.7730564"><ele>32.666666666666664</ele><time>2026-04-12T09:22:14.951Z</time></trkpt><trkpt lat="33.6051901" lon="7.7731221"><ele>32.5</ele><time>2026-04-12T09:22:15.953Z</time></trkpt><trkpt lat="33.6051406" lon="7.7731745"><ele>32.33333333333333</ele><time>2026-04-12T09:22:16.954Z</time></trkpt><trkpt lat="33.6050797" lon="7.7732338"><ele>32.166666666666664</ele><time>2026-04-12T09:22:17.962Z</time></trkpt><trkpt lat="33.6050083" lon="7.7733073"><ele>32.0</ele><time>2026-04-12T09:22:18.953Z</time></trkpt><trkpt lat="33.6049326" lon="7.773386"><ele>32.0</ele><time>2026-04-12T09:22:19.949Z</time></trkpt><trkpt lat="33.6048539" lon="7.7734672"><ele>32.0</ele><time>2026-04-12T09:22:20.949Z</time></trkpt><trkpt lat="33.6047753" lon="7.7735405"><ele>32.0</ele><time>2026-04-12T09:22:21.948Z</time></trkpt><trkpt lat="33.6046894" lon="7.7736157"><ele>32.0</ele><time>2026-04-12T09:22:22.955Z</time></trkpt><trkpt lat="33.6046025" lon="7.7736924"><ele>32.0</ele><time>2026-04-12T09:22:23.95Z</time></trkpt><trkpt lat="33.6045193" lon="7.7737822"><ele>32.6</ele><time>2026-04-12T09:22:24.95Z</time></trkpt><trkpt lat="33.6044344" lon="7.7738744"><ele>33.2</ele><time>2026-04-12T09:22:25.948Z</time></trkpt><trkpt lat="33.6043453" lon="7.773962"><ele>33.8</ele><time>2026-04-12T09:22:26.947Z</time></trkpt><trkpt lat="33.604269" lon="7.7740401"><ele>34.4</ele><time>2026-04-12T09:22:27.955Z</time></trkpt><trkpt lat="33.6041977" lon="7.7741227"><ele>35.0</ele><time>2026-04-12T09:22:28.961Z</time></trkpt><trkpt lat="33.6041211" lon="7.7741958"><ele>35.0</ele><time>2026-04-12T09:22:29.952Z</time></trkpt><trkpt lat="33.6040545" lon="7.7742644"><ele>35.0</ele><time>2026-04-12T09:22:30.954Z</time></trkpt><trkpt lat="33.6039798" lon="7.7743332"><ele>35.0</ele><time>2026-04-12T09:22:31.958Z</time></trkpt><trkpt lat="33.6039013" lon="7.7744111"><ele>35.0</ele><time>2026-04-12T09:22:32.956Z</time></trkpt><trkpt lat="33.6038249" lon="7.7744795"><ele>35.0</ele><time>2026-04-12T09:22:33.961Z</time></trkpt><trkpt lat="33.6037413" lon="7.7745587"><ele>35.25</ele><time>2026-04-12T09:22:34.955Z</time></trkpt><trkpt lat="33.6036477" lon="7.7746518"><ele>35.5</ele><time>2026-04-12T09:22:35.954Z</time></trkpt><trkpt lat="33.6035571" lon="7.7747428"><ele>35.75</ele><time>2026-04-12T09:22:36.955Z</time></trkpt><trkpt lat="33.6034625" lon="7.7748314"><ele>36.0</ele><time>2026-04-12T09:22:37.958Z</time></trkpt><trkpt lat="33.603371" lon="7.7749196"><ele>36.0</ele><time>2026-04-12T09:22:38.956Z</time></trkpt><trkpt lat="33.6032748" lon="7.7750011"><ele>36.0</ele><time>2026-04-12T09:22:39.955Z</time></trkpt><trkpt lat="33.6031856" lon="7.7750871"><ele>36.0</ele><time>2026-04-12T09:22:40.956Z</time></trkpt><trkpt lat="33.6031006" lon="7.7751732"><ele>36.0</ele><time>2026-04-12T09:22:41.955Z</time></trkpt><trkpt lat="33.6030264" lon="7.775263"><ele>36.0</ele><time>2026-04-12T09:22:42.957Z</time></trkpt><trkpt lat="33.602941" lon="7.7753501"><ele>35.75</ele><time>2026-04-12T09:22:43.955Z</time></trkpt><trkpt lat="33.6028545" lon="7.7754328"><ele>35.5</ele><time>2026-04-12T09:22:44.963Z</time></trkpt><trkpt lat="33.60277" lon="7.7755213"><ele>35.25</ele><time>2026-04-12T09:22:45.952Z</time></trkpt><trkpt lat="33.602686" lon="7.7756197"><ele>35.0</ele><time>2026-04-12T09:22:46.959Z</time></trkpt><trkpt lat="33.6025997" lon="7.7757135"><ele>35.0</ele><time>2026-04-12T09:22:47.957Z</time></trkpt><trkpt lat="33.6025167" lon="7.7757937"><ele>35.0</ele><time>2026-04-12T09:22:48.979Z</time></trkpt><trkpt lat="33.6024562" lon="7.7758566"><ele>35.0</ele><time>2026-04-12T09:22:49.941Z</time></trkpt><trkpt lat="33.6023505" lon="7.7759593"><ele>35.0</ele><time>2026-04-12T09:22:51.959Z</time></trkpt><trkpt lat="33.6022428" lon="7.7760523"><ele>35.0</ele><time>2026-04-12T09:22:53.96Z</time></trkpt><trkpt lat="33.6021748" lon="7.7761159"><ele>35.0</ele><time>2026-04-12T09:22:54.962Z</time></trkpt><trkpt lat="33.6021076" lon="7.7761773"><ele>35.0</ele><time>2026-04-12T09:22:55.961Z</time></trkpt><trkpt lat="33.602044" lon="7.7762337"><ele>35.0</ele><time>2026-04-12T09:22:56.961Z</time></trkpt><trkpt lat="33.601978" lon="7.7763014"><ele>35.0</ele><time>2026-04-12T09:22:57.963Z</time></trkpt><trkpt lat="33.6019011" lon="7.7763722"><ele>35.0</ele><time>2026-04-12T09:22:58.965Z</time></trkpt><trkpt lat="33.6018252" lon="7.7764494"><ele>35.5</ele><time>2026-04-12T09:22:59.957Z</time></trkpt><trkpt lat="33.6017494" lon="7.7765369"><ele>36.0</ele><time>2026-04-12T09:23:00.962Z</time></trkpt><trkpt lat="33.6016627" lon="7.776628"><ele>36.5</ele><time>2026-04-12T09:23:01.953Z</time></trkpt><trkpt lat="33.6015709" lon="7.7767254"><ele>37.0</ele><time>2026-04-12T09:23:02.957Z</time></trkpt><trkpt lat="33.6014701" lon="7.7768154"><ele>36.0</ele><time>2026-04-12T09:23:03.954Z</time></trkpt><trkpt lat="33.6013755" lon="7.7768888"><ele>35.0</ele><time>2026-04-12T09:23:04.967Z</time></trkpt><trkpt lat="33.6012887" lon="7.7769714"><ele>34.0</ele><time>2026-04-12T09:23:05.955Z</time></trkpt><trkpt lat="33.601203" lon="7.7770635"><ele>33.0</ele><time>2026-04-12T09:23:06.959Z</time></trkpt><trkpt lat="33.6011135" lon="7.7771593"><ele>33.0</ele><time>2026-04-12T09:23:07.952Z</time></trkpt><trkpt lat="33.601014" lon="7.7772531"><ele>33.0</ele><time>2026-04-12T09:23:08.954Z</time></trkpt><trkpt lat="33.6009228" lon="7.7773457"><ele>33.0</ele><time>2026-04-12T09:23:09.959Z</time></trkpt><trkpt lat="33.6008242" lon="7.777448"><ele>33.0</ele><time>2026-04-12T09:23:10.957Z</time></trkpt><trkpt lat="33.6007317" lon="7.777546"><ele>33.0</ele><time>2026-04-12T09:23:11.953Z</time></trkpt><trkpt lat="33.6006428" lon="7.7776411"><ele>33.0</ele><time>2026-04-12T09:23:12.956Z</time></trkpt><trkpt lat="33.6005704" lon="7.7777206"><ele>33.0</ele><time>2026-04-12T09:23:13.974Z</time></trkpt><trkpt lat="33.6004977" lon="7.7778031"><ele>33.0</ele><time>2026-04-12T09:23:14.97Z</time></trkpt><trkpt lat="33.6004047" lon="7.777891"><ele>33.0</ele><time>2026-04-12T09:23:15.966Z</time></trkpt><trkpt lat="33.6003093" lon="7.7779717"><ele>32.75</ele><time>2026-04-12T09:23:16.961Z</time></trkpt><trkpt lat="33.6002101" lon="7.7780563"><ele>32.5</ele><time>2026-04-12T09:23:17.968Z</time></trkpt><trkpt lat="33.6001329" lon="7.7781627"><ele>32.25</ele><time>2026-04-12T09:23:18.979Z</time></trkpt><trkpt lat="33.6000574" lon="7.7782759"><ele>32.0</ele><time>2026-04-12T09:23:19.962Z</time></trkpt><trkpt lat="33.5999944" lon="7.7783687"><ele>32.0</ele><time>2026-04-12T09:23:20.967Z</time></trkpt><trkpt lat="33.5999391" lon="7.7784463"><ele>32.0</ele><time>2026-04-12T09:23:21.97Z</time></trkpt><trkpt lat="33.5998776" lon="7.7785216"><ele>32.0</ele><time>2026-04-12T09:23:22.961Z</time></trkpt><trkpt lat="33.5998077" lon="7.7785857"><ele>32.0</ele><time>2026-04-12T09:23:23.955Z</time></trkpt><trkpt lat="33.5997237" lon="7.7786349"><ele>32.0</ele><time>2026-04-12T09:23:24.958Z</time></trkpt><trkpt lat="33.5996345" lon="7.7786883"><ele>32.2</ele><time>2026-04-12T09:23:25.969Z</time></trkpt><trkpt lat="33.5995335" lon="7.77875"><ele>32.400000000000006</ele><time>2026-04-12T09:23:26.965Z</time></trkpt><trkpt lat="33.5994485" lon="7.7788158"><ele>32.599999999999994</ele><time>2026-04-12T09:23:27.972Z</time></trkpt><trkpt lat="33.599365" lon="7.7788949"><ele>32.8</ele><time>2026-04-12T09:23:28.972Z</time></trkpt><trkpt lat="33.5992824" lon="7.778995"><ele>33.0</ele><time>2026-04-12T09:23:29.964Z</time></trkpt><trkpt lat="33.5991971" lon="7.7790944"><ele>33.0</ele><time>2026-04-12T09:23:30.965Z</time></trkpt><trkpt lat="33.5991064" lon="7.7791877"><ele>33.0</ele><time>2026-04-12T09:23:31.964Z</time></trkpt><trkpt lat="33.5990143" lon="7.7792719"><ele>33.0</ele><time>2026-04-12T09:23:32.959Z</time></trkpt><trkpt lat="33.5989301" lon="7.7793575"><ele>33.0</ele><time>2026-04-12T09:23:33.963Z</time></trkpt><trkpt lat="33.598852" lon="7.7794355"><ele>33.0</ele><time>2026-04-12T09:23:34.964Z</time></trkpt><trkpt lat="33.5987602" lon="7.7795202"><ele>33.0</ele><time>2026-04-12T09:23:35.961Z</time></trkpt><trkpt lat="33.5986714" lon="7.7796034"><ele>33.0</ele><time>2026-04-12T09:23:36.967Z</time></trkpt><trkpt lat="33.5985909" lon="7.7796779"><ele>33.0</ele><time>2026-04-12T09:23:37.958Z</time></trkpt><trkpt lat="33.5985205" lon="7.7797482"><ele>33.0</ele><time>2026-04-12T09:23:38.953Z</time></trkpt><trkpt lat="33.598442" lon="7.7798321"><ele>33.0</ele><time>2026-04-12T09:23:39.954Z</time></trkpt><trkpt lat="33.59836" lon="7.7799263"><ele>33.0</ele><time>2026-04-12T09:23:40.956Z</time></trkpt><trkpt lat="33.5982782" lon="7.7800266"><ele>33.0</ele><time>2026-04-12T09:23:41.965Z</time></trkpt><trkpt lat="33.5981938" lon="7.7801202"><ele>33.0</ele><time>2026-04-12T09:23:42.962Z</time></trkpt><trkpt lat="33.5981083" lon="7.7802129"><ele>33.0</ele><time>2026-04-12T09:23:43.962Z</time></trkpt><trkpt lat="33.5980147" lon="7.7803031"><ele>32.8</ele><time>2026-04-12T09:23:44.962Z</time></trkpt><trkpt lat="33.5979242" lon="7.7803813"><ele>32.599999999999994</ele><time>2026-04-12T09:23:45.958Z</time></trkpt><trkpt lat="33.5978445" lon="7.7804615"><ele>32.400000000000006</ele><time>2026-04-12T09:23:46.965Z</time></trkpt><trkpt lat="33.597771" lon="7.7805379"><ele>32.2</ele><time>2026-04-12T09:23:47.959Z</time></trkpt><trkpt lat="33.5977095" lon="7.780614"><ele>32.0</ele><time>2026-04-12T09:23:48.972Z</time></trkpt><trkpt lat="33.5976515" lon="7.7806743"><ele>32.4</ele><time>2026-04-12T09:23:49.978Z</time></trkpt><trkpt lat="33.597588" lon="7.7807377"><ele>32.800000000000004</ele><time>2026-04-12T09:23:51.961Z</time></trkpt><trkpt lat="33.5975544" lon="7.7808028"><ele>33.2</ele><time>2026-04-12T09:39:02.975Z</time></trkpt><trkpt lat="33.5974973" lon="7.7808458"><ele>33.6</ele><time>2026-04-12T09:39:05.967Z</time></trkpt><trkpt lat="33.5973909" lon="7.7809154"><ele>34.0</ele><time>2026-04-12T09:39:07.964Z</time></trkpt><trkpt lat="33.5972848" lon="7.780989"><ele>33.8</ele><time>2026-04-12T09:39:09.96Z</time></trkpt><trkpt lat="33.5972019" lon="7.7810693"><ele>33.599999999999994</ele><time>2026-04-12T09:39:11.961Z</time></trkpt><trkpt lat="33.5971089" lon="7.7811916"><ele>33.4</ele><time>2026-04-12T09:39:13.957Z</time></trkpt><trkpt lat="33.5970458" lon="7.7812618"><ele>33.199999999999996</ele><time>2026-04-12T09:39:14.957Z</time></trkpt><trkpt lat="33.5969808" lon="7.781336"><ele>33.0</ele><time>2026-04-12T09:39:15.953Z</time></trkpt><trkpt lat="33.5969116" lon="7.7814104"><ele>33.0</ele><time>2026-04-12T09:39:16.956Z</time></trkpt><trkpt lat="33.5968413" lon="7.7814752"><ele>33.0</ele><time>2026-04-12T09:39:17.965Z</time></trkpt><trkpt lat="33.5967641" lon="7.7815378"><ele>33.0</ele><time>2026-04-12T09:39:18.957Z</time></trkpt><trkpt lat="33.5966863" lon="7.7816"><ele>33.0</ele><time>2026-04-12T09:39:19.959Z</time></trkpt><trkpt lat="33.5966105" lon="7.7816602"><ele>33.0</ele><time>2026-04-12T09:39:20.966Z</time></trkpt><trkpt lat="33.5965363" lon="7.781734"><ele>33.0</ele><time>2026-04-12T09:39:22.035Z</time></trkpt><trkpt lat="33.5964663" lon="7.7818039"><ele>33.0</ele><time>2026-04-12T09:39:23.035Z</time></trkpt><trkpt lat="33.5963948" lon="7.7818728"><ele>33.0</ele><time>2026-04-12T09:39:24.033Z</time></trkpt><trkpt lat="33.5963204" lon="7.7819449"><ele>33.0</ele><time>2026-04-12T09:39:25.04Z</time></trkpt><trkpt lat="33.5962493" lon="7.7820154"><ele>33.0</ele><time>2026-04-12T09:39:26.036Z</time></trkpt><trkpt lat="33.5961825" lon="7.7820882"><ele>32.6</ele><time>2026-04-12T09:39:27.035Z</time></trkpt><trkpt lat="33.5961075" lon="7.782163"><ele>32.199999999999996</ele><time>2026-04-12T09:39:28.035Z</time></trkpt><trkpt lat="33.5960261" lon="7.7822465"><ele>31.8</ele><time>2026-04-12T09:39:29.048Z</time></trkpt><trkpt lat="33.5959386" lon="7.7823349"><ele>31.4</ele><time>2026-04-12T09:39:30.039Z</time></trkpt><trkpt lat="33.5958554" lon="7.7824233"><ele>31.0</ele><time>2026-04-12T09:39:31.043Z</time></trkpt><trkpt lat="33.5957685" lon="7.7825111"><ele>31.0</ele><time>2026-04-12T09:39:32.04Z</time></trkpt><trkpt lat="33.5956858" lon="7.7826222"><ele>31.0</ele><time>2026-04-12T09:39:33.036Z</time></trkpt><trkpt lat="33.5956057" lon="7.7827059"><ele>31.0</ele><time>2026-04-12T09:39:34.041Z</time></trkpt><trkpt lat="33.595528" lon="7.7827864"><ele>31.0</ele><time>2026-04-12T09:39:35.039Z</time></trkpt><trkpt lat="33.5954484" lon="7.7828647"><ele>31.0</ele><time>2026-04-12T09:39:36.04Z</time></trkpt><trkpt lat="33.5953736" lon="7.7829452"><ele>31.6</ele><time>2026-04-12T09:39:37.037Z</time></trkpt><trkpt lat="33.5952957" lon="7.7830257"><ele>32.2</ele><time>2026-04-12T09:39:38.038Z</time></trkpt><trkpt lat="33.5952187" lon="7.7831052"><ele>32.8</ele><time>2026-04-12T09:39:39.039Z</time></trkpt><trkpt lat="33.5951415" lon="7.7831845"><ele>33.4</ele><time>2026-04-12T09:39:40.04Z</time></trkpt><trkpt lat="33.5950677" lon="7.783263"><ele>34.0</ele><time>2026-04-12T09:39:41.038Z</time></trkpt><trkpt lat="33.5949938" lon="7.7833266"><ele>34.0</ele><time>2026-04-12T09:39:42.042Z</time></trkpt><trkpt lat="33.5949187" lon="7.7834039"><ele>34.0</ele><time>2026-04-12T09:39:43.042Z</time></trkpt><trkpt lat="33.5948346" lon="7.7834847"><ele>34.0</ele><time>2026-04-12T09:39:44.047Z</time></trkpt><trkpt lat="33.594744" lon="7.783569"><ele>34.0</ele><time>2026-04-12T09:39:45.041Z</time></trkpt><trkpt lat="33.594655" lon="7.7836489"><ele>34.0</ele><time>2026-04-12T09:39:46.038Z</time></trkpt><trkpt lat="33.5945804" lon="7.7837136"><ele>34.16666666666667</ele><time>2026-04-12T09:39:47.031Z</time></trkpt><trkpt lat="33.5945201" lon="7.7837719"><ele>34.333333333333336</ele><time>2026-04-12T09:39:48.036Z</time></trkpt><trkpt lat="33.5944565" lon="7.7838416"><ele>34.5</ele><time>2026-04-12T09:39:49.052Z</time></trkpt><trkpt lat="33.5943839" lon="7.7839196"><ele>34.666666666666664</ele><time>2026-04-12T09:39:50.033Z</time></trkpt><trkpt lat="33.5943291" lon="7.7839817"><ele>34.83333333333333</ele><time>2026-04-12T09:39:51.036Z</time></trkpt><trkpt lat="33.594272" lon="7.7840593"><ele>35.0</ele><time>2026-04-12T09:39:52.04Z</time></trkpt><trkpt lat="33.5942165" lon="7.7841376"><ele>35.0</ele><time>2026-04-12T09:39:53.037Z</time></trkpt><trkpt lat="33.5941583" lon="7.7842118"><ele>35.0</ele><time>2026-04-12T09:39:54.017Z</time></trkpt><trkpt lat="33.5940933" lon="7.7842905"><ele>35.0</ele><time>2026-04-12T09:39:55.017Z</time></trkpt><trkpt lat="33.5940218" lon="7.7843646"><ele>35.0</ele><time>2026-04-12T09:39:56.016Z</time></trkpt><trkpt lat="33.5939402" lon="7.7844389"><ele>35.0</ele><time>2026-04-12T09:39:57.018Z</time></trkpt><trkpt lat="33.5938591" lon="7.7845071"><ele>34.8</ele><time>2026-04-12T09:39:58.04Z</time></trkpt><trkpt lat="33.5937745" lon="7.7845758"><ele>34.6</ele><time>2026-04-12T09:39:59.043Z</time></trkpt><trkpt lat="33.5936839" lon="7.7846461"><ele>34.4</ele><time>2026-04-12T09:40:00.049Z</time></trkpt><trkpt lat="33.5936054" lon="7.7847198"><ele>34.2</ele><time>2026-04-12T09:40:01.042Z</time></trkpt><trkpt lat="33.5935269" lon="7.7848018"><ele>34.0</ele><time>2026-04-12T09:40:02.038Z</time></trkpt><trkpt lat="33.5934439" lon="7.7848835"><ele>33.6</ele><time>2026-04-12T09:40:03.043Z</time></trkpt><trkpt lat="33.5933623" lon="7.7849628"><ele>33.2</ele><time>2026-04-12T09:40:04.042Z</time></trkpt><trkpt lat="33.5932785" lon="7.7850455"><ele>32.800000000000004</ele><time>2026-04-12T09:40:05.041Z</time></trkpt><trkpt lat="33.5931889" lon="7.7851246"><ele>32.4</ele><time>2026-04-12T09:40:06.039Z</time></trkpt><trkpt lat="33.5930982" lon="7.7852023"><ele>32.0</ele><time>2026-04-12T09:40:07.039Z</time></trkpt><trkpt lat="33.5930081" lon="7.7852768"><ele>31.5</ele><time>2026-04-12T09:40:08.034Z</time></trkpt><trkpt lat="33.5929232" lon="7.7853715"><ele>31.0</ele><time>2026-04-12T09:40:09.035Z</time></trkpt><trkpt lat="33.5928244" lon="7.7854587"><ele>30.5</ele><time>2026-04-12T09:40:09.952Z</time></trkpt><trkpt lat="33.5927323" lon="7.7855565"><ele>30.0</ele><time>2026-04-12T09:40:10.947Z</time></trkpt><trkpt lat="33.5926367" lon="7.7856492"><ele>30.0</ele><time>2026-04-12T09:40:11.948Z</time></trkpt><trkpt lat="33.5925469" lon="7.7857325"><ele>30.0</ele><time>2026-04-12T09:40:12.942Z</time></trkpt><trkpt lat="33.5924685" lon="7.785828"><ele>30.0</ele><time>2026-04-12T09:40:13.95Z</time></trkpt><trkpt lat="33.5923871" lon="7.7859238"><ele>30.0</ele><time>2026-04-12T09:40:14.951Z</time></trkpt><trkpt lat="33.5923082" lon="7.786005"><ele>30.0</ele><time>2026-04-12T09:40:15.95Z</time></trkpt><trkpt lat="33.5922129" lon="7.7860927"><ele>30.0</ele><time>2026-04-12T09:40:16.953Z</time></trkpt><trkpt lat="33.5921178" lon="7.7861742"><ele>30.0</ele><time>2026-04-12T09:40:17.955Z</time></trkpt><trkpt lat="33.5920293" lon="7.786259"><ele>30.0</ele><time>2026-04-12T09:40:18.955Z</time></trkpt><trkpt lat="33.5919418" lon="7.7863576"><ele>30.0</ele><time>2026-04-12T09:40:19.963Z</time></trkpt><trkpt lat="33.591848" lon="7.7864651"><ele>30.0</ele><time>2026-04-12T09:40:20.952Z</time></trkpt><trkpt lat="33.5917637" lon="7.7865656"><ele>30.0</ele><time>2026-04-12T09:40:21.951Z</time></trkpt><trkpt lat="33.5916769" lon="7.7866509"><ele>30.0</ele><time>2026-04-12T09:40:22.953Z</time></trkpt><trkpt lat="33.5915845" lon="7.7867243"><ele>30.0</ele><time>2026-04-12T09:40:23.953Z</time></trkpt><trkpt lat="33.5914859" lon="7.7868046"><ele>30.25</ele><time>2026-04-12T09:40:24.956Z</time></trkpt><trkpt lat="33.5913894" lon="7.7868939"><ele>30.5</ele><time>2026-04-12T09:40:25.951Z</time></trkpt><trkpt lat="33.5912957" lon="7.7869948"><ele>30.75</ele><time>2026-04-12T09:40:26.952Z</time></trkpt><trkpt lat="33.5912035" lon="7.7871044"><ele>31.0</ele><time>2026-04-12T09:40:27.949Z</time></trkpt><trkpt lat="33.591107" lon="7.7872081"><ele>31.25</ele><time>2026-04-12T09:40:28.952Z</time></trkpt><trkpt lat="33.591006" lon="7.7873176"><ele>31.5</ele><time>2026-04-12T09:40:29.955Z</time></trkpt><trkpt lat="33.5908948" lon="7.787418"><ele>31.75</ele><time>2026-04-12T09:40:30.955Z</time></trkpt><trkpt lat="33.5907893" lon="7.787517"><ele>32.0</ele><time>2026-04-12T09:40:31.954Z</time></trkpt><trkpt lat="33.5906822" lon="7.7876101"><ele>32.0</ele><time>2026-04-12T09:40:32.955Z</time></trkpt><trkpt lat="33.590574" lon="7.7877109"><ele>32.0</ele><time>2026-04-12T09:40:33.955Z</time></trkpt><trkpt lat="33.5904743" lon="7.7878119"><ele>32.0</ele><time>2026-04-12T09:40:34.952Z</time></trkpt><trkpt lat="33.5903873" lon="7.7879282"><ele>32.0</ele><time>2026-04-12T09:40:35.957Z</time></trkpt><trkpt lat="33.5903013" lon="7.7880412"><ele>32.0</ele><time>2026-04-12T09:40:36.952Z</time></trkpt><trkpt lat="33.5902143" lon="7.7881426"><ele>32.0</ele><time>2026-04-12T09:40:37.955Z</time></trkpt><trkpt lat="33.5901242" lon="7.7882336"><ele>32.0</ele><time>2026-04-12T09:40:38.949Z</time></trkpt><trkpt lat="33.5900337" lon="7.7883239"><ele>32.0</ele><time>2026-04-12T09:40:39.951Z</time></trkpt><trkpt lat="33.5899394" lon="7.788425"><ele>32.0</ele><time>2026-04-12T09:40:40.947Z</time></trkpt><trkpt lat="33.5898456" lon="7.7885451"><ele>32.0</ele><time>2026-04-12T09:40:41.949Z</time></trkpt><trkpt lat="33.5897547" lon="7.7886678"><ele>32.0</ele><time>2026-04-12T09:40:42.949Z</time></trkpt><trkpt lat="33.5896603" lon="7.7887713"><ele>32.0</ele><time>2026-04-12T09:40:43.95Z</time></trkpt><trkpt lat="33.5895743" lon="7.7888457"><ele>32.83333333333333</ele><time>2026-04-12T09:40:44.948Z</time></trkpt><trkpt lat="33.5894989" lon="7.7889053"><ele>33.666666666666664</ele><time>2026-04-12T09:40:45.947Z</time></trkpt><trkpt lat="33.589434" lon="7.788948"><ele>34.5</ele><time>2026-04-12T09:40:46.952Z</time></trkpt><trkpt lat="33.5893845" lon="7.7890045"><ele>35.333333333333336</ele><time>2026-04-12T09:40:47.95Z</time></trkpt><trkpt lat="33.5893217" lon="7.7890546"><ele>36.16666666666667</ele><time>2026-04-12T09:40:48.958Z</time></trkpt><trkpt lat="33.5892475" lon="7.7891084"><ele>37.0</ele><time>2026-04-12T09:40:49.951Z</time></trkpt><trkpt lat="33.5891752" lon="7.7891737"><ele>37.0</ele><time>2026-04-12T09:40:50.961Z</time></trkpt><trkpt lat="33.5890913" lon="7.7892577"><ele>37.0</ele><time>2026-04-12T09:40:51.952Z</time></trkpt><trkpt lat="33.5890027" lon="7.7893424"><ele>37.0</ele><time>2026-04-12T09:40:52.957Z</time></trkpt><trkpt lat="33.5889125" lon="7.789422"><ele>37.0</ele><time>2026-04-12T09:40:53.955Z</time></trkpt><trkpt lat="33.5888303" lon="7.7895142"><ele>37.0</ele><time>2026-04-12T09:40:54.955Z</time></trkpt><trkpt lat="33.5887457" lon="7.7896027"><ele>35.75</ele><time>2026-04-12T09:40:55.957Z</time></trkpt><trkpt lat="33.5886475" lon="7.7897007"><ele>34.5</ele><time>2026-04-12T09:40:56.956Z</time></trkpt><trkpt lat="33.5885378" lon="7.7898033"><ele>33.25</ele><time>2026-04-12T09:40:57.956Z</time></trkpt><trkpt lat="33.5884321" lon="7.789918"><ele>32.0</ele><time>2026-04-12T09:40:58.958Z</time></trkpt><trkpt lat="33.5883317" lon="7.7900313"><ele>32.0</ele><time>2026-04-12T09:40:59.95Z</time></trkpt><trkpt lat="33.5882349" lon="7.7901337"><ele>32.0</ele><time>2026-04-12T09:41:00.957Z</time></trkpt><trkpt lat="33.5881424" lon="7.790226"><ele>32.0</ele><time>2026-04-12T09:41:01.949Z</time></trkpt><trkpt lat="33.5880554" lon="7.7903164"><ele>32.0</ele><time>2026-04-12T09:41:02.949Z</time></trkpt><trkpt lat="33.5879735" lon="7.7904127"><ele>32.2</ele><time>2026-04-12T09:41:03.953Z</time></trkpt><trkpt lat="33.5879011" lon="7.7904904"><ele>32.400000000000006</ele><time>2026-04-12T09:41:04.954Z</time></trkpt><trkpt lat="33.5878113" lon="7.7905672"><ele>32.599999999999994</ele><time>2026-04-12T09:41:05.953Z</time></trkpt><trkpt lat="33.5877238" lon="7.7906433"><ele>32.8</ele><time>2026-04-12T09:41:06.95Z</time></trkpt><trkpt lat="33.5876483" lon="7.7907171"><ele>33.0</ele><time>2026-04-12T09:41:07.946Z</time></trkpt><trkpt lat="33.5875743" lon="7.7907937"><ele>33.0</ele><time>2026-04-12T09:41:08.949Z</time></trkpt><trkpt lat="33.5874861" lon="7.7908876"><ele>33.0</ele><time>2026-04-12T09:41:09.95Z</time></trkpt><trkpt lat="33.5873908" lon="7.7909843"><ele>33.0</ele><time>2026-04-12T09:41:10.949Z</time></trkpt><trkpt lat="33.5873012" lon="7.7910898"><ele>33.0</ele><time>2026-04-12T09:41:11.95Z</time></trkpt><trkpt lat="33.5872164" lon="7.7911921"><ele>33.0</ele><time>2026-04-12T09:41:12.952Z</time></trkpt><trkpt lat="33.5871188" lon="7.7912844"><ele>33.0</ele><time>2026-04-12T09:41:13.951Z</time></trkpt><trkpt lat="33.5870162" lon="7.7913711"><ele>33.0</ele><time>2026-04-12T09:41:14.95Z</time></trkpt><trkpt lat="33.58692" lon="7.7914572"><ele>33.0</ele><time>2026-04-12T09:41:15.949Z</time></trkpt><trkpt lat="33.5868279" lon="7.791546"><ele>33.0</ele><time>2026-04-12T09:41:16.95Z</time></trkpt><trkpt lat="33.5867288" lon="7.7916407"><ele>33.0</ele><time>2026-04-12T09:41:17.952Z</time></trkpt><trkpt lat="33.5866291" lon="7.7917342"><ele>33.0</ele><time>2026-04-12T09:41:18.954Z</time></trkpt><trkpt lat="33.5865332" lon="7.7918202"><ele>33.0</ele><time>2026-04-12T09:41:19.949Z</time></trkpt><trkpt lat="33.5864444" lon="7.7919048"><ele>33.0</ele><time>2026-04-12T09:41:20.953Z</time></trkpt><trkpt lat="33.5863565" lon="7.7920008"><ele>33.0</ele><time>2026-04-12T09:41:21.974Z</time></trkpt><trkpt lat="33.5862793" lon="7.7920885"><ele>33.0</ele><time>2026-04-12T09:41:22.948Z</time></trkpt><trkpt lat="33.5861953" lon="7.7921743"><ele>33.0</ele><time>2026-04-12T09:41:23.953Z</time></trkpt><trkpt lat="33.5861092" lon="7.7922717"><ele>32.8</ele><time>2026-04-12T09:41:24.957Z</time></trkpt><trkpt lat="33.5860267" lon="7.7923639"><ele>32.599999999999994</ele><time>2026-04-12T09:41:25.954Z</time></trkpt><trkpt lat="33.5859424" lon="7.7924595"><ele>32.400000000000006</ele><time>2026-04-12T09:41:26.953Z</time></trkpt><trkpt lat="33.58585" lon="7.7925371"><ele>32.2</ele><time>2026-04-12T09:41:27.957Z</time></trkpt><trkpt lat="33.585762" lon="7.7926088"><ele>32.0</ele><time>2026-04-12T09:41:28.957Z</time></trkpt><trkpt lat="33.5856746" lon="7.7926831"><ele>32.166666666666664</ele><time>2026-04-12T09:41:29.952Z</time></trkpt><trkpt lat="33.5855909" lon="7.7927609"><ele>32.33333333333333</ele><time>2026-04-12T09:41:30.954Z</time></trkpt><trkpt lat="33.5855151" lon="7.7928269"><ele>32.5</ele><time>2026-04-12T09:41:31.95Z</time></trkpt><trkpt lat="33.5854531" lon="7.7928861"><ele>32.666666666666664</ele><time>2026-04-12T09:41:32.95Z</time></trkpt><trkpt lat="33.5853943" lon="7.7929457"><ele>32.833333333333336</ele><time>2026-04-12T09:41:33.952Z</time></trkpt><trkpt lat="33.5853259" lon="7.7929977"><ele>33.0</ele><time>2026-04-12T09:41:34.949Z</time></trkpt><trkpt lat="33.5852479" lon="7.7930607"><ele>33.0</ele><time>2026-04-12T09:41:35.95Z</time></trkpt><trkpt lat="33.5851744" lon="7.7931318"><ele>33.0</ele><time>2026-04-12T09:41:36.952Z</time></trkpt><trkpt lat="33.5850992" lon="7.7932212"><ele>33.0</ele><time>2026-04-12T09:41:37.956Z</time></trkpt><trkpt lat="33.5850285" lon="7.7933087"><ele>33.0</ele><time>2026-04-12T09:41:38.953Z</time></trkpt><trkpt lat="33.58495" lon="7.7933863"><ele>33.0</ele><time>2026-04-12T09:41:39.959Z</time></trkpt><trkpt lat="33.5848674" lon="7.793466"><ele>33.0</ele><time>2026-04-12T09:41:40.955Z</time></trkpt><trkpt lat="33.5847803" lon="7.7935493"><ele>33.0</ele><time>2026-04-12T09:41:41.952Z</time></trkpt><trkpt lat="33.5846928" lon="7.7936378"><ele>33.0</ele><time>2026-04-12T09:41:42.951Z</time></trkpt><trkpt lat="33.5846117" lon="7.7937204"><ele>33.0</ele><time>2026-04-12T09:41:43.954Z</time></trkpt><trkpt lat="33.5845294" lon="7.7938164"><ele>33.0</ele><time>2026-04-12T09:41:44.955Z</time></trkpt><trkpt lat="33.5844397" lon="7.7939055"><ele>32.75</ele><time>2026-04-12T09:41:45.953Z</time></trkpt><trkpt lat="33.5843425" lon="7.7939985"><ele>32.5</ele><time>2026-04-12T09:41:46.953Z</time></trkpt><trkpt lat="33.5842472" lon="7.7940877"><ele>32.25</ele><time>2026-04-12T09:41:47.949Z</time></trkpt><trkpt lat="33.5841562" lon="7.7941733"><ele>32.0</ele><time>2026-04-12T09:41:48.958Z</time></trkpt><trkpt lat="33.5840549" lon="7.794262"><ele>31.8</ele><time>2026-04-12T09:41:49.952Z</time></trkpt><trkpt lat="33.5839665" lon="7.7943566"><ele>31.6</ele><time>2026-04-12T09:41:50.952Z</time></trkpt><trkpt lat="33.5838879" lon="7.7944529"><ele>31.400000000000002</ele><time>2026-04-12T09:41:51.963Z</time></trkpt><trkpt lat="33.5838148" lon="7.794556"><ele>31.200000000000003</ele><time>2026-04-12T09:41:52.954Z</time></trkpt><trkpt lat="33.5837563" lon="7.7946523"><ele>31.0</ele><time>2026-04-12T09:41:53.953Z</time></trkpt><trkpt lat="33.5836893" lon="7.7947427"><ele>31.166666666666668</ele><time>2026-04-12T09:41:54.943Z</time></trkpt><trkpt lat="33.5836332" lon="7.7948076"><ele>31.333333333333336</ele><time>2026-04-12T09:41:55.942Z</time></trkpt><trkpt lat="33.5835712" lon="7.7948662"><ele>31.5</ele><time>2026-04-12T09:41:56.943Z</time></trkpt><trkpt lat="33.583502" lon="7.7949279"><ele>31.666666666666664</ele><time>2026-04-12T09:41:57.942Z</time></trkpt><trkpt lat="33.5834248" lon="7.7949828"><ele>31.833333333333332</ele><time>2026-04-12T09:41:58.947Z</time></trkpt><trkpt lat="33.5833407" lon="7.7950567"><ele>32.0</ele><time>2026-04-12T09:41:59.948Z</time></trkpt><trkpt lat="33.5832416" lon="7.7951356"><ele>32.0</ele><time>2026-04-12T09:42:00.953Z</time></trkpt><trkpt lat="33.5831546" lon="7.7952085"><ele>32.0</ele><time>2026-04-12T09:42:01.95Z</time></trkpt><trkpt lat="33.5830672" lon="7.7952758"><ele>32.0</ele><time>2026-04-12T09:42:02.953Z</time></trkpt><trkpt lat="33.582983" lon="7.7953542"><ele>32.0</ele><time>2026-04-12T09:42:03.951Z</time></trkpt><trkpt lat="33.5829039" lon="7.7954339"><ele>32.0</ele><time>2026-04-12T09:42:04.949Z</time></trkpt><trkpt lat="33.5828229" lon="7.7955145"><ele>32.4</ele><time>2026-04-12T09:42:05.95Z</time></trkpt><trkpt lat="33.5827568" lon="7.795598"><ele>32.800000000000004</ele><time>2026-04-12T09:42:06.951Z</time></trkpt><trkpt lat="33.5826822" lon="7.7956789"><ele>33.2</ele><time>2026-04-12T09:42:07.949Z</time></trkpt><trkpt lat="33.5825975" lon="7.7957718"><ele>33.6</ele><time>2026-04-12T09:42:08.948Z</time></trkpt><trkpt lat="33.5825082" lon="7.7958624"><ele>34.0</ele><time>2026-04-12T09:42:09.951Z</time></trkpt><trkpt lat="33.5824193" lon="7.7959523"><ele>33.4</ele><time>2026-04-12T09:42:10.949Z</time></trkpt><trkpt lat="33.5823439" lon="7.7960497"><ele>32.8</ele><time>2026-04-12T09:42:11.952Z</time></trkpt><trkpt lat="33.5822797" lon="7.7961505"><ele>32.2</ele><time>2026-04-12T09:42:12.951Z</time></trkpt><trkpt lat="33.5822104" lon="7.7962523"><ele>31.6</ele><time>2026-04-12T09:42:13.954Z</time></trkpt><trkpt lat="33.5821418" lon="7.7963529"><ele>31.0</ele><time>2026-04-12T09:42:14.947Z</time></trkpt><trkpt lat="33.5820721" lon="7.7964348"><ele>31.6</ele><time>2026-04-12T09:42:15.951Z</time></trkpt><trkpt lat="33.5819969" lon="7.7965026"><ele>32.2</ele><time>2026-04-12T09:42:16.947Z</time></trkpt><trkpt lat="33.5819195" lon="7.7965736"><ele>32.8</ele><time>2026-04-12T09:42:17.951Z</time></trkpt><trkpt lat="33.5818389" lon="7.7966475"><ele>33.4</ele><time>2026-04-12T09:42:18.951Z</time></trkpt><trkpt lat="33.5817515" lon="7.7967144"><ele>34.0</ele><time>2026-04-12T09:42:19.95Z</time></trkpt><trkpt lat="33.5816515" lon="7.7967746"><ele>33.0</ele><time>2026-04-12T09:42:20.956Z</time></trkpt><trkpt lat="33.5815549" lon="7.7968415"><ele>32.0</ele><time>2026-04-12T09:42:21.952Z</time></trkpt><trkpt lat="33.5814693" lon="7.7969265"><ele>31.0</ele><time>2026-04-12T09:42:22.963Z</time></trkpt><trkpt lat="33.5813876" lon="7.7970257"><ele>30.0</ele><time>2026-04-12T09:42:23.953Z</time></trkpt><trkpt lat="33.5813052" lon="7.7971184"><ele>30.0</ele><time>2026-04-12T09:42:24.951Z</time></trkpt><trkpt lat="33.5812207" lon="7.7972079"><ele>30.0</ele><time>2026-04-12T09:42:25.945Z</time></trkpt><trkpt lat="33.5811414" lon="7.7972815"><ele>30.0</ele><time>2026-04-12T09:42:26.944Z</time></trkpt><trkpt lat="33.5810749" lon="7.7973618"><ele>30.0</ele><time>2026-04-12T09:42:27.947Z</time></trkpt><trkpt lat="33.5810187" lon="7.7974356"><ele>30.0</ele><time>2026-04-12T09:42:28.949Z</time></trkpt><trkpt lat="33.5809668" lon="7.7975098"><ele>30.333333333333332</ele><time>2026-04-12T09:42:29.943Z</time></trkpt><trkpt lat="33.5809107" lon="7.7975955"><ele>30.666666666666664</ele><time>2026-04-12T09:42:31.941Z</time></trkpt><trkpt lat="33.5808537" lon="7.7976751"><ele>31.0</ele><time>2026-04-12T09:42:34.971Z</time></trkpt><trkpt lat="33.5807818" lon="7.7977484"><ele>31.333333333333332</ele><time>2026-04-12T09:43:00.965Z</time></trkpt><trkpt lat="33.580727" lon="7.7978005"><ele>31.666666666666664</ele><time>2026-04-12T09:43:01.946Z</time></trkpt><trkpt lat="33.5806547" lon="7.7978517"><ele>32.0</ele><time>2026-04-12T09:43:02.961Z</time></trkpt><trkpt lat="33.5805829" lon="7.7979072"><ele>32.0</ele><time>2026-04-12T09:43:03.96Z</time></trkpt><trkpt lat="33.5805016" lon="7.7979669"><ele>32.0</ele><time>2026-04-12T09:43:04.962Z</time></trkpt><trkpt lat="33.5804132" lon="7.7980274"><ele>32.0</ele><time>2026-04-12T09:43:05.957Z</time></trkpt><trkpt lat="33.5803291" lon="7.7980954"><ele>32.0</ele><time>2026-04-12T09:43:07.034Z</time></trkpt><trkpt lat="33.5802404" lon="7.7981749"><ele>32.0</ele><time>2026-04-12T09:43:08.03Z</time></trkpt><trkpt lat="33.5801504" lon="7.7982624"><ele>32.5</ele><time>2026-04-12T09:43:09.029Z</time></trkpt><trkpt lat="33.5800604" lon="7.7983549"><ele>33.0</ele><time>2026-04-12T09:43:10.036Z</time></trkpt><trkpt lat="33.5799702" lon="7.7984484"><ele>33.5</ele><time>2026-04-12T09:43:11.032Z</time></trkpt><trkpt lat="33.5798827" lon="7.7985357"><ele>34.0</ele><time>2026-04-12T09:43:12.028Z</time></trkpt><trkpt lat="33.5797967" lon="7.798618"><ele>34.0</ele><time>2026-04-12T09:43:13.038Z</time></trkpt><trkpt lat="33.5797088" lon="7.7987004"><ele>34.0</ele><time>2026-04-12T09:43:14.042Z</time></trkpt><trkpt lat="33.5796093" lon="7.7987802"><ele>34.0</ele><time>2026-04-12T09:43:15.033Z</time></trkpt><trkpt lat="33.5795344" lon="7.7988359"><ele>34.0</ele><time>2026-04-12T09:43:16.043Z</time></trkpt><trkpt lat="33.5794592" lon="7.7988863"><ele>34.0</ele><time>2026-04-12T09:43:17.039Z</time></trkpt><trkpt lat="33.5793836" lon="7.7989356"><ele>34.66666666666667</ele><time>2026-04-12T09:43:18.041Z</time></trkpt><trkpt lat="33.5793066" lon="7.798998"><ele>35.333333333333336</ele><time>2026-04-12T09:43:19.045Z</time></trkpt><trkpt lat="33.5792432" lon="7.7990564"><ele>36.0</ele><time>2026-04-12T09:43:20.033Z</time></trkpt><trkpt lat="33.5791949" lon="7.7991172"><ele>36.666666666666664</ele><time>2026-04-12T09:43:21.036Z</time></trkpt><trkpt lat="33.5791456" lon="7.7991827"><ele>37.33333333333333</ele><time>2026-04-12T09:43:22.041Z</time></trkpt><trkpt lat="33.5790908" lon="7.7992569"><ele>38.0</ele><time>2026-04-12T09:43:23.037Z</time></trkpt><trkpt lat="33.5790272" lon="7.7993311"><ele>38.0</ele><time>2026-04-12T09:43:24.033Z</time></trkpt><trkpt lat="33.5789633" lon="7.7993933"><ele>38.0</ele><time>2026-04-12T09:43:25.045Z</time></trkpt><trkpt lat="33.5788986" lon="7.7994542"><ele>38.0</ele><time>2026-04-12T09:43:26.04Z</time></trkpt><trkpt lat="33.5788222" lon="7.7995276"><ele>38.0</ele><time>2026-04-12T09:43:27.02Z</time></trkpt><trkpt lat="33.578753" lon="7.7996016"><ele>38.0</ele><time>2026-04-12T09:43:28.019Z</time></trkpt><trkpt lat="33.5786776" lon="7.7996943"><ele>38.0</ele><time>2026-04-12T09:43:29.023Z</time></trkpt><trkpt lat="33.5786002" lon="7.7997862"><ele>38.0</ele><time>2026-04-12T09:43:30.021Z</time></trkpt><trkpt lat="33.5785289" lon="7.7998629"><ele>38.0</ele><time>2026-04-12T09:43:31.04Z</time></trkpt><trkpt lat="33.5784607" lon="7.7999343"><ele>38.0</ele><time>2026-04-12T09:43:32.037Z</time></trkpt><trkpt lat="33.578393" lon="7.800004"><ele>38.0</ele><time>2026-04-12T09:43:33.046Z</time></trkpt><trkpt lat="33.5783228" lon="7.8000784"><ele>38.0</ele><time>2026-04-12T09:43:34.039Z</time></trkpt><trkpt lat="33.5782429" lon="7.8001485"><ele>38.0</ele><time>2026-04-12T09:43:35.043Z</time></trkpt><trkpt lat="33.5781625" lon="7.8002185"><ele>38.0</ele><time>2026-04-12T09:43:36.045Z</time></trkpt><trkpt lat="33.5780978" lon="7.8002855"><ele>38.0</ele><time>2026-04-12T09:43:37.041Z</time></trkpt><trkpt lat="33.5779904" lon="7.8003701"><ele>38.0</ele><time>2026-04-12T09:43:38.042Z</time></trkpt><trkpt lat="33.5779055" lon="7.800456"><ele>37.8</ele><time>2026-04-12T09:43:39.034Z</time></trkpt><trkpt lat="33.5778228" lon="7.8005396"><ele>37.599999999999994</ele><time>2026-04-12T09:43:40.038Z</time></trkpt><trkpt lat="33.57774" lon="7.800622"><ele>37.400000000000006</ele><time>2026-04-12T09:43:41.037Z</time></trkpt><trkpt lat="33.5776653" lon="7.8006935"><ele>37.2</ele><time>2026-04-12T09:43:42.035Z</time></trkpt><trkpt lat="33.577581" lon="7.8007713"><ele>37.0</ele><time>2026-04-12T09:43:43.036Z</time></trkpt><trkpt lat="33.5774913" lon="7.8008578"><ele>37.0</ele><time>2026-04-12T09:43:44.039Z</time></trkpt><trkpt lat="33.5773904" lon="7.800935"><ele>37.0</ele><time>2026-04-12T09:43:45.04Z</time></trkpt><trkpt lat="33.5772907" lon="7.8010264"><ele>37.0</ele><time>2026-04-12T09:43:46.042Z</time></trkpt><trkpt lat="33.5771908" lon="7.8011238"><ele>37.0</ele><time>2026-04-12T09:43:47.038Z</time></trkpt><trkpt lat="33.5771006" lon="7.8012169"><ele>36.6</ele><time>2026-04-12T09:43:48.043Z</time></trkpt><trkpt lat="33.5770196" lon="7.8012982"><ele>36.2</ele><time>2026-04-12T09:43:49.043Z</time></trkpt><trkpt lat="33.576928" lon="7.8013858"><ele>35.8</ele><time>2026-04-12T09:43:50.04Z</time></trkpt><trkpt lat="33.5768391" lon="7.8014693"><ele>35.4</ele><time>2026-04-12T09:43:51.041Z</time></trkpt><trkpt lat="33.5767557" lon="7.8015435"><ele>35.0</ele><time>2026-04-12T09:43:52.046Z</time></trkpt><trkpt lat="33.5766776" lon="7.8016183"><ele>34.8</ele><time>2026-04-12T09:43:53.039Z</time></trkpt><trkpt lat="33.576594" lon="7.8016969"><ele>34.6</ele><time>2026-04-12T09:43:54.044Z</time></trkpt><trkpt lat="33.5765074" lon="7.801775"><ele>34.4</ele><time>2026-04-12T09:43:55.043Z</time></trkpt><trkpt lat="33.5764145" lon="7.8018517"><ele>34.2</ele><time>2026-04-12T09:43:56.049Z</time></trkpt><trkpt lat="33.5763262" lon="7.8019229"><ele>34.0</ele><time>2026-04-12T09:43:57.037Z</time></trkpt><trkpt lat="33.5762431" lon="7.802004"><ele>33.5</ele><time>2026-04-12T09:43:58.035Z</time></trkpt><trkpt lat="33.5761587" lon="7.8020893"><ele>33.0</ele><time>2026-04-12T09:43:59.035Z</time></trkpt><trkpt lat="33.5760621" lon="7.8021799"><ele>32.5</ele><time>2026-04-12T09:44:00.042Z</time></trkpt><trkpt lat="33.5759693" lon="7.8022658"><ele>32.0</ele><time>2026-04-12T09:44:01.04Z</time></trkpt><trkpt lat="33.5758864" lon="7.8023461"><ele>32.0</ele><time>2026-04-12T09:44:02.03Z</time></trkpt><trkpt lat="33.5757881" lon="7.8024412"><ele>32.0</ele><time>2026-04-12T09:44:03.023Z</time></trkpt><trkpt lat="33.5757087" lon="7.80252"><ele>32.0</ele><time>2026-04-12T09:44:04.03Z</time></trkpt><trkpt lat="33.5756117" lon="7.8026075"><ele>32.0</ele><time>2026-04-12T09:44:05.035Z</time></trkpt><trkpt lat="33.5755122" lon="7.8026948"><ele>32.2</ele><time>2026-04-12T09:44:06.033Z</time></trkpt><trkpt lat="33.5754171" lon="7.8027783"><ele>32.400000000000006</ele><time>2026-04-12T09:44:07.038Z</time></trkpt><trkpt lat="33.5753259" lon="7.8028611"><ele>32.599999999999994</ele><time>2026-04-12T09:44:08.036Z</time></trkpt><trkpt lat="33.5752381" lon="7.8029401"><ele>32.8</ele><time>2026-04-12T09:44:09.036Z</time></trkpt><trkpt lat="33.5751617" lon="7.8030041"><ele>33.0</ele><time>2026-04-12T09:44:10.03Z</time></trkpt><trkpt lat="33.5750777" lon="7.8030954"><ele>33.0</ele><time>2026-04-12T09:44:11.03Z</time></trkpt><trkpt lat="33.575009" lon="7.803187"><ele>33.0</ele><time>2026-04-12T09:44:12.036Z</time></trkpt><trkpt lat="33.5749387" lon="7.8033012"><ele>33.0</ele><time>2026-04-12T09:44:13.017Z</time></trkpt><trkpt lat="33.5748689" lon="7.803417"><ele>33.0</ele><time>2026-04-12T09:44:14.02Z</time></trkpt><trkpt lat="33.5748046" lon="7.80353"><ele>33.0</ele><time>2026-04-12T09:44:15.012Z</time></trkpt><trkpt lat="33.574731" lon="7.8036471"><ele>33.0</ele><time>2026-04-12T09:44:16.015Z</time></trkpt><trkpt lat="33.5746656" lon="7.8037617"><ele>33.0</ele><time>2026-04-12T09:44:17.03Z</time></trkpt><trkpt lat="33.5745894" lon="7.8038559"><ele>33.0</ele><time>2026-04-12T09:44:18.036Z</time></trkpt><trkpt lat="33.5745072" lon="7.8039502"><ele>33.199999999999996</ele><time>2026-04-12T09:44:19.04Z</time></trkpt><trkpt lat="33.5744353" lon="7.8040416"><ele>33.4</ele><time>2026-04-12T09:44:20.03Z</time></trkpt><trkpt lat="33.5743572" lon="7.8041379"><ele>33.599999999999994</ele><time>2026-04-12T09:44:21.031Z</time></trkpt><trkpt lat="33.574273" lon="7.8042341"><ele>33.8</ele><time>2026-04-12T09:44:22.036Z</time></trkpt><trkpt lat="33.5741899" lon="7.8043229"><ele>34.0</ele><time>2026-04-12T09:44:23.032Z</time></trkpt><trkpt lat="33.5740984" lon="7.80441"><ele>34.75</ele><time>2026-04-12T09:44:24.037Z</time></trkpt><trkpt lat="33.5740014" lon="7.8044921"><ele>35.5</ele><time>2026-04-12T09:44:25.035Z</time></trkpt><trkpt lat="33.5738984" lon="7.8045706"><ele>36.25</ele><time>2026-04-12T09:44:26.034Z</time></trkpt><trkpt lat="33.5737896" lon="7.8046448"><ele>37.0</ele><time>2026-04-12T09:44:27.047Z</time></trkpt><trkpt lat="33.573689" lon="7.8047198"><ele>36.4</ele><time>2026-04-12T09:44:28.037Z</time></trkpt><trkpt lat="33.5736" lon="7.804795"><ele>35.800000000000004</ele><time>2026-04-12T09:44:29.032Z</time></trkpt><trkpt lat="33.573514" lon="7.804867"><ele>35.2</ele><time>2026-04-12T09:44:30.034Z</time></trkpt><trkpt lat="33.5734304" lon="7.8049439"><ele>34.6</ele><time>2026-04-12T09:44:31.034Z</time></trkpt><trkpt lat="33.573349" lon="7.8050354"><ele>34.0</ele><time>2026-04-12T09:44:32.036Z</time></trkpt><trkpt lat="33.5732721" lon="7.8051317"><ele>33.75</ele><time>2026-04-12T09:44:33.031Z</time></trkpt><trkpt lat="33.5731998" lon="7.8052333"><ele>33.5</ele><time>2026-04-12T09:44:34.041Z</time></trkpt><trkpt lat="33.5731281" lon="7.8053337"><ele>33.25</ele><time>2026-04-12T09:44:35.038Z</time></trkpt><trkpt lat="33.5730402" lon="7.8054277"><ele>33.0</ele><time>2026-04-12T09:44:36.032Z</time></trkpt><trkpt lat="33.5729474" lon="7.8055277"><ele>33.0</ele><time>2026-04-12T09:44:37.042Z</time></trkpt><trkpt lat="33.5728543" lon="7.8056206"><ele>33.0</ele><time>2026-04-12T09:44:38.028Z</time></trkpt><trkpt lat="33.5727645" lon="7.8057206"><ele>33.0</ele><time>2026-04-12T09:44:39.022Z</time></trkpt><trkpt lat="33.5726668" lon="7.805825"><ele>33.0</ele><time>2026-04-12T09:44:40.02Z</time></trkpt><trkpt lat="33.5725713" lon="7.8059273"><ele>33.25</ele><time>2026-04-12T09:44:41.02Z</time></trkpt><trkpt lat="33.5724767" lon="7.8060229"><ele>33.5</ele><time>2026-04-12T09:44:42.039Z</time></trkpt><trkpt lat="33.5723894" lon="7.806113"><ele>33.75</ele><time>2026-04-12T09:44:43.039Z</time></trkpt><trkpt lat="33.572295" lon="7.8061975"><ele>34.0</ele><time>2026-04-12T09:44:44.039Z</time></trkpt><trkpt lat="33.5722065" lon="7.806286"><ele>34.0</ele><time>2026-04-12T09:44:45.034Z</time></trkpt><trkpt lat="33.5721218" lon="7.8063733"><ele>34.0</ele><time>2026-04-12T09:44:46.037Z</time></trkpt><trkpt lat="33.5720452" lon="7.8064658"><ele>34.0</ele><time>2026-04-12T09:44:47.038Z</time></trkpt><trkpt lat="33.5719641" lon="7.8065596"><ele>34.0</ele><time>2026-04-12T09:44:48.034Z</time></trkpt><trkpt lat="33.5718838" lon="7.8066531"><ele>34.0</ele><time>2026-04-12T09:44:49.042Z</time></trkpt><trkpt lat="33.5717946" lon="7.8067409"><ele>34.2</ele><time>2026-04-12T09:44:50.037Z</time></trkpt><trkpt lat="33.5717275" lon="7.8068081"><ele>34.4</ele><time>2026-04-12T09:44:51.014Z</time></trkpt><trkpt lat="33.5716397" lon="7.8068903"><ele>34.6</ele><time>2026-04-12T09:44:53.017Z</time></trkpt><trkpt lat="33.5715651" lon="7.8069546"><ele>34.8</ele><time>2026-04-12T09:44:55.037Z</time></trkpt><trkpt lat="33.5714662" lon="7.8070533"><ele>35.0</ele><time>2026-04-12T09:44:57.03Z</time></trkpt><trkpt lat="33.5714038" lon="7.8071243"><ele>34.666666666666664</ele><time>2026-04-12T09:44:58.045Z</time></trkpt><trkpt lat="33.571335" lon="7.8071869"><ele>34.33333333333333</ele><time>2026-04-12T09:44:59.04Z</time></trkpt><trkpt lat="33.5712691" lon="7.8072497"><ele>34.0</ele><time>2026-04-12T09:45:00.037Z</time></trkpt><trkpt lat="33.571214" lon="7.8073094"><ele>33.666666666666664</ele><time>2026-04-12T09:45:01.018Z</time></trkpt><trkpt lat="33.571161" lon="7.807363"><ele>33.333333333333336</ele><time>2026-04-12T09:45:02.019Z</time></trkpt><trkpt lat="33.5711044" lon="7.807423"><ele>33.0</ele><time>2026-04-12T09:45:03.018Z</time></trkpt><trkpt lat="33.5710411" lon="7.8074884"><ele>33.0</ele><time>2026-04-12T09:45:04.015Z</time></trkpt><trkpt lat="33.5709781" lon="7.8075624"><ele>33.0</ele><time>2026-04-12T09:45:05.042Z</time></trkpt><trkpt lat="33.5709094" lon="7.8076418"><ele>33.0</ele><time>2026-04-12T09:45:06.04Z</time></trkpt><trkpt lat="33.5708442" lon="7.8077102"><ele>33.0</ele><time>2026-04-12T09:45:07.033Z</time></trkpt><trkpt lat="33.5707915" lon="7.8077655"><ele>33.0</ele><time>2026-04-12T09:45:08.027Z</time></trkpt><trkpt lat="33.5707168" lon="7.8078379"><ele>33.0</ele><time>2026-04-12T09:45:10.034Z</time></trkpt><trkpt lat="33.5706574" lon="7.807923"><ele>32.833333333333336</ele><time>2026-04-12T09:45:12.031Z</time></trkpt><trkpt lat="33.5706407" lon="7.8080326"><ele>32.666666666666664</ele><time>2026-04-12T09:45:15.04Z</time></trkpt><trkpt lat="33.5706671" lon="7.8081127"><ele>32.5</ele><time>2026-04-12T09:45:17.041Z</time></trkpt><trkpt lat="33.5707235" lon="7.8081975"><ele>32.33333333333333</ele><time>2026-04-12T09:45:19.047Z</time></trkpt><trkpt lat="33.5707834" lon="7.8082797"><ele>32.166666666666664</ele><time>2026-04-12T09:45:21.025Z</time></trkpt><trkpt lat="33.5708414" lon="7.8083545"><ele>32.0</ele><time>2026-04-12T09:45:23.026Z</time></trkpt><trkpt lat="33.5708887" lon="7.8084092"><ele>32.0</ele><time>2026-04-12T09:45:25.046Z</time></trkpt><trkpt lat="33.5709478" lon="7.808449"><ele>32.0</ele><time>2026-04-12T09:45:27.044Z</time></trkpt><trkpt lat="33.5710047" lon="7.8085497"><ele>32.0</ele><time>2026-04-12T09:45:30.041Z</time></trkpt><trkpt lat="33.5710701" lon="7.8086558"><ele>32.0</ele><time>2026-04-12T09:45:32.028Z</time></trkpt><trkpt lat="33.5711218" lon="7.8087237"><ele>32.0</ele><time>2026-04-12T09:45:33.021Z</time></trkpt><trkpt lat="33.5712174" lon="7.8088619"><ele>32.2</ele><time>2026-04-12T09:45:35.044Z</time></trkpt><trkpt lat="33.5712843" lon="7.8089439"><ele>32.400000000000006</ele><time>2026-04-12T09:45:36.031Z</time></trkpt><trkpt lat="33.5713553" lon="7.8090324"><ele>32.599999999999994</ele><time>2026-04-12T09:45:37.034Z</time></trkpt><trkpt lat="33.5714185" lon="7.8091204"><ele>32.8</ele><time>2026-04-12T09:45:38.035Z</time></trkpt><trkpt lat="33.5714843" lon="7.8092151"><ele>33.0</ele><time>2026-04-12T09:45:39.022Z</time></trkpt><trkpt lat="33.57156" lon="7.8093246"><ele>33.25</ele><time>2026-04-12T09:45:40.012Z</time></trkpt><trkpt lat="33.5716853" lon="7.8094806"><ele>33.5</ele><time>2026-04-12T09:45:41.017Z</time></trkpt><trkpt lat="33.5717654" lon="7.8095901"><ele>33.75</ele><time>2026-04-12T09:45:42.014Z</time></trkpt><trkpt lat="33.571843" lon="7.8096952"><ele>34.0</ele><time>2026-04-12T09:45:43.035Z</time></trkpt><trkpt lat="33.5719195" lon="7.8097955"><ele>34.0</ele><time>2026-04-12T09:45:44.038Z</time></trkpt><trkpt lat="33.5720126" lon="7.8099072"><ele>34.0</ele><time>2026-04-12T09:45:45.038Z</time></trkpt><trkpt lat="33.5720771" lon="7.8099941"><ele>34.0</ele><time>2026-04-12T09:45:46.037Z</time></trkpt><trkpt lat="33.5721361" lon="7.8100752"><ele>34.0</ele><time>2026-04-12T09:45:47.034Z</time></trkpt><trkpt lat="33.5721983" lon="7.8101588"><ele>34.0</ele><time>2026-04-12T09:45:48.032Z</time></trkpt><trkpt lat="33.5722693" lon="7.8102506"><ele>33.8</ele><time>2026-04-12T09:45:49.036Z</time></trkpt><trkpt lat="33.5723406" lon="7.8103476"><ele>33.599999999999994</ele><time>2026-04-12T09:45:50.032Z</time></trkpt><trkpt lat="33.5724104" lon="7.8104436"><ele>33.4</ele><time>2026-04-12T09:45:51.036Z</time></trkpt><trkpt lat="33.5724877" lon="7.8105484"><ele>33.199999999999996</ele><time>2026-04-12T09:45:52.035Z</time></trkpt><trkpt lat="33.5725584" lon="7.810647"><ele>33.0</ele><time>2026-04-12T09:45:53.031Z</time></trkpt><trkpt lat="33.5726216" lon="7.8107418"><ele>33.0</ele><time>2026-04-12T09:45:54.038Z</time></trkpt><trkpt lat="33.5726839" lon="7.8108367"><ele>33.0</ele><time>2026-04-12T09:45:55.04Z</time></trkpt><trkpt lat="33.5727523" lon="7.8109357"><ele>33.0</ele><time>2026-04-12T09:45:56.034Z</time></trkpt><trkpt lat="33.5728195" lon="7.8110351"><ele>33.0</ele><time>2026-04-12T09:45:57.039Z</time></trkpt><trkpt lat="33.5728889" lon="7.8111275"><ele>33.0</ele><time>2026-04-12T09:45:58.036Z</time></trkpt><trkpt lat="33.5729566" lon="7.8112195"><ele>32.8</ele><time>2026-04-12T09:45:59.037Z</time></trkpt><trkpt lat="33.5730241" lon="7.8113116"><ele>32.599999999999994</ele><time>2026-04-12T09:46:00.054Z</time></trkpt><trkpt lat="33.5730913" lon="7.8114064"><ele>32.400000000000006</ele><time>2026-04-12T09:46:01.035Z</time></trkpt><trkpt lat="33.5731618" lon="7.8115067"><ele>32.2</ele><time>2026-04-12T09:46:02.035Z</time></trkpt><trkpt lat="33.5732295" lon="7.8116012"><ele>32.0</ele><time>2026-04-12T09:46:03.038Z</time></trkpt><trkpt lat="33.5733017" lon="7.8116994"><ele>32.0</ele><time>2026-04-12T09:46:04.037Z</time></trkpt><trkpt lat="33.573373" lon="7.8117979"><ele>32.0</ele><time>2026-04-12T09:46:05.037Z</time></trkpt><trkpt lat="33.5734469" lon="7.8119006"><ele>32.0</ele><time>2026-04-12T09:46:06.039Z</time></trkpt><trkpt lat="33.5735215" lon="7.81201"><ele>32.0</ele><time>2026-04-12T09:46:07.037Z</time></trkpt><trkpt lat="33.5735986" lon="7.812123"><ele>32.5</ele><time>2026-04-12T09:46:08.033Z</time></trkpt><trkpt lat="33.5736765" lon="7.8122318"><ele>33.0</ele><time>2026-04-12T09:46:09.035Z</time></trkpt><trkpt lat="33.5737574" lon="7.8123417"><ele>33.5</ele><time>2026-04-12T09:46:10.039Z</time></trkpt><trkpt lat="33.5738391" lon="7.8124554"><ele>34.0</ele><time>2026-04-12T09:46:11.034Z</time></trkpt><trkpt lat="33.5739194" lon="7.8125747"><ele>34.0</ele><time>2026-04-12T09:46:12.037Z</time></trkpt><trkpt lat="33.5739966" lon="7.8126836"><ele>34.0</ele><time>2026-04-12T09:46:13.037Z</time></trkpt><trkpt lat="33.574078" lon="7.8127931"><ele>34.0</ele><time>2026-04-12T09:46:14.039Z</time></trkpt><trkpt lat="33.5741582" lon="7.8129025"><ele>34.0</ele><time>2026-04-12T09:46:15.037Z</time></trkpt><trkpt lat="33.5742351" lon="7.8130081"><ele>34.0</ele><time>2026-04-12T09:46:16.038Z</time></trkpt><trkpt lat="33.5743013" lon="7.8130976"><ele>34.0</ele><time>2026-04-12T09:46:17.034Z</time></trkpt><trkpt lat="33.574367" lon="7.8131854"><ele>34.0</ele><time>2026-04-12T09:46:18.04Z</time></trkpt><trkpt lat="33.5744312" lon="7.813272"><ele>34.0</ele><time>2026-04-12T09:46:19.041Z</time></trkpt><trkpt lat="33.5745038" lon="7.8133696"><ele>34.0</ele><time>2026-04-12T09:46:20.038Z</time></trkpt><trkpt lat="33.5745886" lon="7.8134928"><ele>34.0</ele><time>2026-04-12T09:46:21.049Z</time></trkpt><trkpt lat="33.5746736" lon="7.813613"><ele>34.0</ele><time>2026-04-12T09:46:22.047Z</time></trkpt><trkpt lat="33.5747535" lon="7.8137225"><ele>34.0</ele><time>2026-04-12T09:46:23.048Z</time></trkpt><trkpt lat="33.5748382" lon="7.813841"><ele>34.0</ele><time>2026-04-12T09:46:24.042Z</time></trkpt><trkpt lat="33.57493" lon="7.8139639"><ele>34.0</ele><time>2026-04-12T09:46:25.045Z</time></trkpt><trkpt lat="33.5750228" lon="7.8140895"><ele>34.0</ele><time>2026-04-12T09:46:26.045Z</time></trkpt><trkpt lat="33.5751133" lon="7.8142156"><ele>34.0</ele><time>2026-04-12T09:46:27.045Z</time></trkpt><trkpt lat="33.5751994" lon="7.8143378"><ele>34.0</ele><time>2026-04-12T09:46:28.044Z</time></trkpt><trkpt lat="33.5752814" lon="7.814455"><ele>33.25</ele><time>2026-04-12T09:46:29.05Z</time></trkpt><trkpt lat="33.5753608" lon="7.8145659"><ele>32.5</ele><time>2026-04-12T09:46:30.055Z</time></trkpt><trkpt lat="33.5754458" lon="7.8146819"><ele>31.75</ele><time>2026-04-12T09:46:31.047Z</time></trkpt><trkpt lat="33.5755303" lon="7.8147964"><ele>31.0</ele><time>2026-04-12T09:46:32.037Z</time></trkpt><trkpt lat="33.5756097" lon="7.8149037"><ele>31.0</ele><time>2026-04-12T09:46:33.037Z</time></trkpt><trkpt lat="33.5756901" lon="7.8150159"><ele>31.0</ele><time>2026-04-12T09:46:34.037Z</time></trkpt><trkpt lat="33.5757705" lon="7.8151332"><ele>31.0</ele><time>2026-04-12T09:46:35.037Z</time></trkpt><trkpt lat="33.5758542" lon="7.8152505"><ele>31.0</ele><time>2026-04-12T09:46:36.038Z</time></trkpt><trkpt lat="33.5759404" lon="7.8153708"><ele>31.0</ele><time>2026-04-12T09:46:37.037Z</time></trkpt><trkpt lat="33.5760268" lon="7.815493"><ele>31.0</ele><time>2026-04-12T09:46:38.038Z</time></trkpt><trkpt lat="33.5761089" lon="7.8156115"><ele>31.0</ele><time>2026-04-12T09:46:39.038Z</time></trkpt><trkpt lat="33.5761956" lon="7.8157331"><ele>31.0</ele><time>2026-04-12T09:46:40.034Z</time></trkpt><trkpt lat="33.5762796" lon="7.8158508"><ele>31.0</ele><time>2026-04-12T09:46:41.042Z</time></trkpt><trkpt lat="33.5763617" lon="7.8159679"><ele>31.0</ele><time>2026-04-12T09:46:42.034Z</time></trkpt><trkpt lat="33.5764492" lon="7.8160868"><ele>31.0</ele><time>2026-04-12T09:46:43.037Z</time></trkpt><trkpt lat="33.576541" lon="7.8162096"><ele>31.0</ele><time>2026-04-12T09:46:44.04Z</time></trkpt><trkpt lat="33.576628" lon="7.8163329"><ele>31.5</ele><time>2026-04-12T09:46:45.034Z</time></trkpt><trkpt lat="33.5767017" lon="7.8164432"><ele>32.0</ele><time>2026-04-12T09:46:46.034Z</time></trkpt><trkpt lat="33.5767746" lon="7.8165553"><ele>32.5</ele><time>2026-04-12T09:46:47.041Z</time></trkpt><trkpt lat="33.5768473" lon="7.8166971"><ele>33.0</ele><time>2026-04-12T09:46:47.951Z</time></trkpt><trkpt lat="33.5769088" lon="7.816778"><ele>33.199999999999996</ele><time>2026-04-12T09:46:48.955Z</time></trkpt><trkpt lat="33.5769768" lon="7.8168685"><ele>33.4</ele><time>2026-04-12T09:46:49.95Z</time></trkpt><trkpt lat="33.5770571" lon="7.8169569"><ele>33.599999999999994</ele><time>2026-04-12T09:46:50.952Z</time></trkpt><trkpt lat="33.5771316" lon="7.8170532"><ele>33.8</ele><time>2026-04-12T09:46:51.949Z</time></trkpt><trkpt lat="33.5772034" lon="7.8171614"><ele>34.0</ele><time>2026-04-12T09:46:52.953Z</time></trkpt><trkpt lat="33.5772736" lon="7.81728"><ele>33.5</ele><time>2026-04-12T09:46:53.953Z</time></trkpt><trkpt lat="33.5773555" lon="7.8174041"><ele>33.0</ele><time>2026-04-12T09:46:54.953Z</time></trkpt><trkpt lat="33.5774385" lon="7.8175236"><ele>32.5</ele><time>2026-04-12T09:46:55.953Z</time></trkpt><trkpt lat="33.5775175" lon="7.8176454"><ele>32.0</ele><time>2026-04-12T09:46:56.95Z</time></trkpt><trkpt lat="33.5775976" lon="7.8177576"><ele>32.0</ele><time>2026-04-12T09:46:57.944Z</time></trkpt><trkpt lat="33.5776799" lon="7.8178642"><ele>32.0</ele><time>2026-04-12T09:46:58.948Z</time></trkpt><trkpt lat="33.5777647" lon="7.8179785"><ele>32.0</ele><time>2026-04-12T09:46:59.946Z</time></trkpt><trkpt lat="33.5778527" lon="7.8180938"><ele>32.0</ele><time>2026-04-12T09:47:00.956Z</time></trkpt><trkpt lat="33.5779399" lon="7.818205"><ele>32.0</ele><time>2026-04-12T09:47:01.947Z</time></trkpt><trkpt lat="33.5780261" lon="7.8183189"><ele>32.0</ele><time>2026-04-12T09:47:02.951Z</time></trkpt><trkpt lat="33.5781114" lon="7.8184284"><ele>32.0</ele><time>2026-04-12T09:47:03.951Z</time></trkpt><trkpt lat="33.5781854" lon="7.8185384"><ele>32.0</ele><time>2026-04-12T09:47:04.948Z</time></trkpt><trkpt lat="33.5782567" lon="7.8186421"><ele>32.0</ele><time>2026-04-12T09:47:05.948Z</time></trkpt><trkpt lat="33.578329" lon="7.8187496"><ele>32.0</ele><time>2026-04-12T09:47:06.949Z</time></trkpt><trkpt lat="33.5784141" lon="7.8188651"><ele>32.0</ele><time>2026-04-12T09:47:07.95Z</time></trkpt><trkpt lat="33.5784924" lon="7.8189798"><ele>32.0</ele><time>2026-04-12T09:47:08.949Z</time></trkpt><trkpt lat="33.5785731" lon="7.8190957"><ele>32.0</ele><time>2026-04-12T09:47:09.95Z</time></trkpt><trkpt lat="33.5786557" lon="7.8192147"><ele>32.0</ele><time>2026-04-12T09:47:10.951Z</time></trkpt><trkpt lat="33.5787479" lon="7.8193414"><ele>32.0</ele><time>2026-04-12T09:47:11.954Z</time></trkpt><trkpt lat="33.5788441" lon="7.8194759"><ele>32.0</ele><time>2026-04-12T09:47:12.951Z</time></trkpt><trkpt lat="33.5789456" lon="7.8196296"><ele>32.33333333333333</ele><time>2026-04-12T09:47:13.951Z</time></trkpt><trkpt lat="33.5790538" lon="7.8197872"><ele>32.666666666666664</ele><time>2026-04-12T09:47:14.948Z</time></trkpt><trkpt lat="33.5791623" lon="7.8199373"><ele>33.0</ele><time>2026-04-12T09:47:15.949Z</time></trkpt><trkpt lat="33.5792609" lon="7.8200849"><ele>33.0</ele><time>2026-04-12T09:47:16.951Z</time></trkpt><trkpt lat="33.5793743" lon="7.820229"><ele>33.0</ele><time>2026-04-12T09:47:17.954Z</time></trkpt><trkpt lat="33.5794769" lon="7.8203755"><ele>33.0</ele><time>2026-04-12T09:47:18.952Z</time></trkpt><trkpt lat="33.5795744" lon="7.820516"><ele>33.0</ele><time>2026-04-12T09:47:19.949Z</time></trkpt><trkpt lat="33.5796747" lon="7.820648"><ele>33.0</ele><time>2026-04-12T09:47:20.951Z</time></trkpt><trkpt lat="33.5797666" lon="7.8207751"><ele>33.0</ele><time>2026-04-12T09:47:21.955Z</time></trkpt><trkpt lat="33.5798682" lon="7.8208964"><ele>33.0</ele><time>2026-04-12T09:47:22.953Z</time></trkpt><trkpt lat="33.5799734" lon="7.8210219"><ele>33.333333333333336</ele><time>2026-04-12T09:47:23.952Z</time></trkpt><trkpt lat="33.580077" lon="7.8211697"><ele>33.66666666666667</ele><time>2026-04-12T09:47:24.95Z</time></trkpt><trkpt lat="33.5801713" lon="7.8213142"><ele>34.0</ele><time>2026-04-12T09:47:25.95Z</time></trkpt><trkpt lat="33.5802741" lon="7.821447"><ele>33.25</ele><time>2026-04-12T09:47:26.949Z</time></trkpt><trkpt lat="33.5803607" lon="7.8215775"><ele>32.5</ele><time>2026-04-12T09:47:27.95Z</time></trkpt><trkpt lat="33.5804442" lon="7.8217073"><ele>31.75</ele><time>2026-04-12T09:47:28.952Z</time></trkpt><trkpt lat="33.5805377" lon="7.8218375"><ele>31.0</ele><time>2026-04-12T09:47:29.95Z</time></trkpt><trkpt lat="33.5806315" lon="7.8219527"><ele>30.75</ele><time>2026-04-12T09:47:30.952Z</time></trkpt><trkpt lat="33.5807294" lon="7.8220918"><ele>30.5</ele><time>2026-04-12T09:47:31.962Z</time></trkpt><trkpt lat="33.5808099" lon="7.8222235"><ele>30.25</ele><time>2026-04-12T09:47:32.949Z</time></trkpt><trkpt lat="33.5809106" lon="7.8223544"><ele>30.0</ele><time>2026-04-12T09:47:33.948Z</time></trkpt><trkpt lat="33.5809989" lon="7.8224695"><ele>30.0</ele><time>2026-04-12T09:47:34.949Z</time></trkpt><trkpt lat="33.5810849" lon="7.8225924"><ele>30.0</ele><time>2026-04-12T09:47:35.946Z</time></trkpt><trkpt lat="33.5811866" lon="7.8227071"><ele>30.0</ele><time>2026-04-12T09:47:36.949Z</time></trkpt><trkpt lat="33.5812794" lon="7.8228464"><ele>30.0</ele><time>2026-04-12T09:47:37.951Z</time></trkpt><trkpt lat="33.5813786" lon="7.8229679"><ele>31.0</ele><time>2026-04-12T09:47:38.951Z</time></trkpt><trkpt lat="33.5814652" lon="7.8231012"><ele>32.0</ele><time>2026-04-12T09:47:39.953Z</time></trkpt><trkpt lat="33.5815591" lon="7.8232168"><ele>33.0</ele><time>2026-04-12T09:47:40.952Z</time></trkpt><trkpt lat="33.5816552" lon="7.8233454"><ele>34.0</ele><time>2026-04-12T09:47:41.952Z</time></trkpt><trkpt lat="33.58174" lon="7.8234663"><ele>33.75</ele><time>2026-04-12T09:47:42.953Z</time></trkpt><trkpt lat="33.5818351" lon="7.8235996"><ele>33.5</ele><time>2026-04-12T09:47:43.952Z</time></trkpt><trkpt lat="33.5819329" lon="7.823731"><ele>33.25</ele><time>2026-04-12T09:47:44.951Z</time></trkpt><trkpt lat="33.5820331" lon="7.8238729"><ele>33.0</ele><time>2026-04-12T09:47:45.95Z</time></trkpt><trkpt lat="33.5821251" lon="7.8240028"><ele>33.75</ele><time>2026-04-12T09:47:46.952Z</time></trkpt><trkpt lat="33.582209" lon="7.8241177"><ele>34.5</ele><time>2026-04-12T09:47:47.951Z</time></trkpt><trkpt lat="33.5822988" lon="7.8242442"><ele>35.25</ele><time>2026-04-12T09:47:48.954Z</time></trkpt><trkpt lat="33.5823862" lon="7.8243684"><ele>36.0</ele><time>2026-04-12T09:47:49.95Z</time></trkpt><trkpt lat="33.5824748" lon="7.824487"><ele>36.0</ele><time>2026-04-12T09:47:50.952Z</time></trkpt><trkpt lat="33.5825545" lon="7.8245998"><ele>36.0</ele><time>2026-04-12T09:47:51.951Z</time></trkpt><trkpt lat="33.5826486" lon="7.8247225"><ele>36.0</ele><time>2026-04-12T09:47:52.953Z</time></trkpt><trkpt lat="33.5827353" lon="7.8248463"><ele>36.0</ele><time>2026-04-12T09:47:53.953Z</time></trkpt><trkpt lat="33.5828196" lon="7.8249638"><ele>35.0</ele><time>2026-04-12T09:47:54.954Z</time></trkpt><trkpt lat="33.5829124" lon="7.825092"><ele>34.0</ele><time>2026-04-12T09:47:55.951Z</time></trkpt><trkpt lat="33.5830206" lon="7.8252175"><ele>33.0</ele><time>2026-04-12T09:47:56.949Z</time></trkpt><trkpt lat="33.5831105" lon="7.8253368"><ele>32.0</ele><time>2026-04-12T09:47:57.952Z</time></trkpt><trkpt lat="33.5831799" lon="7.82543"><ele>31.8</ele><time>2026-04-12T09:47:58.955Z</time></trkpt><trkpt lat="33.5832458" lon="7.8255214"><ele>31.6</ele><time>2026-04-12T09:47:59.946Z</time></trkpt><trkpt lat="33.5833144" lon="7.8256112"><ele>31.400000000000002</ele><time>2026-04-12T09:48:00.949Z</time></trkpt><trkpt lat="33.5833757" lon="7.8257197"><ele>31.200000000000003</ele><time>2026-04-12T09:48:01.94Z</time></trkpt><trkpt lat="33.5834497" lon="7.8258402"><ele>31.0</ele><time>2026-04-12T09:48:02.952Z</time></trkpt><trkpt lat="33.5835327" lon="7.8259736"><ele>31.25</ele><time>2026-04-12T09:48:03.946Z</time></trkpt><trkpt lat="33.5836297" lon="7.8261054"><ele>31.5</ele><time>2026-04-12T09:48:04.946Z</time></trkpt><trkpt lat="33.5837157" lon="7.82623"><ele>31.75</ele><time>2026-04-12T09:48:05.946Z</time></trkpt><trkpt lat="33.5838037" lon="7.8263558"><ele>32.0</ele><time>2026-04-12T09:48:06.947Z</time></trkpt><trkpt lat="33.5838858" lon="7.8264961"><ele>32.0</ele><time>2026-04-12T09:48:07.948Z</time></trkpt><trkpt lat="33.5839867" lon="7.8266302"><ele>32.0</ele><time>2026-04-12T09:48:08.949Z</time></trkpt><trkpt lat="33.5840891" lon="7.8267776"><ele>32.0</ele><time>2026-04-12T09:48:09.948Z</time></trkpt><trkpt lat="33.58419" lon="7.8269164"><ele>32.0</ele><time>2026-04-12T09:48:10.947Z</time></trkpt><trkpt lat="33.5842799" lon="7.8270368"><ele>32.0</ele><time>2026-04-12T09:48:11.949Z</time></trkpt><trkpt lat="33.5843647" lon="7.8271605"><ele>32.0</ele><time>2026-04-12T09:48:12.948Z</time></trkpt><trkpt lat="33.5844559" lon="7.8272674"><ele>32.0</ele><time>2026-04-12T09:48:13.948Z</time></trkpt><trkpt lat="33.5845438" lon="7.8274082"><ele>32.0</ele><time>2026-04-12T09:48:14.945Z</time></trkpt><trkpt lat="33.5846408" lon="7.8275382"><ele>32.0</ele><time>2026-04-12T09:48:15.946Z</time></trkpt><trkpt lat="33.5847498" lon="7.8276826"><ele>32.0</ele><time>2026-04-12T09:48:16.945Z</time></trkpt><trkpt lat="33.5848408" lon="7.8278102"><ele>32.0</ele><time>2026-04-12T09:48:17.946Z</time></trkpt><trkpt lat="33.5849514" lon="7.8279587"><ele>32.0</ele><time>2026-04-12T09:48:18.949Z</time></trkpt><trkpt lat="33.585043" lon="7.8280977"><ele>32.0</ele><time>2026-04-12T09:48:19.946Z</time></trkpt><trkpt lat="33.5851482" lon="7.8282325"><ele>32.0</ele><time>2026-04-12T09:48:20.945Z</time></trkpt><trkpt lat="33.5852574" lon="7.828378"><ele>32.25</ele><time>2026-04-12T09:48:21.946Z</time></trkpt><trkpt lat="33.585359" lon="7.8285162"><ele>32.5</ele><time>2026-04-12T09:48:22.948Z</time></trkpt><trkpt lat="33.5854619" lon="7.828653"><ele>32.75</ele><time>2026-04-12T09:48:23.943Z</time></trkpt><trkpt lat="33.5855558" lon="7.8287763"><ele>33.0</ele><time>2026-04-12T09:48:24.947Z</time></trkpt><trkpt lat="33.5856453" lon="7.828905"><ele>33.0</ele><time>2026-04-12T09:48:25.947Z</time></trkpt><trkpt lat="33.5857235" lon="7.8290301"><ele>33.0</ele><time>2026-04-12T09:48:26.945Z</time></trkpt><trkpt lat="33.5858099" lon="7.8291656"><ele>33.0</ele><time>2026-04-12T09:48:27.947Z</time></trkpt><trkpt lat="33.5859086" lon="7.8292878"><ele>33.0</ele><time>2026-04-12T09:48:28.952Z</time></trkpt><trkpt lat="33.5860056" lon="7.8294312"><ele>32.75</ele><time>2026-04-12T09:48:29.948Z</time></trkpt><trkpt lat="33.5861008" lon="7.8295711"><ele>32.5</ele><time>2026-04-12T09:48:30.957Z</time></trkpt><trkpt lat="33.5862046" lon="7.829707"><ele>32.25</ele><time>2026-04-12T09:48:31.95Z</time></trkpt><trkpt lat="33.5862901" lon="7.8298358"><ele>32.0</ele><time>2026-04-12T09:48:32.951Z</time></trkpt><trkpt lat="33.5863776" lon="7.8299712"><ele>32.25</ele><time>2026-04-12T09:48:33.964Z</time></trkpt><trkpt lat="33.5864695" lon="7.8300888"><ele>32.5</ele><time>2026-04-12T09:48:34.947Z</time></trkpt><trkpt lat="33.5865746" lon="7.8302304"><ele>32.75</ele><time>2026-04-12T09:48:35.948Z</time></trkpt><trkpt lat="33.5866518" lon="7.8303573"><ele>33.0</ele><time>2026-04-12T09:48:36.944Z</time></trkpt><trkpt lat="33.5867181" lon="7.8304315"><ele>33.0</ele><time>2026-04-12T09:48:37.943Z</time></trkpt><trkpt lat="33.5867914" lon="7.8305281"><ele>33.0</ele><time>2026-04-12T09:48:38.944Z</time></trkpt><trkpt lat="33.5868671" lon="7.8306356"><ele>33.0</ele><time>2026-04-12T09:48:39.947Z</time></trkpt><trkpt lat="33.5869429" lon="7.8307633"><ele>33.0</ele><time>2026-04-12T09:48:40.947Z</time></trkpt><trkpt lat="33.5870376" lon="7.8308811"><ele>32.333333333333336</ele><time>2026-04-12T09:48:41.948Z</time></trkpt><trkpt lat="33.5871339" lon="7.831019"><ele>31.666666666666668</ele><time>2026-04-12T09:48:42.965Z</time></trkpt><trkpt lat="33.5872333" lon="7.8311564"><ele>31.0</ele><time>2026-04-12T09:48:43.953Z</time></trkpt><trkpt lat="33.5873336" lon="7.8313166"><ele>31.0</ele><time>2026-04-12T09:48:44.961Z</time></trkpt><trkpt lat="33.5874416" lon="7.8314621"><ele>31.0</ele><time>2026-04-12T09:48:45.957Z</time></trkpt><trkpt lat="33.5875498" lon="7.831598"><ele>31.0</ele><time>2026-04-12T09:48:46.955Z</time></trkpt><trkpt lat="33.5876707" lon="7.8317426"><ele>31.0</ele><time>2026-04-12T09:48:47.962Z</time></trkpt><trkpt lat="33.5877722" lon="7.8318745"><ele>31.0</ele><time>2026-04-12T09:48:48.961Z</time></trkpt><trkpt lat="33.5878587" lon="7.8319916"><ele>31.0</ele><time>2026-04-12T09:48:49.961Z</time></trkpt><trkpt lat="33.5879502" lon="7.8321328"><ele>31.0</ele><time>2026-04-12T09:48:50.961Z</time></trkpt><trkpt lat="33.5880416" lon="7.8322668"><ele>30.75</ele><time>2026-04-12T09:48:51.964Z</time></trkpt><trkpt lat="33.5881325" lon="7.832388"><ele>30.5</ele><time>2026-04-12T09:48:52.96Z</time></trkpt><trkpt lat="33.5882167" lon="7.8325217"><ele>30.25</ele><time>2026-04-12T09:48:53.961Z</time></trkpt><trkpt lat="33.5883044" lon="7.8326602"><ele>30.0</ele><time>2026-04-12T09:48:54.961Z</time></trkpt><trkpt lat="33.5883811" lon="7.8327688"><ele>29.75</ele><time>2026-04-12T09:48:55.961Z</time></trkpt><trkpt lat="33.5884843" lon="7.8328965"><ele>29.5</ele><time>2026-04-12T09:48:56.96Z</time></trkpt><trkpt lat="33.588571" lon="7.8330094"><ele>29.25</ele><time>2026-04-12T09:48:57.96Z</time></trkpt><trkpt lat="33.5886514" lon="7.8331213"><ele>29.0</ele><time>2026-04-12T09:48:58.964Z</time></trkpt><trkpt lat="33.5887365" lon="7.8332318"><ele>29.0</ele><time>2026-04-12T09:48:59.962Z</time></trkpt><trkpt lat="33.5888218" lon="7.8333549"><ele>29.0</ele><time>2026-04-12T09:49:00.96Z</time></trkpt><trkpt lat="33.5889111" lon="7.8334808"><ele>29.0</ele><time>2026-04-12T09:49:01.958Z</time></trkpt><trkpt lat="33.5890039" lon="7.8336089"><ele>29.0</ele><time>2026-04-12T09:49:03.029Z</time></trkpt><trkpt lat="33.5890989" lon="7.8337355"><ele>29.0</ele><time>2026-04-12T09:49:04.031Z</time></trkpt><trkpt lat="33.5891951" lon="7.8338675"><ele>29.0</ele><time>2026-04-12T09:49:05.043Z</time></trkpt><trkpt lat="33.5892913" lon="7.8340003"><ele>29.0</ele><time>2026-04-12T09:49:06.032Z</time></trkpt><trkpt lat="33.5893878" lon="7.8341333"><ele>29.0</ele><time>2026-04-12T09:49:07.035Z</time></trkpt><trkpt lat="33.5894826" lon="7.8342686"><ele>30.0</ele><time>2026-04-12T09:49:08.034Z</time></trkpt><trkpt lat="33.5895808" lon="7.8344073"><ele>31.0</ele><time>2026-04-12T09:49:09.032Z</time></trkpt><trkpt lat="33.5896831" lon="7.8345471"><ele>32.0</ele><time>2026-04-12T09:49:10.035Z</time></trkpt><trkpt lat="33.5897855" lon="7.8346856"><ele>32.0</ele><time>2026-04-12T09:49:11.036Z</time></trkpt><trkpt lat="33.5898833" lon="7.8348204"><ele>32.0</ele><time>2026-04-12T09:49:12.033Z</time></trkpt><trkpt lat="33.5899757" lon="7.834952"><ele>32.0</ele><time>2026-04-12T09:49:13.035Z</time></trkpt><trkpt lat="33.5900547" lon="7.8350967"><ele>32.0</ele><time>2026-04-12T09:49:14.035Z</time></trkpt><trkpt lat="33.590146" lon="7.8352158"><ele>32.25</ele><time>2026-04-12T09:49:15.036Z</time></trkpt><trkpt lat="33.5902312" lon="7.8353321"><ele>32.5</ele><time>2026-04-12T09:49:16.039Z</time></trkpt><trkpt lat="33.5903127" lon="7.8354437"><ele>32.75</ele><time>2026-04-12T09:49:17.038Z</time></trkpt><trkpt lat="33.5903966" lon="7.8355599"><ele>33.0</ele><time>2026-04-12T09:49:18.038Z</time></trkpt><trkpt lat="33.5904762" lon="7.8356724"><ele>32.5</ele><time>2026-04-12T09:49:19.04Z</time></trkpt><trkpt lat="33.5905536" lon="7.8357796"><ele>32.0</ele><time>2026-04-12T09:49:20.036Z</time></trkpt><trkpt lat="33.5906351" lon="7.8358885"><ele>31.5</ele><time>2026-04-12T09:49:21.038Z</time></trkpt><trkpt lat="33.5907219" lon="7.8360093"><ele>31.0</ele><time>2026-04-12T09:49:22.038Z</time></trkpt><trkpt lat="33.5908135" lon="7.8361376"><ele>30.666666666666668</ele><time>2026-04-12T09:49:23.038Z</time></trkpt><trkpt lat="33.5909103" lon="7.8362736"><ele>30.333333333333336</ele><time>2026-04-12T09:49:24.039Z</time></trkpt><trkpt lat="33.5910091" lon="7.8364133"><ele>30.0</ele><time>2026-04-12T09:49:25.037Z</time></trkpt><trkpt lat="33.5911136" lon="7.8365572"><ele>30.0</ele><time>2026-04-12T09:49:26.035Z</time></trkpt><trkpt lat="33.5912144" lon="7.8366969"><ele>30.0</ele><time>2026-04-12T09:49:27.033Z</time></trkpt><trkpt lat="33.5913086" lon="7.8368325"><ele>30.0</ele><time>2026-04-12T09:49:28.04Z</time></trkpt><trkpt lat="33.5914039" lon="7.8369679"><ele>30.0</ele><time>2026-04-12T09:49:29.039Z</time></trkpt><trkpt lat="33.5914992" lon="7.8370983"><ele>30.25</ele><time>2026-04-12T09:49:30.037Z</time></trkpt><trkpt lat="33.5915976" lon="7.8372288"><ele>30.5</ele><time>2026-04-12T09:49:31.04Z</time></trkpt><trkpt lat="33.591693" lon="7.8373561"><ele>30.75</ele><time>2026-04-12T09:49:32.035Z</time></trkpt><trkpt lat="33.5917881" lon="7.8374808"><ele>31.0</ele><time>2026-04-12T09:49:33.037Z</time></trkpt><trkpt lat="33.5918796" lon="7.8376046"><ele>31.0</ele><time>2026-04-12T09:49:34.037Z</time></trkpt><trkpt lat="33.5919749" lon="7.837731"><ele>31.0</ele><time>2026-04-12T09:49:35.039Z</time></trkpt><trkpt lat="33.5920694" lon="7.8378582"><ele>31.0</ele><time>2026-04-12T09:49:36.054Z</time></trkpt><trkpt lat="33.5921569" lon="7.8379849"><ele>31.0</ele><time>2026-04-12T09:49:37.039Z</time></trkpt><trkpt lat="33.5922446" lon="7.838115"><ele>31.0</ele><time>2026-04-12T09:49:38.038Z</time></trkpt><trkpt lat="33.592338" lon="7.8382455"><ele>31.0</ele><time>2026-04-12T09:49:39.035Z</time></trkpt><trkpt lat="33.5924369" lon="7.8383781"><ele>31.0</ele><time>2026-04-12T09:49:40.036Z</time></trkpt><trkpt lat="33.5925358" lon="7.8385129"><ele>31.0</ele><time>2026-04-12T09:49:41.037Z</time></trkpt><trkpt lat="33.5926343" lon="7.8386542"><ele>30.75</ele><time>2026-04-12T09:49:42.031Z</time></trkpt><trkpt lat="33.5927326" lon="7.8387941"><ele>30.5</ele><time>2026-04-12T09:49:43.036Z</time></trkpt><trkpt lat="33.5928284" lon="7.8389291"><ele>30.25</ele><time>2026-04-12T09:49:44.037Z</time></trkpt><trkpt lat="33.5929222" lon="7.8390626"><ele>30.0</ele><time>2026-04-12T09:49:45.035Z</time></trkpt><trkpt lat="33.5930147" lon="7.839185"><ele>30.5</ele><time>2026-04-12T09:49:46.031Z</time></trkpt><trkpt lat="33.5931015" lon="7.839305"><ele>31.0</ele><time>2026-04-12T09:49:47.036Z</time></trkpt><trkpt lat="33.5931883" lon="7.8394237"><ele>31.5</ele><time>2026-04-12T09:49:48.033Z</time></trkpt><trkpt lat="33.5932767" lon="7.8395376"><ele>32.0</ele><time>2026-04-12T09:49:49.036Z</time></trkpt><trkpt lat="33.5933733" lon="7.839649"><ele>32.0</ele><time>2026-04-12T09:49:50.031Z</time></trkpt><trkpt lat="33.5934729" lon="7.8397538"><ele>32.0</ele><time>2026-04-12T09:49:51.036Z</time></trkpt><trkpt lat="33.5935685" lon="7.8398528"><ele>32.0</ele><time>2026-04-12T09:49:52.018Z</time></trkpt><trkpt lat="33.5936543" lon="7.8399467"><ele>32.0</ele><time>2026-04-12T09:49:53.017Z</time></trkpt><trkpt lat="33.5937099" lon="7.8400313"><ele>31.5</ele><time>2026-04-12T09:49:54.01Z</time></trkpt><trkpt lat="33.5937657" lon="7.8401354"><ele>31.0</ele><time>2026-04-12T09:49:55.009Z</time></trkpt><trkpt lat="33.5944491" lon="7.8412446"><ele>31.0</ele><time>2026-04-12T09:50:03.041Z</time></trkpt><trkpt lat="33.5966674" lon="7.8443049"><ele>30.0</ele><time>2026-04-12T09:50:24.043Z</time></trkpt><trkpt lat="33.5989352" lon="7.8474927"><ele>33.0</ele><time>2026-04-12T09:50:46.043Z</time></trkpt><trkpt lat="33.6007431" lon="7.8499712"><ele>32.0</ele><time>2026-04-12T09:51:06.042Z</time></trkpt><trkpt lat="33.6025484" lon="7.8525353"><ele>30.0</ele><time>2026-04-12T09:51:29.046Z</time></trkpt><trkpt lat="33.6038897" lon="7.854412"><ele>29.0</ele><time>2026-04-12T09:51:45.04Z</time></trkpt><trkpt lat="33.6057028" lon="7.8568906"><ele>32.0</ele><time>2026-04-12T09:52:07.04Z</time></trkpt><trkpt lat="33.607506" lon="7.8594042"><ele>31.0</ele><time>2026-04-12T09:52:31.046Z</time></trkpt><trkpt lat="33.6093259" lon="7.8619352"><ele>27.0</ele><time>2026-04-12T09:53:01.042Z</time></trkpt><trkpt lat="33.6106644" lon="7.8638316"><ele>30.0</ele><time>2026-04-12T09:53:20.046Z</time></trkpt><trkpt lat="33.6124727" lon="7.8663521"><ele>30.0</ele><time>2026-04-12T09:53:46.046Z</time></trkpt><trkpt lat="33.6138589" lon="7.8682736"><ele>29.0</ele><time>2026-04-12T09:54:06.04Z</time></trkpt><trkpt lat="33.6149786" lon="7.8702965"><ele>27.0</ele><time>2026-04-12T09:55:29.048Z</time></trkpt><trkpt lat="33.6148263" lon="7.8719058"><ele>30.0</ele><time>2026-04-12T09:55:52.952Z</time></trkpt><trkpt lat="33.6135327" lon="7.8723976"><ele>27.0</ele><time>2026-04-12T09:56:04.961Z</time></trkpt><trkpt lat="33.6114683" lon="7.8730824"><ele>31.0</ele><time>2026-04-12T09:56:22.965Z</time></trkpt><trkpt lat="33.6087721" lon="7.8741169"><ele>28.0</ele><time>2026-04-12T09:56:45.981Z</time></trkpt><trkpt lat="33.6060866" lon="7.8747262"><ele>28.0</ele><time>2026-04-12T09:57:04.983Z</time></trkpt><trkpt lat="33.6033364" lon="7.8755699"><ele>31.0</ele><time>2026-04-12T09:57:23.984Z</time></trkpt><trkpt lat="33.6005448" lon="7.8761914"><ele>30.0</ele><time>2026-04-12T09:57:43.97Z</time></trkpt><trkpt lat="33.5978515" lon="7.8767259"><ele>29.0</ele><time>2026-04-12T09:58:05.968Z</time></trkpt><trkpt lat="33.5952052" lon="7.8777115"><ele>29.0</ele><time>2026-04-12T09:58:25.975Z</time></trkpt><trkpt lat="33.5926188" lon="7.8787069"><ele>29.0</ele><time>2026-04-12T09:58:45.055Z</time></trkpt><trkpt lat="33.5899123" lon="7.8797213"><ele>30.0</ele><time>2026-04-12T09:59:04.067Z</time></trkpt><trkpt lat="33.5872622" lon="7.8807249"><ele>30.0</ele><time>2026-04-12T09:59:24.081Z</time></trkpt><trkpt lat="33.5846768" lon="7.8817587"><ele>31.0</ele><time>2026-04-12T09:59:42.063Z</time></trkpt><trkpt lat="33.5814109" lon="7.8830922"><ele>30.0</ele><time>2026-04-12T10:00:06.019Z</time></trkpt><trkpt lat="33.5794655" lon="7.8838439"><ele>29.0</ele><time>2026-04-12T10:00:21.019Z</time></trkpt><trkpt lat="33.5769752" lon="7.8851455"><ele>31.0</ele><time>2026-04-12T10:00:45.03Z</time></trkpt><trkpt lat="33.5750484" lon="7.8862699"><ele>29.0</ele><time>2026-04-12T10:01:02.939Z</time></trkpt><trkpt lat="33.572601" lon="7.8878611"><ele>31.0</ele><time>2026-04-12T10:01:24.931Z</time></trkpt><trkpt lat="33.5702046" lon="7.8896117"><ele>32.0</ele><time>2026-04-12T10:01:47.93Z</time></trkpt><trkpt lat="33.5679777" lon="7.8914568"><ele>31.0</ele><time>2026-04-12T10:02:08.939Z</time></trkpt><trkpt lat="33.5657646" lon="7.8933504"><ele>28.0</ele><time>2026-04-12T10:02:32.95Z</time></trkpt><trkpt lat="33.5634916" lon="7.8951661"><ele>30.0</ele><time>2026-04-12T10:02:54.944Z</time></trkpt><trkpt lat="33.5611159" lon="7.8967857"><ele>29.0</ele><time>2026-04-12T10:03:16.935Z</time></trkpt><trkpt lat="33.5587438" lon="7.8984506"><ele>32.0</ele><time>2026-04-12T10:03:37.943Z</time></trkpt><trkpt lat="33.5562625" lon="7.900045"><ele>31.0</ele><time>2026-04-12T10:03:58.948Z</time></trkpt><trkpt lat="33.5539193" lon="7.9016681"><ele>32.0</ele><time>2026-04-12T10:04:23.027Z</time></trkpt><trkpt lat="33.5526965" lon="7.9024633"><ele>30.0</ele><time>2026-04-12T10:06:59.045Z</time></trkpt><trkpt lat="33.5508503" lon="7.9036856"><ele>33.0</ele><time>2026-04-12T10:07:18.033Z</time></trkpt><trkpt lat="33.548399" lon="7.9052577"><ele>30.0</ele><time>2026-04-12T10:07:41.029Z</time></trkpt><trkpt lat="33.5459871" lon="7.9067489"><ele>33.0</ele><time>2026-04-12T10:08:04.044Z</time></trkpt><trkpt lat="33.5434751" lon="7.9081897"><ele>31.0</ele><time>2026-04-12T10:08:27.031Z</time></trkpt><trkpt lat="33.5409963" lon="7.9095782"><ele>33.0</ele><time>2026-04-12T10:08:50.028Z</time></trkpt><trkpt lat="33.5384914" lon="7.9109023"><ele>34.0</ele><time>2026-04-12T10:09:12.022Z</time></trkpt><trkpt lat="33.5347072" lon="7.9128751"><ele>34.0</ele><time>2026-04-12T10:09:47.025Z</time></trkpt><trkpt lat="33.5326809" lon="7.9137415"><ele>34.0</ele><time>2026-04-12T10:10:05.041Z</time></trkpt><trkpt lat="33.5299717" lon="7.9144425"><ele>33.0</ele><time>2026-04-12T10:10:28.023Z</time></trkpt><trkpt lat="33.5273552" lon="7.9155265"><ele>33.0</ele><time>2026-04-12T10:10:50.029Z</time></trkpt><trkpt lat="33.5247386" lon="7.9164222"><ele>33.0</ele><time>2026-04-12T10:11:10.025Z</time></trkpt><trkpt lat="33.5219938" lon="7.9172887"><ele>32.0</ele><time>2026-04-12T10:11:30.029Z</time></trkpt><trkpt lat="33.5188197" lon="7.9189658"><ele>34.0</ele><time>2026-04-12T10:11:56.025Z</time></trkpt><trkpt lat="33.5158946" lon="7.9210279"><ele>33.0</ele><time>2026-04-12T10:12:19.937Z</time></trkpt><trkpt lat="33.513347" lon="7.9222904"><ele>35.0</ele><time>2026-04-12T10:12:41.934Z</time></trkpt><trkpt lat="33.5107566" lon="7.9232629"><ele>34.0</ele><time>2026-04-12T10:13:02.929Z</time></trkpt><trkpt lat="33.5089578" lon="7.924572"><ele>33.0</ele><time>2026-04-12T10:13:19.936Z</time></trkpt><trkpt lat="33.5065126" lon="7.9261924"><ele>35.0</ele><time>2026-04-12T10:13:41.932Z</time></trkpt><trkpt lat="33.5038639" lon="7.9272414"><ele>32.0</ele><time>2026-04-12T10:14:07.928Z</time></trkpt><trkpt lat="33.5010772" lon="7.9278314"><ele>34.0</ele><time>2026-04-12T10:14:30.942Z</time></trkpt><trkpt lat="33.4985825" lon="7.9291316"><ele>33.0</ele><time>2026-04-12T10:14:51.936Z</time></trkpt><trkpt lat="33.4959594" lon="7.9304379"><ele>35.0</ele><time>2026-04-12T10:15:13.021Z</time></trkpt><trkpt lat="33.4914931" lon="7.9327045"><ele>32.0</ele><time>2026-04-12T10:15:49.02Z</time></trkpt><trkpt lat="33.4890032" lon="7.9341207"><ele>33.0</ele><time>2026-04-12T10:16:12.023Z</time></trkpt><trkpt lat="33.4864693" lon="7.9353834"><ele>33.0</ele><time>2026-04-12T10:16:33.03Z</time></trkpt><trkpt lat="33.4839898" lon="7.9367293"><ele>30.0</ele><time>2026-04-12T10:16:53.029Z</time></trkpt><trkpt lat="33.4814112" lon="7.9379241"><ele>37.0</ele><time>2026-04-12T10:17:13.033Z</time></trkpt><trkpt lat="33.4788389" lon="7.9390446"><ele>37.0</ele><time>2026-04-12T10:17:33.032Z</time></trkpt><trkpt lat="33.4762244" lon="7.9401848"><ele>35.0</ele><time>2026-04-12T10:17:54.032Z</time></trkpt><trkpt lat="33.4743348" lon="7.9412018"><ele>35.0</ele><time>2026-04-12T10:18:12.028Z</time></trkpt><trkpt lat="33.47257" lon="7.9425741"><ele>36.0</ele><time>2026-04-12T10:18:29.033Z</time></trkpt><trkpt lat="33.4708561" lon="7.9439212"><ele>33.0</ele><time>2026-04-12T10:18:47.031Z</time></trkpt><trkpt lat="33.4691912" lon="7.9454471"><ele>33.0</ele><time>2026-04-12T10:19:05.03Z</time></trkpt><trkpt lat="33.4675146" lon="7.9470006"><ele>32.0</ele><time>2026-04-12T10:19:22.032Z</time></trkpt><trkpt lat="33.4654061" lon="7.9491173"><ele>34.0</ele><time>2026-04-12T10:19:44.029Z</time></trkpt><trkpt lat="33.4632709" lon="7.9511816"><ele>33.0</ele><time>2026-04-12T10:20:05.027Z</time></trkpt><trkpt lat="33.4611939" lon="7.9532549"><ele>34.0</ele><time>2026-04-12T10:20:26.025Z</time></trkpt><trkpt lat="33.4591134" lon="7.9553252"><ele>36.0</ele><time>2026-04-12T10:20:48.011Z</time></trkpt><trkpt lat="33.4569482" lon="7.9573727"><ele>36.0</ele><time>2026-04-12T10:21:09.029Z</time></trkpt><trkpt lat="33.4547534" lon="7.9595136"><ele>35.0</ele><time>2026-04-12T10:21:29.022Z</time></trkpt><trkpt lat="33.4527806" lon="7.961828"><ele>36.0</ele><time>2026-04-12T10:21:55.936Z</time></trkpt><trkpt lat="33.4513161" lon="7.9636665"><ele>32.0</ele><time>2026-04-12T10:58:23.016Z</time></trkpt><trkpt lat="33.4497963" lon="7.9653539"><ele>33.0</ele><time>2026-04-12T10:58:43.018Z</time></trkpt><trkpt lat="33.448439" lon="7.9672829"><ele>34.0</ele><time>2026-04-12T10:59:06.004Z</time></trkpt><trkpt lat="33.4467633" lon="7.9686748"><ele>37.0</ele><time>2026-04-12T10:59:26.093Z</time></trkpt><trkpt lat="33.4452279" lon="7.9703691"><ele>35.0</ele><time>2026-04-12T10:59:45.099Z</time></trkpt><trkpt lat="33.4436861" lon="7.9719546"><ele>40.0</ele><time>2026-04-12T11:00:05.091Z</time></trkpt><trkpt lat="33.44164" lon="7.9741771"><ele>34.0</ele><time>2026-04-12T11:00:38.063Z</time></trkpt><trkpt lat="33.4400279" lon="7.9758185"><ele>38.0</ele><time>2026-04-12T11:00:59.101Z</time></trkpt><trkpt lat="33.438456" lon="7.9775325"><ele>35.0</ele><time>2026-04-12T11:01:20.101Z</time></trkpt><trkpt lat="33.4367076" lon="7.978843"><ele>37.0</ele><time>2026-04-12T11:01:38.083Z</time></trkpt><trkpt lat="33.4349304" lon="7.9801684"><ele>38.0</ele><time>2026-04-12T11:01:56.074Z</time></trkpt><trkpt lat="33.4332729" lon="7.9818905"><ele>36.0</ele><time>2026-04-12T11:02:11.091Z</time></trkpt><trkpt lat="33.4301847" lon="7.9852393"><ele>36.0</ele><time>2026-04-12T11:02:50.09Z</time></trkpt><trkpt lat="33.4285415" lon="7.9878051"><ele>35.0</ele><time>2026-04-12T11:03:18.089Z</time></trkpt><trkpt lat="33.4284216" lon="7.9903392"><ele>35.0</ele><time>2026-04-12T11:03:57.108Z</time></trkpt><trkpt lat="33.4281769" lon="7.9935934"><ele>33.0</ele><time>2026-04-12T11:04:21.091Z</time></trkpt><trkpt lat="33.428029" lon="7.9960277"><ele>35.0</ele><time>2026-04-12T11:04:40.081Z</time></trkpt><trkpt lat="33.4277789" lon="7.9993545"><ele>36.0</ele><time>2026-04-12T11:05:05.092Z</time></trkpt><trkpt lat="33.4276689" lon="8.0010119"><ele>36.0</ele><time>2026-04-12T11:05:16.107Z</time></trkpt><trkpt lat="33.4275225" lon="8.0028133"><ele>36.0</ele><time>2026-04-12T11:05:25.085Z</time></trkpt><trkpt lat="33.4272174" lon="8.0070142"><ele>33.0</ele><time>2026-04-12T11:05:46.084Z</time></trkpt><trkpt lat="33.4269082" lon="8.011863"><ele>34.0</ele><time>2026-04-12T11:06:14.086Z</time></trkpt><trkpt lat="33.4267028" lon="8.0151488"><ele>35.0</ele><time>2026-04-12T11:06:33.088Z</time></trkpt><trkpt lat="33.4264316" lon="8.0183905"><ele>33.0</ele><time>2026-04-12T11:06:54.091Z</time></trkpt><trkpt lat="33.4262041" lon="8.0216356"><ele>34.0</ele><time>2026-04-12T11:07:15.088Z</time></trkpt><trkpt lat="33.4260126" lon="8.0241524"><ele>35.0</ele><time>2026-04-12T11:07:31.092Z</time></trkpt><trkpt lat="33.425786" lon="8.0275565"><ele>37.0</ele><time>2026-04-12T11:07:51.085Z</time></trkpt><trkpt lat="33.4254199" lon="8.0315978"><ele>31.0</ele><time>2026-04-12T11:08:14.065Z</time></trkpt><trkpt lat="33.4252601" lon="8.0348951"><ele>35.0</ele><time>2026-04-12T11:08:32.087Z</time></trkpt><trkpt lat="33.425033" lon="8.0382312"><ele>39.0</ele><time>2026-04-12T11:08:50.003Z</time></trkpt><trkpt lat="33.4247921" lon="8.0414449"><ele>32.0</ele><time>2026-04-12T11:09:09.996Z</time></trkpt><trkpt lat="33.4246295" lon="8.0439016"><ele>35.0</ele><time>2026-04-12T11:09:27.982Z</time></trkpt><trkpt lat="33.4244607" lon="8.0463196"><ele>33.0</ele><time>2026-04-12T11:10:52.01Z</time></trkpt><trkpt lat="33.4242942" lon="8.0488104"><ele>30.0</ele><time>2026-04-12T11:11:09.999Z</time></trkpt><trkpt lat="33.4240292" lon="8.052136"><ele>32.0</ele><time>2026-04-12T11:11:30.999Z</time></trkpt><trkpt lat="33.4237305" lon="8.05538"><ele>34.0</ele><time>2026-04-12T11:11:49.995Z</time></trkpt><trkpt lat="33.4235505" lon="8.0586679"><ele>35.0</ele><time>2026-04-12T11:12:12.079Z</time></trkpt><trkpt lat="33.4232857" lon="8.0619035"><ele>33.0</ele><time>2026-04-12T11:12:34.082Z</time></trkpt><trkpt lat="33.4231758" lon="8.0643621"><ele>32.0</ele><time>2026-04-12T11:12:49.997Z</time></trkpt><trkpt lat="33.4228319" lon="8.0676937"><ele>34.0</ele><time>2026-04-12T11:13:13.999Z</time></trkpt><trkpt lat="33.4226992" lon="8.0709284"><ele>34.0</ele><time>2026-04-12T11:13:36.004Z</time></trkpt><trkpt lat="33.4224594" lon="8.0741695"><ele>33.0</ele><time>2026-04-12T11:13:57.996Z</time></trkpt><trkpt lat="33.4222042" lon="8.0774238"><ele>33.0</ele><time>2026-04-12T11:14:19.998Z</time></trkpt><trkpt lat="33.4219846" lon="8.0807542"><ele>35.0</ele><time>2026-04-12T11:16:17.111Z</time></trkpt><trkpt lat="33.421807" lon="8.0832213"><ele>35.0</ele><time>2026-04-12T11:16:38.059Z</time></trkpt><trkpt lat="33.4215587" lon="8.0865677"><ele>36.0</ele><time>2026-04-12T11:17:00.088Z</time></trkpt><trkpt lat="33.4213235" lon="8.0897978"><ele>35.0</ele><time>2026-04-12T11:17:21.088Z</time></trkpt><trkpt lat="33.421118" lon="8.0930475"><ele>36.0</ele><time>2026-04-12T11:17:46.083Z</time></trkpt><trkpt lat="33.4209466" lon="8.0955337"><ele>35.0</ele><time>2026-04-12T11:18:05.086Z</time></trkpt><trkpt lat="33.4206583" lon="8.0988551"><ele>35.0</ele><time>2026-04-12T11:18:27.085Z</time></trkpt><trkpt lat="33.420438" lon="8.1022108"><ele>34.0</ele><time>2026-04-12T11:18:48.002Z</time></trkpt><trkpt lat="33.4201895" lon="8.1054957"><ele>33.0</ele><time>2026-04-12T11:19:08.996Z</time></trkpt><trkpt lat="33.4199386" lon="8.1088706"><ele>34.0</ele><time>2026-04-12T11:19:29.995Z</time></trkpt><trkpt lat="33.4197175" lon="8.1121647"><ele>32.0</ele><time>2026-04-12T11:19:52.002Z</time></trkpt><trkpt lat="33.4194447" lon="8.1154891"><ele>31.0</ele><time>2026-04-12T11:20:14.004Z</time></trkpt><trkpt lat="33.4191785" lon="8.1188126"><ele>32.0</ele><time>2026-04-12T11:20:34.999Z</time></trkpt><trkpt lat="33.4189269" lon="8.1220615"><ele>33.0</ele><time>2026-04-12T11:20:55.005Z</time></trkpt><trkpt lat="33.4187235" lon="8.12535"><ele>32.0</ele><time>2026-04-12T11:21:16.995Z</time></trkpt><trkpt lat="33.4184927" lon="8.1286386"><ele>32.0</ele><time>2026-04-12T11:21:39.081Z</time></trkpt><trkpt lat="33.4182802" lon="8.1319031"><ele>32.0</ele><time>2026-04-12T11:22:00.086Z</time></trkpt><trkpt lat="33.418074" lon="8.134379"><ele>32.0</ele><time>2026-04-12T11:22:16.078Z</time></trkpt><trkpt lat="33.4174766" lon="8.1375907"><ele>34.0</ele><time>2026-04-12T11:22:38.088Z</time></trkpt><trkpt lat="33.4172289" lon="8.1408514"><ele>33.0</ele><time>2026-04-12T11:23:05.07Z</time></trkpt><trkpt lat="33.4173688" lon="8.1442153"><ele>31.0</ele><time>2026-04-12T11:23:30.085Z</time></trkpt><trkpt lat="33.4171668" lon="8.1474724"><ele>30.0</ele><time>2026-04-12T11:23:52.082Z</time></trkpt><trkpt lat="33.4168758" lon="8.1507124"><ele>31.0</ele><time>2026-04-12T11:24:12.078Z</time></trkpt><trkpt lat="33.4166728" lon="8.1539802"><ele>30.0</ele><time>2026-04-12T11:24:35.078Z</time></trkpt><trkpt lat="33.41655" lon="8.155643"><ele>33.0</ele><time>2026-04-12T11:24:45.081Z</time></trkpt><trkpt lat="33.4163219" lon="8.1589957"><ele>29.0</ele><time>2026-04-12T11:25:09.082Z</time></trkpt><trkpt lat="33.4160543" lon="8.1623303"><ele>28.0</ele><time>2026-04-12T11:25:32.069Z</time></trkpt><trkpt lat="33.4158176" lon="8.1655588"><ele>31.0</ele><time>2026-04-12T11:25:56.078Z</time></trkpt><trkpt lat="33.4155645" lon="8.1687971"><ele>26.0</ele><time>2026-04-12T11:26:16.061Z</time></trkpt><trkpt lat="33.4153171" lon="8.1721147"><ele>31.0</ele><time>2026-04-12T11:27:13.089Z</time></trkpt><trkpt lat="33.4151409" lon="8.1746821"><ele>29.0</ele><time>2026-04-12T11:27:29.076Z</time></trkpt><trkpt lat="33.414906" lon="8.1780091"><ele>23.0</ele><time>2026-04-12T11:27:46.994Z</time></trkpt><trkpt lat="33.4145865" lon="8.1820261"><ele>31.0</ele><time>2026-04-12T11:28:11.987Z</time></trkpt><trkpt lat="33.414415" lon="8.1844786"><ele>35.0</ele><time>2026-04-12T11:28:29.989Z</time></trkpt><trkpt lat="33.4143135" lon="8.1870153"><ele>33.0</ele><time>2026-04-12T11:28:50.982Z</time></trkpt><trkpt lat="33.4140458" lon="8.1894723"><ele>33.0</ele><time>2026-04-12T11:29:11.989Z</time></trkpt><trkpt lat="33.4139173" lon="8.1918896"><ele>31.0</ele><time>2026-04-12T11:29:33.99Z</time></trkpt><trkpt lat="33.4137144" lon="8.1943383"><ele>32.0</ele><time>2026-04-12T11:29:56.984Z</time></trkpt><trkpt lat="33.4135589" lon="8.1959663"><ele>30.0</ele><time>2026-04-12T11:30:16.982Z</time></trkpt><trkpt lat="33.4133959" lon="8.1984933"><ele>29.0</ele><time>2026-04-12T11:30:34.977Z</time></trkpt><trkpt lat="33.4131891" lon="8.2017882"><ele>34.0</ele><time>2026-04-12T11:30:56.981Z</time></trkpt><trkpt lat="33.4129373" lon="8.2051677"><ele>31.0</ele><time>2026-04-12T11:31:17.977Z</time></trkpt><trkpt lat="33.4127303" lon="8.2084449"><ele>31.0</ele><time>2026-04-12T11:31:38.966Z</time></trkpt><trkpt lat="33.412513" lon="8.2117673"><ele>31.0</ele><time>2026-04-12T11:32:02.981Z</time></trkpt><trkpt lat="33.4121892" lon="8.2150128"><ele>27.0</ele><time>2026-04-12T11:32:25.982Z</time></trkpt><trkpt lat="33.4120698" lon="8.2174753"><ele>27.0</ele><time>2026-04-12T11:37:34.988Z</time></trkpt><trkpt lat="33.411826" lon="8.2207981"><ele>27.0</ele><time>2026-04-12T11:37:54.974Z</time></trkpt><trkpt lat="33.411568" lon="8.2241634"><ele>30.0</ele><time>2026-04-12T11:38:12.963Z</time></trkpt><trkpt lat="33.4113001" lon="8.228276"><ele>30.0</ele><time>2026-04-12T11:38:32.962Z</time></trkpt><trkpt lat="33.4110005" lon="8.2323311"><ele>27.0</ele><time>2026-04-12T11:38:51.971Z</time></trkpt><trkpt lat="33.4106822" lon="8.2364592"><ele>26.0</ele><time>2026-04-12T11:39:10.958Z</time></trkpt><trkpt lat="33.4104067" lon="8.240557"><ele>26.0</ele><time>2026-04-12T11:39:29.971Z</time></trkpt><trkpt lat="33.4100972" lon="8.244633"><ele>27.0</ele><time>2026-04-12T11:39:48.974Z</time></trkpt><trkpt lat="33.4097608" lon="8.2488239"><ele>27.0</ele><time>2026-04-12T11:40:07.964Z</time></trkpt><trkpt lat="33.4094582" lon="8.2528484"><ele>29.0</ele><time>2026-04-12T11:40:27.052Z</time></trkpt><trkpt lat="33.4091847" lon="8.2568805"><ele>27.0</ele><time>2026-04-12T11:40:45.051Z</time></trkpt><trkpt lat="33.4089141" lon="8.2609385"><ele>26.0</ele><time>2026-04-12T11:41:03.054Z</time></trkpt><trkpt lat="33.4086136" lon="8.2651423"><ele>28.0</ele><time>2026-04-12T11:41:23.058Z</time></trkpt><trkpt lat="33.408313" lon="8.2693628"><ele>28.0</ele><time>2026-04-12T11:41:41.047Z</time></trkpt><trkpt lat="33.407999" lon="8.2734599"><ele>28.0</ele><time>2026-04-12T11:41:59.053Z</time></trkpt><trkpt lat="33.407731" lon="8.2775844"><ele>28.0</ele><time>2026-04-12T11:42:17.049Z</time></trkpt><trkpt lat="33.4074709" lon="8.2816427"><ele>28.0</ele><time>2026-04-12T11:42:35.05Z</time></trkpt><trkpt lat="33.4071274" lon="8.2857619"><ele>24.0</ele><time>2026-04-12T11:42:53.05Z</time></trkpt><trkpt lat="33.4068427" lon="8.2899197"><ele>24.0</ele><time>2026-04-12T11:43:11.046Z</time></trkpt><trkpt lat="33.4065742" lon="8.2940315"><ele>24.0</ele><time>2026-04-12T11:43:28.047Z</time></trkpt><trkpt lat="33.4062885" lon="8.2981245"><ele>25.0</ele><time>2026-04-12T11:43:45.047Z</time></trkpt><trkpt lat="33.4059203" lon="8.3031014"><ele>22.0</ele><time>2026-04-12T11:44:05.059Z</time></trkpt><trkpt lat="33.4056438" lon="8.3072821"><ele>22.0</ele><time>2026-04-12T11:44:24.055Z</time></trkpt><trkpt lat="33.4053801" lon="8.3113525"><ele>26.0</ele><time>2026-04-12T11:44:43.055Z</time></trkpt><trkpt lat="33.4050773" lon="8.3154499"><ele>25.0</ele><time>2026-04-12T11:45:01.051Z</time></trkpt><trkpt lat="33.4047546" lon="8.3195368"><ele>27.0</ele><time>2026-04-12T11:45:18.045Z</time></trkpt><trkpt lat="33.4043933" lon="8.3245718"><ele>27.0</ele><time>2026-04-12T11:45:40.043Z</time></trkpt><trkpt lat="33.4041223" lon="8.3287615"><ele>23.0</ele><time>2026-04-12T11:45:57.045Z</time></trkpt><trkpt lat="33.4038363" lon="8.3328701"><ele>27.0</ele><time>2026-04-12T11:46:15.044Z</time></trkpt><trkpt lat="33.4035444" lon="8.3369528"><ele>25.0</ele><time>2026-04-12T11:46:32.044Z</time></trkpt><trkpt lat="33.4032542" lon="8.3411274"><ele>24.0</ele><time>2026-04-12T11:46:51.047Z</time></trkpt><trkpt lat="33.4029543" lon="8.3452024"><ele>23.0</ele><time>2026-04-12T11:47:08.044Z</time></trkpt><trkpt lat="33.4025874" lon="8.3501371"><ele>24.0</ele><time>2026-04-12T11:47:30.048Z</time></trkpt><trkpt lat="33.4023035" lon="8.3542631"><ele>25.0</ele><time>2026-04-12T11:47:49.051Z</time></trkpt><trkpt lat="33.4020473" lon="8.3584647"><ele>23.0</ele><time>2026-04-12T11:48:06.045Z</time></trkpt><trkpt lat="33.4016972" lon="8.3626799"><ele>25.0</ele><time>2026-04-12T11:48:24.048Z</time></trkpt><trkpt lat="33.4013997" lon="8.3668161"><ele>25.0</ele><time>2026-04-12T11:48:42.044Z</time></trkpt><trkpt lat="33.4011052" lon="8.3709737"><ele>26.0</ele><time>2026-04-12T11:49:00.055Z</time></trkpt><trkpt lat="33.4007816" lon="8.3750393"><ele>22.0</ele><time>2026-04-12T11:49:18.05Z</time></trkpt><trkpt lat="33.4004957" lon="8.3792694"><ele>23.0</ele><time>2026-04-12T11:49:37.048Z</time></trkpt><trkpt lat="33.4002319" lon="8.383495"><ele>22.0</ele><time>2026-04-12T11:49:57.044Z</time></trkpt><trkpt lat="33.3999048" lon="8.3875486"><ele>23.0</ele><time>2026-04-12T11:50:15.046Z</time></trkpt><trkpt lat="33.3996224" lon="8.3917133"><ele>24.0</ele><time>2026-04-12T11:50:32.954Z</time></trkpt><trkpt lat="33.3993314" lon="8.3957475"><ele>24.0</ele><time>2026-04-12T11:50:49.961Z</time></trkpt><trkpt lat="33.3989547" lon="8.4007769"><ele>26.0</ele><time>2026-04-12T11:51:10.954Z</time></trkpt><trkpt lat="33.3987187" lon="8.404894"><ele>22.0</ele><time>2026-04-12T11:51:29.955Z</time></trkpt><trkpt lat="33.3984212" lon="8.408947"><ele>26.0</ele><time>2026-04-12T11:51:46.961Z</time></trkpt><trkpt lat="33.3980273" lon="8.4139041"><ele>27.0</ele><time>2026-04-12T11:52:07.954Z</time></trkpt><trkpt lat="33.3977252" lon="8.4179473"><ele>22.0</ele><time>2026-04-12T11:52:25.957Z</time></trkpt><trkpt lat="33.3974102" lon="8.4222365"><ele>22.0</ele><time>2026-04-12T11:52:42.955Z</time></trkpt><trkpt lat="33.3970654" lon="8.4272525"><ele>22.0</ele><time>2026-04-12T11:53:03.956Z</time></trkpt><trkpt lat="33.3976607" lon="8.4313422"><ele>27.0</ele><time>2026-04-12T11:53:21.963Z</time></trkpt><trkpt lat="33.3987828" lon="8.4362288"><ele>20.0</ele><time>2026-04-12T11:53:42.962Z</time></trkpt><trkpt lat="33.3998404" lon="8.4411114"><ele>21.0</ele><time>2026-04-12T11:54:02.958Z</time></trkpt><trkpt lat="33.4008684" lon="8.4459622"><ele>23.0</ele><time>2026-04-12T11:54:24.963Z</time></trkpt><trkpt lat="33.4017211" lon="8.4499825"><ele>21.0</ele><time>2026-04-12T11:54:43.965Z</time></trkpt><trkpt lat="33.4026277" lon="8.4540082"><ele>26.0</ele><time>2026-04-12T11:54:59.056Z</time></trkpt><trkpt lat="33.4036937" lon="8.4588506"><ele>25.0</ele><time>2026-04-12T11:55:21.067Z</time></trkpt><trkpt lat="33.4043179" lon="8.4628711"><ele>23.0</ele><time>2026-04-12T11:55:37.063Z</time></trkpt><trkpt lat="33.4044801" lon="8.4678521"><ele>21.0</ele><time>2026-04-12T11:56:00.054Z</time></trkpt><trkpt lat="33.4049194" lon="8.4720478"><ele>22.0</ele><time>2026-04-12T11:56:18.061Z</time></trkpt><trkpt lat="33.4057044" lon="8.4760507"><ele>21.0</ele><time>2026-04-12T11:56:35.052Z</time></trkpt><trkpt lat="33.4070854" lon="8.4806222"><ele>21.0</ele><time>2026-04-12T11:56:55.076Z</time></trkpt><trkpt lat="33.4083583" lon="8.4845133"><ele>21.0</ele><time>2026-04-12T11:57:11.06Z</time></trkpt><trkpt lat="33.4096425" lon="8.4900518"><ele>20.0</ele><time>2026-04-12T11:57:32.07Z</time></trkpt><trkpt lat="33.4113241" lon="8.4945813"><ele>21.0</ele><time>2026-04-12T11:57:52.081Z</time></trkpt><trkpt lat="33.4131305" lon="8.4991434"><ele>19.0</ele><time>2026-04-12T11:58:14.075Z</time></trkpt><trkpt lat="33.4146316" lon="8.5028217"><ele>19.0</ele><time>2026-04-12T11:58:33.078Z</time></trkpt><trkpt lat="33.4161536" lon="8.5066195"><ele>19.0</ele><time>2026-04-12T11:58:51.079Z</time></trkpt><trkpt lat="33.4176108" lon="8.510285"><ele>19.0</ele><time>2026-04-12T11:59:08.072Z</time></trkpt><trkpt lat="33.4191284" lon="8.5140273"><ele>19.0</ele><time>2026-04-12T11:59:25.079Z</time></trkpt><trkpt lat="33.4208851" lon="8.5184963"><ele>19.0</ele><time>2026-04-12T11:59:46.08Z</time></trkpt><trkpt lat="33.4223855" lon="8.5222403"><ele>20.0</ele><time>2026-04-12T12:00:02.076Z</time></trkpt><trkpt lat="33.4241605" lon="8.5267266"><ele>19.0</ele><time>2026-04-12T12:00:21.063Z</time></trkpt><trkpt lat="33.4256194" lon="8.5306007"><ele>18.0</ele><time>2026-04-12T12:00:38.061Z</time></trkpt><trkpt lat="33.4262104" lon="8.5354715"><ele>18.0</ele><time>2026-04-12T12:00:59.051Z</time></trkpt><trkpt lat="33.4264965" lon="8.5397214"><ele>19.0</ele><time>2026-04-12T12:01:18.057Z</time></trkpt><trkpt lat="33.4269667" lon="8.5446637"><ele>19.0</ele><time>2026-04-12T12:01:37.046Z</time></trkpt><trkpt lat="33.4274648" lon="8.5495908"><ele>19.0</ele><time>2026-04-12T12:01:58.056Z</time></trkpt><trkpt lat="33.4279314" lon="8.5536351"><ele>20.0</ele><time>2026-04-12T12:02:16.056Z</time></trkpt><trkpt lat="33.4285257" lon="8.5585106"><ele>18.0</ele><time>2026-04-12T12:02:36.053Z</time></trkpt><trkpt lat="33.4291195" lon="8.5633294"><ele>19.0</ele><time>2026-04-12T12:02:56.043Z</time></trkpt><trkpt lat="33.4296903" lon="8.5681598"><ele>19.0</ele><time>2026-04-12T12:03:16.053Z</time></trkpt><trkpt lat="33.4302109" lon="8.5722424"><ele>18.0</ele><time>2026-04-12T12:03:33.059Z</time></trkpt><trkpt lat="33.4308266" lon="8.5772128"><ele>19.0</ele><time>2026-04-12T12:03:53.066Z</time></trkpt><trkpt lat="33.4314816" lon="8.5821276"><ele>19.0</ele><time>2026-04-12T12:04:13.058Z</time></trkpt><trkpt lat="33.432111" lon="8.5869595"><ele>19.0</ele><time>2026-04-12T12:04:32.052Z</time></trkpt><trkpt lat="33.4328083" lon="8.5919518"><ele>19.0</ele><time>2026-04-12T12:04:50.037Z</time></trkpt><trkpt lat="33.4334628" lon="8.5969781"><ele>17.0</ele><time>2026-04-12T12:05:10.033Z</time></trkpt><trkpt lat="33.4347695" lon="8.6016576"><ele>19.0</ele><time>2026-04-12T12:05:29.049Z</time></trkpt><trkpt lat="33.4363383" lon="8.6062881"><ele>18.0</ele><time>2026-04-12T12:05:49.048Z</time></trkpt><trkpt lat="33.4381993" lon="8.6106215"><ele>19.0</ele><time>2026-04-12T12:06:08.041Z</time></trkpt><trkpt lat="33.439787" lon="8.6152321"><ele>19.0</ele><time>2026-04-12T12:06:27.043Z</time></trkpt><trkpt lat="33.4411562" lon="8.6198423"><ele>20.0</ele><time>2026-04-12T12:06:46.05Z</time></trkpt><trkpt lat="33.4423384" lon="8.6237202"><ele>19.0</ele><time>2026-04-12T12:07:02.049Z</time></trkpt><trkpt lat="33.4441127" lon="8.6281514"><ele>19.0</ele><time>2026-04-12T12:07:24.041Z</time></trkpt><trkpt lat="33.4449092" lon="8.6321394"><ele>19.0</ele><time>2026-04-12T12:07:42.047Z</time></trkpt><trkpt lat="33.4416725" lon="8.6337098"><ele>19.0</ele><time>2026-04-12T12:08:15.053Z</time></trkpt><trkpt lat="33.4382652" lon="8.6337703"><ele>18.0</ele><time>2026-04-12T12:08:34.051Z</time></trkpt><trkpt lat="33.4348839" lon="8.6338309"><ele>20.0</ele><time>2026-04-12T12:08:53.057Z</time></trkpt><trkpt lat="33.4314231" lon="8.6341198"><ele>17.0</ele><time>2026-04-12T12:09:12.055Z</time></trkpt><trkpt lat="33.4279865" lon="8.6344598"><ele>20.0</ele><time>2026-04-12T12:09:31.047Z</time></trkpt><trkpt lat="33.4244965" lon="8.634577"><ele>18.0</ele><time>2026-04-12T12:09:51.038Z</time></trkpt><trkpt lat="33.421053" lon="8.6345632"><ele>18.0</ele><time>2026-04-12T12:10:11.039Z</time></trkpt><trkpt lat="33.4176338" lon="8.6337865"><ele>18.0</ele><time>2026-04-12T12:10:30.039Z</time></trkpt><trkpt lat="33.4142635" lon="8.6328331"><ele>19.0</ele><time>2026-04-12T12:10:47.04Z</time></trkpt><trkpt lat="33.4101542" lon="8.6316711"><ele>18.0</ele><time>2026-04-12T12:11:05.036Z</time></trkpt><trkpt lat="33.4055192" lon="8.6303166"><ele>19.0</ele><time>2026-04-12T12:11:26.03Z</time></trkpt><trkpt lat="33.4016728" lon="8.6286294"><ele>19.0</ele><time>2026-04-12T12:11:46.028Z</time></trkpt><trkpt lat="33.3986986" lon="8.6263731"><ele>18.0</ele><time>2026-04-12T12:12:06.028Z</time></trkpt><trkpt lat="33.395795" lon="8.6241992"><ele>21.0</ele><time>2026-04-12T12:12:25.036Z</time></trkpt><trkpt lat="33.3928338" lon="8.622207"><ele>14.0</ele><time>2026-04-12T12:12:43.023Z</time></trkpt><trkpt lat="33.3896513" lon="8.6204261"><ele>19.0</ele><time>2026-04-12T12:13:05.032Z</time></trkpt><trkpt lat="33.3870643" lon="8.6194681"><ele>19.0</ele><time>2026-04-12T12:13:26.021Z</time></trkpt><trkpt lat="33.3843879" lon="8.6200148"><ele>20.0</ele><time>2026-04-12T12:13:46.026Z</time></trkpt><trkpt lat="33.3817696" lon="8.6213494"><ele>20.0</ele><time>2026-04-12T12:14:05.028Z</time></trkpt><trkpt lat="33.3792567" lon="8.62421"><ele>22.0</ele><time>2026-04-12T12:14:24.025Z</time></trkpt><trkpt lat="33.3768114" lon="8.6271371"><ele>19.0</ele><time>2026-04-12T12:14:46.03Z</time></trkpt><trkpt lat="33.3750021" lon="8.6296337"><ele>22.0</ele><time>2026-04-12T12:15:04.036Z</time></trkpt><trkpt lat="33.3728091" lon="8.6327891"><ele>27.0</ele><time>2026-04-12T12:15:23.029Z</time></trkpt><trkpt lat="33.3705824" lon="8.6359039"><ele>29.0</ele><time>2026-04-12T12:15:41.031Z</time></trkpt><trkpt lat="33.3684935" lon="8.6391137"><ele>33.0</ele><time>2026-04-12T12:16:02.03Z</time></trkpt><trkpt lat="33.3678302" lon="8.6431262"><ele>31.0</ele><time>2026-04-12T12:16:27.052Z</time></trkpt><trkpt lat="33.3677846" lon="8.6456124"><ele>31.0</ele><time>2026-04-12T12:17:00.062Z</time></trkpt><trkpt lat="33.3677527" lon="8.6489978"><ele>35.0</ele><time>2026-04-12T12:17:19.037Z</time></trkpt><trkpt lat="33.367671" lon="8.6531644"><ele>38.0</ele><time>2026-04-12T12:17:39.038Z</time></trkpt><trkpt lat="33.3672522" lon="8.6572301"><ele>38.0</ele><time>2026-04-12T12:17:57.044Z</time></trkpt><trkpt lat="33.3663859" lon="8.661378"><ele>41.0</ele><time>2026-04-12T12:18:14.039Z</time></trkpt><trkpt lat="33.3638901" lon="8.6652397"><ele>44.0</ele><time>2026-04-12T12:18:35.037Z</time></trkpt><trkpt lat="33.3605408" lon="8.6680822"><ele>47.0</ele><time>2026-04-12T12:19:02.027Z</time></trkpt><trkpt lat="33.3588748" lon="8.66958"><ele>48.0</ele><time>2026-04-12T12:19:18.016Z</time></trkpt><trkpt lat="33.356988" lon="8.6720309"><ele>52.0</ele><time>2026-04-12T12:19:47.037Z</time></trkpt><trkpt lat="33.3556281" lon="8.673888"><ele>49.0</ele><time>2026-04-12T12:20:07.033Z</time></trkpt><trkpt lat="33.3549301" lon="8.6761725"><ele>50.0</ele><time>2026-04-12T12:20:48.037Z</time></trkpt><trkpt lat="33.3562418" lon="8.6765977"><ele>51.0</ele><time>2026-04-12T13:26:20.943Z</time></trkpt><trkpt lat="33.3577251" lon="8.6793786"><ele>52.0</ele><time>2026-04-12T13:26:42.955Z</time></trkpt><trkpt lat="33.3599505" lon="8.6812198"><ele>56.0</ele><time>2026-04-12T13:27:02.943Z</time></trkpt><trkpt lat="33.3619124" lon="8.6845399"><ele>56.0</ele><time>2026-04-12T13:27:24.96Z</time></trkpt><trkpt lat="33.3621924" lon="8.6887447"><ele>54.0</ele><time>2026-04-12T13:27:44.961Z</time></trkpt><trkpt lat="33.361831" lon="8.6928704"><ele>51.0</ele><time>2026-04-12T13:28:04.953Z</time></trkpt><trkpt lat="33.3611595" lon="8.6968959"><ele>50.0</ele><time>2026-04-12T13:28:24.961Z</time></trkpt><trkpt lat="33.3606723" lon="8.7002362"><ele>47.0</ele><time>2026-04-12T13:28:41.966Z</time></trkpt><trkpt lat="33.3599793" lon="8.7043805"><ele>47.0</ele><time>2026-04-12T13:29:00.963Z</time></trkpt><trkpt lat="33.3593658" lon="8.7083445"><ele>47.0</ele><time>2026-04-12T13:29:18.969Z</time></trkpt><trkpt lat="33.3587482" lon="8.7124907"><ele>46.0</ele><time>2026-04-12T13:29:37.972Z</time></trkpt><trkpt lat="33.359923" lon="8.7164427"><ele>49.0</ele><time>2026-04-12T13:29:56.96Z</time></trkpt><trkpt lat="33.3627044" lon="8.7200661"><ele>44.0</ele><time>2026-04-12T13:30:15.936Z</time></trkpt><trkpt lat="33.3655966" lon="8.7237748"><ele>44.0</ele><time>2026-04-12T13:30:34.958Z</time></trkpt><trkpt lat="33.3675932" lon="8.7280522"><ele>42.0</ele><time>2026-04-12T13:30:57.02Z</time></trkpt><trkpt lat="33.3706795" lon="8.731286"><ele>44.0</ele><time>2026-04-12T13:31:18.04Z</time></trkpt><trkpt lat="33.3734049" lon="8.733976"><ele>46.0</ele><time>2026-04-12T13:31:36.046Z</time></trkpt><trkpt lat="33.3770619" lon="8.7365355"><ele>44.0</ele><time>2026-04-12T13:31:58.047Z</time></trkpt><trkpt lat="33.3809802" lon="8.738227"><ele>45.0</ele><time>2026-04-12T13:32:19.041Z</time></trkpt><trkpt lat="33.3842163" lon="8.739398"><ele>40.0</ele><time>2026-04-12T13:32:36.04Z</time></trkpt><trkpt lat="33.3882449" lon="8.7409226"><ele>37.0</ele><time>2026-04-12T13:32:57.05Z</time></trkpt><trkpt lat="33.3915418" lon="8.7422986"><ele>33.0</ele><time>2026-04-12T13:33:15.043Z</time></trkpt><trkpt lat="33.3947426" lon="8.7441229"><ele>32.0</ele><time>2026-04-12T13:33:33.04Z</time></trkpt><trkpt lat="33.3979455" lon="8.7458317"><ele>27.0</ele><time>2026-04-12T13:33:51.047Z</time></trkpt><trkpt lat="33.4012356" lon="8.7473655"><ele>23.0</ele><time>2026-04-12T13:34:10.041Z</time></trkpt><trkpt lat="33.4038835" lon="8.7501972"><ele>23.0</ele><time>2026-04-12T13:34:27.035Z</time></trkpt><trkpt lat="33.4062727" lon="8.7533099"><ele>23.0</ele><time>2026-04-12T13:34:46.037Z</time></trkpt><trkpt lat="33.4082678" lon="8.7567973"><ele>22.0</ele><time>2026-04-12T13:35:03.041Z</time></trkpt><trkpt lat="33.4103492" lon="8.7611042"><ele>21.0</ele><time>2026-04-12T13:35:24.036Z</time></trkpt><trkpt lat="33.4117532" lon="8.7649427"><ele>21.0</ele><time>2026-04-12T13:35:42.038Z</time></trkpt><trkpt lat="33.41317" lon="8.7686046"><ele>22.0</ele><time>2026-04-12T13:36:00.039Z</time></trkpt><trkpt lat="33.4148856" lon="8.7723535"><ele>18.0</ele><time>2026-04-12T13:36:18.037Z</time></trkpt><trkpt lat="33.4170118" lon="8.7766956"><ele>22.0</ele><time>2026-04-12T13:36:38.037Z</time></trkpt><trkpt lat="33.418834" lon="8.7801664"><ele>21.0</ele><time>2026-04-12T13:36:56.034Z</time></trkpt><trkpt lat="33.4207689" lon="8.7835445"><ele>21.0</ele><time>2026-04-12T13:37:13.038Z</time></trkpt><trkpt lat="33.4226082" lon="8.7878601"><ele>23.0</ele><time>2026-04-12T13:37:32.037Z</time></trkpt><trkpt lat="33.4244468" lon="8.7922354"><ele>21.0</ele><time>2026-04-12T13:37:52.036Z</time></trkpt><trkpt lat="33.4257779" lon="8.7961242"><ele>24.0</ele><time>2026-04-12T13:38:09.041Z</time></trkpt><trkpt lat="33.4271792" lon="8.8008708"><ele>29.0</ele><time>2026-04-12T13:38:29.034Z</time></trkpt><trkpt lat="33.4282491" lon="8.8049045"><ele>30.0</ele><time>2026-04-12T13:38:46.032Z</time></trkpt><trkpt lat="33.4291637" lon="8.8097847"><ele>32.0</ele><time>2026-04-12T13:39:07.02Z</time></trkpt><trkpt lat="33.4299636" lon="8.8138035"><ele>38.0</ele><time>2026-04-12T13:39:31.036Z</time></trkpt><trkpt lat="33.4306666" lon="8.8170259"><ele>42.0</ele><time>2026-04-12T13:39:51.04Z</time></trkpt><trkpt lat="33.4312785" lon="8.8211"><ele>40.0</ele><time>2026-04-12T13:40:12.026Z</time></trkpt><trkpt lat="33.4317216" lon="8.8252558"><ele>35.0</ele><time>2026-04-12T13:40:30.033Z</time></trkpt><trkpt lat="33.4319551" lon="8.8302544"><ele>31.0</ele><time>2026-04-12T13:40:49.037Z</time></trkpt><trkpt lat="33.4321766" lon="8.8351032"><ele>29.0</ele><time>2026-04-12T13:41:10.04Z</time></trkpt><trkpt lat="33.4346181" lon="8.8390189"><ele>27.0</ele><time>2026-04-12T13:41:28.039Z</time></trkpt><trkpt lat="33.4374508" lon="8.8427394"><ele>25.0</ele><time>2026-04-12T13:41:48.044Z</time></trkpt><trkpt lat="33.4400312" lon="8.8466058"><ele>26.0</ele><time>2026-04-12T13:42:07.038Z</time></trkpt><trkpt lat="33.4422904" lon="8.850716"><ele>29.0</ele><time>2026-04-12T13:42:27.033Z</time></trkpt><trkpt lat="33.4450656" lon="8.8545413"><ele>27.0</ele><time>2026-04-12T13:42:48.035Z</time></trkpt><trkpt lat="33.4468631" lon="8.8582522"><ele>31.0</ele><time>2026-04-12T13:43:05.023Z</time></trkpt><trkpt lat="33.4486559" lon="8.8627382"><ele>32.0</ele><time>2026-04-12T13:43:24.027Z</time></trkpt><trkpt lat="33.4504617" lon="8.8671336"><ele>38.0</ele><time>2026-04-12T13:43:43.022Z</time></trkpt><trkpt lat="33.4525596" lon="8.871469"><ele>34.0</ele><time>2026-04-12T13:44:03.025Z</time></trkpt><trkpt lat="33.4547349" lon="8.875581"><ele>28.0</ele><time>2026-04-12T13:44:22.024Z</time></trkpt><trkpt lat="33.4554152" lon="8.8803989"><ele>34.0</ele><time>2026-04-12T13:44:41.029Z</time></trkpt><trkpt lat="33.4533243" lon="8.8847158"><ele>31.0</ele><time>2026-04-12T13:45:02.026Z</time></trkpt><trkpt lat="33.4513494" lon="8.888258"><ele>32.0</ele><time>2026-04-12T13:45:20.03Z</time></trkpt><trkpt lat="33.4492326" lon="8.8925777"><ele>31.0</ele><time>2026-04-12T13:45:40.026Z</time></trkpt><trkpt lat="33.4475764" lon="8.8961561"><ele>37.0</ele><time>2026-04-12T13:45:58.037Z</time></trkpt><trkpt lat="33.4459118" lon="8.899795"><ele>38.0</ele><time>2026-04-12T13:46:17.031Z</time></trkpt><trkpt lat="33.4442122" lon="8.9034051"><ele>39.0</ele><time>2026-04-12T13:46:34.026Z</time></trkpt><trkpt lat="33.4425639" lon="8.9079747"><ele>44.0</ele><time>2026-04-12T13:46:53.026Z</time></trkpt><trkpt lat="33.4430204" lon="8.9127842"><ele>49.0</ele><time>2026-04-12T13:47:17.016Z</time></trkpt><trkpt lat="33.4438347" lon="8.9159248"><ele>46.0</ele><time>2026-04-12T13:47:36.019Z</time></trkpt><trkpt lat="33.443181" lon="8.9190975"><ele>43.0</ele><time>2026-04-12T13:47:55.98Z</time></trkpt><trkpt lat="33.4439895" lon="8.9222035"><ele>39.0</ele><time>2026-04-12T13:48:16.001Z</time></trkpt><trkpt lat="33.4457029" lon="8.9247264"><ele>40.0</ele><time>2026-04-12T13:48:38.916Z</time></trkpt><trkpt lat="33.4485034" lon="8.9250609"><ele>39.0</ele><time>2026-04-12T13:49:00.935Z</time></trkpt><trkpt lat="33.45121" lon="8.9253579"><ele>40.0</ele><time>2026-04-12T13:49:18.94Z</time></trkpt><trkpt lat="33.4547136" lon="8.9257078"><ele>39.0</ele><time>2026-04-12T13:49:38.944Z</time></trkpt><trkpt lat="33.4574567" lon="8.9282564"><ele>40.0</ele><time>2026-04-12T13:49:59.93Z</time></trkpt><trkpt lat="33.4596221" lon="8.9315547"><ele>37.0</ele><time>2026-04-12T13:50:18.919Z</time></trkpt><trkpt lat="33.4616535" lon="8.9348766"><ele>37.0</ele><time>2026-04-12T13:50:35.922Z</time></trkpt><trkpt lat="33.4635428" lon="8.9393788"><ele>39.0</ele><time>2026-04-12T13:50:55.929Z</time></trkpt><trkpt lat="33.4665162" lon="8.9429413"><ele>37.0</ele><time>2026-04-12T13:51:16.018Z</time></trkpt><trkpt lat="33.4691951" lon="8.9467535"><ele>40.0</ele><time>2026-04-12T13:51:36.005Z</time></trkpt><trkpt lat="33.4727094" lon="8.9496068"><ele>38.0</ele><time>2026-04-12T13:51:57.021Z</time></trkpt><trkpt lat="33.47553" lon="8.9518905"><ele>38.0</ele><time>2026-04-12T13:52:14.029Z</time></trkpt><trkpt lat="33.4761149" lon="8.955949"><ele>41.0</ele><time>2026-04-12T13:52:37.001Z</time></trkpt><trkpt lat="33.4751889" lon="8.9599092"><ele>43.0</ele><time>2026-04-12T13:52:55.017Z</time></trkpt><trkpt lat="33.474017" lon="8.963901"><ele>43.0</ele><time>2026-04-12T13:53:15.021Z</time></trkpt><trkpt lat="33.4732004" lon="8.967945"><ele>45.0</ele><time>2026-04-12T13:53:34.012Z</time></trkpt><trkpt lat="33.4721928" lon="8.9718406"><ele>43.0</ele><time>2026-04-12T13:53:52.006Z</time></trkpt><trkpt lat="33.4706951" lon="8.9754848"><ele>41.0</ele><time>2026-04-12T13:54:12.009Z</time></trkpt><trkpt lat="33.4692305" lon="8.9784107"><ele>41.0</ele><time>2026-04-12T13:54:30.011Z</time></trkpt><trkpt lat="33.4675993" lon="8.9820306"><ele>42.0</ele><time>2026-04-12T13:54:46.004Z</time></trkpt><trkpt lat="33.4659325" lon="8.9856382"><ele>47.0</ele><time>2026-04-12T13:55:04.011Z</time></trkpt><trkpt lat="33.4642621" lon="8.9892938"><ele>45.0</ele><time>2026-04-12T13:55:21.999Z</time></trkpt><trkpt lat="33.4630481" lon="8.9931632"><ele>48.0</ele><time>2026-04-12T13:55:39.005Z</time></trkpt><trkpt lat="33.4617302" lon="8.9979335"><ele>49.0</ele><time>2026-04-12T13:56:00.001Z</time></trkpt><trkpt lat="33.4603439" lon="9.0017415"><ele>51.0</ele><time>2026-04-12T13:56:18.014Z</time></trkpt><trkpt lat="33.4587987" lon="9.0053571"><ele>54.0</ele><time>2026-04-12T13:56:36.011Z</time></trkpt><trkpt lat="33.4571965" lon="9.0090779"><ele>55.0</ele><time>2026-04-12T13:56:58.017Z</time></trkpt><trkpt lat="33.456957" lon="9.012326"><ele>62.0</ele><time>2026-04-12T13:57:16Z</time></trkpt><trkpt lat="33.4569453" lon="9.0155958"><ele>75.0</ele><time>2026-04-12T13:57:39.999Z</time></trkpt><trkpt lat="33.4568684" lon="9.0189029"><ele>71.0</ele><time>2026-04-12T13:58:03Z</time></trkpt><trkpt lat="33.4562148" lon="9.0213168"><ele>68.0</ele><time>2026-04-12T13:58:23.013Z</time></trkpt><trkpt lat="33.4566047" lon="9.0237324"><ele>71.0</ele><time>2026-04-12T13:58:51.004Z</time></trkpt><trkpt lat="33.457451" lon="9.0250171"><ele>72.0</ele><time>2026-04-12T13:59:32.019Z</time></trkpt><trkpt lat="33.4594502" lon="9.0245945"><ele>69.0</ele><time>2026-04-12T13:59:48.008Z</time></trkpt><trkpt lat="33.4621403" lon="9.0240396"><ele>66.0</ele><time>2026-04-12T14:00:07.99Z</time></trkpt><trkpt lat="33.4648631" lon="9.0238057"><ele>69.0</ele><time>2026-04-12T14:00:24.997Z</time></trkpt><trkpt lat="33.4620784" lon="9.0239256"><ele>72.0</ele><time>2026-04-12T14:20:00.933Z</time></trkpt><trkpt lat="33.4592829" lon="9.0246375"><ele>69.0</ele><time>2026-04-12T14:20:20.933Z</time></trkpt><trkpt lat="33.4565524" lon="9.0247215"><ele>70.0</ele><time>2026-04-12T14:20:55.997Z</time></trkpt><trkpt lat="33.4559787" lon="9.0240405"><ele>70.0</ele><time>2026-04-12T14:30:49.215Z</time></trkpt></trkseg></trk></gpx>